<?xml version="1.0" encoding="UTF-8" standalone="no" ?>
<gpx xmlns="http://www.topografix.com/GPX/1/1" xmlns:xsi="http://www.w3.org/2001/XMLSchema-instance" xsi:schemaLocation="http://www.topografix.com/GPX/1/1 http://www.topografix.com/GPX/1/1/gpx.xsd" version="1.1" creator="VisuGPX - https://www.visugpx.com">
  <metadata>
    <name>2017-10-20 Bike ride VTT-Amberieux Les Cheres O</name>
    <desc><![CDATA[2017-10-20 Bike ride VTT-Amberieux Les Cheres O]]></desc>
  </metadata>
  <wpt lat="45.92453" lon="4.73714">
    <ele>174</ele>
    <name><![CDATA[2017-10-20 11:18 (Start)]]></name>
  </wpt>
  <wpt lat="45.92461" lon="4.73713">
    <ele>174</ele>
    <name><![CDATA[2017-10-20 11:18 (End)]]></name>
    <desc><![CDATA[Created by Google My Tracks on Android  Name: 2017-10-20 11:18 Activity type: biking Description: - Total distance: 22.01 km (13.7 mi) Total time: 1:31:41 Moving time: 1:31:01 Average speed: 14.40 km/h (8.9 mi/h) Average moving speed: 14.51 km/h (9.0 mi/h) Max speed: 36.68 km/h (22.8 mi/h) Average pace: 4:10 min/km (6:42 min/mi) Average moving pace: 4:08 min/km (6:39 min/mi) Fastest pace: 1:38 min/km (2:38 min/mi) Max elevation: 259 m (850 ft) Min elevation: 210 m (688 ft) Elevation gain: 249 m (816 ft) Max grade: 10 % Min grade: -10 % Recorded: 20/10/2017 11:18]]></desc>
  </wpt>
  <trk>
    <name><![CDATA[2017-10-20 11:18]]></name>
    <trkseg>
      <trkpt lat="45.92453" lon="4.73714">
        <ele>174</ele>
        <time>2017-10-20T09:18:43.419Z</time>
      </trkpt>
      <trkpt lat="45.9246" lon="4.73709">
        <ele>174</ele>
        <time>2017-10-20T09:18:45.388Z</time>
      </trkpt>
      <trkpt lat="45.92462" lon="4.7371">
        <ele>174</ele>
        <time>2017-10-20T09:18:46.389Z</time>
      </trkpt>
      <trkpt lat="45.92461" lon="4.73713">
        <ele>174</ele>
        <time>2017-10-20T09:18:47.387Z</time>
      </trkpt>
      <trkpt lat="45.92461" lon="4.73717">
        <ele>174</ele>
        <time>2017-10-20T09:18:48.39Z</time>
      </trkpt>
      <trkpt lat="45.92464" lon="4.73714">
        <ele>174</ele>
        <time>2017-10-20T09:18:51Z</time>
      </trkpt>
      <trkpt lat="45.92463" lon="4.73714">
        <ele>174</ele>
        <time>2017-10-20T09:18:52Z</time>
      </trkpt>
      <trkpt lat="45.92466" lon="4.73705">
        <ele>174</ele>
        <time>2017-10-20T09:19:03Z</time>
      </trkpt>
      <trkpt lat="45.92467" lon="4.73701">
        <ele>174</ele>
        <time>2017-10-20T09:19:04Z</time>
      </trkpt>
      <trkpt lat="45.92468" lon="4.73688">
        <ele>174</ele>
        <time>2017-10-20T09:19:07Z</time>
      </trkpt>
      <trkpt lat="45.92468" lon="4.73684">
        <ele>174</ele>
        <time>2017-10-20T09:19:08Z</time>
      </trkpt>
      <trkpt lat="45.92468" lon="4.73674">
        <ele>174</ele>
        <time>2017-10-20T09:19:10Z</time>
      </trkpt>
      <trkpt lat="45.92469" lon="4.7367">
        <ele>174</ele>
        <time>2017-10-20T09:19:11Z</time>
      </trkpt>
      <trkpt lat="45.9247" lon="4.73661">
        <ele>174</ele>
        <time>2017-10-20T09:19:13Z</time>
      </trkpt>
      <trkpt lat="45.92471" lon="4.73657">
        <ele>174</ele>
        <time>2017-10-20T09:19:14Z</time>
      </trkpt>
      <trkpt lat="45.92473" lon="4.73648">
        <ele>174</ele>
        <time>2017-10-20T09:19:16Z</time>
      </trkpt>
      <trkpt lat="45.92474" lon="4.73644">
        <ele>174</ele>
        <time>2017-10-20T09:19:17Z</time>
      </trkpt>
      <trkpt lat="45.92479" lon="4.73637">
        <ele>174</ele>
        <time>2017-10-20T09:19:19Z</time>
      </trkpt>
      <trkpt lat="45.92483" lon="4.73635">
        <ele>174</ele>
        <time>2017-10-20T09:19:20Z</time>
      </trkpt>
      <trkpt lat="45.92491" lon="4.73634">
        <ele>174</ele>
        <time>2017-10-20T09:19:22Z</time>
      </trkpt>
      <trkpt lat="45.92496" lon="4.73634">
        <ele>174</ele>
        <time>2017-10-20T09:19:23Z</time>
      </trkpt>
      <trkpt lat="45.925" lon="4.73635">
        <ele>174</ele>
        <time>2017-10-20T09:19:24Z</time>
      </trkpt>
      <trkpt lat="45.92506" lon="4.73635">
        <ele>174</ele>
        <time>2017-10-20T09:19:25Z</time>
      </trkpt>
      <trkpt lat="45.92514" lon="4.73637">
        <ele>173</ele>
        <time>2017-10-20T09:19:27Z</time>
      </trkpt>
      <trkpt lat="45.92519" lon="4.73637">
        <ele>173</ele>
        <time>2017-10-20T09:19:28Z</time>
      </trkpt>
      <trkpt lat="45.92523" lon="4.73636">
        <ele>173</ele>
        <time>2017-10-20T09:19:29Z</time>
      </trkpt>
      <trkpt lat="45.92529" lon="4.73637">
        <ele>173</ele>
        <time>2017-10-20T09:19:30Z</time>
      </trkpt>
      <trkpt lat="45.92537" lon="4.73636">
        <ele>173</ele>
        <time>2017-10-20T09:19:32Z</time>
      </trkpt>
      <trkpt lat="45.92541" lon="4.73635">
        <ele>173</ele>
        <time>2017-10-20T09:19:33Z</time>
      </trkpt>
      <trkpt lat="45.92549" lon="4.73633">
        <ele>173</ele>
        <time>2017-10-20T09:19:35Z</time>
      </trkpt>
      <trkpt lat="45.92553" lon="4.73633">
        <ele>173</ele>
        <time>2017-10-20T09:19:36Z</time>
      </trkpt>
      <trkpt lat="45.92562" lon="4.7363">
        <ele>173</ele>
        <time>2017-10-20T09:19:38Z</time>
      </trkpt>
      <trkpt lat="45.92566" lon="4.73629">
        <ele>173</ele>
        <time>2017-10-20T09:19:39Z</time>
      </trkpt>
      <trkpt lat="45.92575" lon="4.73626">
        <ele>173</ele>
        <time>2017-10-20T09:19:41Z</time>
      </trkpt>
      <trkpt lat="45.92579" lon="4.73624">
        <ele>173</ele>
        <time>2017-10-20T09:19:42Z</time>
      </trkpt>
      <trkpt lat="45.92584" lon="4.73624">
        <ele>172</ele>
        <time>2017-10-20T09:19:43Z</time>
      </trkpt>
      <trkpt lat="45.92588" lon="4.73622">
        <ele>173</ele>
        <time>2017-10-20T09:19:44Z</time>
      </trkpt>
      <trkpt lat="45.92593" lon="4.73622">
        <ele>173</ele>
        <time>2017-10-20T09:19:45Z</time>
      </trkpt>
      <trkpt lat="45.92598" lon="4.73622">
        <ele>173</ele>
        <time>2017-10-20T09:19:46Z</time>
      </trkpt>
      <trkpt lat="45.92603" lon="4.73623">
        <ele>173</ele>
        <time>2017-10-20T09:19:47Z</time>
      </trkpt>
      <trkpt lat="45.92607" lon="4.73623">
        <ele>173</ele>
        <time>2017-10-20T09:19:48Z</time>
      </trkpt>
      <trkpt lat="45.92612" lon="4.73625">
        <ele>173</ele>
        <time>2017-10-20T09:19:49Z</time>
      </trkpt>
      <trkpt lat="45.92616" lon="4.73629">
        <ele>173</ele>
        <time>2017-10-20T09:19:50Z</time>
      </trkpt>
      <trkpt lat="45.92622" lon="4.73638">
        <ele>173</ele>
        <time>2017-10-20T09:19:52Z</time>
      </trkpt>
      <trkpt lat="45.92625" lon="4.73643">
        <ele>173</ele>
        <time>2017-10-20T09:19:53Z</time>
      </trkpt>
      <trkpt lat="45.92629" lon="4.73652">
        <ele>173</ele>
        <time>2017-10-20T09:19:55Z</time>
      </trkpt>
      <trkpt lat="45.92631" lon="4.73659">
        <ele>173</ele>
        <time>2017-10-20T09:19:56Z</time>
      </trkpt>
      <trkpt lat="45.92633" lon="4.73664">
        <ele>173</ele>
        <time>2017-10-20T09:19:57Z</time>
      </trkpt>
      <trkpt lat="45.92637" lon="4.7367">
        <ele>173</ele>
        <time>2017-10-20T09:19:58Z</time>
      </trkpt>
      <trkpt lat="45.9264" lon="4.73675">
        <ele>173</ele>
        <time>2017-10-20T09:19:59Z</time>
      </trkpt>
      <trkpt lat="45.92644" lon="4.7368">
        <ele>173</ele>
        <time>2017-10-20T09:20:00Z</time>
      </trkpt>
      <trkpt lat="45.92647" lon="4.73685">
        <ele>173</ele>
        <time>2017-10-20T09:20:01Z</time>
      </trkpt>
      <trkpt lat="45.92652" lon="4.73688">
        <ele>173</ele>
        <time>2017-10-20T09:20:02Z</time>
      </trkpt>
      <trkpt lat="45.92656" lon="4.73692">
        <ele>173</ele>
        <time>2017-10-20T09:20:03Z</time>
      </trkpt>
      <trkpt lat="45.92661" lon="4.73695">
        <ele>173</ele>
        <time>2017-10-20T09:20:04Z</time>
      </trkpt>
      <trkpt lat="45.92666" lon="4.73698">
        <ele>173</ele>
        <time>2017-10-20T09:20:05Z</time>
      </trkpt>
      <trkpt lat="45.92672" lon="4.73702">
        <ele>174</ele>
        <time>2017-10-20T09:20:06Z</time>
      </trkpt>
      <trkpt lat="45.92679" lon="4.73702">
        <ele>173</ele>
        <time>2017-10-20T09:20:07Z</time>
      </trkpt>
      <trkpt lat="45.92684" lon="4.73705">
        <ele>173</ele>
        <time>2017-10-20T09:20:08Z</time>
      </trkpt>
      <trkpt lat="45.9269" lon="4.73707">
        <ele>173</ele>
        <time>2017-10-20T09:20:09Z</time>
      </trkpt>
      <trkpt lat="45.92695" lon="4.73708">
        <ele>173</ele>
        <time>2017-10-20T09:20:10Z</time>
      </trkpt>
      <trkpt lat="45.927" lon="4.73709">
        <ele>173</ele>
        <time>2017-10-20T09:20:11Z</time>
      </trkpt>
      <trkpt lat="45.92706" lon="4.73711">
        <ele>173</ele>
        <time>2017-10-20T09:20:12Z</time>
      </trkpt>
      <trkpt lat="45.92711" lon="4.73712">
        <ele>173</ele>
        <time>2017-10-20T09:20:13Z</time>
      </trkpt>
      <trkpt lat="45.92716" lon="4.73714">
        <ele>173</ele>
        <time>2017-10-20T09:20:14Z</time>
      </trkpt>
      <trkpt lat="45.92721" lon="4.73714">
        <ele>173</ele>
        <time>2017-10-20T09:20:15Z</time>
      </trkpt>
      <trkpt lat="45.92726" lon="4.73716">
        <ele>173</ele>
        <time>2017-10-20T09:20:16Z</time>
      </trkpt>
      <trkpt lat="45.9273" lon="4.73717">
        <ele>173</ele>
        <time>2017-10-20T09:20:17Z</time>
      </trkpt>
      <trkpt lat="45.92735" lon="4.73718">
        <ele>173</ele>
        <time>2017-10-20T09:20:18Z</time>
      </trkpt>
      <trkpt lat="45.92741" lon="4.7372">
        <ele>173</ele>
        <time>2017-10-20T09:20:19Z</time>
      </trkpt>
      <trkpt lat="45.92747" lon="4.73719">
        <ele>173</ele>
        <time>2017-10-20T09:20:20Z</time>
      </trkpt>
      <trkpt lat="45.92752" lon="4.7372">
        <ele>172</ele>
        <time>2017-10-20T09:20:21Z</time>
      </trkpt>
      <trkpt lat="45.92755" lon="4.73722">
        <ele>172</ele>
        <time>2017-10-20T09:20:22Z</time>
      </trkpt>
      <trkpt lat="45.9276" lon="4.73723">
        <ele>172</ele>
        <time>2017-10-20T09:20:23Z</time>
      </trkpt>
      <trkpt lat="45.92765" lon="4.73725">
        <ele>172</ele>
        <time>2017-10-20T09:20:24Z</time>
      </trkpt>
      <trkpt lat="45.9277" lon="4.73727">
        <ele>172</ele>
        <time>2017-10-20T09:20:25Z</time>
      </trkpt>
      <trkpt lat="45.92774" lon="4.7373">
        <ele>172</ele>
        <time>2017-10-20T09:20:26Z</time>
      </trkpt>
      <trkpt lat="45.92782" lon="4.73734">
        <ele>172</ele>
        <time>2017-10-20T09:20:28Z</time>
      </trkpt>
      <trkpt lat="45.92781" lon="4.73739">
        <ele>172</ele>
        <time>2017-10-20T09:20:29Z</time>
      </trkpt>
      <trkpt lat="45.92785" lon="4.73747">
        <ele>172</ele>
        <time>2017-10-20T09:20:31Z</time>
      </trkpt>
      <trkpt lat="45.92789" lon="4.7375">
        <ele>173</ele>
        <time>2017-10-20T09:20:32Z</time>
      </trkpt>
      <trkpt lat="45.92796" lon="4.73755">
        <ele>173</ele>
        <time>2017-10-20T09:20:34Z</time>
      </trkpt>
      <trkpt lat="45.928" lon="4.73759">
        <ele>173</ele>
        <time>2017-10-20T09:20:35Z</time>
      </trkpt>
      <trkpt lat="45.92806" lon="4.73761">
        <ele>173</ele>
        <time>2017-10-20T09:20:36Z</time>
      </trkpt>
      <trkpt lat="45.92809" lon="4.73764">
        <ele>173</ele>
        <time>2017-10-20T09:20:37Z</time>
      </trkpt>
      <trkpt lat="45.92814" lon="4.73768">
        <ele>173</ele>
        <time>2017-10-20T09:20:38Z</time>
      </trkpt>
      <trkpt lat="45.92819" lon="4.73771">
        <ele>173</ele>
        <time>2017-10-20T09:20:39Z</time>
      </trkpt>
      <trkpt lat="45.92823" lon="4.73774">
        <ele>173</ele>
        <time>2017-10-20T09:20:40Z</time>
      </trkpt>
      <trkpt lat="45.92828" lon="4.73778">
        <ele>173</ele>
        <time>2017-10-20T09:20:41Z</time>
      </trkpt>
      <trkpt lat="45.92832" lon="4.73781">
        <ele>173</ele>
        <time>2017-10-20T09:20:42Z</time>
      </trkpt>
      <trkpt lat="45.92837" lon="4.73784">
        <ele>173</ele>
        <time>2017-10-20T09:20:43Z</time>
      </trkpt>
      <trkpt lat="45.92841" lon="4.73788">
        <ele>173</ele>
        <time>2017-10-20T09:20:44Z</time>
      </trkpt>
      <trkpt lat="45.92846" lon="4.73791">
        <ele>173</ele>
        <time>2017-10-20T09:20:45Z</time>
      </trkpt>
      <trkpt lat="45.92849" lon="4.73795">
        <ele>173</ele>
        <time>2017-10-20T09:20:46Z</time>
      </trkpt>
      <trkpt lat="45.92853" lon="4.73801">
        <ele>173</ele>
        <time>2017-10-20T09:20:47Z</time>
      </trkpt>
      <trkpt lat="45.92856" lon="4.73806">
        <ele>173</ele>
        <time>2017-10-20T09:20:48Z</time>
      </trkpt>
      <trkpt lat="45.92858" lon="4.73812">
        <ele>173</ele>
        <time>2017-10-20T09:20:49Z</time>
      </trkpt>
      <trkpt lat="45.92861" lon="4.73819">
        <ele>173</ele>
        <time>2017-10-20T09:20:50Z</time>
      </trkpt>
      <trkpt lat="45.92863" lon="4.73826">
        <ele>173</ele>
        <time>2017-10-20T09:20:51Z</time>
      </trkpt>
      <trkpt lat="45.92865" lon="4.73833">
        <ele>173</ele>
        <time>2017-10-20T09:20:52Z</time>
      </trkpt>
      <trkpt lat="45.92867" lon="4.73841">
        <ele>173</ele>
        <time>2017-10-20T09:20:53Z</time>
      </trkpt>
      <trkpt lat="45.92868" lon="4.73848">
        <ele>173</ele>
        <time>2017-10-20T09:20:54Z</time>
      </trkpt>
      <trkpt lat="45.92871" lon="4.73854">
        <ele>173</ele>
        <time>2017-10-20T09:20:55Z</time>
      </trkpt>
      <trkpt lat="45.92874" lon="4.73861">
        <ele>173</ele>
        <time>2017-10-20T09:20:56Z</time>
      </trkpt>
      <trkpt lat="45.92879" lon="4.7387">
        <ele>173</ele>
        <time>2017-10-20T09:20:57Z</time>
      </trkpt>
      <trkpt lat="45.92877" lon="4.73878">
        <ele>173</ele>
        <time>2017-10-20T09:20:58Z</time>
      </trkpt>
      <trkpt lat="45.92881" lon="4.73886">
        <ele>173</ele>
        <time>2017-10-20T09:20:59Z</time>
      </trkpt>
      <trkpt lat="45.92882" lon="4.73893">
        <ele>173</ele>
        <time>2017-10-20T09:21:00Z</time>
      </trkpt>
      <trkpt lat="45.92883" lon="4.73901">
        <ele>173</ele>
        <time>2017-10-20T09:21:01Z</time>
      </trkpt>
      <trkpt lat="45.92883" lon="4.73909">
        <ele>173</ele>
        <time>2017-10-20T09:21:02Z</time>
      </trkpt>
      <trkpt lat="45.92882" lon="4.73917">
        <ele>172</ele>
        <time>2017-10-20T09:21:03Z</time>
      </trkpt>
      <trkpt lat="45.92882" lon="4.73924">
        <ele>172</ele>
        <time>2017-10-20T09:21:04Z</time>
      </trkpt>
      <trkpt lat="45.92881" lon="4.73931">
        <ele>172</ele>
        <time>2017-10-20T09:21:05Z</time>
      </trkpt>
      <trkpt lat="45.92881" lon="4.73938">
        <ele>172</ele>
        <time>2017-10-20T09:21:06Z</time>
      </trkpt>
      <trkpt lat="45.92882" lon="4.73945">
        <ele>172</ele>
        <time>2017-10-20T09:21:07Z</time>
      </trkpt>
      <trkpt lat="45.92881" lon="4.73953">
        <ele>172</ele>
        <time>2017-10-20T09:21:08Z</time>
      </trkpt>
      <trkpt lat="45.92881" lon="4.7396">
        <ele>172</ele>
        <time>2017-10-20T09:21:09Z</time>
      </trkpt>
      <trkpt lat="45.92882" lon="4.73967">
        <ele>172</ele>
        <time>2017-10-20T09:21:10Z</time>
      </trkpt>
      <trkpt lat="45.92881" lon="4.73974">
        <ele>172</ele>
        <time>2017-10-20T09:21:11Z</time>
      </trkpt>
      <trkpt lat="45.92881" lon="4.73986">
        <ele>172</ele>
        <time>2017-10-20T09:21:13Z</time>
      </trkpt>
      <trkpt lat="45.9288" lon="4.73991">
        <ele>172</ele>
        <time>2017-10-20T09:21:14Z</time>
      </trkpt>
      <trkpt lat="45.9288" lon="4.73998">
        <ele>172</ele>
        <time>2017-10-20T09:21:15Z</time>
      </trkpt>
      <trkpt lat="45.92879" lon="4.74005">
        <ele>172</ele>
        <time>2017-10-20T09:21:16Z</time>
      </trkpt>
      <trkpt lat="45.92878" lon="4.74016">
        <ele>172</ele>
        <time>2017-10-20T09:21:18Z</time>
      </trkpt>
      <trkpt lat="45.92878" lon="4.74023">
        <ele>172</ele>
        <time>2017-10-20T09:21:19Z</time>
      </trkpt>
      <trkpt lat="45.92883" lon="4.74033">
        <ele>172</ele>
        <time>2017-10-20T09:21:21Z</time>
      </trkpt>
      <trkpt lat="45.92886" lon="4.74038">
        <ele>172</ele>
        <time>2017-10-20T09:21:22Z</time>
      </trkpt>
      <trkpt lat="45.9289" lon="4.74043">
        <ele>172</ele>
        <time>2017-10-20T09:21:23Z</time>
      </trkpt>
      <trkpt lat="45.92894" lon="4.74046">
        <ele>172</ele>
        <time>2017-10-20T09:21:24Z</time>
      </trkpt>
      <trkpt lat="45.92899" lon="4.7405">
        <ele>172</ele>
        <time>2017-10-20T09:21:25Z</time>
      </trkpt>
      <trkpt lat="45.92904" lon="4.74054">
        <ele>172</ele>
        <time>2017-10-20T09:21:26Z</time>
      </trkpt>
      <trkpt lat="45.92908" lon="4.74058">
        <ele>172</ele>
        <time>2017-10-20T09:21:27Z</time>
      </trkpt>
      <trkpt lat="45.92912" lon="4.74063">
        <ele>173</ele>
        <time>2017-10-20T09:21:28Z</time>
      </trkpt>
      <trkpt lat="45.92915" lon="4.74069">
        <ele>173</ele>
        <time>2017-10-20T09:21:29Z</time>
      </trkpt>
      <trkpt lat="45.92916" lon="4.74074">
        <ele>173</ele>
        <time>2017-10-20T09:21:30Z</time>
      </trkpt>
      <trkpt lat="45.92916" lon="4.74086">
        <ele>173</ele>
        <time>2017-10-20T09:21:32Z</time>
      </trkpt>
      <trkpt lat="45.92912" lon="4.7409">
        <ele>173</ele>
        <time>2017-10-20T09:21:33Z</time>
      </trkpt>
      <trkpt lat="45.9291" lon="4.74101">
        <ele>172</ele>
        <time>2017-10-20T09:21:35Z</time>
      </trkpt>
      <trkpt lat="45.92908" lon="4.74104">
        <ele>172</ele>
        <time>2017-10-20T09:21:36Z</time>
      </trkpt>
      <trkpt lat="45.92903" lon="4.74109">
        <ele>172</ele>
        <time>2017-10-20T09:21:38Z</time>
      </trkpt>
      <trkpt lat="45.92901" lon="4.74113">
        <ele>172</ele>
        <time>2017-10-20T09:21:39Z</time>
      </trkpt>
      <trkpt lat="45.92896" lon="4.74118">
        <ele>172</ele>
        <time>2017-10-20T09:21:41Z</time>
      </trkpt>
      <trkpt lat="45.92894" lon="4.74121">
        <ele>172</ele>
        <time>2017-10-20T09:21:42Z</time>
      </trkpt>
      <trkpt lat="45.9289" lon="4.74128">
        <ele>172</ele>
        <time>2017-10-20T09:21:44Z</time>
      </trkpt>
      <trkpt lat="45.92889" lon="4.74132">
        <ele>172</ele>
        <time>2017-10-20T09:21:45Z</time>
      </trkpt>
      <trkpt lat="45.92886" lon="4.74144">
        <ele>172</ele>
        <time>2017-10-20T09:21:48Z</time>
      </trkpt>
      <trkpt lat="45.92886" lon="4.74148">
        <ele>172</ele>
        <time>2017-10-20T09:21:49Z</time>
      </trkpt>
      <trkpt lat="45.92887" lon="4.7416">
        <ele>172</ele>
        <time>2017-10-20T09:21:52Z</time>
      </trkpt>
      <trkpt lat="45.92888" lon="4.74164">
        <ele>172</ele>
        <time>2017-10-20T09:21:53Z</time>
      </trkpt>
      <trkpt lat="45.92894" lon="4.74173">
        <ele>171</ele>
        <time>2017-10-20T09:21:56Z</time>
      </trkpt>
      <trkpt lat="45.92897" lon="4.74175">
        <ele>172</ele>
        <time>2017-10-20T09:21:57Z</time>
      </trkpt>
      <trkpt lat="45.92903" lon="4.74179">
        <ele>172</ele>
        <time>2017-10-20T09:21:59Z</time>
      </trkpt>
      <trkpt lat="45.92907" lon="4.7418">
        <ele>172</ele>
        <time>2017-10-20T09:22:00Z</time>
      </trkpt>
      <trkpt lat="45.92913" lon="4.74183">
        <ele>172</ele>
        <time>2017-10-20T09:22:02Z</time>
      </trkpt>
      <trkpt lat="45.92917" lon="4.74184">
        <ele>172</ele>
        <time>2017-10-20T09:22:03Z</time>
      </trkpt>
      <trkpt lat="45.92923" lon="4.74189">
        <ele>171</ele>
        <time>2017-10-20T09:22:05Z</time>
      </trkpt>
      <trkpt lat="45.92927" lon="4.74192">
        <ele>171</ele>
        <time>2017-10-20T09:22:06Z</time>
      </trkpt>
      <trkpt lat="45.92933" lon="4.74196">
        <ele>170</ele>
        <time>2017-10-20T09:22:08Z</time>
      </trkpt>
      <trkpt lat="45.92937" lon="4.74198">
        <ele>170</ele>
        <time>2017-10-20T09:22:09Z</time>
      </trkpt>
      <trkpt lat="45.92943" lon="4.74203">
        <ele>170</ele>
        <time>2017-10-20T09:22:11Z</time>
      </trkpt>
      <trkpt lat="45.92946" lon="4.74204">
        <ele>170</ele>
        <time>2017-10-20T09:22:12Z</time>
      </trkpt>
      <trkpt lat="45.92953" lon="4.74207">
        <ele>170</ele>
        <time>2017-10-20T09:22:14Z</time>
      </trkpt>
      <trkpt lat="45.92957" lon="4.74207">
        <ele>170</ele>
        <time>2017-10-20T09:22:15Z</time>
      </trkpt>
      <trkpt lat="45.92964" lon="4.74206">
        <ele>170</ele>
        <time>2017-10-20T09:22:17Z</time>
      </trkpt>
      <trkpt lat="45.92967" lon="4.74204">
        <ele>170</ele>
        <time>2017-10-20T09:22:18Z</time>
      </trkpt>
      <trkpt lat="45.92974" lon="4.74196">
        <ele>170</ele>
        <time>2017-10-20T09:22:20Z</time>
      </trkpt>
      <trkpt lat="45.92975" lon="4.74186">
        <ele>170</ele>
        <time>2017-10-20T09:22:21Z</time>
      </trkpt>
      <trkpt lat="45.92978" lon="4.74178">
        <ele>170</ele>
        <time>2017-10-20T09:22:22Z</time>
      </trkpt>
      <trkpt lat="45.9298" lon="4.74171">
        <ele>170</ele>
        <time>2017-10-20T09:22:23Z</time>
      </trkpt>
      <trkpt lat="45.92983" lon="4.74163">
        <ele>170</ele>
        <time>2017-10-20T09:22:24Z</time>
      </trkpt>
      <trkpt lat="45.92985" lon="4.74155">
        <ele>170</ele>
        <time>2017-10-20T09:22:25Z</time>
      </trkpt>
      <trkpt lat="45.92987" lon="4.74146">
        <ele>170</ele>
        <time>2017-10-20T09:22:26Z</time>
      </trkpt>
      <trkpt lat="45.9299" lon="4.74137">
        <ele>171</ele>
        <time>2017-10-20T09:22:27Z</time>
      </trkpt>
      <trkpt lat="45.92993" lon="4.74128">
        <ele>171</ele>
        <time>2017-10-20T09:22:28Z</time>
      </trkpt>
      <trkpt lat="45.92996" lon="4.74118">
        <ele>171</ele>
        <time>2017-10-20T09:22:29Z</time>
      </trkpt>
      <trkpt lat="45.92998" lon="4.74107">
        <ele>171</ele>
        <time>2017-10-20T09:22:30Z</time>
      </trkpt>
      <trkpt lat="45.93" lon="4.74096">
        <ele>171</ele>
        <time>2017-10-20T09:22:31Z</time>
      </trkpt>
      <trkpt lat="45.93001" lon="4.74085">
        <ele>171</ele>
        <time>2017-10-20T09:22:32Z</time>
      </trkpt>
      <trkpt lat="45.93001" lon="4.74075">
        <ele>171</ele>
        <time>2017-10-20T09:22:33Z</time>
      </trkpt>
      <trkpt lat="45.93001" lon="4.74064">
        <ele>170</ele>
        <time>2017-10-20T09:22:34Z</time>
      </trkpt>
      <trkpt lat="45.93" lon="4.74053">
        <ele>170</ele>
        <time>2017-10-20T09:22:35Z</time>
      </trkpt>
      <trkpt lat="45.93" lon="4.74043">
        <ele>170</ele>
        <time>2017-10-20T09:22:36Z</time>
      </trkpt>
      <trkpt lat="45.93" lon="4.74035">
        <ele>170</ele>
        <time>2017-10-20T09:22:37Z</time>
      </trkpt>
      <trkpt lat="45.93001" lon="4.74025">
        <ele>170</ele>
        <time>2017-10-20T09:22:38Z</time>
      </trkpt>
      <trkpt lat="45.93005" lon="4.74016">
        <ele>170</ele>
        <time>2017-10-20T09:22:39Z</time>
      </trkpt>
      <trkpt lat="45.93009" lon="4.7401">
        <ele>170</ele>
        <time>2017-10-20T09:22:40Z</time>
      </trkpt>
      <trkpt lat="45.93014" lon="4.74004">
        <ele>170</ele>
        <time>2017-10-20T09:22:41Z</time>
      </trkpt>
      <trkpt lat="45.9302" lon="4.74001">
        <ele>170</ele>
        <time>2017-10-20T09:22:42Z</time>
      </trkpt>
      <trkpt lat="45.93026" lon="4.73998">
        <ele>169</ele>
        <time>2017-10-20T09:22:43Z</time>
      </trkpt>
      <trkpt lat="45.93031" lon="4.73996">
        <ele>169</ele>
        <time>2017-10-20T09:22:44Z</time>
      </trkpt>
      <trkpt lat="45.93036" lon="4.73997">
        <ele>169</ele>
        <time>2017-10-20T09:22:45Z</time>
      </trkpt>
      <trkpt lat="45.93041" lon="4.74">
        <ele>169</ele>
        <time>2017-10-20T09:22:46Z</time>
      </trkpt>
      <trkpt lat="45.93046" lon="4.74002">
        <ele>169</ele>
        <time>2017-10-20T09:22:47Z</time>
      </trkpt>
      <trkpt lat="45.93051" lon="4.74004">
        <ele>169</ele>
        <time>2017-10-20T09:22:48Z</time>
      </trkpt>
      <trkpt lat="45.93056" lon="4.74007">
        <ele>169</ele>
        <time>2017-10-20T09:22:49Z</time>
      </trkpt>
      <trkpt lat="45.93061" lon="4.74008">
        <ele>169</ele>
        <time>2017-10-20T09:22:50Z</time>
      </trkpt>
      <trkpt lat="45.93067" lon="4.74012">
        <ele>169</ele>
        <time>2017-10-20T09:22:51Z</time>
      </trkpt>
      <trkpt lat="45.93071" lon="4.74013">
        <ele>169</ele>
        <time>2017-10-20T09:22:52Z</time>
      </trkpt>
      <trkpt lat="45.93077" lon="4.74015">
        <ele>169</ele>
        <time>2017-10-20T09:22:53Z</time>
      </trkpt>
      <trkpt lat="45.93081" lon="4.74015">
        <ele>169</ele>
        <time>2017-10-20T09:22:54Z</time>
      </trkpt>
      <trkpt lat="45.93087" lon="4.74016">
        <ele>168</ele>
        <time>2017-10-20T09:22:55Z</time>
      </trkpt>
      <trkpt lat="45.93091" lon="4.74016">
        <ele>168</ele>
        <time>2017-10-20T09:22:56Z</time>
      </trkpt>
      <trkpt lat="45.93096" lon="4.74017">
        <ele>168</ele>
        <time>2017-10-20T09:22:57Z</time>
      </trkpt>
      <trkpt lat="45.93101" lon="4.74018">
        <ele>168</ele>
        <time>2017-10-20T09:22:58Z</time>
      </trkpt>
      <trkpt lat="45.93107" lon="4.74019">
        <ele>168</ele>
        <time>2017-10-20T09:22:59Z</time>
      </trkpt>
      <trkpt lat="45.93112" lon="4.7402">
        <ele>168</ele>
        <time>2017-10-20T09:23:00Z</time>
      </trkpt>
      <trkpt lat="45.93117" lon="4.7402">
        <ele>168</ele>
        <time>2017-10-20T09:23:01Z</time>
      </trkpt>
      <trkpt lat="45.93122" lon="4.74022">
        <ele>168</ele>
        <time>2017-10-20T09:23:02Z</time>
      </trkpt>
      <trkpt lat="45.93126" lon="4.74024">
        <ele>168</ele>
        <time>2017-10-20T09:23:03Z</time>
      </trkpt>
      <trkpt lat="45.93134" lon="4.74029">
        <ele>168</ele>
        <time>2017-10-20T09:23:05Z</time>
      </trkpt>
      <trkpt lat="45.93138" lon="4.74032">
        <ele>168</ele>
        <time>2017-10-20T09:23:06Z</time>
      </trkpt>
      <trkpt lat="45.93143" lon="4.74035">
        <ele>168</ele>
        <time>2017-10-20T09:23:07Z</time>
      </trkpt>
      <trkpt lat="45.93147" lon="4.74039">
        <ele>168</ele>
        <time>2017-10-20T09:23:08Z</time>
      </trkpt>
      <trkpt lat="45.93151" lon="4.74043">
        <ele>168</ele>
        <time>2017-10-20T09:23:09Z</time>
      </trkpt>
      <trkpt lat="45.93155" lon="4.74047">
        <ele>168</ele>
        <time>2017-10-20T09:23:10Z</time>
      </trkpt>
      <trkpt lat="45.93159" lon="4.74051">
        <ele>168</ele>
        <time>2017-10-20T09:23:11Z</time>
      </trkpt>
      <trkpt lat="45.93163" lon="4.74054">
        <ele>168</ele>
        <time>2017-10-20T09:23:12Z</time>
      </trkpt>
      <trkpt lat="45.93166" lon="4.74059">
        <ele>168</ele>
        <time>2017-10-20T09:23:13Z</time>
      </trkpt>
      <trkpt lat="45.9317" lon="4.74064">
        <ele>168</ele>
        <time>2017-10-20T09:23:14Z</time>
      </trkpt>
      <trkpt lat="45.93174" lon="4.74068">
        <ele>168</ele>
        <time>2017-10-20T09:23:15Z</time>
      </trkpt>
      <trkpt lat="45.93179" lon="4.74073">
        <ele>168</ele>
        <time>2017-10-20T09:23:16Z</time>
      </trkpt>
      <trkpt lat="45.93184" lon="4.74078">
        <ele>168</ele>
        <time>2017-10-20T09:23:17Z</time>
      </trkpt>
      <trkpt lat="45.93188" lon="4.74082">
        <ele>168</ele>
        <time>2017-10-20T09:23:18Z</time>
      </trkpt>
      <trkpt lat="45.93193" lon="4.74087">
        <ele>167</ele>
        <time>2017-10-20T09:23:19Z</time>
      </trkpt>
      <trkpt lat="45.93197" lon="4.74092">
        <ele>167</ele>
        <time>2017-10-20T09:23:20Z</time>
      </trkpt>
      <trkpt lat="45.93201" lon="4.74094">
        <ele>167</ele>
        <time>2017-10-20T09:23:21Z</time>
      </trkpt>
      <trkpt lat="45.93206" lon="4.74098">
        <ele>167</ele>
        <time>2017-10-20T09:23:22Z</time>
      </trkpt>
      <trkpt lat="45.9321" lon="4.74102">
        <ele>167</ele>
        <time>2017-10-20T09:23:23Z</time>
      </trkpt>
      <trkpt lat="45.93215" lon="4.74103">
        <ele>167</ele>
        <time>2017-10-20T09:23:24Z</time>
      </trkpt>
      <trkpt lat="45.93219" lon="4.74107">
        <ele>167</ele>
        <time>2017-10-20T09:23:25Z</time>
      </trkpt>
      <trkpt lat="45.93223" lon="4.74109">
        <ele>167</ele>
        <time>2017-10-20T09:23:26Z</time>
      </trkpt>
      <trkpt lat="45.93231" lon="4.7411">
        <ele>167</ele>
        <time>2017-10-20T09:23:28Z</time>
      </trkpt>
      <trkpt lat="45.93234" lon="4.74108">
        <ele>167</ele>
        <time>2017-10-20T09:23:29Z</time>
      </trkpt>
      <trkpt lat="45.93241" lon="4.74099">
        <ele>167</ele>
        <time>2017-10-20T09:23:31Z</time>
      </trkpt>
      <trkpt lat="45.93244" lon="4.74094">
        <ele>167</ele>
        <time>2017-10-20T09:23:32Z</time>
      </trkpt>
      <trkpt lat="45.93247" lon="4.74089">
        <ele>167</ele>
        <time>2017-10-20T09:23:33Z</time>
      </trkpt>
      <trkpt lat="45.9325" lon="4.74084">
        <ele>167</ele>
        <time>2017-10-20T09:23:34Z</time>
      </trkpt>
      <trkpt lat="45.93254" lon="4.74079">
        <ele>167</ele>
        <time>2017-10-20T09:23:35Z</time>
      </trkpt>
      <trkpt lat="45.93257" lon="4.74073">
        <ele>167</ele>
        <time>2017-10-20T09:23:36Z</time>
      </trkpt>
      <trkpt lat="45.9326" lon="4.74067">
        <ele>167</ele>
        <time>2017-10-20T09:23:37Z</time>
      </trkpt>
      <trkpt lat="45.93263" lon="4.74061">
        <ele>168</ele>
        <time>2017-10-20T09:23:38Z</time>
      </trkpt>
      <trkpt lat="45.93267" lon="4.74051">
        <ele>168</ele>
        <time>2017-10-20T09:23:40Z</time>
      </trkpt>
      <trkpt lat="45.93269" lon="4.74045">
        <ele>168</ele>
        <time>2017-10-20T09:23:41Z</time>
      </trkpt>
      <trkpt lat="45.93274" lon="4.74036">
        <ele>168</ele>
        <time>2017-10-20T09:23:43Z</time>
      </trkpt>
      <trkpt lat="45.93277" lon="4.7403">
        <ele>168</ele>
        <time>2017-10-20T09:23:44Z</time>
      </trkpt>
      <trkpt lat="45.9328" lon="4.74024">
        <ele>168</ele>
        <time>2017-10-20T09:23:45Z</time>
      </trkpt>
      <trkpt lat="45.93282" lon="4.74019">
        <ele>168</ele>
        <time>2017-10-20T09:23:46Z</time>
      </trkpt>
      <trkpt lat="45.93288" lon="4.74009">
        <ele>168</ele>
        <time>2017-10-20T09:23:48Z</time>
      </trkpt>
      <trkpt lat="45.9329" lon="4.74005">
        <ele>168</ele>
        <time>2017-10-20T09:23:49Z</time>
      </trkpt>
      <trkpt lat="45.93295" lon="4.73996">
        <ele>168</ele>
        <time>2017-10-20T09:23:51Z</time>
      </trkpt>
      <trkpt lat="45.93298" lon="4.7399">
        <ele>168</ele>
        <time>2017-10-20T09:23:52Z</time>
      </trkpt>
      <trkpt lat="45.933" lon="4.73984">
        <ele>168</ele>
        <time>2017-10-20T09:23:53Z</time>
      </trkpt>
      <trkpt lat="45.93303" lon="4.73977">
        <ele>168</ele>
        <time>2017-10-20T09:23:54Z</time>
      </trkpt>
      <trkpt lat="45.93306" lon="4.73972">
        <ele>168</ele>
        <time>2017-10-20T09:23:55Z</time>
      </trkpt>
      <trkpt lat="45.93309" lon="4.73967">
        <ele>168</ele>
        <time>2017-10-20T09:23:56Z</time>
      </trkpt>
      <trkpt lat="45.93314" lon="4.73958">
        <ele>168</ele>
        <time>2017-10-20T09:23:58Z</time>
      </trkpt>
      <trkpt lat="45.93316" lon="4.73954">
        <ele>168</ele>
        <time>2017-10-20T09:23:59Z</time>
      </trkpt>
      <trkpt lat="45.93321" lon="4.73945">
        <ele>168</ele>
        <time>2017-10-20T09:24:01Z</time>
      </trkpt>
      <trkpt lat="45.93324" lon="4.73941">
        <ele>168</ele>
        <time>2017-10-20T09:24:02Z</time>
      </trkpt>
      <trkpt lat="45.93327" lon="4.73935">
        <ele>168</ele>
        <time>2017-10-20T09:24:03Z</time>
      </trkpt>
      <trkpt lat="45.93329" lon="4.7393">
        <ele>168</ele>
        <time>2017-10-20T09:24:04Z</time>
      </trkpt>
      <trkpt lat="45.93334" lon="4.73922">
        <ele>168</ele>
        <time>2017-10-20T09:24:06Z</time>
      </trkpt>
      <trkpt lat="45.93337" lon="4.73918">
        <ele>168</ele>
        <time>2017-10-20T09:24:07Z</time>
      </trkpt>
      <trkpt lat="45.93343" lon="4.73908">
        <ele>168</ele>
        <time>2017-10-20T09:24:09Z</time>
      </trkpt>
      <trkpt lat="45.93346" lon="4.73904">
        <ele>168</ele>
        <time>2017-10-20T09:24:10Z</time>
      </trkpt>
      <trkpt lat="45.93351" lon="4.73896">
        <ele>168</ele>
        <time>2017-10-20T09:24:12Z</time>
      </trkpt>
      <trkpt lat="45.93354" lon="4.73893">
        <ele>168</ele>
        <time>2017-10-20T09:24:13Z</time>
      </trkpt>
      <trkpt lat="45.93361" lon="4.73886">
        <ele>168</ele>
        <time>2017-10-20T09:24:15Z</time>
      </trkpt>
      <trkpt lat="45.93365" lon="4.73882">
        <ele>168</ele>
        <time>2017-10-20T09:24:16Z</time>
      </trkpt>
      <trkpt lat="45.93372" lon="4.73875">
        <ele>169</ele>
        <time>2017-10-20T09:24:18Z</time>
      </trkpt>
      <trkpt lat="45.93375" lon="4.73872">
        <ele>169</ele>
        <time>2017-10-20T09:24:19Z</time>
      </trkpt>
      <trkpt lat="45.93382" lon="4.73867">
        <ele>169</ele>
        <time>2017-10-20T09:24:21Z</time>
      </trkpt>
      <trkpt lat="45.93386" lon="4.73864">
        <ele>169</ele>
        <time>2017-10-20T09:24:22Z</time>
      </trkpt>
      <trkpt lat="45.93393" lon="4.73858">
        <ele>169</ele>
        <time>2017-10-20T09:24:24Z</time>
      </trkpt>
      <trkpt lat="45.93397" lon="4.73856">
        <ele>169</ele>
        <time>2017-10-20T09:24:25Z</time>
      </trkpt>
      <trkpt lat="45.93404" lon="4.73852">
        <ele>169</ele>
        <time>2017-10-20T09:24:27Z</time>
      </trkpt>
      <trkpt lat="45.93408" lon="4.73849">
        <ele>169</ele>
        <time>2017-10-20T09:24:28Z</time>
      </trkpt>
      <trkpt lat="45.93412" lon="4.73847">
        <ele>169</ele>
        <time>2017-10-20T09:24:29Z</time>
      </trkpt>
      <trkpt lat="45.93416" lon="4.73845">
        <ele>169</ele>
        <time>2017-10-20T09:24:30Z</time>
      </trkpt>
      <trkpt lat="45.93421" lon="4.73842">
        <ele>169</ele>
        <time>2017-10-20T09:24:31Z</time>
      </trkpt>
      <trkpt lat="45.93425" lon="4.7384">
        <ele>169</ele>
        <time>2017-10-20T09:24:32Z</time>
      </trkpt>
      <trkpt lat="45.9343" lon="4.73839">
        <ele>169</ele>
        <time>2017-10-20T09:24:33Z</time>
      </trkpt>
      <trkpt lat="45.93434" lon="4.73836">
        <ele>169</ele>
        <time>2017-10-20T09:24:34Z</time>
      </trkpt>
      <trkpt lat="45.93442" lon="4.73833">
        <ele>169</ele>
        <time>2017-10-20T09:24:36Z</time>
      </trkpt>
      <trkpt lat="45.93445" lon="4.73832">
        <ele>169</ele>
        <time>2017-10-20T09:24:37Z</time>
      </trkpt>
      <trkpt lat="45.93451" lon="4.73829">
        <ele>169</ele>
        <time>2017-10-20T09:24:39Z</time>
      </trkpt>
      <trkpt lat="45.93455" lon="4.73828">
        <ele>169</ele>
        <time>2017-10-20T09:24:40Z</time>
      </trkpt>
      <trkpt lat="45.93463" lon="4.73826">
        <ele>169</ele>
        <time>2017-10-20T09:24:42Z</time>
      </trkpt>
      <trkpt lat="45.93467" lon="4.73825">
        <ele>169</ele>
        <time>2017-10-20T09:24:43Z</time>
      </trkpt>
      <trkpt lat="45.93475" lon="4.73822">
        <ele>169</ele>
        <time>2017-10-20T09:24:45Z</time>
      </trkpt>
      <trkpt lat="45.93479" lon="4.73819">
        <ele>169</ele>
        <time>2017-10-20T09:24:46Z</time>
      </trkpt>
      <trkpt lat="45.93487" lon="4.73814">
        <ele>169</ele>
        <time>2017-10-20T09:24:48Z</time>
      </trkpt>
      <trkpt lat="45.9349" lon="4.73811">
        <ele>169</ele>
        <time>2017-10-20T09:24:49Z</time>
      </trkpt>
      <trkpt lat="45.93497" lon="4.73807">
        <ele>169</ele>
        <time>2017-10-20T09:24:51Z</time>
      </trkpt>
      <trkpt lat="45.935" lon="4.73805">
        <ele>169</ele>
        <time>2017-10-20T09:24:52Z</time>
      </trkpt>
      <trkpt lat="45.93507" lon="4.73799">
        <ele>169</ele>
        <time>2017-10-20T09:24:54Z</time>
      </trkpt>
      <trkpt lat="45.9351" lon="4.73795">
        <ele>169</ele>
        <time>2017-10-20T09:24:55Z</time>
      </trkpt>
      <trkpt lat="45.93517" lon="4.73788">
        <ele>169</ele>
        <time>2017-10-20T09:24:57Z</time>
      </trkpt>
      <trkpt lat="45.9352" lon="4.73784">
        <ele>169</ele>
        <time>2017-10-20T09:24:58Z</time>
      </trkpt>
      <trkpt lat="45.93523" lon="4.73779">
        <ele>169</ele>
        <time>2017-10-20T09:24:59Z</time>
      </trkpt>
      <trkpt lat="45.93527" lon="4.73775">
        <ele>169</ele>
        <time>2017-10-20T09:25:00Z</time>
      </trkpt>
      <trkpt lat="45.93533" lon="4.73769">
        <ele>169</ele>
        <time>2017-10-20T09:25:02Z</time>
      </trkpt>
      <trkpt lat="45.93537" lon="4.73765">
        <ele>169</ele>
        <time>2017-10-20T09:25:03Z</time>
      </trkpt>
      <trkpt lat="45.9354" lon="4.73762">
        <ele>169</ele>
        <time>2017-10-20T09:25:04Z</time>
      </trkpt>
      <trkpt lat="45.93544" lon="4.73757">
        <ele>169</ele>
        <time>2017-10-20T09:25:05Z</time>
      </trkpt>
      <trkpt lat="45.93551" lon="4.73751">
        <ele>169</ele>
        <time>2017-10-20T09:25:07Z</time>
      </trkpt>
      <trkpt lat="45.93555" lon="4.73746">
        <ele>169</ele>
        <time>2017-10-20T09:25:08Z</time>
      </trkpt>
      <trkpt lat="45.93559" lon="4.73742">
        <ele>169</ele>
        <time>2017-10-20T09:25:09Z</time>
      </trkpt>
      <trkpt lat="45.93562" lon="4.73738">
        <ele>169</ele>
        <time>2017-10-20T09:25:10Z</time>
      </trkpt>
      <trkpt lat="45.93569" lon="4.7373">
        <ele>169</ele>
        <time>2017-10-20T09:25:12Z</time>
      </trkpt>
      <trkpt lat="45.93573" lon="4.73726">
        <ele>169</ele>
        <time>2017-10-20T09:25:13Z</time>
      </trkpt>
      <trkpt lat="45.93579" lon="4.73718">
        <ele>169</ele>
        <time>2017-10-20T09:25:15Z</time>
      </trkpt>
      <trkpt lat="45.93582" lon="4.73712">
        <ele>169</ele>
        <time>2017-10-20T09:25:16Z</time>
      </trkpt>
      <trkpt lat="45.93584" lon="4.73706">
        <ele>169</ele>
        <time>2017-10-20T09:25:17Z</time>
      </trkpt>
      <trkpt lat="45.93586" lon="4.73699">
        <ele>169</ele>
        <time>2017-10-20T09:25:18Z</time>
      </trkpt>
      <trkpt lat="45.93587" lon="4.73693">
        <ele>169</ele>
        <time>2017-10-20T09:25:19Z</time>
      </trkpt>
      <trkpt lat="45.93587" lon="4.73686">
        <ele>169</ele>
        <time>2017-10-20T09:25:20Z</time>
      </trkpt>
      <trkpt lat="45.93587" lon="4.73678">
        <ele>168</ele>
        <time>2017-10-20T09:25:21Z</time>
      </trkpt>
      <trkpt lat="45.93586" lon="4.73672">
        <ele>168</ele>
        <time>2017-10-20T09:25:22Z</time>
      </trkpt>
      <trkpt lat="45.93585" lon="4.73659">
        <ele>168</ele>
        <time>2017-10-20T09:25:24Z</time>
      </trkpt>
      <trkpt lat="45.93585" lon="4.7365">
        <ele>168</ele>
        <time>2017-10-20T09:25:25Z</time>
      </trkpt>
      <trkpt lat="45.93583" lon="4.73638">
        <ele>168</ele>
        <time>2017-10-20T09:25:27Z</time>
      </trkpt>
      <trkpt lat="45.93582" lon="4.73631">
        <ele>168</ele>
        <time>2017-10-20T09:25:28Z</time>
      </trkpt>
      <trkpt lat="45.93581" lon="4.7362">
        <ele>168</ele>
        <time>2017-10-20T09:25:30Z</time>
      </trkpt>
      <trkpt lat="45.93582" lon="4.73614">
        <ele>168</ele>
        <time>2017-10-20T09:25:31Z</time>
      </trkpt>
      <trkpt lat="45.9358" lon="4.73602">
        <ele>168</ele>
        <time>2017-10-20T09:25:33Z</time>
      </trkpt>
      <trkpt lat="45.93579" lon="4.73596">
        <ele>168</ele>
        <time>2017-10-20T09:25:34Z</time>
      </trkpt>
      <trkpt lat="45.93579" lon="4.73588">
        <ele>168</ele>
        <time>2017-10-20T09:25:35Z</time>
      </trkpt>
      <trkpt lat="45.93578" lon="4.73581">
        <ele>168</ele>
        <time>2017-10-20T09:25:36Z</time>
      </trkpt>
      <trkpt lat="45.93578" lon="4.73574">
        <ele>168</ele>
        <time>2017-10-20T09:25:37Z</time>
      </trkpt>
      <trkpt lat="45.93578" lon="4.73567">
        <ele>168</ele>
        <time>2017-10-20T09:25:38Z</time>
      </trkpt>
      <trkpt lat="45.93577" lon="4.7356">
        <ele>168</ele>
        <time>2017-10-20T09:25:39Z</time>
      </trkpt>
      <trkpt lat="45.93576" lon="4.73553">
        <ele>168</ele>
        <time>2017-10-20T09:25:40Z</time>
      </trkpt>
      <trkpt lat="45.93574" lon="4.7354">
        <ele>169</ele>
        <time>2017-10-20T09:25:42Z</time>
      </trkpt>
      <trkpt lat="45.93574" lon="4.73535">
        <ele>169</ele>
        <time>2017-10-20T09:25:43Z</time>
      </trkpt>
      <trkpt lat="45.93572" lon="4.73527">
        <ele>168</ele>
        <time>2017-10-20T09:25:45Z</time>
      </trkpt>
      <trkpt lat="45.9357" lon="4.73521">
        <ele>168</ele>
        <time>2017-10-20T09:25:46Z</time>
      </trkpt>
      <trkpt lat="45.93567" lon="4.73509">
        <ele>168</ele>
        <time>2017-10-20T09:25:48Z</time>
      </trkpt>
      <trkpt lat="45.93565" lon="4.73503">
        <ele>168</ele>
        <time>2017-10-20T09:25:49Z</time>
      </trkpt>
      <trkpt lat="45.93563" lon="4.73496">
        <ele>169</ele>
        <time>2017-10-20T09:25:50Z</time>
      </trkpt>
      <trkpt lat="45.93561" lon="4.7349">
        <ele>169</ele>
        <time>2017-10-20T09:25:51Z</time>
      </trkpt>
      <trkpt lat="45.93559" lon="4.73484">
        <ele>169</ele>
        <time>2017-10-20T09:25:52Z</time>
      </trkpt>
      <trkpt lat="45.93558" lon="4.73478">
        <ele>169</ele>
        <time>2017-10-20T09:25:53Z</time>
      </trkpt>
      <trkpt lat="45.93557" lon="4.73472">
        <ele>169</ele>
        <time>2017-10-20T09:25:54Z</time>
      </trkpt>
      <trkpt lat="45.93554" lon="4.73465">
        <ele>169</ele>
        <time>2017-10-20T09:25:55Z</time>
      </trkpt>
      <trkpt lat="45.93552" lon="4.73459">
        <ele>169</ele>
        <time>2017-10-20T09:25:56Z</time>
      </trkpt>
      <trkpt lat="45.9355" lon="4.73453">
        <ele>169</ele>
        <time>2017-10-20T09:25:57Z</time>
      </trkpt>
      <trkpt lat="45.93548" lon="4.73446">
        <ele>169</ele>
        <time>2017-10-20T09:25:58Z</time>
      </trkpt>
      <trkpt lat="45.93545" lon="4.73439">
        <ele>169</ele>
        <time>2017-10-20T09:25:59Z</time>
      </trkpt>
      <trkpt lat="45.93542" lon="4.73428">
        <ele>169</ele>
        <time>2017-10-20T09:26:01Z</time>
      </trkpt>
      <trkpt lat="45.93541" lon="4.73422">
        <ele>169</ele>
        <time>2017-10-20T09:26:02Z</time>
      </trkpt>
      <trkpt lat="45.93538" lon="4.73412">
        <ele>169</ele>
        <time>2017-10-20T09:26:04Z</time>
      </trkpt>
      <trkpt lat="45.93537" lon="4.73406">
        <ele>169</ele>
        <time>2017-10-20T09:26:05Z</time>
      </trkpt>
      <trkpt lat="45.93533" lon="4.73395">
        <ele>169</ele>
        <time>2017-10-20T09:26:07Z</time>
      </trkpt>
      <trkpt lat="45.93533" lon="4.73388">
        <ele>169</ele>
        <time>2017-10-20T09:26:08Z</time>
      </trkpt>
      <trkpt lat="45.9353" lon="4.73376">
        <ele>169</ele>
        <time>2017-10-20T09:26:10Z</time>
      </trkpt>
      <trkpt lat="45.93531" lon="4.7337">
        <ele>169</ele>
        <time>2017-10-20T09:26:11Z</time>
      </trkpt>
      <trkpt lat="45.93529" lon="4.73358">
        <ele>169</ele>
        <time>2017-10-20T09:26:13Z</time>
      </trkpt>
      <trkpt lat="45.93529" lon="4.73354">
        <ele>169</ele>
        <time>2017-10-20T09:26:14Z</time>
      </trkpt>
      <trkpt lat="45.93527" lon="4.73344">
        <ele>169</ele>
        <time>2017-10-20T09:26:16Z</time>
      </trkpt>
      <trkpt lat="45.93526" lon="4.73339">
        <ele>169</ele>
        <time>2017-10-20T09:26:17Z</time>
      </trkpt>
      <trkpt lat="45.93525" lon="4.73328">
        <ele>169</ele>
        <time>2017-10-20T09:26:19Z</time>
      </trkpt>
      <trkpt lat="45.93523" lon="4.73323">
        <ele>169</ele>
        <time>2017-10-20T09:26:20Z</time>
      </trkpt>
      <trkpt lat="45.93522" lon="4.73311">
        <ele>169</ele>
        <time>2017-10-20T09:26:22Z</time>
      </trkpt>
      <trkpt lat="45.93521" lon="4.73305">
        <ele>169</ele>
        <time>2017-10-20T09:26:23Z</time>
      </trkpt>
      <trkpt lat="45.9352" lon="4.73298">
        <ele>169</ele>
        <time>2017-10-20T09:26:24Z</time>
      </trkpt>
      <trkpt lat="45.9352" lon="4.73292">
        <ele>169</ele>
        <time>2017-10-20T09:26:25Z</time>
      </trkpt>
      <trkpt lat="45.93518" lon="4.73285">
        <ele>169</ele>
        <time>2017-10-20T09:26:26Z</time>
      </trkpt>
      <trkpt lat="45.93517" lon="4.73278">
        <ele>169</ele>
        <time>2017-10-20T09:26:27Z</time>
      </trkpt>
      <trkpt lat="45.93514" lon="4.73266">
        <ele>169</ele>
        <time>2017-10-20T09:26:29Z</time>
      </trkpt>
      <trkpt lat="45.93513" lon="4.7326">
        <ele>169</ele>
        <time>2017-10-20T09:26:30Z</time>
      </trkpt>
      <trkpt lat="45.93512" lon="4.7325">
        <ele>169</ele>
        <time>2017-10-20T09:26:32Z</time>
      </trkpt>
      <trkpt lat="45.93511" lon="4.73244">
        <ele>169</ele>
        <time>2017-10-20T09:26:33Z</time>
      </trkpt>
      <trkpt lat="45.93509" lon="4.73232">
        <ele>169</ele>
        <time>2017-10-20T09:26:35Z</time>
      </trkpt>
      <trkpt lat="45.93508" lon="4.73225">
        <ele>169</ele>
        <time>2017-10-20T09:26:36Z</time>
      </trkpt>
      <trkpt lat="45.93507" lon="4.73218">
        <ele>169</ele>
        <time>2017-10-20T09:26:37Z</time>
      </trkpt>
      <trkpt lat="45.93505" lon="4.73212">
        <ele>169</ele>
        <time>2017-10-20T09:26:38Z</time>
      </trkpt>
      <trkpt lat="45.93504" lon="4.73204">
        <ele>169</ele>
        <time>2017-10-20T09:26:39Z</time>
      </trkpt>
      <trkpt lat="45.93502" lon="4.73198">
        <ele>169</ele>
        <time>2017-10-20T09:26:40Z</time>
      </trkpt>
      <trkpt lat="45.93499" lon="4.73186">
        <ele>169</ele>
        <time>2017-10-20T09:26:42Z</time>
      </trkpt>
      <trkpt lat="45.93497" lon="4.7318">
        <ele>169</ele>
        <time>2017-10-20T09:26:43Z</time>
      </trkpt>
      <trkpt lat="45.93495" lon="4.73171">
        <ele>170</ele>
        <time>2017-10-20T09:26:45Z</time>
      </trkpt>
      <trkpt lat="45.93493" lon="4.73166">
        <ele>170</ele>
        <time>2017-10-20T09:26:46Z</time>
      </trkpt>
      <trkpt lat="45.9349" lon="4.73154">
        <ele>170</ele>
        <time>2017-10-20T09:26:48Z</time>
      </trkpt>
      <trkpt lat="45.93488" lon="4.73149">
        <ele>170</ele>
        <time>2017-10-20T09:26:49Z</time>
      </trkpt>
      <trkpt lat="45.93487" lon="4.73143">
        <ele>170</ele>
        <time>2017-10-20T09:26:50Z</time>
      </trkpt>
      <trkpt lat="45.93485" lon="4.73136">
        <ele>170</ele>
        <time>2017-10-20T09:26:51Z</time>
      </trkpt>
      <trkpt lat="45.93484" lon="4.73124">
        <ele>170</ele>
        <time>2017-10-20T09:26:53Z</time>
      </trkpt>
      <trkpt lat="45.93484" lon="4.73118">
        <ele>170</ele>
        <time>2017-10-20T09:26:54Z</time>
      </trkpt>
      <trkpt lat="45.93483" lon="4.73108">
        <ele>170</ele>
        <time>2017-10-20T09:26:56Z</time>
      </trkpt>
      <trkpt lat="45.93483" lon="4.73102">
        <ele>170</ele>
        <time>2017-10-20T09:26:57Z</time>
      </trkpt>
      <trkpt lat="45.93483" lon="4.73091">
        <ele>170</ele>
        <time>2017-10-20T09:26:59Z</time>
      </trkpt>
      <trkpt lat="45.93484" lon="4.73083">
        <ele>170</ele>
        <time>2017-10-20T09:27:00Z</time>
      </trkpt>
      <trkpt lat="45.93483" lon="4.73071">
        <ele>170</ele>
        <time>2017-10-20T09:27:02Z</time>
      </trkpt>
      <trkpt lat="45.93483" lon="4.73064">
        <ele>170</ele>
        <time>2017-10-20T09:27:03Z</time>
      </trkpt>
      <trkpt lat="45.93483" lon="4.73058">
        <ele>170</ele>
        <time>2017-10-20T09:27:04Z</time>
      </trkpt>
      <trkpt lat="45.93484" lon="4.73051">
        <ele>170</ele>
        <time>2017-10-20T09:27:05Z</time>
      </trkpt>
      <trkpt lat="45.93485" lon="4.73038">
        <ele>170</ele>
        <time>2017-10-20T09:27:07Z</time>
      </trkpt>
      <trkpt lat="45.93485" lon="4.73032">
        <ele>170</ele>
        <time>2017-10-20T09:27:08Z</time>
      </trkpt>
      <trkpt lat="45.93487" lon="4.73021">
        <ele>170</ele>
        <time>2017-10-20T09:27:10Z</time>
      </trkpt>
      <trkpt lat="45.93487" lon="4.73016">
        <ele>170</ele>
        <time>2017-10-20T09:27:11Z</time>
      </trkpt>
      <trkpt lat="45.93488" lon="4.73004">
        <ele>170</ele>
        <time>2017-10-20T09:27:13Z</time>
      </trkpt>
      <trkpt lat="45.93487" lon="4.72998">
        <ele>170</ele>
        <time>2017-10-20T09:27:14Z</time>
      </trkpt>
      <trkpt lat="45.93488" lon="4.72986">
        <ele>170</ele>
        <time>2017-10-20T09:27:16Z</time>
      </trkpt>
      <trkpt lat="45.93489" lon="4.72979">
        <ele>171</ele>
        <time>2017-10-20T09:27:17Z</time>
      </trkpt>
      <trkpt lat="45.93491" lon="4.72973">
        <ele>171</ele>
        <time>2017-10-20T09:27:18Z</time>
      </trkpt>
      <trkpt lat="45.93493" lon="4.72967">
        <ele>171</ele>
        <time>2017-10-20T09:27:19Z</time>
      </trkpt>
      <trkpt lat="45.93495" lon="4.72956">
        <ele>171</ele>
        <time>2017-10-20T09:27:21Z</time>
      </trkpt>
      <trkpt lat="45.93497" lon="4.7295">
        <ele>171</ele>
        <time>2017-10-20T09:27:22Z</time>
      </trkpt>
      <trkpt lat="45.93498" lon="4.72939">
        <ele>172</ele>
        <time>2017-10-20T09:27:24Z</time>
      </trkpt>
      <trkpt lat="45.93499" lon="4.72933">
        <ele>172</ele>
        <time>2017-10-20T09:27:25Z</time>
      </trkpt>
      <trkpt lat="45.93504" lon="4.72922">
        <ele>172</ele>
        <time>2017-10-20T09:27:27Z</time>
      </trkpt>
      <trkpt lat="45.93506" lon="4.72917">
        <ele>172</ele>
        <time>2017-10-20T09:27:28Z</time>
      </trkpt>
      <trkpt lat="45.93512" lon="4.7291">
        <ele>172</ele>
        <time>2017-10-20T09:27:30Z</time>
      </trkpt>
      <trkpt lat="45.93515" lon="4.72907">
        <ele>172</ele>
        <time>2017-10-20T09:27:31Z</time>
      </trkpt>
      <trkpt lat="45.93522" lon="4.72901">
        <ele>172</ele>
        <time>2017-10-20T09:27:33Z</time>
      </trkpt>
      <trkpt lat="45.93526" lon="4.72897">
        <ele>172</ele>
        <time>2017-10-20T09:27:34Z</time>
      </trkpt>
      <trkpt lat="45.9353" lon="4.72892">
        <ele>172</ele>
        <time>2017-10-20T09:27:35Z</time>
      </trkpt>
      <trkpt lat="45.93533" lon="4.72888">
        <ele>172</ele>
        <time>2017-10-20T09:27:36Z</time>
      </trkpt>
      <trkpt lat="45.9354" lon="4.7288">
        <ele>172</ele>
        <time>2017-10-20T09:27:38Z</time>
      </trkpt>
      <trkpt lat="45.93544" lon="4.72876">
        <ele>172</ele>
        <time>2017-10-20T09:27:39Z</time>
      </trkpt>
      <trkpt lat="45.93549" lon="4.7287">
        <ele>172</ele>
        <time>2017-10-20T09:27:41Z</time>
      </trkpt>
      <trkpt lat="45.93553" lon="4.72867">
        <ele>172</ele>
        <time>2017-10-20T09:27:42Z</time>
      </trkpt>
      <trkpt lat="45.9356" lon="4.72861">
        <ele>172</ele>
        <time>2017-10-20T09:27:44Z</time>
      </trkpt>
      <trkpt lat="45.93564" lon="4.72857">
        <ele>172</ele>
        <time>2017-10-20T09:27:45Z</time>
      </trkpt>
      <trkpt lat="45.93568" lon="4.72854">
        <ele>172</ele>
        <time>2017-10-20T09:27:46Z</time>
      </trkpt>
      <trkpt lat="45.93572" lon="4.7285">
        <ele>172</ele>
        <time>2017-10-20T09:27:47Z</time>
      </trkpt>
      <trkpt lat="45.93576" lon="4.72846">
        <ele>172</ele>
        <time>2017-10-20T09:27:48Z</time>
      </trkpt>
      <trkpt lat="45.9358" lon="4.72842">
        <ele>172</ele>
        <time>2017-10-20T09:27:49Z</time>
      </trkpt>
      <trkpt lat="45.93585" lon="4.72839">
        <ele>172</ele>
        <time>2017-10-20T09:27:50Z</time>
      </trkpt>
      <trkpt lat="45.93589" lon="4.72836">
        <ele>172</ele>
        <time>2017-10-20T09:27:51Z</time>
      </trkpt>
      <trkpt lat="45.93594" lon="4.72833">
        <ele>173</ele>
        <time>2017-10-20T09:27:52Z</time>
      </trkpt>
      <trkpt lat="45.93598" lon="4.7283">
        <ele>173</ele>
        <time>2017-10-20T09:27:53Z</time>
      </trkpt>
      <trkpt lat="45.93602" lon="4.72828">
        <ele>173</ele>
        <time>2017-10-20T09:27:54Z</time>
      </trkpt>
      <trkpt lat="45.93606" lon="4.72824">
        <ele>173</ele>
        <time>2017-10-20T09:27:55Z</time>
      </trkpt>
      <trkpt lat="45.93614" lon="4.72817">
        <ele>173</ele>
        <time>2017-10-20T09:27:57Z</time>
      </trkpt>
      <trkpt lat="45.93617" lon="4.72814">
        <ele>173</ele>
        <time>2017-10-20T09:27:58Z</time>
      </trkpt>
      <trkpt lat="45.93625" lon="4.72808">
        <ele>173</ele>
        <time>2017-10-20T09:28:00Z</time>
      </trkpt>
      <trkpt lat="45.93629" lon="4.72804">
        <ele>173</ele>
        <time>2017-10-20T09:28:01Z</time>
      </trkpt>
      <trkpt lat="45.93636" lon="4.72798">
        <ele>173</ele>
        <time>2017-10-20T09:28:03Z</time>
      </trkpt>
      <trkpt lat="45.93641" lon="4.72795">
        <ele>173</ele>
        <time>2017-10-20T09:28:04Z</time>
      </trkpt>
      <trkpt lat="45.93645" lon="4.72792">
        <ele>173</ele>
        <time>2017-10-20T09:28:05Z</time>
      </trkpt>
      <trkpt lat="45.9365" lon="4.72789">
        <ele>173</ele>
        <time>2017-10-20T09:28:06Z</time>
      </trkpt>
      <trkpt lat="45.93656" lon="4.72782">
        <ele>174</ele>
        <time>2017-10-20T09:28:08Z</time>
      </trkpt>
      <trkpt lat="45.9366" lon="4.7278">
        <ele>174</ele>
        <time>2017-10-20T09:28:09Z</time>
      </trkpt>
      <trkpt lat="45.93667" lon="4.72774">
        <ele>173</ele>
        <time>2017-10-20T09:28:11Z</time>
      </trkpt>
      <trkpt lat="45.9367" lon="4.72772">
        <ele>173</ele>
        <time>2017-10-20T09:28:12Z</time>
      </trkpt>
      <trkpt lat="45.93677" lon="4.72767">
        <ele>173</ele>
        <time>2017-10-20T09:28:14Z</time>
      </trkpt>
      <trkpt lat="45.93681" lon="4.72763">
        <ele>173</ele>
        <time>2017-10-20T09:28:15Z</time>
      </trkpt>
      <trkpt lat="45.93688" lon="4.72758">
        <ele>172</ele>
        <time>2017-10-20T09:28:17Z</time>
      </trkpt>
      <trkpt lat="45.93693" lon="4.72755">
        <ele>172</ele>
        <time>2017-10-20T09:28:18Z</time>
      </trkpt>
      <trkpt lat="45.93697" lon="4.72751">
        <ele>172</ele>
        <time>2017-10-20T09:28:19Z</time>
      </trkpt>
      <trkpt lat="45.93701" lon="4.72746">
        <ele>173</ele>
        <time>2017-10-20T09:28:20Z</time>
      </trkpt>
      <trkpt lat="45.93705" lon="4.72741">
        <ele>173</ele>
        <time>2017-10-20T09:28:21Z</time>
      </trkpt>
      <trkpt lat="45.93709" lon="4.72736">
        <ele>173</ele>
        <time>2017-10-20T09:28:22Z</time>
      </trkpt>
      <trkpt lat="45.93712" lon="4.72731">
        <ele>173</ele>
        <time>2017-10-20T09:28:23Z</time>
      </trkpt>
      <trkpt lat="45.93716" lon="4.72728">
        <ele>173</ele>
        <time>2017-10-20T09:28:24Z</time>
      </trkpt>
      <trkpt lat="45.9372" lon="4.72724">
        <ele>173</ele>
        <time>2017-10-20T09:28:25Z</time>
      </trkpt>
      <trkpt lat="45.93724" lon="4.72722">
        <ele>173</ele>
        <time>2017-10-20T09:28:26Z</time>
      </trkpt>
      <trkpt lat="45.93731" lon="4.72715">
        <ele>173</ele>
        <time>2017-10-20T09:28:28Z</time>
      </trkpt>
      <trkpt lat="45.93735" lon="4.72712">
        <ele>173</ele>
        <time>2017-10-20T09:28:29Z</time>
      </trkpt>
      <trkpt lat="45.93739" lon="4.72708">
        <ele>173</ele>
        <time>2017-10-20T09:28:30Z</time>
      </trkpt>
      <trkpt lat="45.93743" lon="4.72704">
        <ele>173</ele>
        <time>2017-10-20T09:28:31Z</time>
      </trkpt>
      <trkpt lat="45.93747" lon="4.727">
        <ele>173</ele>
        <time>2017-10-20T09:28:32Z</time>
      </trkpt>
      <trkpt lat="45.93751" lon="4.72695">
        <ele>172</ele>
        <time>2017-10-20T09:28:33Z</time>
      </trkpt>
      <trkpt lat="45.93755" lon="4.72691">
        <ele>172</ele>
        <time>2017-10-20T09:28:34Z</time>
      </trkpt>
      <trkpt lat="45.93759" lon="4.72686">
        <ele>173</ele>
        <time>2017-10-20T09:28:35Z</time>
      </trkpt>
      <trkpt lat="45.93763" lon="4.72681">
        <ele>173</ele>
        <time>2017-10-20T09:28:36Z</time>
      </trkpt>
      <trkpt lat="45.93768" lon="4.72676">
        <ele>173</ele>
        <time>2017-10-20T09:28:37Z</time>
      </trkpt>
      <trkpt lat="45.93772" lon="4.72672">
        <ele>173</ele>
        <time>2017-10-20T09:28:38Z</time>
      </trkpt>
      <trkpt lat="45.93775" lon="4.72668">
        <ele>172</ele>
        <time>2017-10-20T09:28:39Z</time>
      </trkpt>
      <trkpt lat="45.9378" lon="4.72663">
        <ele>173</ele>
        <time>2017-10-20T09:28:40Z</time>
      </trkpt>
      <trkpt lat="45.93783" lon="4.72658">
        <ele>173</ele>
        <time>2017-10-20T09:28:41Z</time>
      </trkpt>
      <trkpt lat="45.93786" lon="4.72655">
        <ele>173</ele>
        <time>2017-10-20T09:28:42Z</time>
      </trkpt>
      <trkpt lat="45.9379" lon="4.7265">
        <ele>173</ele>
        <time>2017-10-20T09:28:43Z</time>
      </trkpt>
      <trkpt lat="45.93794" lon="4.72646">
        <ele>173</ele>
        <time>2017-10-20T09:28:44Z</time>
      </trkpt>
      <trkpt lat="45.93798" lon="4.7264">
        <ele>173</ele>
        <time>2017-10-20T09:28:45Z</time>
      </trkpt>
      <trkpt lat="45.93802" lon="4.72634">
        <ele>173</ele>
        <time>2017-10-20T09:28:46Z</time>
      </trkpt>
      <trkpt lat="45.93806" lon="4.72629">
        <ele>173</ele>
        <time>2017-10-20T09:28:47Z</time>
      </trkpt>
      <trkpt lat="45.93809" lon="4.72624">
        <ele>173</ele>
        <time>2017-10-20T09:28:48Z</time>
      </trkpt>
      <trkpt lat="45.93812" lon="4.7262">
        <ele>173</ele>
        <time>2017-10-20T09:28:49Z</time>
      </trkpt>
      <trkpt lat="45.93815" lon="4.72615">
        <ele>173</ele>
        <time>2017-10-20T09:28:50Z</time>
      </trkpt>
      <trkpt lat="45.93818" lon="4.7261">
        <ele>173</ele>
        <time>2017-10-20T09:28:51Z</time>
      </trkpt>
      <trkpt lat="45.9382" lon="4.726">
        <ele>173</ele>
        <time>2017-10-20T09:28:53Z</time>
      </trkpt>
      <trkpt lat="45.93818" lon="4.72594">
        <ele>174</ele>
        <time>2017-10-20T09:28:54Z</time>
      </trkpt>
      <trkpt lat="45.93816" lon="4.72589">
        <ele>174</ele>
        <time>2017-10-20T09:28:55Z</time>
      </trkpt>
      <trkpt lat="45.93813" lon="4.72584">
        <ele>174</ele>
        <time>2017-10-20T09:28:56Z</time>
      </trkpt>
      <trkpt lat="45.93808" lon="4.7258">
        <ele>174</ele>
        <time>2017-10-20T09:28:57Z</time>
      </trkpt>
      <trkpt lat="45.93804" lon="4.72576">
        <ele>174</ele>
        <time>2017-10-20T09:28:58Z</time>
      </trkpt>
      <trkpt lat="45.93798" lon="4.72569">
        <ele>174</ele>
        <time>2017-10-20T09:29:00Z</time>
      </trkpt>
      <trkpt lat="45.93795" lon="4.72565">
        <ele>174</ele>
        <time>2017-10-20T09:29:01Z</time>
      </trkpt>
      <trkpt lat="45.93788" lon="4.72558">
        <ele>173</ele>
        <time>2017-10-20T09:29:03Z</time>
      </trkpt>
      <trkpt lat="45.93786" lon="4.72554">
        <ele>173</ele>
        <time>2017-10-20T09:29:04Z</time>
      </trkpt>
      <trkpt lat="45.9378" lon="4.72548">
        <ele>173</ele>
        <time>2017-10-20T09:29:06Z</time>
      </trkpt>
      <trkpt lat="45.93777" lon="4.72548">
        <ele>173</ele>
        <time>2017-10-20T09:29:07Z</time>
      </trkpt>
      <trkpt lat="45.9377" lon="4.72544">
        <ele>173</ele>
        <time>2017-10-20T09:29:09Z</time>
      </trkpt>
      <trkpt lat="45.93766" lon="4.72542">
        <ele>173</ele>
        <time>2017-10-20T09:29:10Z</time>
      </trkpt>
      <trkpt lat="45.93758" lon="4.72537">
        <ele>173</ele>
        <time>2017-10-20T09:29:12Z</time>
      </trkpt>
      <trkpt lat="45.93755" lon="4.72534">
        <ele>173</ele>
        <time>2017-10-20T09:29:13Z</time>
      </trkpt>
      <trkpt lat="45.93747" lon="4.72527">
        <ele>172</ele>
        <time>2017-10-20T09:29:15Z</time>
      </trkpt>
      <trkpt lat="45.93744" lon="4.72524">
        <ele>172</ele>
        <time>2017-10-20T09:29:16Z</time>
      </trkpt>
      <trkpt lat="45.93739" lon="4.7252">
        <ele>171</ele>
        <time>2017-10-20T09:29:17Z</time>
      </trkpt>
      <trkpt lat="45.93733" lon="4.72515">
        <ele>171</ele>
        <time>2017-10-20T09:29:18Z</time>
      </trkpt>
      <trkpt lat="45.9373" lon="4.72511">
        <ele>171</ele>
        <time>2017-10-20T09:29:19Z</time>
      </trkpt>
      <trkpt lat="45.93727" lon="4.72506">
        <ele>171</ele>
        <time>2017-10-20T09:29:20Z</time>
      </trkpt>
      <trkpt lat="45.93722" lon="4.72498">
        <ele>171</ele>
        <time>2017-10-20T09:29:22Z</time>
      </trkpt>
      <trkpt lat="45.93718" lon="4.72494">
        <ele>171</ele>
        <time>2017-10-20T09:29:23Z</time>
      </trkpt>
      <trkpt lat="45.93711" lon="4.72487">
        <ele>171</ele>
        <time>2017-10-20T09:29:25Z</time>
      </trkpt>
      <trkpt lat="45.93707" lon="4.72484">
        <ele>171</ele>
        <time>2017-10-20T09:29:26Z</time>
      </trkpt>
      <trkpt lat="45.93703" lon="4.72482">
        <ele>171</ele>
        <time>2017-10-20T09:29:27Z</time>
      </trkpt>
      <trkpt lat="45.93699" lon="4.72478">
        <ele>171</ele>
        <time>2017-10-20T09:29:28Z</time>
      </trkpt>
      <trkpt lat="45.93695" lon="4.72474">
        <ele>171</ele>
        <time>2017-10-20T09:29:29Z</time>
      </trkpt>
      <trkpt lat="45.93692" lon="4.7247">
        <ele>171</ele>
        <time>2017-10-20T09:29:30Z</time>
      </trkpt>
      <trkpt lat="45.93688" lon="4.72466">
        <ele>171</ele>
        <time>2017-10-20T09:29:31Z</time>
      </trkpt>
      <trkpt lat="45.93684" lon="4.72463">
        <ele>171</ele>
        <time>2017-10-20T09:29:32Z</time>
      </trkpt>
      <trkpt lat="45.93681" lon="4.7246">
        <ele>171</ele>
        <time>2017-10-20T09:29:33Z</time>
      </trkpt>
      <trkpt lat="45.93677" lon="4.72456">
        <ele>171</ele>
        <time>2017-10-20T09:29:34Z</time>
      </trkpt>
      <trkpt lat="45.9367" lon="4.72448">
        <ele>171</ele>
        <time>2017-10-20T09:29:36Z</time>
      </trkpt>
      <trkpt lat="45.93668" lon="4.72443">
        <ele>171</ele>
        <time>2017-10-20T09:29:37Z</time>
      </trkpt>
      <trkpt lat="45.93663" lon="4.72435">
        <ele>172</ele>
        <time>2017-10-20T09:29:39Z</time>
      </trkpt>
      <trkpt lat="45.93658" lon="4.72428">
        <ele>172</ele>
        <time>2017-10-20T09:29:40Z</time>
      </trkpt>
      <trkpt lat="45.93653" lon="4.72417">
        <ele>172</ele>
        <time>2017-10-20T09:29:42Z</time>
      </trkpt>
      <trkpt lat="45.93646" lon="4.72414">
        <ele>172</ele>
        <time>2017-10-20T09:29:43Z</time>
      </trkpt>
      <trkpt lat="45.93643" lon="4.72408">
        <ele>172</ele>
        <time>2017-10-20T09:29:45Z</time>
      </trkpt>
      <trkpt lat="45.93641" lon="4.72404">
        <ele>172</ele>
        <time>2017-10-20T09:29:46Z</time>
      </trkpt>
      <trkpt lat="45.93634" lon="4.72394">
        <ele>172</ele>
        <time>2017-10-20T09:29:49Z</time>
      </trkpt>
      <trkpt lat="45.93631" lon="4.72391">
        <ele>172</ele>
        <time>2017-10-20T09:29:50Z</time>
      </trkpt>
      <trkpt lat="45.93625" lon="4.72383">
        <ele>172</ele>
        <time>2017-10-20T09:29:53Z</time>
      </trkpt>
      <trkpt lat="45.93622" lon="4.72379">
        <ele>172</ele>
        <time>2017-10-20T09:29:54Z</time>
      </trkpt>
      <trkpt lat="45.93616" lon="4.72372">
        <ele>172</ele>
        <time>2017-10-20T09:29:57Z</time>
      </trkpt>
      <trkpt lat="45.93614" lon="4.7237">
        <ele>172</ele>
        <time>2017-10-20T09:29:58Z</time>
      </trkpt>
      <trkpt lat="45.93608" lon="4.72363">
        <ele>172</ele>
        <time>2017-10-20T09:30:01Z</time>
      </trkpt>
      <trkpt lat="45.93606" lon="4.72361">
        <ele>172</ele>
        <time>2017-10-20T09:30:02Z</time>
      </trkpt>
      <trkpt lat="45.936" lon="4.72354">
        <ele>172</ele>
        <time>2017-10-20T09:30:05Z</time>
      </trkpt>
      <trkpt lat="45.93598" lon="4.72352">
        <ele>172</ele>
        <time>2017-10-20T09:30:06Z</time>
      </trkpt>
      <trkpt lat="45.93592" lon="4.72347">
        <ele>172</ele>
        <time>2017-10-20T09:30:08Z</time>
      </trkpt>
      <trkpt lat="45.93589" lon="4.72344">
        <ele>173</ele>
        <time>2017-10-20T09:30:09Z</time>
      </trkpt>
      <trkpt lat="45.93582" lon="4.72337">
        <ele>173</ele>
        <time>2017-10-20T09:30:12Z</time>
      </trkpt>
      <trkpt lat="45.9358" lon="4.72336">
        <ele>173</ele>
        <time>2017-10-20T09:30:13Z</time>
      </trkpt>
      <trkpt lat="45.93574" lon="4.72332">
        <ele>173</ele>
        <time>2017-10-20T09:30:15Z</time>
      </trkpt>
      <trkpt lat="45.93571" lon="4.72329">
        <ele>173</ele>
        <time>2017-10-20T09:30:16Z</time>
      </trkpt>
      <trkpt lat="45.93565" lon="4.72325">
        <ele>173</ele>
        <time>2017-10-20T09:30:18Z</time>
      </trkpt>
      <trkpt lat="45.93561" lon="4.72324">
        <ele>173</ele>
        <time>2017-10-20T09:30:19Z</time>
      </trkpt>
      <trkpt lat="45.93555" lon="4.72321">
        <ele>173</ele>
        <time>2017-10-20T09:30:21Z</time>
      </trkpt>
      <trkpt lat="45.93552" lon="4.72319">
        <ele>173</ele>
        <time>2017-10-20T09:30:22Z</time>
      </trkpt>
      <trkpt lat="45.93546" lon="4.72316">
        <ele>173</ele>
        <time>2017-10-20T09:30:24Z</time>
      </trkpt>
      <trkpt lat="45.93543" lon="4.72316">
        <ele>173</ele>
        <time>2017-10-20T09:30:25Z</time>
      </trkpt>
      <trkpt lat="45.93534" lon="4.72315">
        <ele>173</ele>
        <time>2017-10-20T09:30:28Z</time>
      </trkpt>
      <trkpt lat="45.93531" lon="4.72315">
        <ele>173</ele>
        <time>2017-10-20T09:30:29Z</time>
      </trkpt>
      <trkpt lat="45.93524" lon="4.7232">
        <ele>173</ele>
        <time>2017-10-20T09:30:32Z</time>
      </trkpt>
      <trkpt lat="45.93522" lon="4.72322">
        <ele>173</ele>
        <time>2017-10-20T09:30:33Z</time>
      </trkpt>
      <trkpt lat="45.93515" lon="4.7233">
        <ele>173</ele>
        <time>2017-10-20T09:30:40Z</time>
      </trkpt>
      <trkpt lat="45.93514" lon="4.72331">
        <ele>173</ele>
        <time>2017-10-20T09:30:41Z</time>
      </trkpt>
      <trkpt lat="45.93512" lon="4.7232">
        <ele>173</ele>
        <time>2017-10-20T09:30:47Z</time>
      </trkpt>
      <trkpt lat="45.93514" lon="4.72317">
        <ele>173</ele>
        <time>2017-10-20T09:30:48Z</time>
      </trkpt>
      <trkpt lat="45.9352" lon="4.72307">
        <ele>173</ele>
        <time>2017-10-20T09:30:51Z</time>
      </trkpt>
      <trkpt lat="45.93522" lon="4.72304">
        <ele>173</ele>
        <time>2017-10-20T09:30:52Z</time>
      </trkpt>
      <trkpt lat="45.93526" lon="4.72296">
        <ele>172</ele>
        <time>2017-10-20T09:30:54Z</time>
      </trkpt>
      <trkpt lat="45.93527" lon="4.72292">
        <ele>172</ele>
        <time>2017-10-20T09:30:55Z</time>
      </trkpt>
      <trkpt lat="45.9353" lon="4.72284">
        <ele>172</ele>
        <time>2017-10-20T09:30:57Z</time>
      </trkpt>
      <trkpt lat="45.93531" lon="4.7228">
        <ele>172</ele>
        <time>2017-10-20T09:30:58Z</time>
      </trkpt>
      <trkpt lat="45.93534" lon="4.7227">
        <ele>172</ele>
        <time>2017-10-20T09:31:00Z</time>
      </trkpt>
      <trkpt lat="45.93535" lon="4.72266">
        <ele>172</ele>
        <time>2017-10-20T09:31:01Z</time>
      </trkpt>
      <trkpt lat="45.93537" lon="4.72257">
        <ele>172</ele>
        <time>2017-10-20T09:31:03Z</time>
      </trkpt>
      <trkpt lat="45.93539" lon="4.72253">
        <ele>172</ele>
        <time>2017-10-20T09:31:04Z</time>
      </trkpt>
      <trkpt lat="45.93543" lon="4.72244">
        <ele>172</ele>
        <time>2017-10-20T09:31:06Z</time>
      </trkpt>
      <trkpt lat="45.93544" lon="4.7224">
        <ele>172</ele>
        <time>2017-10-20T09:31:07Z</time>
      </trkpt>
      <trkpt lat="45.93548" lon="4.72231">
        <ele>172</ele>
        <time>2017-10-20T09:31:09Z</time>
      </trkpt>
      <trkpt lat="45.9355" lon="4.72227">
        <ele>172</ele>
        <time>2017-10-20T09:31:10Z</time>
      </trkpt>
      <trkpt lat="45.93553" lon="4.72215">
        <ele>173</ele>
        <time>2017-10-20T09:31:12Z</time>
      </trkpt>
      <trkpt lat="45.93551" lon="4.72211">
        <ele>173</ele>
        <time>2017-10-20T09:31:13Z</time>
      </trkpt>
      <trkpt lat="45.93545" lon="4.72206">
        <ele>173</ele>
        <time>2017-10-20T09:31:15Z</time>
      </trkpt>
      <trkpt lat="45.9354" lon="4.72207">
        <ele>172</ele>
        <time>2017-10-20T09:31:16Z</time>
      </trkpt>
      <trkpt lat="45.93532" lon="4.72208">
        <ele>172</ele>
        <time>2017-10-20T09:31:18Z</time>
      </trkpt>
      <trkpt lat="45.9353" lon="4.72207">
        <ele>172</ele>
        <time>2017-10-20T09:31:19Z</time>
      </trkpt>
      <trkpt lat="45.93523" lon="4.72205">
        <ele>172</ele>
        <time>2017-10-20T09:31:21Z</time>
      </trkpt>
      <trkpt lat="45.93521" lon="4.72204">
        <ele>172</ele>
        <time>2017-10-20T09:31:22Z</time>
      </trkpt>
      <trkpt lat="45.93514" lon="4.72201">
        <ele>172</ele>
        <time>2017-10-20T09:31:24Z</time>
      </trkpt>
      <trkpt lat="45.9351" lon="4.72198">
        <ele>172</ele>
        <time>2017-10-20T09:31:25Z</time>
      </trkpt>
      <trkpt lat="45.93506" lon="4.72197">
        <ele>172</ele>
        <time>2017-10-20T09:31:26Z</time>
      </trkpt>
      <trkpt lat="45.935" lon="4.72195">
        <ele>173</ele>
        <time>2017-10-20T09:31:27Z</time>
      </trkpt>
      <trkpt lat="45.93495" lon="4.72193">
        <ele>173</ele>
        <time>2017-10-20T09:31:28Z</time>
      </trkpt>
      <trkpt lat="45.9349" lon="4.72191">
        <ele>173</ele>
        <time>2017-10-20T09:31:29Z</time>
      </trkpt>
      <trkpt lat="45.93485" lon="4.72189">
        <ele>173</ele>
        <time>2017-10-20T09:31:30Z</time>
      </trkpt>
      <trkpt lat="45.9348" lon="4.72186">
        <ele>173</ele>
        <time>2017-10-20T09:31:31Z</time>
      </trkpt>
      <trkpt lat="45.93471" lon="4.72181">
        <ele>174</ele>
        <time>2017-10-20T09:31:33Z</time>
      </trkpt>
      <trkpt lat="45.93467" lon="4.72179">
        <ele>174</ele>
        <time>2017-10-20T09:31:34Z</time>
      </trkpt>
      <trkpt lat="45.93459" lon="4.72178">
        <ele>174</ele>
        <time>2017-10-20T09:31:36Z</time>
      </trkpt>
      <trkpt lat="45.93455" lon="4.72178">
        <ele>174</ele>
        <time>2017-10-20T09:31:37Z</time>
      </trkpt>
      <trkpt lat="45.9345" lon="4.72179">
        <ele>174</ele>
        <time>2017-10-20T09:31:38Z</time>
      </trkpt>
      <trkpt lat="45.93446" lon="4.72179">
        <ele>174</ele>
        <time>2017-10-20T09:31:39Z</time>
      </trkpt>
      <trkpt lat="45.93441" lon="4.72178">
        <ele>175</ele>
        <time>2017-10-20T09:31:40Z</time>
      </trkpt>
      <trkpt lat="45.93436" lon="4.72179">
        <ele>175</ele>
        <time>2017-10-20T09:31:41Z</time>
      </trkpt>
      <trkpt lat="45.93432" lon="4.72181">
        <ele>175</ele>
        <time>2017-10-20T09:31:42Z</time>
      </trkpt>
      <trkpt lat="45.93427" lon="4.72185">
        <ele>175</ele>
        <time>2017-10-20T09:31:43Z</time>
      </trkpt>
      <trkpt lat="45.93423" lon="4.72188">
        <ele>175</ele>
        <time>2017-10-20T09:31:44Z</time>
      </trkpt>
      <trkpt lat="45.93419" lon="4.72191">
        <ele>175</ele>
        <time>2017-10-20T09:31:45Z</time>
      </trkpt>
      <trkpt lat="45.93411" lon="4.72196">
        <ele>176</ele>
        <time>2017-10-20T09:31:47Z</time>
      </trkpt>
      <trkpt lat="45.93408" lon="4.72195">
        <ele>176</ele>
        <time>2017-10-20T09:31:48Z</time>
      </trkpt>
      <trkpt lat="45.93404" lon="4.72195">
        <ele>176</ele>
        <time>2017-10-20T09:31:49Z</time>
      </trkpt>
      <trkpt lat="45.93398" lon="4.72197">
        <ele>176</ele>
        <time>2017-10-20T09:31:50Z</time>
      </trkpt>
      <trkpt lat="45.93393" lon="4.72198">
        <ele>176</ele>
        <time>2017-10-20T09:31:51Z</time>
      </trkpt>
      <trkpt lat="45.93387" lon="4.72199">
        <ele>176</ele>
        <time>2017-10-20T09:31:52Z</time>
      </trkpt>
      <trkpt lat="45.93379" lon="4.72203">
        <ele>176</ele>
        <time>2017-10-20T09:31:54Z</time>
      </trkpt>
      <trkpt lat="45.93375" lon="4.72202">
        <ele>176</ele>
        <time>2017-10-20T09:31:55Z</time>
      </trkpt>
      <trkpt lat="45.93367" lon="4.72204">
        <ele>177</ele>
        <time>2017-10-20T09:31:57Z</time>
      </trkpt>
      <trkpt lat="45.93363" lon="4.72203">
        <ele>177</ele>
        <time>2017-10-20T09:31:58Z</time>
      </trkpt>
      <trkpt lat="45.93359" lon="4.72204">
        <ele>177</ele>
        <time>2017-10-20T09:31:59Z</time>
      </trkpt>
      <trkpt lat="45.93353" lon="4.72208">
        <ele>177</ele>
        <time>2017-10-20T09:32:00Z</time>
      </trkpt>
      <trkpt lat="45.93347" lon="4.72209">
        <ele>177</ele>
        <time>2017-10-20T09:32:01Z</time>
      </trkpt>
      <trkpt lat="45.93342" lon="4.7221">
        <ele>177</ele>
        <time>2017-10-20T09:32:02Z</time>
      </trkpt>
      <trkpt lat="45.93333" lon="4.72211">
        <ele>176</ele>
        <time>2017-10-20T09:32:04Z</time>
      </trkpt>
      <trkpt lat="45.9333" lon="4.7221">
        <ele>176</ele>
        <time>2017-10-20T09:32:05Z</time>
      </trkpt>
      <trkpt lat="45.93323" lon="4.7221">
        <ele>176</ele>
        <time>2017-10-20T09:32:07Z</time>
      </trkpt>
      <trkpt lat="45.93319" lon="4.7221">
        <ele>176</ele>
        <time>2017-10-20T09:32:08Z</time>
      </trkpt>
      <trkpt lat="45.93311" lon="4.72209">
        <ele>175</ele>
        <time>2017-10-20T09:32:10Z</time>
      </trkpt>
      <trkpt lat="45.93307" lon="4.7221">
        <ele>175</ele>
        <time>2017-10-20T09:32:11Z</time>
      </trkpt>
      <trkpt lat="45.93301" lon="4.72211">
        <ele>175</ele>
        <time>2017-10-20T09:32:13Z</time>
      </trkpt>
      <trkpt lat="45.93298" lon="4.72213">
        <ele>175</ele>
        <time>2017-10-20T09:32:14Z</time>
      </trkpt>
      <trkpt lat="45.93292" lon="4.72213">
        <ele>175</ele>
        <time>2017-10-20T09:32:15Z</time>
      </trkpt>
      <trkpt lat="45.93287" lon="4.72213">
        <ele>175</ele>
        <time>2017-10-20T09:32:16Z</time>
      </trkpt>
      <trkpt lat="45.93282" lon="4.72214">
        <ele>174</ele>
        <time>2017-10-20T09:32:17Z</time>
      </trkpt>
      <trkpt lat="45.93277" lon="4.72213">
        <ele>174</ele>
        <time>2017-10-20T09:32:18Z</time>
      </trkpt>
      <trkpt lat="45.9327" lon="4.72211">
        <ele>174</ele>
        <time>2017-10-20T09:32:19Z</time>
      </trkpt>
      <trkpt lat="45.93265" lon="4.7221">
        <ele>174</ele>
        <time>2017-10-20T09:32:20Z</time>
      </trkpt>
      <trkpt lat="45.9326" lon="4.72208">
        <ele>174</ele>
        <time>2017-10-20T09:32:21Z</time>
      </trkpt>
      <trkpt lat="45.93255" lon="4.72209">
        <ele>174</ele>
        <time>2017-10-20T09:32:22Z</time>
      </trkpt>
      <trkpt lat="45.93247" lon="4.72209">
        <ele>171</ele>
        <time>2017-10-20T09:32:24Z</time>
      </trkpt>
      <trkpt lat="45.93242" lon="4.7221">
        <ele>171</ele>
        <time>2017-10-20T09:32:25Z</time>
      </trkpt>
      <trkpt lat="45.93234" lon="4.72213">
        <ele>171</ele>
        <time>2017-10-20T09:32:27Z</time>
      </trkpt>
      <trkpt lat="45.93231" lon="4.72213">
        <ele>171</ele>
        <time>2017-10-20T09:32:28Z</time>
      </trkpt>
      <trkpt lat="45.93223" lon="4.72215">
        <ele>171</ele>
        <time>2017-10-20T09:32:30Z</time>
      </trkpt>
      <trkpt lat="45.93219" lon="4.72215">
        <ele>171</ele>
        <time>2017-10-20T09:32:31Z</time>
      </trkpt>
      <trkpt lat="45.93215" lon="4.72216">
        <ele>171</ele>
        <time>2017-10-20T09:32:32Z</time>
      </trkpt>
      <trkpt lat="45.93208" lon="4.72218">
        <ele>171</ele>
        <time>2017-10-20T09:32:33Z</time>
      </trkpt>
      <trkpt lat="45.93203" lon="4.72219">
        <ele>171</ele>
        <time>2017-10-20T09:32:34Z</time>
      </trkpt>
      <trkpt lat="45.93198" lon="4.7222">
        <ele>171</ele>
        <time>2017-10-20T09:32:35Z</time>
      </trkpt>
      <trkpt lat="45.93191" lon="4.72222">
        <ele>171</ele>
        <time>2017-10-20T09:32:37Z</time>
      </trkpt>
      <trkpt lat="45.93188" lon="4.72222">
        <ele>171</ele>
        <time>2017-10-20T09:32:38Z</time>
      </trkpt>
      <trkpt lat="45.9318" lon="4.72222">
        <ele>170</ele>
        <time>2017-10-20T09:32:40Z</time>
      </trkpt>
      <trkpt lat="45.93177" lon="4.72223">
        <ele>170</ele>
        <time>2017-10-20T09:32:41Z</time>
      </trkpt>
      <trkpt lat="45.9317" lon="4.72219">
        <ele>170</ele>
        <time>2017-10-20T09:32:43Z</time>
      </trkpt>
      <trkpt lat="45.93166" lon="4.72211">
        <ele>170</ele>
        <time>2017-10-20T09:32:44Z</time>
      </trkpt>
      <trkpt lat="45.93163" lon="4.722">
        <ele>170</ele>
        <time>2017-10-20T09:32:46Z</time>
      </trkpt>
      <trkpt lat="45.93163" lon="4.72194">
        <ele>170</ele>
        <time>2017-10-20T09:32:47Z</time>
      </trkpt>
      <trkpt lat="45.93164" lon="4.72187">
        <ele>170</ele>
        <time>2017-10-20T09:32:48Z</time>
      </trkpt>
      <trkpt lat="45.93165" lon="4.72181">
        <ele>169</ele>
        <time>2017-10-20T09:32:49Z</time>
      </trkpt>
      <trkpt lat="45.93168" lon="4.72168">
        <ele>169</ele>
        <time>2017-10-20T09:32:51Z</time>
      </trkpt>
      <trkpt lat="45.93169" lon="4.72163">
        <ele>169</ele>
        <time>2017-10-20T09:32:52Z</time>
      </trkpt>
      <trkpt lat="45.93171" lon="4.7215">
        <ele>169</ele>
        <time>2017-10-20T09:32:54Z</time>
      </trkpt>
      <trkpt lat="45.93172" lon="4.72143">
        <ele>170</ele>
        <time>2017-10-20T09:32:55Z</time>
      </trkpt>
      <trkpt lat="45.93172" lon="4.72137">
        <ele>170</ele>
        <time>2017-10-20T09:32:56Z</time>
      </trkpt>
      <trkpt lat="45.93173" lon="4.7213">
        <ele>170</ele>
        <time>2017-10-20T09:32:57Z</time>
      </trkpt>
      <trkpt lat="45.93173" lon="4.72123">
        <ele>170</ele>
        <time>2017-10-20T09:32:58Z</time>
      </trkpt>
      <trkpt lat="45.93174" lon="4.72115">
        <ele>170</ele>
        <time>2017-10-20T09:32:59Z</time>
      </trkpt>
      <trkpt lat="45.93175" lon="4.72108">
        <ele>170</ele>
        <time>2017-10-20T09:33:00Z</time>
      </trkpt>
      <trkpt lat="45.93176" lon="4.72102">
        <ele>170</ele>
        <time>2017-10-20T09:33:01Z</time>
      </trkpt>
      <trkpt lat="45.93177" lon="4.72092">
        <ele>169</ele>
        <time>2017-10-20T09:33:03Z</time>
      </trkpt>
      <trkpt lat="45.93179" lon="4.72086">
        <ele>169</ele>
        <time>2017-10-20T09:33:04Z</time>
      </trkpt>
      <trkpt lat="45.9318" lon="4.7208">
        <ele>169</ele>
        <time>2017-10-20T09:33:05Z</time>
      </trkpt>
      <trkpt lat="45.93181" lon="4.72073">
        <ele>169</ele>
        <time>2017-10-20T09:33:06Z</time>
      </trkpt>
      <trkpt lat="45.93181" lon="4.72066">
        <ele>170</ele>
        <time>2017-10-20T09:33:07Z</time>
      </trkpt>
      <trkpt lat="45.93181" lon="4.7206">
        <ele>170</ele>
        <time>2017-10-20T09:33:08Z</time>
      </trkpt>
      <trkpt lat="45.93181" lon="4.72053">
        <ele>170</ele>
        <time>2017-10-20T09:33:09Z</time>
      </trkpt>
      <trkpt lat="45.93182" lon="4.72047">
        <ele>170</ele>
        <time>2017-10-20T09:33:10Z</time>
      </trkpt>
      <trkpt lat="45.93181" lon="4.7204">
        <ele>170</ele>
        <time>2017-10-20T09:33:11Z</time>
      </trkpt>
      <trkpt lat="45.93178" lon="4.72035">
        <ele>170</ele>
        <time>2017-10-20T09:33:12Z</time>
      </trkpt>
      <trkpt lat="45.93171" lon="4.72029">
        <ele>170</ele>
        <time>2017-10-20T09:33:14Z</time>
      </trkpt>
      <trkpt lat="45.93167" lon="4.72028">
        <ele>170</ele>
        <time>2017-10-20T09:33:15Z</time>
      </trkpt>
      <trkpt lat="45.93159" lon="4.72025">
        <ele>169</ele>
        <time>2017-10-20T09:33:17Z</time>
      </trkpt>
      <trkpt lat="45.93155" lon="4.72023">
        <ele>169</ele>
        <time>2017-10-20T09:33:18Z</time>
      </trkpt>
      <trkpt lat="45.93147" lon="4.7202">
        <ele>169</ele>
        <time>2017-10-20T09:33:20Z</time>
      </trkpt>
      <trkpt lat="45.93143" lon="4.72019">
        <ele>169</ele>
        <time>2017-10-20T09:33:21Z</time>
      </trkpt>
      <trkpt lat="45.93137" lon="4.72016">
        <ele>169</ele>
        <time>2017-10-20T09:33:23Z</time>
      </trkpt>
      <trkpt lat="45.93133" lon="4.72014">
        <ele>169</ele>
        <time>2017-10-20T09:33:24Z</time>
      </trkpt>
      <trkpt lat="45.93128" lon="4.72013">
        <ele>169</ele>
        <time>2017-10-20T09:33:25Z</time>
      </trkpt>
      <trkpt lat="45.93123" lon="4.72011">
        <ele>169</ele>
        <time>2017-10-20T09:33:26Z</time>
      </trkpt>
      <trkpt lat="45.93116" lon="4.72009">
        <ele>169</ele>
        <time>2017-10-20T09:33:28Z</time>
      </trkpt>
      <trkpt lat="45.93112" lon="4.72008">
        <ele>169</ele>
        <time>2017-10-20T09:33:29Z</time>
      </trkpt>
      <trkpt lat="45.93105" lon="4.72005">
        <ele>169</ele>
        <time>2017-10-20T09:33:31Z</time>
      </trkpt>
      <trkpt lat="45.93101" lon="4.72003">
        <ele>169</ele>
        <time>2017-10-20T09:33:32Z</time>
      </trkpt>
      <trkpt lat="45.93093" lon="4.72001">
        <ele>169</ele>
        <time>2017-10-20T09:33:34Z</time>
      </trkpt>
      <trkpt lat="45.93089" lon="4.71999">
        <ele>169</ele>
        <time>2017-10-20T09:33:35Z</time>
      </trkpt>
      <trkpt lat="45.93084" lon="4.71997">
        <ele>169</ele>
        <time>2017-10-20T09:33:36Z</time>
      </trkpt>
      <trkpt lat="45.9308" lon="4.71995">
        <ele>169</ele>
        <time>2017-10-20T09:33:37Z</time>
      </trkpt>
      <trkpt lat="45.93075" lon="4.71994">
        <ele>169</ele>
        <time>2017-10-20T09:33:38Z</time>
      </trkpt>
      <trkpt lat="45.9307" lon="4.71992">
        <ele>169</ele>
        <time>2017-10-20T09:33:39Z</time>
      </trkpt>
      <trkpt lat="45.93062" lon="4.71988">
        <ele>169</ele>
        <time>2017-10-20T09:33:41Z</time>
      </trkpt>
      <trkpt lat="45.93056" lon="4.71989">
        <ele>169</ele>
        <time>2017-10-20T09:33:42Z</time>
      </trkpt>
      <trkpt lat="45.93048" lon="4.71987">
        <ele>169</ele>
        <time>2017-10-20T09:33:44Z</time>
      </trkpt>
      <trkpt lat="45.93044" lon="4.71985">
        <ele>169</ele>
        <time>2017-10-20T09:33:45Z</time>
      </trkpt>
      <trkpt lat="45.93036" lon="4.71983">
        <ele>169</ele>
        <time>2017-10-20T09:33:47Z</time>
      </trkpt>
      <trkpt lat="45.93032" lon="4.71981">
        <ele>169</ele>
        <time>2017-10-20T09:33:48Z</time>
      </trkpt>
      <trkpt lat="45.93026" lon="4.71981">
        <ele>169</ele>
        <time>2017-10-20T09:33:49Z</time>
      </trkpt>
      <trkpt lat="45.9302" lon="4.71979">
        <ele>169</ele>
        <time>2017-10-20T09:33:50Z</time>
      </trkpt>
      <trkpt lat="45.93012" lon="4.71975">
        <ele>169</ele>
        <time>2017-10-20T09:33:52Z</time>
      </trkpt>
      <trkpt lat="45.93008" lon="4.71973">
        <ele>169</ele>
        <time>2017-10-20T09:33:53Z</time>
      </trkpt>
      <trkpt lat="45.93001" lon="4.7197">
        <ele>169</ele>
        <time>2017-10-20T09:33:55Z</time>
      </trkpt>
      <trkpt lat="45.92998" lon="4.71969">
        <ele>169</ele>
        <time>2017-10-20T09:33:56Z</time>
      </trkpt>
      <trkpt lat="45.9299" lon="4.71965">
        <ele>169</ele>
        <time>2017-10-20T09:33:58Z</time>
      </trkpt>
      <trkpt lat="45.92986" lon="4.71964">
        <ele>169</ele>
        <time>2017-10-20T09:33:59Z</time>
      </trkpt>
      <trkpt lat="45.92977" lon="4.71961">
        <ele>169</ele>
        <time>2017-10-20T09:34:01Z</time>
      </trkpt>
      <trkpt lat="45.92972" lon="4.71959">
        <ele>169</ele>
        <time>2017-10-20T09:34:02Z</time>
      </trkpt>
      <trkpt lat="45.92969" lon="4.71958">
        <ele>169</ele>
        <time>2017-10-20T09:34:03Z</time>
      </trkpt>
      <trkpt lat="45.92963" lon="4.71956">
        <ele>169</ele>
        <time>2017-10-20T09:34:04Z</time>
      </trkpt>
      <trkpt lat="45.92959" lon="4.71956">
        <ele>169</ele>
        <time>2017-10-20T09:34:05Z</time>
      </trkpt>
      <trkpt lat="45.92954" lon="4.71954">
        <ele>169</ele>
        <time>2017-10-20T09:34:06Z</time>
      </trkpt>
      <trkpt lat="45.92946" lon="4.71951">
        <ele>169</ele>
        <time>2017-10-20T09:34:08Z</time>
      </trkpt>
      <trkpt lat="45.92942" lon="4.71949">
        <ele>169</ele>
        <time>2017-10-20T09:34:09Z</time>
      </trkpt>
      <trkpt lat="45.92934" lon="4.71948">
        <ele>170</ele>
        <time>2017-10-20T09:34:11Z</time>
      </trkpt>
      <trkpt lat="45.92929" lon="4.71946">
        <ele>170</ele>
        <time>2017-10-20T09:34:12Z</time>
      </trkpt>
      <trkpt lat="45.9292" lon="4.71943">
        <ele>170</ele>
        <time>2017-10-20T09:34:14Z</time>
      </trkpt>
      <trkpt lat="45.92917" lon="4.71944">
        <ele>170</ele>
        <time>2017-10-20T09:34:15Z</time>
      </trkpt>
      <trkpt lat="45.9291" lon="4.71941">
        <ele>170</ele>
        <time>2017-10-20T09:34:17Z</time>
      </trkpt>
      <trkpt lat="45.92906" lon="4.7194">
        <ele>170</ele>
        <time>2017-10-20T09:34:18Z</time>
      </trkpt>
      <trkpt lat="45.92903" lon="4.71936">
        <ele>170</ele>
        <time>2017-10-20T09:34:19Z</time>
      </trkpt>
      <trkpt lat="45.92896" lon="4.71935">
        <ele>170</ele>
        <time>2017-10-20T09:34:20Z</time>
      </trkpt>
      <trkpt lat="45.92889" lon="4.71931">
        <ele>170</ele>
        <time>2017-10-20T09:34:22Z</time>
      </trkpt>
      <trkpt lat="45.92887" lon="4.71928">
        <ele>170</ele>
        <time>2017-10-20T09:34:23Z</time>
      </trkpt>
      <trkpt lat="45.9288" lon="4.71924">
        <ele>170</ele>
        <time>2017-10-20T09:34:25Z</time>
      </trkpt>
      <trkpt lat="45.92876" lon="4.7192">
        <ele>170</ele>
        <time>2017-10-20T09:34:26Z</time>
      </trkpt>
      <trkpt lat="45.9287" lon="4.71917">
        <ele>170</ele>
        <time>2017-10-20T09:34:28Z</time>
      </trkpt>
      <trkpt lat="45.92867" lon="4.71915">
        <ele>171</ele>
        <time>2017-10-20T09:34:29Z</time>
      </trkpt>
      <trkpt lat="45.92862" lon="4.7191">
        <ele>171</ele>
        <time>2017-10-20T09:34:31Z</time>
      </trkpt>
      <trkpt lat="45.92858" lon="4.71908">
        <ele>171</ele>
        <time>2017-10-20T09:34:32Z</time>
      </trkpt>
      <trkpt lat="45.92851" lon="4.71903">
        <ele>171</ele>
        <time>2017-10-20T09:34:34Z</time>
      </trkpt>
      <trkpt lat="45.92846" lon="4.71902">
        <ele>171</ele>
        <time>2017-10-20T09:34:35Z</time>
      </trkpt>
      <trkpt lat="45.92842" lon="4.719">
        <ele>171</ele>
        <time>2017-10-20T09:34:36Z</time>
      </trkpt>
      <trkpt lat="45.92836" lon="4.719">
        <ele>171</ele>
        <time>2017-10-20T09:34:37Z</time>
      </trkpt>
      <trkpt lat="45.92829" lon="4.71894">
        <ele>171</ele>
        <time>2017-10-20T09:34:39Z</time>
      </trkpt>
      <trkpt lat="45.92826" lon="4.71891">
        <ele>171</ele>
        <time>2017-10-20T09:34:40Z</time>
      </trkpt>
      <trkpt lat="45.9282" lon="4.71885">
        <ele>171</ele>
        <time>2017-10-20T09:34:42Z</time>
      </trkpt>
      <trkpt lat="45.92817" lon="4.71881">
        <ele>171</ele>
        <time>2017-10-20T09:34:43Z</time>
      </trkpt>
      <trkpt lat="45.92809" lon="4.71876">
        <ele>171</ele>
        <time>2017-10-20T09:34:46Z</time>
      </trkpt>
      <trkpt lat="45.92806" lon="4.71874">
        <ele>172</ele>
        <time>2017-10-20T09:34:47Z</time>
      </trkpt>
      <trkpt lat="45.92798" lon="4.71869">
        <ele>172</ele>
        <time>2017-10-20T09:34:49Z</time>
      </trkpt>
      <trkpt lat="45.92794" lon="4.71867">
        <ele>172</ele>
        <time>2017-10-20T09:34:50Z</time>
      </trkpt>
      <trkpt lat="45.92786" lon="4.71862">
        <ele>172</ele>
        <time>2017-10-20T09:34:52Z</time>
      </trkpt>
      <trkpt lat="45.92783" lon="4.7186">
        <ele>172</ele>
        <time>2017-10-20T09:34:53Z</time>
      </trkpt>
      <trkpt lat="45.92777" lon="4.71852">
        <ele>172</ele>
        <time>2017-10-20T09:34:56Z</time>
      </trkpt>
      <trkpt lat="45.92774" lon="4.7185">
        <ele>172</ele>
        <time>2017-10-20T09:34:57Z</time>
      </trkpt>
      <trkpt lat="45.92768" lon="4.71847">
        <ele>172</ele>
        <time>2017-10-20T09:34:59Z</time>
      </trkpt>
      <trkpt lat="45.92764" lon="4.71845">
        <ele>172</ele>
        <time>2017-10-20T09:35:00Z</time>
      </trkpt>
      <trkpt lat="45.92757" lon="4.7184">
        <ele>173</ele>
        <time>2017-10-20T09:35:02Z</time>
      </trkpt>
      <trkpt lat="45.92753" lon="4.71837">
        <ele>173</ele>
        <time>2017-10-20T09:35:03Z</time>
      </trkpt>
      <trkpt lat="45.92745" lon="4.71831">
        <ele>173</ele>
        <time>2017-10-20T09:35:05Z</time>
      </trkpt>
      <trkpt lat="45.92741" lon="4.71829">
        <ele>173</ele>
        <time>2017-10-20T09:35:06Z</time>
      </trkpt>
      <trkpt lat="45.92733" lon="4.71824">
        <ele>174</ele>
        <time>2017-10-20T09:35:08Z</time>
      </trkpt>
      <trkpt lat="45.92729" lon="4.71822">
        <ele>174</ele>
        <time>2017-10-20T09:35:09Z</time>
      </trkpt>
      <trkpt lat="45.92722" lon="4.71817">
        <ele>174</ele>
        <time>2017-10-20T09:35:11Z</time>
      </trkpt>
      <trkpt lat="45.9272" lon="4.71816">
        <ele>174</ele>
        <time>2017-10-20T09:35:12Z</time>
      </trkpt>
      <trkpt lat="45.92713" lon="4.7181">
        <ele>174</ele>
        <time>2017-10-20T09:35:15Z</time>
      </trkpt>
      <trkpt lat="45.92712" lon="4.71806">
        <ele>174</ele>
        <time>2017-10-20T09:35:16Z</time>
      </trkpt>
      <trkpt lat="45.92712" lon="4.71795">
        <ele>174</ele>
        <time>2017-10-20T09:35:18Z</time>
      </trkpt>
      <trkpt lat="45.92712" lon="4.7179">
        <ele>174</ele>
        <time>2017-10-20T09:35:19Z</time>
      </trkpt>
      <trkpt lat="45.92711" lon="4.7178">
        <ele>174</ele>
        <time>2017-10-20T09:35:21Z</time>
      </trkpt>
      <trkpt lat="45.92711" lon="4.71773">
        <ele>175</ele>
        <time>2017-10-20T09:35:22Z</time>
      </trkpt>
      <trkpt lat="45.9271" lon="4.71761">
        <ele>175</ele>
        <time>2017-10-20T09:35:24Z</time>
      </trkpt>
      <trkpt lat="45.9271" lon="4.71756">
        <ele>175</ele>
        <time>2017-10-20T09:35:25Z</time>
      </trkpt>
      <trkpt lat="45.9271" lon="4.71744">
        <ele>175</ele>
        <time>2017-10-20T09:35:27Z</time>
      </trkpt>
      <trkpt lat="45.9271" lon="4.71737">
        <ele>175</ele>
        <time>2017-10-20T09:35:28Z</time>
      </trkpt>
      <trkpt lat="45.92711" lon="4.71726">
        <ele>174</ele>
        <time>2017-10-20T09:35:30Z</time>
      </trkpt>
      <trkpt lat="45.92711" lon="4.71719">
        <ele>174</ele>
        <time>2017-10-20T09:35:31Z</time>
      </trkpt>
      <trkpt lat="45.92714" lon="4.71707">
        <ele>174</ele>
        <time>2017-10-20T09:35:33Z</time>
      </trkpt>
      <trkpt lat="45.92717" lon="4.71698">
        <ele>174</ele>
        <time>2017-10-20T09:35:34Z</time>
      </trkpt>
      <trkpt lat="45.92721" lon="4.71689">
        <ele>174</ele>
        <time>2017-10-20T09:35:36Z</time>
      </trkpt>
      <trkpt lat="45.92724" lon="4.71683">
        <ele>173</ele>
        <time>2017-10-20T09:35:37Z</time>
      </trkpt>
      <trkpt lat="45.92726" lon="4.71678">
        <ele>173</ele>
        <time>2017-10-20T09:35:38Z</time>
      </trkpt>
      <trkpt lat="45.92729" lon="4.71673">
        <ele>173</ele>
        <time>2017-10-20T09:35:39Z</time>
      </trkpt>
      <trkpt lat="45.92735" lon="4.71666">
        <ele>172</ele>
        <time>2017-10-20T09:35:41Z</time>
      </trkpt>
      <trkpt lat="45.92739" lon="4.71661">
        <ele>172</ele>
        <time>2017-10-20T09:35:42Z</time>
      </trkpt>
      <trkpt lat="45.92742" lon="4.71656">
        <ele>172</ele>
        <time>2017-10-20T09:35:43Z</time>
      </trkpt>
      <trkpt lat="45.92745" lon="4.7165">
        <ele>172</ele>
        <time>2017-10-20T09:35:44Z</time>
      </trkpt>
      <trkpt lat="45.92749" lon="4.71644">
        <ele>172</ele>
        <time>2017-10-20T09:35:45Z</time>
      </trkpt>
      <trkpt lat="45.92751" lon="4.71639">
        <ele>171</ele>
        <time>2017-10-20T09:35:46Z</time>
      </trkpt>
      <trkpt lat="45.92755" lon="4.71634">
        <ele>171</ele>
        <time>2017-10-20T09:35:47Z</time>
      </trkpt>
      <trkpt lat="45.92758" lon="4.71629">
        <ele>171</ele>
        <time>2017-10-20T09:35:48Z</time>
      </trkpt>
      <trkpt lat="45.92763" lon="4.71621">
        <ele>171</ele>
        <time>2017-10-20T09:35:50Z</time>
      </trkpt>
      <trkpt lat="45.92766" lon="4.71617">
        <ele>171</ele>
        <time>2017-10-20T09:35:51Z</time>
      </trkpt>
      <trkpt lat="45.92771" lon="4.71609">
        <ele>171</ele>
        <time>2017-10-20T09:35:53Z</time>
      </trkpt>
      <trkpt lat="45.92774" lon="4.71604">
        <ele>171</ele>
        <time>2017-10-20T09:35:54Z</time>
      </trkpt>
      <trkpt lat="45.92778" lon="4.71595">
        <ele>171</ele>
        <time>2017-10-20T09:35:56Z</time>
      </trkpt>
      <trkpt lat="45.92781" lon="4.71592">
        <ele>171</ele>
        <time>2017-10-20T09:35:57Z</time>
      </trkpt>
      <trkpt lat="45.92786" lon="4.71585">
        <ele>171</ele>
        <time>2017-10-20T09:35:59Z</time>
      </trkpt>
      <trkpt lat="45.92789" lon="4.71581">
        <ele>172</ele>
        <time>2017-10-20T09:36:00Z</time>
      </trkpt>
      <trkpt lat="45.92794" lon="4.71573">
        <ele>172</ele>
        <time>2017-10-20T09:36:02Z</time>
      </trkpt>
      <trkpt lat="45.92796" lon="4.71569">
        <ele>172</ele>
        <time>2017-10-20T09:36:03Z</time>
      </trkpt>
      <trkpt lat="45.92801" lon="4.71561">
        <ele>172</ele>
        <time>2017-10-20T09:36:05Z</time>
      </trkpt>
      <trkpt lat="45.92802" lon="4.71557">
        <ele>172</ele>
        <time>2017-10-20T09:36:06Z</time>
      </trkpt>
      <trkpt lat="45.92805" lon="4.71548">
        <ele>173</ele>
        <time>2017-10-20T09:36:08Z</time>
      </trkpt>
      <trkpt lat="45.92807" lon="4.71544">
        <ele>173</ele>
        <time>2017-10-20T09:36:09Z</time>
      </trkpt>
      <trkpt lat="45.9281" lon="4.71534">
        <ele>173</ele>
        <time>2017-10-20T09:36:12Z</time>
      </trkpt>
      <trkpt lat="45.92811" lon="4.7153">
        <ele>173</ele>
        <time>2017-10-20T09:36:13Z</time>
      </trkpt>
      <trkpt lat="45.92813" lon="4.7152">
        <ele>174</ele>
        <time>2017-10-20T09:36:17Z</time>
      </trkpt>
      <trkpt lat="45.92814" lon="4.71517">
        <ele>174</ele>
        <time>2017-10-20T09:36:18Z</time>
      </trkpt>
      <trkpt lat="45.92817" lon="4.71506">
        <ele>175</ele>
        <time>2017-10-20T09:36:23Z</time>
      </trkpt>
      <trkpt lat="45.92818" lon="4.71505">
        <ele>175</ele>
        <time>2017-10-20T09:36:24Z</time>
      </trkpt>
      <trkpt lat="45.92817" lon="4.71493">
        <ele>178</ele>
        <time>2017-10-20T09:36:30Z</time>
      </trkpt>
      <trkpt lat="45.92817" lon="4.71491">
        <ele>178</ele>
        <time>2017-10-20T09:36:31Z</time>
      </trkpt>
      <trkpt lat="45.92824" lon="4.71482">
        <ele>178</ele>
        <time>2017-10-20T09:36:38Z</time>
      </trkpt>
      <trkpt lat="45.92823" lon="4.7148">
        <ele>178</ele>
        <time>2017-10-20T09:36:39Z</time>
      </trkpt>
      <trkpt lat="45.92827" lon="4.71469">
        <ele>179</ele>
        <time>2017-10-20T09:36:49Z</time>
      </trkpt>
      <trkpt lat="45.92829" lon="4.71468">
        <ele>179</ele>
        <time>2017-10-20T09:36:50Z</time>
      </trkpt>
      <trkpt lat="45.92826" lon="4.71456">
        <ele>180</ele>
        <time>2017-10-20T09:36:56Z</time>
      </trkpt>
      <trkpt lat="45.92827" lon="4.71454">
        <ele>181</ele>
        <time>2017-10-20T09:36:57Z</time>
      </trkpt>
      <trkpt lat="45.92834" lon="4.71449">
        <ele>182</ele>
        <time>2017-10-20T09:37:02Z</time>
      </trkpt>
      <trkpt lat="45.92834" lon="4.71447">
        <ele>182</ele>
        <time>2017-10-20T09:37:03Z</time>
      </trkpt>
      <trkpt lat="45.92837" lon="4.71436">
        <ele>183</ele>
        <time>2017-10-20T09:37:10Z</time>
      </trkpt>
      <trkpt lat="45.92838" lon="4.71434">
        <ele>184</ele>
        <time>2017-10-20T09:37:11Z</time>
      </trkpt>
      <trkpt lat="45.92839" lon="4.71422">
        <ele>185</ele>
        <time>2017-10-20T09:37:17Z</time>
      </trkpt>
      <trkpt lat="45.92839" lon="4.71419">
        <ele>185</ele>
        <time>2017-10-20T09:37:18Z</time>
      </trkpt>
      <trkpt lat="45.92841" lon="4.71407">
        <ele>187</ele>
        <time>2017-10-20T09:37:22Z</time>
      </trkpt>
      <trkpt lat="45.92841" lon="4.71404">
        <ele>187</ele>
        <time>2017-10-20T09:37:23Z</time>
      </trkpt>
      <trkpt lat="45.92843" lon="4.71392">
        <ele>187</ele>
        <time>2017-10-20T09:37:30Z</time>
      </trkpt>
      <trkpt lat="45.92843" lon="4.71391">
        <ele>187</ele>
        <time>2017-10-20T09:37:31Z</time>
      </trkpt>
      <trkpt lat="45.92837" lon="4.71385">
        <ele>188</ele>
        <time>2017-10-20T09:37:36Z</time>
      </trkpt>
      <trkpt lat="45.92835" lon="4.71384">
        <ele>188</ele>
        <time>2017-10-20T09:37:37Z</time>
      </trkpt>
      <trkpt lat="45.9283" lon="4.71376">
        <ele>187</ele>
        <time>2017-10-20T09:37:41Z</time>
      </trkpt>
      <trkpt lat="45.92829" lon="4.71373">
        <ele>187</ele>
        <time>2017-10-20T09:37:42Z</time>
      </trkpt>
      <trkpt lat="45.92826" lon="4.71362">
        <ele>187</ele>
        <time>2017-10-20T09:37:46Z</time>
      </trkpt>
      <trkpt lat="45.92825" lon="4.71359">
        <ele>188</ele>
        <time>2017-10-20T09:37:47Z</time>
      </trkpt>
      <trkpt lat="45.92823" lon="4.71347">
        <ele>188</ele>
        <time>2017-10-20T09:37:51Z</time>
      </trkpt>
      <trkpt lat="45.92823" lon="4.71343">
        <ele>188</ele>
        <time>2017-10-20T09:37:52Z</time>
      </trkpt>
      <trkpt lat="45.92823" lon="4.71331">
        <ele>190</ele>
        <time>2017-10-20T09:37:56Z</time>
      </trkpt>
      <trkpt lat="45.92823" lon="4.71327">
        <ele>190</ele>
        <time>2017-10-20T09:37:57Z</time>
      </trkpt>
      <trkpt lat="45.92822" lon="4.71317">
        <ele>189</ele>
        <time>2017-10-20T09:38:00Z</time>
      </trkpt>
      <trkpt lat="45.92823" lon="4.71314">
        <ele>189</ele>
        <time>2017-10-20T09:38:01Z</time>
      </trkpt>
      <trkpt lat="45.92822" lon="4.71302">
        <ele>189</ele>
        <time>2017-10-20T09:38:05Z</time>
      </trkpt>
      <trkpt lat="45.92821" lon="4.71301">
        <ele>189</ele>
        <time>2017-10-20T09:38:06Z</time>
      </trkpt>
      <trkpt lat="45.92815" lon="4.71299">
        <ele>189</ele>
        <time>2017-10-20T09:38:09Z</time>
      </trkpt>
      <trkpt lat="45.92812" lon="4.71298">
        <ele>189</ele>
        <time>2017-10-20T09:38:10Z</time>
      </trkpt>
      <trkpt lat="45.92803" lon="4.71297">
        <ele>189</ele>
        <time>2017-10-20T09:38:14Z</time>
      </trkpt>
      <trkpt lat="45.92801" lon="4.71297">
        <ele>189</ele>
        <time>2017-10-20T09:38:15Z</time>
      </trkpt>
      <trkpt lat="45.92793" lon="4.71293">
        <ele>189</ele>
        <time>2017-10-20T09:38:18Z</time>
      </trkpt>
      <trkpt lat="45.9279" lon="4.71293">
        <ele>189</ele>
        <time>2017-10-20T09:38:19Z</time>
      </trkpt>
      <trkpt lat="45.92781" lon="4.71291">
        <ele>189</ele>
        <time>2017-10-20T09:38:22Z</time>
      </trkpt>
      <trkpt lat="45.92779" lon="4.7129">
        <ele>189</ele>
        <time>2017-10-20T09:38:23Z</time>
      </trkpt>
      <trkpt lat="45.92771" lon="4.71289">
        <ele>189</ele>
        <time>2017-10-20T09:38:26Z</time>
      </trkpt>
      <trkpt lat="45.92768" lon="4.71288">
        <ele>189</ele>
        <time>2017-10-20T09:38:27Z</time>
      </trkpt>
      <trkpt lat="45.92762" lon="4.71287">
        <ele>189</ele>
        <time>2017-10-20T09:38:29Z</time>
      </trkpt>
      <trkpt lat="45.92758" lon="4.71287">
        <ele>189</ele>
        <time>2017-10-20T09:38:30Z</time>
      </trkpt>
      <trkpt lat="45.92751" lon="4.71285">
        <ele>189</ele>
        <time>2017-10-20T09:38:32Z</time>
      </trkpt>
      <trkpt lat="45.92747" lon="4.71284">
        <ele>188</ele>
        <time>2017-10-20T09:38:33Z</time>
      </trkpt>
      <trkpt lat="45.92738" lon="4.71281">
        <ele>188</ele>
        <time>2017-10-20T09:38:35Z</time>
      </trkpt>
      <trkpt lat="45.92732" lon="4.7128">
        <ele>188</ele>
        <time>2017-10-20T09:38:36Z</time>
      </trkpt>
      <trkpt lat="45.92728" lon="4.71279">
        <ele>188</ele>
        <time>2017-10-20T09:38:37Z</time>
      </trkpt>
      <trkpt lat="45.92722" lon="4.71276">
        <ele>188</ele>
        <time>2017-10-20T09:38:38Z</time>
      </trkpt>
      <trkpt lat="45.92714" lon="4.71276">
        <ele>187</ele>
        <time>2017-10-20T09:38:40Z</time>
      </trkpt>
      <trkpt lat="45.9271" lon="4.71275">
        <ele>187</ele>
        <time>2017-10-20T09:38:41Z</time>
      </trkpt>
      <trkpt lat="45.92703" lon="4.71273">
        <ele>187</ele>
        <time>2017-10-20T09:38:43Z</time>
      </trkpt>
      <trkpt lat="45.92699" lon="4.71272">
        <ele>187</ele>
        <time>2017-10-20T09:38:44Z</time>
      </trkpt>
      <trkpt lat="45.9269" lon="4.7127">
        <ele>187</ele>
        <time>2017-10-20T09:38:46Z</time>
      </trkpt>
      <trkpt lat="45.92686" lon="4.7127">
        <ele>187</ele>
        <time>2017-10-20T09:38:47Z</time>
      </trkpt>
      <trkpt lat="45.92679" lon="4.71268">
        <ele>187</ele>
        <time>2017-10-20T09:38:49Z</time>
      </trkpt>
      <trkpt lat="45.92676" lon="4.71266">
        <ele>187</ele>
        <time>2017-10-20T09:38:50Z</time>
      </trkpt>
      <trkpt lat="45.9267" lon="4.71261">
        <ele>187</ele>
        <time>2017-10-20T09:38:52Z</time>
      </trkpt>
      <trkpt lat="45.92668" lon="4.7126">
        <ele>187</ele>
        <time>2017-10-20T09:38:53Z</time>
      </trkpt>
      <trkpt lat="45.92661" lon="4.71256">
        <ele>186</ele>
        <time>2017-10-20T09:38:55Z</time>
      </trkpt>
      <trkpt lat="45.92658" lon="4.71256">
        <ele>186</ele>
        <time>2017-10-20T09:38:56Z</time>
      </trkpt>
      <trkpt lat="45.9265" lon="4.71255">
        <ele>186</ele>
        <time>2017-10-20T09:38:58Z</time>
      </trkpt>
      <trkpt lat="45.92647" lon="4.71253">
        <ele>186</ele>
        <time>2017-10-20T09:38:59Z</time>
      </trkpt>
      <trkpt lat="45.92642" lon="4.7125">
        <ele>186</ele>
        <time>2017-10-20T09:39:01Z</time>
      </trkpt>
      <trkpt lat="45.92639" lon="4.71248">
        <ele>186</ele>
        <time>2017-10-20T09:39:02Z</time>
      </trkpt>
      <trkpt lat="45.92632" lon="4.71245">
        <ele>186</ele>
        <time>2017-10-20T09:39:04Z</time>
      </trkpt>
      <trkpt lat="45.92628" lon="4.71243">
        <ele>186</ele>
        <time>2017-10-20T09:39:05Z</time>
      </trkpt>
      <trkpt lat="45.92621" lon="4.71239">
        <ele>186</ele>
        <time>2017-10-20T09:39:07Z</time>
      </trkpt>
      <trkpt lat="45.92618" lon="4.71237">
        <ele>186</ele>
        <time>2017-10-20T09:39:08Z</time>
      </trkpt>
      <trkpt lat="45.92609" lon="4.71232">
        <ele>186</ele>
        <time>2017-10-20T09:39:11Z</time>
      </trkpt>
      <trkpt lat="45.92607" lon="4.7123">
        <ele>186</ele>
        <time>2017-10-20T09:39:12Z</time>
      </trkpt>
      <trkpt lat="45.92598" lon="4.71227">
        <ele>186</ele>
        <time>2017-10-20T09:39:15Z</time>
      </trkpt>
      <trkpt lat="45.92595" lon="4.71226">
        <ele>186</ele>
        <time>2017-10-20T09:39:16Z</time>
      </trkpt>
      <trkpt lat="45.92588" lon="4.71222">
        <ele>186</ele>
        <time>2017-10-20T09:39:18Z</time>
      </trkpt>
      <trkpt lat="45.92585" lon="4.7122">
        <ele>186</ele>
        <time>2017-10-20T09:39:19Z</time>
      </trkpt>
      <trkpt lat="45.92578" lon="4.71218">
        <ele>185</ele>
        <time>2017-10-20T09:39:21Z</time>
      </trkpt>
      <trkpt lat="45.92575" lon="4.71217">
        <ele>185</ele>
        <time>2017-10-20T09:39:22Z</time>
      </trkpt>
      <trkpt lat="45.92569" lon="4.71215">
        <ele>185</ele>
        <time>2017-10-20T09:39:24Z</time>
      </trkpt>
      <trkpt lat="45.92566" lon="4.71214">
        <ele>185</ele>
        <time>2017-10-20T09:39:25Z</time>
      </trkpt>
      <trkpt lat="45.9256" lon="4.71212">
        <ele>185</ele>
        <time>2017-10-20T09:39:27Z</time>
      </trkpt>
      <trkpt lat="45.92556" lon="4.7121">
        <ele>185</ele>
        <time>2017-10-20T09:39:28Z</time>
      </trkpt>
      <trkpt lat="45.9255" lon="4.71207">
        <ele>185</ele>
        <time>2017-10-20T09:39:30Z</time>
      </trkpt>
      <trkpt lat="45.92547" lon="4.71205">
        <ele>185</ele>
        <time>2017-10-20T09:39:31Z</time>
      </trkpt>
      <trkpt lat="45.92539" lon="4.712">
        <ele>185</ele>
        <time>2017-10-20T09:39:34Z</time>
      </trkpt>
      <trkpt lat="45.92536" lon="4.71199">
        <ele>185</ele>
        <time>2017-10-20T09:39:35Z</time>
      </trkpt>
      <trkpt lat="45.92528" lon="4.71195">
        <ele>185</ele>
        <time>2017-10-20T09:39:38Z</time>
      </trkpt>
      <trkpt lat="45.92525" lon="4.71194">
        <ele>185</ele>
        <time>2017-10-20T09:39:39Z</time>
      </trkpt>
      <trkpt lat="45.92518" lon="4.71191">
        <ele>185</ele>
        <time>2017-10-20T09:39:41Z</time>
      </trkpt>
      <trkpt lat="45.92514" lon="4.7119">
        <ele>185</ele>
        <time>2017-10-20T09:39:42Z</time>
      </trkpt>
      <trkpt lat="45.92508" lon="4.71187">
        <ele>185</ele>
        <time>2017-10-20T09:39:44Z</time>
      </trkpt>
      <trkpt lat="45.92505" lon="4.71186">
        <ele>185</ele>
        <time>2017-10-20T09:39:45Z</time>
      </trkpt>
      <trkpt lat="45.92498" lon="4.71183">
        <ele>185</ele>
        <time>2017-10-20T09:39:48Z</time>
      </trkpt>
      <trkpt lat="45.92495" lon="4.71182">
        <ele>185</ele>
        <time>2017-10-20T09:39:49Z</time>
      </trkpt>
      <trkpt lat="45.92488" lon="4.71178">
        <ele>185</ele>
        <time>2017-10-20T09:39:51Z</time>
      </trkpt>
      <trkpt lat="45.92484" lon="4.71176">
        <ele>185</ele>
        <time>2017-10-20T09:39:52Z</time>
      </trkpt>
      <trkpt lat="45.92477" lon="4.71173">
        <ele>184</ele>
        <time>2017-10-20T09:39:54Z</time>
      </trkpt>
      <trkpt lat="45.92473" lon="4.71171">
        <ele>184</ele>
        <time>2017-10-20T09:39:55Z</time>
      </trkpt>
      <trkpt lat="45.92467" lon="4.71168">
        <ele>184</ele>
        <time>2017-10-20T09:39:57Z</time>
      </trkpt>
      <trkpt lat="45.92464" lon="4.71167">
        <ele>186</ele>
        <time>2017-10-20T09:39:58Z</time>
      </trkpt>
      <trkpt lat="45.92457" lon="4.71165">
        <ele>186</ele>
        <time>2017-10-20T09:40:00Z</time>
      </trkpt>
      <trkpt lat="45.92454" lon="4.71165">
        <ele>186</ele>
        <time>2017-10-20T09:40:01Z</time>
      </trkpt>
      <trkpt lat="45.92447" lon="4.71162">
        <ele>186</ele>
        <time>2017-10-20T09:40:03Z</time>
      </trkpt>
      <trkpt lat="45.92444" lon="4.7116">
        <ele>186</ele>
        <time>2017-10-20T09:40:04Z</time>
      </trkpt>
      <trkpt lat="45.92438" lon="4.71157">
        <ele>185</ele>
        <time>2017-10-20T09:40:06Z</time>
      </trkpt>
      <trkpt lat="45.92434" lon="4.71155">
        <ele>185</ele>
        <time>2017-10-20T09:40:07Z</time>
      </trkpt>
      <trkpt lat="45.92428" lon="4.71151">
        <ele>185</ele>
        <time>2017-10-20T09:40:09Z</time>
      </trkpt>
      <trkpt lat="45.92426" lon="4.7115">
        <ele>185</ele>
        <time>2017-10-20T09:40:10Z</time>
      </trkpt>
      <trkpt lat="45.92419" lon="4.71144">
        <ele>185</ele>
        <time>2017-10-20T09:40:13Z</time>
      </trkpt>
      <trkpt lat="45.92417" lon="4.71142">
        <ele>184</ele>
        <time>2017-10-20T09:40:14Z</time>
      </trkpt>
      <trkpt lat="45.92411" lon="4.71136">
        <ele>184</ele>
        <time>2017-10-20T09:40:17Z</time>
      </trkpt>
      <trkpt lat="45.92409" lon="4.71134">
        <ele>184</ele>
        <time>2017-10-20T09:40:18Z</time>
      </trkpt>
      <trkpt lat="45.92404" lon="4.71128">
        <ele>184</ele>
        <time>2017-10-20T09:40:21Z</time>
      </trkpt>
      <trkpt lat="45.92401" lon="4.71126">
        <ele>184</ele>
        <time>2017-10-20T09:40:22Z</time>
      </trkpt>
      <trkpt lat="45.92396" lon="4.71123">
        <ele>184</ele>
        <time>2017-10-20T09:40:24Z</time>
      </trkpt>
      <trkpt lat="45.92392" lon="4.71121">
        <ele>184</ele>
        <time>2017-10-20T09:40:25Z</time>
      </trkpt>
      <trkpt lat="45.92384" lon="4.71117">
        <ele>184</ele>
        <time>2017-10-20T09:40:27Z</time>
      </trkpt>
      <trkpt lat="45.92381" lon="4.71116">
        <ele>184</ele>
        <time>2017-10-20T09:40:28Z</time>
      </trkpt>
      <trkpt lat="45.92375" lon="4.71114">
        <ele>184</ele>
        <time>2017-10-20T09:40:30Z</time>
      </trkpt>
      <trkpt lat="45.92372" lon="4.71112">
        <ele>184</ele>
        <time>2017-10-20T09:40:31Z</time>
      </trkpt>
      <trkpt lat="45.92365" lon="4.7111">
        <ele>184</ele>
        <time>2017-10-20T09:40:33Z</time>
      </trkpt>
      <trkpt lat="45.92362" lon="4.71109">
        <ele>184</ele>
        <time>2017-10-20T09:40:34Z</time>
      </trkpt>
      <trkpt lat="45.92354" lon="4.71104">
        <ele>184</ele>
        <time>2017-10-20T09:40:37Z</time>
      </trkpt>
      <trkpt lat="45.92352" lon="4.71103">
        <ele>184</ele>
        <time>2017-10-20T09:40:38Z</time>
      </trkpt>
      <trkpt lat="45.92346" lon="4.711">
        <ele>184</ele>
        <time>2017-10-20T09:40:40Z</time>
      </trkpt>
      <trkpt lat="45.92342" lon="4.71099">
        <ele>184</ele>
        <time>2017-10-20T09:40:41Z</time>
      </trkpt>
      <trkpt lat="45.92335" lon="4.71096">
        <ele>184</ele>
        <time>2017-10-20T09:40:43Z</time>
      </trkpt>
      <trkpt lat="45.92331" lon="4.71095">
        <ele>183</ele>
        <time>2017-10-20T09:40:44Z</time>
      </trkpt>
      <trkpt lat="45.92324" lon="4.71092">
        <ele>183</ele>
        <time>2017-10-20T09:40:46Z</time>
      </trkpt>
      <trkpt lat="45.9232" lon="4.7109">
        <ele>183</ele>
        <time>2017-10-20T09:40:47Z</time>
      </trkpt>
      <trkpt lat="45.92313" lon="4.71087">
        <ele>182</ele>
        <time>2017-10-20T09:40:49Z</time>
      </trkpt>
      <trkpt lat="45.92309" lon="4.71086">
        <ele>182</ele>
        <time>2017-10-20T09:40:50Z</time>
      </trkpt>
      <trkpt lat="45.923" lon="4.71082">
        <ele>183</ele>
        <time>2017-10-20T09:40:52Z</time>
      </trkpt>
      <trkpt lat="45.92296" lon="4.7108">
        <ele>183</ele>
        <time>2017-10-20T09:40:53Z</time>
      </trkpt>
      <trkpt lat="45.92288" lon="4.71076">
        <ele>183</ele>
        <time>2017-10-20T09:40:55Z</time>
      </trkpt>
      <trkpt lat="45.92284" lon="4.71074">
        <ele>183</ele>
        <time>2017-10-20T09:40:56Z</time>
      </trkpt>
      <trkpt lat="45.92276" lon="4.71071">
        <ele>183</ele>
        <time>2017-10-20T09:40:58Z</time>
      </trkpt>
      <trkpt lat="45.92272" lon="4.71069">
        <ele>183</ele>
        <time>2017-10-20T09:40:59Z</time>
      </trkpt>
      <trkpt lat="45.92264" lon="4.71064">
        <ele>183</ele>
        <time>2017-10-20T09:41:01Z</time>
      </trkpt>
      <trkpt lat="45.92261" lon="4.71062">
        <ele>183</ele>
        <time>2017-10-20T09:41:02Z</time>
      </trkpt>
      <trkpt lat="45.92253" lon="4.71058">
        <ele>183</ele>
        <time>2017-10-20T09:41:04Z</time>
      </trkpt>
      <trkpt lat="45.9225" lon="4.71056">
        <ele>182</ele>
        <time>2017-10-20T09:41:05Z</time>
      </trkpt>
      <trkpt lat="45.92243" lon="4.71054">
        <ele>182</ele>
        <time>2017-10-20T09:41:07Z</time>
      </trkpt>
      <trkpt lat="45.92239" lon="4.71052">
        <ele>182</ele>
        <time>2017-10-20T09:41:08Z</time>
      </trkpt>
      <trkpt lat="45.92233" lon="4.71049">
        <ele>182</ele>
        <time>2017-10-20T09:41:10Z</time>
      </trkpt>
      <trkpt lat="45.9223" lon="4.71048">
        <ele>182</ele>
        <time>2017-10-20T09:41:11Z</time>
      </trkpt>
      <trkpt lat="45.92225" lon="4.71044">
        <ele>182</ele>
        <time>2017-10-20T09:41:13Z</time>
      </trkpt>
      <trkpt lat="45.92222" lon="4.71043">
        <ele>182</ele>
        <time>2017-10-20T09:41:14Z</time>
      </trkpt>
      <trkpt lat="45.92216" lon="4.71038">
        <ele>182</ele>
        <time>2017-10-20T09:41:16Z</time>
      </trkpt>
      <trkpt lat="45.92213" lon="4.71037">
        <ele>182</ele>
        <time>2017-10-20T09:41:17Z</time>
      </trkpt>
      <trkpt lat="45.92206" lon="4.71034">
        <ele>182</ele>
        <time>2017-10-20T09:41:20Z</time>
      </trkpt>
      <trkpt lat="45.92203" lon="4.71033">
        <ele>181</ele>
        <time>2017-10-20T09:41:21Z</time>
      </trkpt>
      <trkpt lat="45.92197" lon="4.71029">
        <ele>181</ele>
        <time>2017-10-20T09:41:23Z</time>
      </trkpt>
      <trkpt lat="45.92194" lon="4.71027">
        <ele>181</ele>
        <time>2017-10-20T09:41:24Z</time>
      </trkpt>
      <trkpt lat="45.92187" lon="4.71025">
        <ele>181</ele>
        <time>2017-10-20T09:41:26Z</time>
      </trkpt>
      <trkpt lat="45.92184" lon="4.71024">
        <ele>181</ele>
        <time>2017-10-20T09:41:27Z</time>
      </trkpt>
      <trkpt lat="45.92177" lon="4.71021">
        <ele>181</ele>
        <time>2017-10-20T09:41:29Z</time>
      </trkpt>
      <trkpt lat="45.92174" lon="4.71021">
        <ele>181</ele>
        <time>2017-10-20T09:41:30Z</time>
      </trkpt>
      <trkpt lat="45.92166" lon="4.71016">
        <ele>181</ele>
        <time>2017-10-20T09:41:33Z</time>
      </trkpt>
      <trkpt lat="45.92164" lon="4.71013">
        <ele>181</ele>
        <time>2017-10-20T09:41:34Z</time>
      </trkpt>
      <trkpt lat="45.92156" lon="4.71013">
        <ele>181</ele>
        <time>2017-10-20T09:41:37Z</time>
      </trkpt>
      <trkpt lat="45.92153" lon="4.71018">
        <ele>181</ele>
        <time>2017-10-20T09:41:38Z</time>
      </trkpt>
      <trkpt lat="45.9215" lon="4.71027">
        <ele>181</ele>
        <time>2017-10-20T09:41:40Z</time>
      </trkpt>
      <trkpt lat="45.92149" lon="4.71032">
        <ele>181</ele>
        <time>2017-10-20T09:41:41Z</time>
      </trkpt>
      <trkpt lat="45.92148" lon="4.71043">
        <ele>181</ele>
        <time>2017-10-20T09:41:43Z</time>
      </trkpt>
      <trkpt lat="45.92147" lon="4.71049">
        <ele>181</ele>
        <time>2017-10-20T09:41:44Z</time>
      </trkpt>
      <trkpt lat="45.92147" lon="4.71056">
        <ele>181</ele>
        <time>2017-10-20T09:41:45Z</time>
      </trkpt>
      <trkpt lat="45.92146" lon="4.71061">
        <ele>181</ele>
        <time>2017-10-20T09:41:46Z</time>
      </trkpt>
      <trkpt lat="45.92145" lon="4.71073">
        <ele>181</ele>
        <time>2017-10-20T09:41:48Z</time>
      </trkpt>
      <trkpt lat="45.92144" lon="4.71078">
        <ele>181</ele>
        <time>2017-10-20T09:41:49Z</time>
      </trkpt>
      <trkpt lat="45.92141" lon="4.71089">
        <ele>179</ele>
        <time>2017-10-20T09:41:51Z</time>
      </trkpt>
      <trkpt lat="45.9214" lon="4.71096">
        <ele>179</ele>
        <time>2017-10-20T09:41:52Z</time>
      </trkpt>
      <trkpt lat="45.92138" lon="4.71102">
        <ele>179</ele>
        <time>2017-10-20T09:41:53Z</time>
      </trkpt>
      <trkpt lat="45.92138" lon="4.7111">
        <ele>179</ele>
        <time>2017-10-20T09:41:54Z</time>
      </trkpt>
      <trkpt lat="45.92137" lon="4.71118">
        <ele>179</ele>
        <time>2017-10-20T09:41:55Z</time>
      </trkpt>
      <trkpt lat="45.92136" lon="4.71125">
        <ele>178</ele>
        <time>2017-10-20T09:41:56Z</time>
      </trkpt>
      <trkpt lat="45.92135" lon="4.71132">
        <ele>178</ele>
        <time>2017-10-20T09:41:57Z</time>
      </trkpt>
      <trkpt lat="45.92135" lon="4.71139">
        <ele>178</ele>
        <time>2017-10-20T09:41:58Z</time>
      </trkpt>
      <trkpt lat="45.92135" lon="4.71147">
        <ele>178</ele>
        <time>2017-10-20T09:41:59Z</time>
      </trkpt>
      <trkpt lat="45.92135" lon="4.71154">
        <ele>178</ele>
        <time>2017-10-20T09:42:00Z</time>
      </trkpt>
      <trkpt lat="45.92134" lon="4.71161">
        <ele>178</ele>
        <time>2017-10-20T09:42:01Z</time>
      </trkpt>
      <trkpt lat="45.92132" lon="4.71169">
        <ele>176</ele>
        <time>2017-10-20T09:42:02Z</time>
      </trkpt>
      <trkpt lat="45.92132" lon="4.71177">
        <ele>176</ele>
        <time>2017-10-20T09:42:03Z</time>
      </trkpt>
      <trkpt lat="45.9213" lon="4.71184">
        <ele>176</ele>
        <time>2017-10-20T09:42:04Z</time>
      </trkpt>
      <trkpt lat="45.9213" lon="4.71192">
        <ele>176</ele>
        <time>2017-10-20T09:42:05Z</time>
      </trkpt>
      <trkpt lat="45.92128" lon="4.71199">
        <ele>175</ele>
        <time>2017-10-20T09:42:06Z</time>
      </trkpt>
      <trkpt lat="45.92127" lon="4.71207">
        <ele>175</ele>
        <time>2017-10-20T09:42:07Z</time>
      </trkpt>
      <trkpt lat="45.92125" lon="4.71215">
        <ele>175</ele>
        <time>2017-10-20T09:42:08Z</time>
      </trkpt>
      <trkpt lat="45.92124" lon="4.71222">
        <ele>175</ele>
        <time>2017-10-20T09:42:09Z</time>
      </trkpt>
      <trkpt lat="45.92123" lon="4.71228">
        <ele>175</ele>
        <time>2017-10-20T09:42:10Z</time>
      </trkpt>
      <trkpt lat="45.92122" lon="4.71236">
        <ele>175</ele>
        <time>2017-10-20T09:42:11Z</time>
      </trkpt>
      <trkpt lat="45.92121" lon="4.71244">
        <ele>175</ele>
        <time>2017-10-20T09:42:12Z</time>
      </trkpt>
      <trkpt lat="45.92121" lon="4.7125">
        <ele>174</ele>
        <time>2017-10-20T09:42:13Z</time>
      </trkpt>
      <trkpt lat="45.92122" lon="4.71261">
        <ele>174</ele>
        <time>2017-10-20T09:42:14Z</time>
      </trkpt>
      <trkpt lat="45.92119" lon="4.71265">
        <ele>174</ele>
        <time>2017-10-20T09:42:15Z</time>
      </trkpt>
      <trkpt lat="45.92119" lon="4.71274">
        <ele>174</ele>
        <time>2017-10-20T09:42:16Z</time>
      </trkpt>
      <trkpt lat="45.92119" lon="4.7128">
        <ele>174</ele>
        <time>2017-10-20T09:42:17Z</time>
      </trkpt>
      <trkpt lat="45.92118" lon="4.71287">
        <ele>174</ele>
        <time>2017-10-20T09:42:18Z</time>
      </trkpt>
      <trkpt lat="45.92117" lon="4.71293">
        <ele>174</ele>
        <time>2017-10-20T09:42:19Z</time>
      </trkpt>
      <trkpt lat="45.92117" lon="4.713">
        <ele>174</ele>
        <time>2017-10-20T09:42:20Z</time>
      </trkpt>
      <trkpt lat="45.92117" lon="4.71307">
        <ele>174</ele>
        <time>2017-10-20T09:42:21Z</time>
      </trkpt>
      <trkpt lat="45.92116" lon="4.71314">
        <ele>174</ele>
        <time>2017-10-20T09:42:22Z</time>
      </trkpt>
      <trkpt lat="45.92117" lon="4.71321">
        <ele>174</ele>
        <time>2017-10-20T09:42:23Z</time>
      </trkpt>
      <trkpt lat="45.92115" lon="4.71328">
        <ele>174</ele>
        <time>2017-10-20T09:42:24Z</time>
      </trkpt>
      <trkpt lat="45.92114" lon="4.71335">
        <ele>174</ele>
        <time>2017-10-20T09:42:25Z</time>
      </trkpt>
      <trkpt lat="45.92113" lon="4.71344">
        <ele>174</ele>
        <time>2017-10-20T09:42:26Z</time>
      </trkpt>
      <trkpt lat="45.92112" lon="4.71352">
        <ele>173</ele>
        <time>2017-10-20T09:42:27Z</time>
      </trkpt>
      <trkpt lat="45.92112" lon="4.71361">
        <ele>173</ele>
        <time>2017-10-20T09:42:28Z</time>
      </trkpt>
      <trkpt lat="45.92111" lon="4.71369">
        <ele>173</ele>
        <time>2017-10-20T09:42:29Z</time>
      </trkpt>
      <trkpt lat="45.92111" lon="4.71379">
        <ele>173</ele>
        <time>2017-10-20T09:42:30Z</time>
      </trkpt>
      <trkpt lat="45.9211" lon="4.71387">
        <ele>173</ele>
        <time>2017-10-20T09:42:31Z</time>
      </trkpt>
      <trkpt lat="45.92109" lon="4.71394">
        <ele>173</ele>
        <time>2017-10-20T09:42:32Z</time>
      </trkpt>
      <trkpt lat="45.92108" lon="4.71402">
        <ele>173</ele>
        <time>2017-10-20T09:42:33Z</time>
      </trkpt>
      <trkpt lat="45.92107" lon="4.71409">
        <ele>174</ele>
        <time>2017-10-20T09:42:34Z</time>
      </trkpt>
      <trkpt lat="45.92106" lon="4.71417">
        <ele>174</ele>
        <time>2017-10-20T09:42:35Z</time>
      </trkpt>
      <trkpt lat="45.92106" lon="4.71423">
        <ele>174</ele>
        <time>2017-10-20T09:42:36Z</time>
      </trkpt>
      <trkpt lat="45.92105" lon="4.71429">
        <ele>174</ele>
        <time>2017-10-20T09:42:37Z</time>
      </trkpt>
      <trkpt lat="45.92104" lon="4.71436">
        <ele>174</ele>
        <time>2017-10-20T09:42:38Z</time>
      </trkpt>
      <trkpt lat="45.92102" lon="4.71448">
        <ele>174</ele>
        <time>2017-10-20T09:42:40Z</time>
      </trkpt>
      <trkpt lat="45.921" lon="4.71454">
        <ele>174</ele>
        <time>2017-10-20T09:42:41Z</time>
      </trkpt>
      <trkpt lat="45.92099" lon="4.71461">
        <ele>174</ele>
        <time>2017-10-20T09:42:42Z</time>
      </trkpt>
      <trkpt lat="45.92099" lon="4.71469">
        <ele>174</ele>
        <time>2017-10-20T09:42:43Z</time>
      </trkpt>
      <trkpt lat="45.92097" lon="4.71477">
        <ele>174</ele>
        <time>2017-10-20T09:42:44Z</time>
      </trkpt>
      <trkpt lat="45.92097" lon="4.71485">
        <ele>174</ele>
        <time>2017-10-20T09:42:45Z</time>
      </trkpt>
      <trkpt lat="45.92096" lon="4.71493">
        <ele>174</ele>
        <time>2017-10-20T09:42:46Z</time>
      </trkpt>
      <trkpt lat="45.92095" lon="4.715">
        <ele>174</ele>
        <time>2017-10-20T09:42:47Z</time>
      </trkpt>
      <trkpt lat="45.92094" lon="4.71508">
        <ele>174</ele>
        <time>2017-10-20T09:42:48Z</time>
      </trkpt>
      <trkpt lat="45.92092" lon="4.71515">
        <ele>174</ele>
        <time>2017-10-20T09:42:49Z</time>
      </trkpt>
      <trkpt lat="45.9209" lon="4.71521">
        <ele>174</ele>
        <time>2017-10-20T09:42:50Z</time>
      </trkpt>
      <trkpt lat="45.92089" lon="4.71528">
        <ele>174</ele>
        <time>2017-10-20T09:42:51Z</time>
      </trkpt>
      <trkpt lat="45.92086" lon="4.71539">
        <ele>173</ele>
        <time>2017-10-20T09:42:53Z</time>
      </trkpt>
      <trkpt lat="45.92085" lon="4.71546">
        <ele>173</ele>
        <time>2017-10-20T09:42:54Z</time>
      </trkpt>
      <trkpt lat="45.92084" lon="4.71552">
        <ele>173</ele>
        <time>2017-10-20T09:42:55Z</time>
      </trkpt>
      <trkpt lat="45.92083" lon="4.71559">
        <ele>173</ele>
        <time>2017-10-20T09:42:56Z</time>
      </trkpt>
      <trkpt lat="45.92082" lon="4.71566">
        <ele>173</ele>
        <time>2017-10-20T09:42:57Z</time>
      </trkpt>
      <trkpt lat="45.9208" lon="4.71573">
        <ele>173</ele>
        <time>2017-10-20T09:42:58Z</time>
      </trkpt>
      <trkpt lat="45.9208" lon="4.7158">
        <ele>172</ele>
        <time>2017-10-20T09:42:59Z</time>
      </trkpt>
      <trkpt lat="45.92079" lon="4.71588">
        <ele>172</ele>
        <time>2017-10-20T09:43:00Z</time>
      </trkpt>
      <trkpt lat="45.92078" lon="4.71595">
        <ele>172</ele>
        <time>2017-10-20T09:43:01Z</time>
      </trkpt>
      <trkpt lat="45.92076" lon="4.71603">
        <ele>172</ele>
        <time>2017-10-20T09:43:02Z</time>
      </trkpt>
      <trkpt lat="45.92074" lon="4.7161">
        <ele>172</ele>
        <time>2017-10-20T09:43:03Z</time>
      </trkpt>
      <trkpt lat="45.92073" lon="4.71617">
        <ele>173</ele>
        <time>2017-10-20T09:43:04Z</time>
      </trkpt>
      <trkpt lat="45.92072" lon="4.71625">
        <ele>173</ele>
        <time>2017-10-20T09:43:05Z</time>
      </trkpt>
      <trkpt lat="45.92072" lon="4.71632">
        <ele>172</ele>
        <time>2017-10-20T09:43:06Z</time>
      </trkpt>
      <trkpt lat="45.92071" lon="4.71639">
        <ele>172</ele>
        <time>2017-10-20T09:43:07Z</time>
      </trkpt>
      <trkpt lat="45.92069" lon="4.71645">
        <ele>172</ele>
        <time>2017-10-20T09:43:08Z</time>
      </trkpt>
      <trkpt lat="45.92067" lon="4.71657">
        <ele>172</ele>
        <time>2017-10-20T09:43:10Z</time>
      </trkpt>
      <trkpt lat="45.92066" lon="4.71662">
        <ele>172</ele>
        <time>2017-10-20T09:43:11Z</time>
      </trkpt>
      <trkpt lat="45.92065" lon="4.71673">
        <ele>173</ele>
        <time>2017-10-20T09:43:13Z</time>
      </trkpt>
      <trkpt lat="45.92064" lon="4.71679">
        <ele>173</ele>
        <time>2017-10-20T09:43:14Z</time>
      </trkpt>
      <trkpt lat="45.92063" lon="4.7169">
        <ele>173</ele>
        <time>2017-10-20T09:43:16Z</time>
      </trkpt>
      <trkpt lat="45.92062" lon="4.71696">
        <ele>173</ele>
        <time>2017-10-20T09:43:17Z</time>
      </trkpt>
      <trkpt lat="45.9206" lon="4.71708">
        <ele>173</ele>
        <time>2017-10-20T09:43:19Z</time>
      </trkpt>
      <trkpt lat="45.92059" lon="4.71714">
        <ele>173</ele>
        <time>2017-10-20T09:43:20Z</time>
      </trkpt>
      <trkpt lat="45.92058" lon="4.71721">
        <ele>173</ele>
        <time>2017-10-20T09:43:21Z</time>
      </trkpt>
      <trkpt lat="45.92056" lon="4.71727">
        <ele>173</ele>
        <time>2017-10-20T09:43:22Z</time>
      </trkpt>
      <trkpt lat="45.92055" lon="4.71735">
        <ele>173</ele>
        <time>2017-10-20T09:43:23Z</time>
      </trkpt>
      <trkpt lat="45.92054" lon="4.71742">
        <ele>173</ele>
        <time>2017-10-20T09:43:24Z</time>
      </trkpt>
      <trkpt lat="45.92054" lon="4.71749">
        <ele>173</ele>
        <time>2017-10-20T09:43:25Z</time>
      </trkpt>
      <trkpt lat="45.92052" lon="4.71756">
        <ele>173</ele>
        <time>2017-10-20T09:43:26Z</time>
      </trkpt>
      <trkpt lat="45.92051" lon="4.71762">
        <ele>173</ele>
        <time>2017-10-20T09:43:27Z</time>
      </trkpt>
      <trkpt lat="45.9205" lon="4.7177">
        <ele>173</ele>
        <time>2017-10-20T09:43:28Z</time>
      </trkpt>
      <trkpt lat="45.92048" lon="4.71782">
        <ele>173</ele>
        <time>2017-10-20T09:43:30Z</time>
      </trkpt>
      <trkpt lat="45.92047" lon="4.71786">
        <ele>173</ele>
        <time>2017-10-20T09:43:31Z</time>
      </trkpt>
      <trkpt lat="45.92041" lon="4.71791">
        <ele>173</ele>
        <time>2017-10-20T09:43:35Z</time>
      </trkpt>
      <trkpt lat="45.92038" lon="4.7179">
        <ele>173</ele>
        <time>2017-10-20T09:43:36Z</time>
      </trkpt>
      <trkpt lat="45.92032" lon="4.7179">
        <ele>173</ele>
        <time>2017-10-20T09:43:38Z</time>
      </trkpt>
      <trkpt lat="45.92029" lon="4.7179">
        <ele>173</ele>
        <time>2017-10-20T09:43:39Z</time>
      </trkpt>
      <trkpt lat="45.92022" lon="4.7179">
        <ele>173</ele>
        <time>2017-10-20T09:43:41Z</time>
      </trkpt>
      <trkpt lat="45.92018" lon="4.7179">
        <ele>173</ele>
        <time>2017-10-20T09:43:42Z</time>
      </trkpt>
      <trkpt lat="45.92011" lon="4.7179">
        <ele>173</ele>
        <time>2017-10-20T09:43:44Z</time>
      </trkpt>
      <trkpt lat="45.92007" lon="4.7179">
        <ele>173</ele>
        <time>2017-10-20T09:43:45Z</time>
      </trkpt>
      <trkpt lat="45.91999" lon="4.71789">
        <ele>173</ele>
        <time>2017-10-20T09:43:47Z</time>
      </trkpt>
      <trkpt lat="45.91995" lon="4.71789">
        <ele>173</ele>
        <time>2017-10-20T09:43:48Z</time>
      </trkpt>
      <trkpt lat="45.91989" lon="4.7179">
        <ele>173</ele>
        <time>2017-10-20T09:43:50Z</time>
      </trkpt>
      <trkpt lat="45.91985" lon="4.7179">
        <ele>173</ele>
        <time>2017-10-20T09:43:51Z</time>
      </trkpt>
      <trkpt lat="45.91978" lon="4.71791">
        <ele>173</ele>
        <time>2017-10-20T09:43:53Z</time>
      </trkpt>
      <trkpt lat="45.91974" lon="4.71791">
        <ele>173</ele>
        <time>2017-10-20T09:43:54Z</time>
      </trkpt>
      <trkpt lat="45.91967" lon="4.7179">
        <ele>173</ele>
        <time>2017-10-20T09:43:56Z</time>
      </trkpt>
      <trkpt lat="45.91963" lon="4.71789">
        <ele>173</ele>
        <time>2017-10-20T09:43:57Z</time>
      </trkpt>
      <trkpt lat="45.91956" lon="4.71788">
        <ele>173</ele>
        <time>2017-10-20T09:43:59Z</time>
      </trkpt>
      <trkpt lat="45.91953" lon="4.71787">
        <ele>173</ele>
        <time>2017-10-20T09:44:00Z</time>
      </trkpt>
      <trkpt lat="45.91945" lon="4.71787">
        <ele>173</ele>
        <time>2017-10-20T09:44:02Z</time>
      </trkpt>
      <trkpt lat="45.91941" lon="4.71787">
        <ele>173</ele>
        <time>2017-10-20T09:44:03Z</time>
      </trkpt>
      <trkpt lat="45.91933" lon="4.71786">
        <ele>173</ele>
        <time>2017-10-20T09:44:05Z</time>
      </trkpt>
      <trkpt lat="45.91929" lon="4.71785">
        <ele>173</ele>
        <time>2017-10-20T09:44:06Z</time>
      </trkpt>
      <trkpt lat="45.91922" lon="4.71784">
        <ele>172</ele>
        <time>2017-10-20T09:44:08Z</time>
      </trkpt>
      <trkpt lat="45.91919" lon="4.71783">
        <ele>172</ele>
        <time>2017-10-20T09:44:09Z</time>
      </trkpt>
      <trkpt lat="45.91911" lon="4.71781">
        <ele>172</ele>
        <time>2017-10-20T09:44:11Z</time>
      </trkpt>
      <trkpt lat="45.91907" lon="4.7178">
        <ele>172</ele>
        <time>2017-10-20T09:44:12Z</time>
      </trkpt>
      <trkpt lat="45.919" lon="4.71779">
        <ele>172</ele>
        <time>2017-10-20T09:44:14Z</time>
      </trkpt>
      <trkpt lat="45.91895" lon="4.71779">
        <ele>172</ele>
        <time>2017-10-20T09:44:15Z</time>
      </trkpt>
      <trkpt lat="45.91891" lon="4.71778">
        <ele>172</ele>
        <time>2017-10-20T09:44:16Z</time>
      </trkpt>
      <trkpt lat="45.91886" lon="4.71778">
        <ele>172</ele>
        <time>2017-10-20T09:44:17Z</time>
      </trkpt>
      <trkpt lat="45.91881" lon="4.71778">
        <ele>172</ele>
        <time>2017-10-20T09:44:18Z</time>
      </trkpt>
      <trkpt lat="45.91876" lon="4.71777">
        <ele>172</ele>
        <time>2017-10-20T09:44:19Z</time>
      </trkpt>
      <trkpt lat="45.9187" lon="4.71777">
        <ele>172</ele>
        <time>2017-10-20T09:44:21Z</time>
      </trkpt>
      <trkpt lat="45.91867" lon="4.71776">
        <ele>172</ele>
        <time>2017-10-20T09:44:22Z</time>
      </trkpt>
      <trkpt lat="45.91858" lon="4.71777">
        <ele>172</ele>
        <time>2017-10-20T09:44:25Z</time>
      </trkpt>
      <trkpt lat="45.91855" lon="4.71777">
        <ele>172</ele>
        <time>2017-10-20T09:44:26Z</time>
      </trkpt>
      <trkpt lat="45.91848" lon="4.7178">
        <ele>172</ele>
        <time>2017-10-20T09:44:28Z</time>
      </trkpt>
      <trkpt lat="45.91845" lon="4.7178">
        <ele>172</ele>
        <time>2017-10-20T09:44:29Z</time>
      </trkpt>
      <trkpt lat="45.91837" lon="4.71781">
        <ele>172</ele>
        <time>2017-10-20T09:44:31Z</time>
      </trkpt>
      <trkpt lat="45.91833" lon="4.71782">
        <ele>172</ele>
        <time>2017-10-20T09:44:32Z</time>
      </trkpt>
      <trkpt lat="45.91825" lon="4.71782">
        <ele>172</ele>
        <time>2017-10-20T09:44:34Z</time>
      </trkpt>
      <trkpt lat="45.9182" lon="4.71783">
        <ele>172</ele>
        <time>2017-10-20T09:44:35Z</time>
      </trkpt>
      <trkpt lat="45.91816" lon="4.71783">
        <ele>172</ele>
        <time>2017-10-20T09:44:36Z</time>
      </trkpt>
      <trkpt lat="45.91811" lon="4.71783">
        <ele>172</ele>
        <time>2017-10-20T09:44:37Z</time>
      </trkpt>
      <trkpt lat="45.91803" lon="4.71784">
        <ele>172</ele>
        <time>2017-10-20T09:44:39Z</time>
      </trkpt>
      <trkpt lat="45.91799" lon="4.71784">
        <ele>172</ele>
        <time>2017-10-20T09:44:40Z</time>
      </trkpt>
      <trkpt lat="45.91792" lon="4.71785">
        <ele>172</ele>
        <time>2017-10-20T09:44:42Z</time>
      </trkpt>
      <trkpt lat="45.91789" lon="4.71785">
        <ele>173</ele>
        <time>2017-10-20T09:44:43Z</time>
      </trkpt>
      <trkpt lat="45.91782" lon="4.71786">
        <ele>173</ele>
        <time>2017-10-20T09:44:45Z</time>
      </trkpt>
      <trkpt lat="45.91779" lon="4.71786">
        <ele>173</ele>
        <time>2017-10-20T09:44:46Z</time>
      </trkpt>
      <trkpt lat="45.91772" lon="4.71787">
        <ele>173</ele>
        <time>2017-10-20T09:44:48Z</time>
      </trkpt>
      <trkpt lat="45.91769" lon="4.71788">
        <ele>173</ele>
        <time>2017-10-20T09:44:49Z</time>
      </trkpt>
      <trkpt lat="45.91761" lon="4.71788">
        <ele>173</ele>
        <time>2017-10-20T09:44:51Z</time>
      </trkpt>
      <trkpt lat="45.91757" lon="4.71788">
        <ele>173</ele>
        <time>2017-10-20T09:44:52Z</time>
      </trkpt>
      <trkpt lat="45.9175" lon="4.71788">
        <ele>173</ele>
        <time>2017-10-20T09:44:54Z</time>
      </trkpt>
      <trkpt lat="45.91746" lon="4.71787">
        <ele>173</ele>
        <time>2017-10-20T09:44:55Z</time>
      </trkpt>
      <trkpt lat="45.9174" lon="4.71786">
        <ele>173</ele>
        <time>2017-10-20T09:44:57Z</time>
      </trkpt>
      <trkpt lat="45.91737" lon="4.71786">
        <ele>173</ele>
        <time>2017-10-20T09:44:58Z</time>
      </trkpt>
      <trkpt lat="45.91731" lon="4.71786">
        <ele>173</ele>
        <time>2017-10-20T09:45:00Z</time>
      </trkpt>
      <trkpt lat="45.91728" lon="4.71785">
        <ele>173</ele>
        <time>2017-10-20T09:45:01Z</time>
      </trkpt>
      <trkpt lat="45.9172" lon="4.71784">
        <ele>173</ele>
        <time>2017-10-20T09:45:03Z</time>
      </trkpt>
      <trkpt lat="45.91716" lon="4.71784">
        <ele>173</ele>
        <time>2017-10-20T09:45:04Z</time>
      </trkpt>
      <trkpt lat="45.91708" lon="4.71782">
        <ele>173</ele>
        <time>2017-10-20T09:45:06Z</time>
      </trkpt>
      <trkpt lat="45.91704" lon="4.71782">
        <ele>173</ele>
        <time>2017-10-20T09:45:07Z</time>
      </trkpt>
      <trkpt lat="45.91698" lon="4.71781">
        <ele>173</ele>
        <time>2017-10-20T09:45:09Z</time>
      </trkpt>
      <trkpt lat="45.91694" lon="4.71781">
        <ele>173</ele>
        <time>2017-10-20T09:45:10Z</time>
      </trkpt>
      <trkpt lat="45.91689" lon="4.7178">
        <ele>173</ele>
        <time>2017-10-20T09:45:12Z</time>
      </trkpt>
      <trkpt lat="45.91685" lon="4.71779">
        <ele>173</ele>
        <time>2017-10-20T09:45:13Z</time>
      </trkpt>
      <trkpt lat="45.9168" lon="4.71778">
        <ele>173</ele>
        <time>2017-10-20T09:45:15Z</time>
      </trkpt>
      <trkpt lat="45.91676" lon="4.71777">
        <ele>173</ele>
        <time>2017-10-20T09:45:16Z</time>
      </trkpt>
      <trkpt lat="45.9167" lon="4.71776">
        <ele>173</ele>
        <time>2017-10-20T09:45:18Z</time>
      </trkpt>
      <trkpt lat="45.91666" lon="4.71776">
        <ele>173</ele>
        <time>2017-10-20T09:45:19Z</time>
      </trkpt>
      <trkpt lat="45.91659" lon="4.71774">
        <ele>173</ele>
        <time>2017-10-20T09:45:21Z</time>
      </trkpt>
      <trkpt lat="45.91656" lon="4.71772">
        <ele>173</ele>
        <time>2017-10-20T09:45:22Z</time>
      </trkpt>
      <trkpt lat="45.91649" lon="4.71768">
        <ele>174</ele>
        <time>2017-10-20T09:45:24Z</time>
      </trkpt>
      <trkpt lat="45.91645" lon="4.71766">
        <ele>174</ele>
        <time>2017-10-20T09:45:25Z</time>
      </trkpt>
      <trkpt lat="45.9164" lon="4.71758">
        <ele>174</ele>
        <time>2017-10-20T09:45:27Z</time>
      </trkpt>
      <trkpt lat="45.91637" lon="4.71753">
        <ele>174</ele>
        <time>2017-10-20T09:45:28Z</time>
      </trkpt>
      <trkpt lat="45.91634" lon="4.71744">
        <ele>173</ele>
        <time>2017-10-20T09:45:30Z</time>
      </trkpt>
      <trkpt lat="45.91632" lon="4.7174">
        <ele>173</ele>
        <time>2017-10-20T09:45:31Z</time>
      </trkpt>
      <trkpt lat="45.91628" lon="4.71733">
        <ele>173</ele>
        <time>2017-10-20T09:45:33Z</time>
      </trkpt>
      <trkpt lat="45.91625" lon="4.7173">
        <ele>173</ele>
        <time>2017-10-20T09:45:34Z</time>
      </trkpt>
      <trkpt lat="45.91617" lon="4.71725">
        <ele>173</ele>
        <time>2017-10-20T09:45:37Z</time>
      </trkpt>
      <trkpt lat="45.91614" lon="4.71725">
        <ele>173</ele>
        <time>2017-10-20T09:45:38Z</time>
      </trkpt>
      <trkpt lat="45.91606" lon="4.71728">
        <ele>173</ele>
        <time>2017-10-20T09:45:40Z</time>
      </trkpt>
      <trkpt lat="45.91603" lon="4.7173">
        <ele>173</ele>
        <time>2017-10-20T09:45:41Z</time>
      </trkpt>
      <trkpt lat="45.91595" lon="4.71735">
        <ele>173</ele>
        <time>2017-10-20T09:45:43Z</time>
      </trkpt>
      <trkpt lat="45.91592" lon="4.71737">
        <ele>173</ele>
        <time>2017-10-20T09:45:44Z</time>
      </trkpt>
      <trkpt lat="45.91585" lon="4.71743">
        <ele>174</ele>
        <time>2017-10-20T09:45:46Z</time>
      </trkpt>
      <trkpt lat="45.91583" lon="4.71745">
        <ele>174</ele>
        <time>2017-10-20T09:45:47Z</time>
      </trkpt>
      <trkpt lat="45.91576" lon="4.71753">
        <ele>174</ele>
        <time>2017-10-20T09:45:50Z</time>
      </trkpt>
      <trkpt lat="45.91574" lon="4.71756">
        <ele>174</ele>
        <time>2017-10-20T09:45:51Z</time>
      </trkpt>
      <trkpt lat="45.91569" lon="4.71761">
        <ele>174</ele>
        <time>2017-10-20T09:45:53Z</time>
      </trkpt>
      <trkpt lat="45.91567" lon="4.71764">
        <ele>174</ele>
        <time>2017-10-20T09:45:54Z</time>
      </trkpt>
      <trkpt lat="45.91561" lon="4.71771">
        <ele>174</ele>
        <time>2017-10-20T09:45:56Z</time>
      </trkpt>
      <trkpt lat="45.91559" lon="4.71774">
        <ele>174</ele>
        <time>2017-10-20T09:45:57Z</time>
      </trkpt>
      <trkpt lat="45.91554" lon="4.71781">
        <ele>174</ele>
        <time>2017-10-20T09:45:59Z</time>
      </trkpt>
      <trkpt lat="45.91552" lon="4.71784">
        <ele>174</ele>
        <time>2017-10-20T09:46:00Z</time>
      </trkpt>
      <trkpt lat="45.91549" lon="4.7179">
        <ele>174</ele>
        <time>2017-10-20T09:46:02Z</time>
      </trkpt>
      <trkpt lat="45.91546" lon="4.71794">
        <ele>174</ele>
        <time>2017-10-20T09:46:03Z</time>
      </trkpt>
      <trkpt lat="45.91542" lon="4.71803">
        <ele>174</ele>
        <time>2017-10-20T09:46:05Z</time>
      </trkpt>
      <trkpt lat="45.91539" lon="4.71807">
        <ele>174</ele>
        <time>2017-10-20T09:46:06Z</time>
      </trkpt>
      <trkpt lat="45.91535" lon="4.71818">
        <ele>174</ele>
        <time>2017-10-20T09:46:08Z</time>
      </trkpt>
      <trkpt lat="45.91534" lon="4.71825">
        <ele>174</ele>
        <time>2017-10-20T09:46:09Z</time>
      </trkpt>
      <trkpt lat="45.91531" lon="4.71835">
        <ele>174</ele>
        <time>2017-10-20T09:46:11Z</time>
      </trkpt>
      <trkpt lat="45.9153" lon="4.7184">
        <ele>174</ele>
        <time>2017-10-20T09:46:12Z</time>
      </trkpt>
      <trkpt lat="45.91528" lon="4.7185">
        <ele>174</ele>
        <time>2017-10-20T09:46:14Z</time>
      </trkpt>
      <trkpt lat="45.91527" lon="4.71854">
        <ele>174</ele>
        <time>2017-10-20T09:46:15Z</time>
      </trkpt>
      <trkpt lat="45.91524" lon="4.71862">
        <ele>174</ele>
        <time>2017-10-20T09:46:17Z</time>
      </trkpt>
      <trkpt lat="45.91521" lon="4.71866">
        <ele>174</ele>
        <time>2017-10-20T09:46:18Z</time>
      </trkpt>
      <trkpt lat="45.91516" lon="4.71874">
        <ele>174</ele>
        <time>2017-10-20T09:46:20Z</time>
      </trkpt>
      <trkpt lat="45.91513" lon="4.71878">
        <ele>173</ele>
        <time>2017-10-20T09:46:21Z</time>
      </trkpt>
      <trkpt lat="45.91508" lon="4.71888">
        <ele>173</ele>
        <time>2017-10-20T09:46:23Z</time>
      </trkpt>
      <trkpt lat="45.91505" lon="4.71891">
        <ele>173</ele>
        <time>2017-10-20T09:46:24Z</time>
      </trkpt>
      <trkpt lat="45.91499" lon="4.71897">
        <ele>173</ele>
        <time>2017-10-20T09:46:26Z</time>
      </trkpt>
      <trkpt lat="45.91496" lon="4.71899">
        <ele>173</ele>
        <time>2017-10-20T09:46:27Z</time>
      </trkpt>
      <trkpt lat="45.91489" lon="4.71904">
        <ele>173</ele>
        <time>2017-10-20T09:46:29Z</time>
      </trkpt>
      <trkpt lat="45.91485" lon="4.71906">
        <ele>173</ele>
        <time>2017-10-20T09:46:30Z</time>
      </trkpt>
      <trkpt lat="45.91477" lon="4.71912">
        <ele>173</ele>
        <time>2017-10-20T09:46:32Z</time>
      </trkpt>
      <trkpt lat="45.91471" lon="4.71912">
        <ele>173</ele>
        <time>2017-10-20T09:46:33Z</time>
      </trkpt>
      <trkpt lat="45.91463" lon="4.71916">
        <ele>173</ele>
        <time>2017-10-20T09:46:35Z</time>
      </trkpt>
      <trkpt lat="45.91458" lon="4.71917">
        <ele>173</ele>
        <time>2017-10-20T09:46:36Z</time>
      </trkpt>
      <trkpt lat="45.91453" lon="4.7192">
        <ele>173</ele>
        <time>2017-10-20T09:46:37Z</time>
      </trkpt>
      <trkpt lat="45.91449" lon="4.71922">
        <ele>173</ele>
        <time>2017-10-20T09:46:38Z</time>
      </trkpt>
      <trkpt lat="45.91442" lon="4.71928">
        <ele>173</ele>
        <time>2017-10-20T09:46:40Z</time>
      </trkpt>
      <trkpt lat="45.91438" lon="4.7193">
        <ele>173</ele>
        <time>2017-10-20T09:46:41Z</time>
      </trkpt>
      <trkpt lat="45.91432" lon="4.71934">
        <ele>173</ele>
        <time>2017-10-20T09:46:43Z</time>
      </trkpt>
      <trkpt lat="45.91428" lon="4.71936">
        <ele>173</ele>
        <time>2017-10-20T09:46:44Z</time>
      </trkpt>
      <trkpt lat="45.91422" lon="4.71941">
        <ele>173</ele>
        <time>2017-10-20T09:46:46Z</time>
      </trkpt>
      <trkpt lat="45.91418" lon="4.71944">
        <ele>173</ele>
        <time>2017-10-20T09:46:47Z</time>
      </trkpt>
      <trkpt lat="45.91411" lon="4.7195">
        <ele>173</ele>
        <time>2017-10-20T09:46:49Z</time>
      </trkpt>
      <trkpt lat="45.91407" lon="4.71954">
        <ele>173</ele>
        <time>2017-10-20T09:46:50Z</time>
      </trkpt>
      <trkpt lat="45.91402" lon="4.71961">
        <ele>174</ele>
        <time>2017-10-20T09:46:52Z</time>
      </trkpt>
      <trkpt lat="45.914" lon="4.71964">
        <ele>174</ele>
        <time>2017-10-20T09:46:53Z</time>
      </trkpt>
      <trkpt lat="45.91394" lon="4.71969">
        <ele>174</ele>
        <time>2017-10-20T09:46:55Z</time>
      </trkpt>
      <trkpt lat="45.91391" lon="4.71971">
        <ele>174</ele>
        <time>2017-10-20T09:46:56Z</time>
      </trkpt>
      <trkpt lat="45.91384" lon="4.71974">
        <ele>174</ele>
        <time>2017-10-20T09:46:58Z</time>
      </trkpt>
      <trkpt lat="45.9138" lon="4.71975">
        <ele>174</ele>
        <time>2017-10-20T09:46:59Z</time>
      </trkpt>
      <trkpt lat="45.91372" lon="4.71975">
        <ele>173</ele>
        <time>2017-10-20T09:47:01Z</time>
      </trkpt>
      <trkpt lat="45.91367" lon="4.71975">
        <ele>173</ele>
        <time>2017-10-20T09:47:02Z</time>
      </trkpt>
      <trkpt lat="45.9136" lon="4.71973">
        <ele>173</ele>
        <time>2017-10-20T09:47:04Z</time>
      </trkpt>
      <trkpt lat="45.91357" lon="4.71972">
        <ele>173</ele>
        <time>2017-10-20T09:47:05Z</time>
      </trkpt>
      <trkpt lat="45.9135" lon="4.71971">
        <ele>173</ele>
        <time>2017-10-20T09:47:07Z</time>
      </trkpt>
      <trkpt lat="45.91347" lon="4.71971">
        <ele>173</ele>
        <time>2017-10-20T09:47:08Z</time>
      </trkpt>
      <trkpt lat="45.9134" lon="4.7197">
        <ele>173</ele>
        <time>2017-10-20T09:47:10Z</time>
      </trkpt>
      <trkpt lat="45.91336" lon="4.71969">
        <ele>173</ele>
        <time>2017-10-20T09:47:11Z</time>
      </trkpt>
      <trkpt lat="45.91329" lon="4.71966">
        <ele>174</ele>
        <time>2017-10-20T09:47:13Z</time>
      </trkpt>
      <trkpt lat="45.91325" lon="4.71965">
        <ele>174</ele>
        <time>2017-10-20T09:47:14Z</time>
      </trkpt>
      <trkpt lat="45.91317" lon="4.7196">
        <ele>174</ele>
        <time>2017-10-20T09:47:16Z</time>
      </trkpt>
      <trkpt lat="45.91313" lon="4.71958">
        <ele>174</ele>
        <time>2017-10-20T09:47:17Z</time>
      </trkpt>
      <trkpt lat="45.91306" lon="4.71954">
        <ele>174</ele>
        <time>2017-10-20T09:47:19Z</time>
      </trkpt>
      <trkpt lat="45.91302" lon="4.71952">
        <ele>174</ele>
        <time>2017-10-20T09:47:20Z</time>
      </trkpt>
      <trkpt lat="45.91296" lon="4.71948">
        <ele>175</ele>
        <time>2017-10-20T09:47:22Z</time>
      </trkpt>
      <trkpt lat="45.91293" lon="4.71947">
        <ele>175</ele>
        <time>2017-10-20T09:47:23Z</time>
      </trkpt>
      <trkpt lat="45.91286" lon="4.71944">
        <ele>175</ele>
        <time>2017-10-20T09:47:25Z</time>
      </trkpt>
      <trkpt lat="45.91283" lon="4.71942">
        <ele>175</ele>
        <time>2017-10-20T09:47:26Z</time>
      </trkpt>
      <trkpt lat="45.91276" lon="4.7194">
        <ele>175</ele>
        <time>2017-10-20T09:47:28Z</time>
      </trkpt>
      <trkpt lat="45.91272" lon="4.71939">
        <ele>175</ele>
        <time>2017-10-20T09:47:29Z</time>
      </trkpt>
      <trkpt lat="45.91264" lon="4.71936">
        <ele>175</ele>
        <time>2017-10-20T09:47:31Z</time>
      </trkpt>
      <trkpt lat="45.9126" lon="4.71935">
        <ele>176</ele>
        <time>2017-10-20T09:47:32Z</time>
      </trkpt>
      <trkpt lat="45.91252" lon="4.71932">
        <ele>176</ele>
        <time>2017-10-20T09:47:34Z</time>
      </trkpt>
      <trkpt lat="45.91248" lon="4.71931">
        <ele>176</ele>
        <time>2017-10-20T09:47:35Z</time>
      </trkpt>
      <trkpt lat="45.91241" lon="4.71928">
        <ele>176</ele>
        <time>2017-10-20T09:47:37Z</time>
      </trkpt>
      <trkpt lat="45.91237" lon="4.71926">
        <ele>176</ele>
        <time>2017-10-20T09:47:38Z</time>
      </trkpt>
      <trkpt lat="45.91231" lon="4.71923">
        <ele>176</ele>
        <time>2017-10-20T09:47:40Z</time>
      </trkpt>
      <trkpt lat="45.91228" lon="4.71922">
        <ele>176</ele>
        <time>2017-10-20T09:47:41Z</time>
      </trkpt>
      <trkpt lat="45.91221" lon="4.71919">
        <ele>176</ele>
        <time>2017-10-20T09:47:43Z</time>
      </trkpt>
      <trkpt lat="45.91217" lon="4.71918">
        <ele>176</ele>
        <time>2017-10-20T09:47:44Z</time>
      </trkpt>
      <trkpt lat="45.9121" lon="4.71915">
        <ele>176</ele>
        <time>2017-10-20T09:47:46Z</time>
      </trkpt>
      <trkpt lat="45.91206" lon="4.71915">
        <ele>176</ele>
        <time>2017-10-20T09:47:47Z</time>
      </trkpt>
      <trkpt lat="45.91198" lon="4.71913">
        <ele>176</ele>
        <time>2017-10-20T09:47:49Z</time>
      </trkpt>
      <trkpt lat="45.91194" lon="4.71912">
        <ele>176</ele>
        <time>2017-10-20T09:47:50Z</time>
      </trkpt>
      <trkpt lat="45.91186" lon="4.71911">
        <ele>176</ele>
        <time>2017-10-20T09:47:52Z</time>
      </trkpt>
      <trkpt lat="45.91183" lon="4.7191">
        <ele>176</ele>
        <time>2017-10-20T09:47:53Z</time>
      </trkpt>
      <trkpt lat="45.91175" lon="4.71909">
        <ele>176</ele>
        <time>2017-10-20T09:47:55Z</time>
      </trkpt>
      <trkpt lat="45.91172" lon="4.71909">
        <ele>176</ele>
        <time>2017-10-20T09:47:56Z</time>
      </trkpt>
      <trkpt lat="45.91166" lon="4.71908">
        <ele>176</ele>
        <time>2017-10-20T09:47:58Z</time>
      </trkpt>
      <trkpt lat="45.91163" lon="4.71907">
        <ele>176</ele>
        <time>2017-10-20T09:47:59Z</time>
      </trkpt>
      <trkpt lat="45.91155" lon="4.71907">
        <ele>176</ele>
        <time>2017-10-20T09:48:01Z</time>
      </trkpt>
      <trkpt lat="45.91152" lon="4.71908">
        <ele>175</ele>
        <time>2017-10-20T09:48:02Z</time>
      </trkpt>
      <trkpt lat="45.91145" lon="4.71911">
        <ele>175</ele>
        <time>2017-10-20T09:48:04Z</time>
      </trkpt>
      <trkpt lat="45.91139" lon="4.71915">
        <ele>175</ele>
        <time>2017-10-20T09:48:05Z</time>
      </trkpt>
      <trkpt lat="45.91131" lon="4.71917">
        <ele>175</ele>
        <time>2017-10-20T09:48:07Z</time>
      </trkpt>
      <trkpt lat="45.91128" lon="4.7192">
        <ele>175</ele>
        <time>2017-10-20T09:48:08Z</time>
      </trkpt>
      <trkpt lat="45.91124" lon="4.71923">
        <ele>174</ele>
        <time>2017-10-20T09:48:09Z</time>
      </trkpt>
      <trkpt lat="45.91119" lon="4.71925">
        <ele>174</ele>
        <time>2017-10-20T09:48:10Z</time>
      </trkpt>
      <trkpt lat="45.91112" lon="4.7193">
        <ele>174</ele>
        <time>2017-10-20T09:48:12Z</time>
      </trkpt>
      <trkpt lat="45.91108" lon="4.71933">
        <ele>174</ele>
        <time>2017-10-20T09:48:13Z</time>
      </trkpt>
      <trkpt lat="45.91101" lon="4.71937">
        <ele>174</ele>
        <time>2017-10-20T09:48:15Z</time>
      </trkpt>
      <trkpt lat="45.91098" lon="4.71938">
        <ele>174</ele>
        <time>2017-10-20T09:48:16Z</time>
      </trkpt>
      <trkpt lat="45.91091" lon="4.7194">
        <ele>174</ele>
        <time>2017-10-20T09:48:18Z</time>
      </trkpt>
      <trkpt lat="45.91088" lon="4.71941">
        <ele>174</ele>
        <time>2017-10-20T09:48:19Z</time>
      </trkpt>
      <trkpt lat="45.91081" lon="4.71943">
        <ele>174</ele>
        <time>2017-10-20T09:48:21Z</time>
      </trkpt>
      <trkpt lat="45.91078" lon="4.71945">
        <ele>174</ele>
        <time>2017-10-20T09:48:22Z</time>
      </trkpt>
      <trkpt lat="45.9107" lon="4.71947">
        <ele>174</ele>
        <time>2017-10-20T09:48:24Z</time>
      </trkpt>
      <trkpt lat="45.91066" lon="4.71948">
        <ele>174</ele>
        <time>2017-10-20T09:48:25Z</time>
      </trkpt>
      <trkpt lat="45.91059" lon="4.7195">
        <ele>174</ele>
        <time>2017-10-20T09:48:27Z</time>
      </trkpt>
      <trkpt lat="45.91056" lon="4.7195">
        <ele>174</ele>
        <time>2017-10-20T09:48:28Z</time>
      </trkpt>
      <trkpt lat="45.91047" lon="4.71948">
        <ele>174</ele>
        <time>2017-10-20T09:48:31Z</time>
      </trkpt>
      <trkpt lat="45.91043" lon="4.71948">
        <ele>174</ele>
        <time>2017-10-20T09:48:32Z</time>
      </trkpt>
      <trkpt lat="45.91036" lon="4.71946">
        <ele>174</ele>
        <time>2017-10-20T09:48:34Z</time>
      </trkpt>
      <trkpt lat="45.91033" lon="4.71946">
        <ele>174</ele>
        <time>2017-10-20T09:48:35Z</time>
      </trkpt>
      <trkpt lat="45.91025" lon="4.71945">
        <ele>174</ele>
        <time>2017-10-20T09:48:37Z</time>
      </trkpt>
      <trkpt lat="45.91021" lon="4.71945">
        <ele>174</ele>
        <time>2017-10-20T09:48:38Z</time>
      </trkpt>
      <trkpt lat="45.91013" lon="4.71946">
        <ele>174</ele>
        <time>2017-10-20T09:48:40Z</time>
      </trkpt>
      <trkpt lat="45.9101" lon="4.71947">
        <ele>174</ele>
        <time>2017-10-20T09:48:41Z</time>
      </trkpt>
      <trkpt lat="45.91002" lon="4.7195">
        <ele>174</ele>
        <time>2017-10-20T09:48:43Z</time>
      </trkpt>
      <trkpt lat="45.90998" lon="4.71951">
        <ele>174</ele>
        <time>2017-10-20T09:48:44Z</time>
      </trkpt>
      <trkpt lat="45.9099" lon="4.71953">
        <ele>174</ele>
        <time>2017-10-20T09:48:46Z</time>
      </trkpt>
      <trkpt lat="45.90987" lon="4.71955">
        <ele>174</ele>
        <time>2017-10-20T09:48:47Z</time>
      </trkpt>
      <trkpt lat="45.90981" lon="4.71957">
        <ele>174</ele>
        <time>2017-10-20T09:48:49Z</time>
      </trkpt>
      <trkpt lat="45.90978" lon="4.71958">
        <ele>174</ele>
        <time>2017-10-20T09:48:50Z</time>
      </trkpt>
      <trkpt lat="45.90971" lon="4.71962">
        <ele>174</ele>
        <time>2017-10-20T09:48:52Z</time>
      </trkpt>
      <trkpt lat="45.90967" lon="4.71964">
        <ele>174</ele>
        <time>2017-10-20T09:48:53Z</time>
      </trkpt>
      <trkpt lat="45.9096" lon="4.71969">
        <ele>174</ele>
        <time>2017-10-20T09:48:55Z</time>
      </trkpt>
      <trkpt lat="45.90957" lon="4.71971">
        <ele>174</ele>
        <time>2017-10-20T09:48:56Z</time>
      </trkpt>
      <trkpt lat="45.90951" lon="4.71975">
        <ele>174</ele>
        <time>2017-10-20T09:48:58Z</time>
      </trkpt>
      <trkpt lat="45.90948" lon="4.71977">
        <ele>174</ele>
        <time>2017-10-20T09:48:59Z</time>
      </trkpt>
      <trkpt lat="45.90942" lon="4.7198">
        <ele>174</ele>
        <time>2017-10-20T09:49:01Z</time>
      </trkpt>
      <trkpt lat="45.90938" lon="4.71982">
        <ele>174</ele>
        <time>2017-10-20T09:49:02Z</time>
      </trkpt>
      <trkpt lat="45.90931" lon="4.71987">
        <ele>174</ele>
        <time>2017-10-20T09:49:04Z</time>
      </trkpt>
      <trkpt lat="45.90927" lon="4.71989">
        <ele>174</ele>
        <time>2017-10-20T09:49:05Z</time>
      </trkpt>
      <trkpt lat="45.90919" lon="4.71994">
        <ele>174</ele>
        <time>2017-10-20T09:49:07Z</time>
      </trkpt>
      <trkpt lat="45.90915" lon="4.71996">
        <ele>174</ele>
        <time>2017-10-20T09:49:08Z</time>
      </trkpt>
      <trkpt lat="45.90907" lon="4.72">
        <ele>174</ele>
        <time>2017-10-20T09:49:10Z</time>
      </trkpt>
      <trkpt lat="45.90903" lon="4.72001">
        <ele>174</ele>
        <time>2017-10-20T09:49:11Z</time>
      </trkpt>
      <trkpt lat="45.90895" lon="4.72004">
        <ele>174</ele>
        <time>2017-10-20T09:49:14Z</time>
      </trkpt>
      <trkpt lat="45.9089" lon="4.72006">
        <ele>174</ele>
        <time>2017-10-20T09:49:15Z</time>
      </trkpt>
      <trkpt lat="45.90883" lon="4.7201">
        <ele>174</ele>
        <time>2017-10-20T09:49:17Z</time>
      </trkpt>
      <trkpt lat="45.9088" lon="4.72012">
        <ele>174</ele>
        <time>2017-10-20T09:49:18Z</time>
      </trkpt>
      <trkpt lat="45.90872" lon="4.72016">
        <ele>174</ele>
        <time>2017-10-20T09:49:20Z</time>
      </trkpt>
      <trkpt lat="45.90868" lon="4.72018">
        <ele>174</ele>
        <time>2017-10-20T09:49:21Z</time>
      </trkpt>
      <trkpt lat="45.9086" lon="4.72021">
        <ele>174</ele>
        <time>2017-10-20T09:49:23Z</time>
      </trkpt>
      <trkpt lat="45.90856" lon="4.72023">
        <ele>174</ele>
        <time>2017-10-20T09:49:24Z</time>
      </trkpt>
      <trkpt lat="45.90848" lon="4.72027">
        <ele>174</ele>
        <time>2017-10-20T09:49:26Z</time>
      </trkpt>
      <trkpt lat="45.90843" lon="4.7203">
        <ele>174</ele>
        <time>2017-10-20T09:49:27Z</time>
      </trkpt>
      <trkpt lat="45.90836" lon="4.72034">
        <ele>174</ele>
        <time>2017-10-20T09:49:29Z</time>
      </trkpt>
      <trkpt lat="45.90832" lon="4.72035">
        <ele>175</ele>
        <time>2017-10-20T09:49:30Z</time>
      </trkpt>
      <trkpt lat="45.90826" lon="4.72038">
        <ele>175</ele>
        <time>2017-10-20T09:49:32Z</time>
      </trkpt>
      <trkpt lat="45.90823" lon="4.7204">
        <ele>175</ele>
        <time>2017-10-20T09:49:33Z</time>
      </trkpt>
      <trkpt lat="45.90817" lon="4.72044">
        <ele>175</ele>
        <time>2017-10-20T09:49:35Z</time>
      </trkpt>
      <trkpt lat="45.90814" lon="4.72045">
        <ele>175</ele>
        <time>2017-10-20T09:49:36Z</time>
      </trkpt>
      <trkpt lat="45.90806" lon="4.72049">
        <ele>175</ele>
        <time>2017-10-20T09:49:38Z</time>
      </trkpt>
      <trkpt lat="45.90803" lon="4.7205">
        <ele>175</ele>
        <time>2017-10-20T09:49:39Z</time>
      </trkpt>
      <trkpt lat="45.90795" lon="4.72053">
        <ele>175</ele>
        <time>2017-10-20T09:49:41Z</time>
      </trkpt>
      <trkpt lat="45.90791" lon="4.72054">
        <ele>175</ele>
        <time>2017-10-20T09:49:42Z</time>
      </trkpt>
      <trkpt lat="45.90784" lon="4.72057">
        <ele>175</ele>
        <time>2017-10-20T09:49:44Z</time>
      </trkpt>
      <trkpt lat="45.9078" lon="4.72059">
        <ele>175</ele>
        <time>2017-10-20T09:49:45Z</time>
      </trkpt>
      <trkpt lat="45.90774" lon="4.72062">
        <ele>175</ele>
        <time>2017-10-20T09:49:47Z</time>
      </trkpt>
      <trkpt lat="45.90771" lon="4.72064">
        <ele>175</ele>
        <time>2017-10-20T09:49:48Z</time>
      </trkpt>
      <trkpt lat="45.90764" lon="4.72068">
        <ele>174</ele>
        <time>2017-10-20T09:49:50Z</time>
      </trkpt>
      <trkpt lat="45.90761" lon="4.7207">
        <ele>174</ele>
        <time>2017-10-20T09:49:51Z</time>
      </trkpt>
      <trkpt lat="45.90757" lon="4.72073">
        <ele>174</ele>
        <time>2017-10-20T09:49:52Z</time>
      </trkpt>
      <trkpt lat="45.90753" lon="4.72079">
        <ele>174</ele>
        <time>2017-10-20T09:49:53Z</time>
      </trkpt>
      <trkpt lat="45.90745" lon="4.72085">
        <ele>174</ele>
        <time>2017-10-20T09:49:55Z</time>
      </trkpt>
      <trkpt lat="45.90742" lon="4.72087">
        <ele>174</ele>
        <time>2017-10-20T09:49:56Z</time>
      </trkpt>
      <trkpt lat="45.90735" lon="4.72091">
        <ele>174</ele>
        <time>2017-10-20T09:49:58Z</time>
      </trkpt>
      <trkpt lat="45.90733" lon="4.72094">
        <ele>174</ele>
        <time>2017-10-20T09:49:59Z</time>
      </trkpt>
      <trkpt lat="45.90726" lon="4.72099">
        <ele>174</ele>
        <time>2017-10-20T09:50:02Z</time>
      </trkpt>
      <trkpt lat="45.90722" lon="4.72101">
        <ele>174</ele>
        <time>2017-10-20T09:50:03Z</time>
      </trkpt>
      <trkpt lat="45.90716" lon="4.72105">
        <ele>174</ele>
        <time>2017-10-20T09:50:05Z</time>
      </trkpt>
      <trkpt lat="45.90713" lon="4.72108">
        <ele>174</ele>
        <time>2017-10-20T09:50:06Z</time>
      </trkpt>
      <trkpt lat="45.90706" lon="4.72113">
        <ele>174</ele>
        <time>2017-10-20T09:50:08Z</time>
      </trkpt>
      <trkpt lat="45.90703" lon="4.72115">
        <ele>174</ele>
        <time>2017-10-20T09:50:09Z</time>
      </trkpt>
      <trkpt lat="45.90695" lon="4.7212">
        <ele>174</ele>
        <time>2017-10-20T09:50:11Z</time>
      </trkpt>
      <trkpt lat="45.90692" lon="4.72122">
        <ele>174</ele>
        <time>2017-10-20T09:50:12Z</time>
      </trkpt>
      <trkpt lat="45.90684" lon="4.72124">
        <ele>174</ele>
        <time>2017-10-20T09:50:14Z</time>
      </trkpt>
      <trkpt lat="45.90681" lon="4.72125">
        <ele>174</ele>
        <time>2017-10-20T09:50:15Z</time>
      </trkpt>
      <trkpt lat="45.90675" lon="4.72125">
        <ele>174</ele>
        <time>2017-10-20T09:50:17Z</time>
      </trkpt>
      <trkpt lat="45.90672" lon="4.72125">
        <ele>174</ele>
        <time>2017-10-20T09:50:18Z</time>
      </trkpt>
      <trkpt lat="45.90665" lon="4.72127">
        <ele>175</ele>
        <time>2017-10-20T09:50:20Z</time>
      </trkpt>
      <trkpt lat="45.90662" lon="4.72127">
        <ele>175</ele>
        <time>2017-10-20T09:50:21Z</time>
      </trkpt>
      <trkpt lat="45.90655" lon="4.72128">
        <ele>175</ele>
        <time>2017-10-20T09:50:23Z</time>
      </trkpt>
      <trkpt lat="45.90652" lon="4.72128">
        <ele>175</ele>
        <time>2017-10-20T09:50:24Z</time>
      </trkpt>
      <trkpt lat="45.90645" lon="4.7213">
        <ele>175</ele>
        <time>2017-10-20T09:50:26Z</time>
      </trkpt>
      <trkpt lat="45.90643" lon="4.72131">
        <ele>175</ele>
        <time>2017-10-20T09:50:27Z</time>
      </trkpt>
      <trkpt lat="45.90637" lon="4.72133">
        <ele>175</ele>
        <time>2017-10-20T09:50:29Z</time>
      </trkpt>
      <trkpt lat="45.90634" lon="4.72134">
        <ele>175</ele>
        <time>2017-10-20T09:50:30Z</time>
      </trkpt>
      <trkpt lat="45.90627" lon="4.72137">
        <ele>175</ele>
        <time>2017-10-20T09:50:32Z</time>
      </trkpt>
      <trkpt lat="45.90624" lon="4.72138">
        <ele>175</ele>
        <time>2017-10-20T09:50:33Z</time>
      </trkpt>
      <trkpt lat="45.90618" lon="4.72141">
        <ele>176</ele>
        <time>2017-10-20T09:50:35Z</time>
      </trkpt>
      <trkpt lat="45.90614" lon="4.72143">
        <ele>176</ele>
        <time>2017-10-20T09:50:36Z</time>
      </trkpt>
      <trkpt lat="45.90608" lon="4.72148">
        <ele>176</ele>
        <time>2017-10-20T09:50:38Z</time>
      </trkpt>
      <trkpt lat="45.90605" lon="4.7215">
        <ele>176</ele>
        <time>2017-10-20T09:50:39Z</time>
      </trkpt>
      <trkpt lat="45.90598" lon="4.72155">
        <ele>176</ele>
        <time>2017-10-20T09:50:42Z</time>
      </trkpt>
      <trkpt lat="45.90595" lon="4.72157">
        <ele>176</ele>
        <time>2017-10-20T09:50:43Z</time>
      </trkpt>
      <trkpt lat="45.90589" lon="4.72159">
        <ele>176</ele>
        <time>2017-10-20T09:50:45Z</time>
      </trkpt>
      <trkpt lat="45.90586" lon="4.72161">
        <ele>176</ele>
        <time>2017-10-20T09:50:46Z</time>
      </trkpt>
      <trkpt lat="45.9058" lon="4.72164">
        <ele>176</ele>
        <time>2017-10-20T09:50:48Z</time>
      </trkpt>
      <trkpt lat="45.90576" lon="4.72165">
        <ele>177</ele>
        <time>2017-10-20T09:50:49Z</time>
      </trkpt>
      <trkpt lat="45.90568" lon="4.72167">
        <ele>176</ele>
        <time>2017-10-20T09:50:52Z</time>
      </trkpt>
      <trkpt lat="45.90566" lon="4.72168">
        <ele>176</ele>
        <time>2017-10-20T09:50:53Z</time>
      </trkpt>
      <trkpt lat="45.90559" lon="4.72171">
        <ele>177</ele>
        <time>2017-10-20T09:50:56Z</time>
      </trkpt>
      <trkpt lat="45.90556" lon="4.72172">
        <ele>177</ele>
        <time>2017-10-20T09:50:57Z</time>
      </trkpt>
      <trkpt lat="45.9055" lon="4.72176">
        <ele>177</ele>
        <time>2017-10-20T09:50:59Z</time>
      </trkpt>
      <trkpt lat="45.90547" lon="4.72177">
        <ele>177</ele>
        <time>2017-10-20T09:51:00Z</time>
      </trkpt>
      <trkpt lat="45.90538" lon="4.7218">
        <ele>177</ele>
        <time>2017-10-20T09:51:03Z</time>
      </trkpt>
      <trkpt lat="45.90535" lon="4.72181">
        <ele>177</ele>
        <time>2017-10-20T09:51:04Z</time>
      </trkpt>
      <trkpt lat="45.90528" lon="4.72183">
        <ele>177</ele>
        <time>2017-10-20T09:51:06Z</time>
      </trkpt>
      <trkpt lat="45.90525" lon="4.72184">
        <ele>177</ele>
        <time>2017-10-20T09:51:07Z</time>
      </trkpt>
      <trkpt lat="45.90518" lon="4.72186">
        <ele>177</ele>
        <time>2017-10-20T09:51:09Z</time>
      </trkpt>
      <trkpt lat="45.90515" lon="4.72187">
        <ele>177</ele>
        <time>2017-10-20T09:51:10Z</time>
      </trkpt>
      <trkpt lat="45.90509" lon="4.7219">
        <ele>177</ele>
        <time>2017-10-20T09:51:12Z</time>
      </trkpt>
      <trkpt lat="45.90506" lon="4.72191">
        <ele>177</ele>
        <time>2017-10-20T09:51:13Z</time>
      </trkpt>
      <trkpt lat="45.90499" lon="4.72194">
        <ele>178</ele>
        <time>2017-10-20T09:51:15Z</time>
      </trkpt>
      <trkpt lat="45.90495" lon="4.72196">
        <ele>178</ele>
        <time>2017-10-20T09:51:16Z</time>
      </trkpt>
      <trkpt lat="45.90488" lon="4.72199">
        <ele>178</ele>
        <time>2017-10-20T09:51:18Z</time>
      </trkpt>
      <trkpt lat="45.90485" lon="4.72201">
        <ele>178</ele>
        <time>2017-10-20T09:51:19Z</time>
      </trkpt>
      <trkpt lat="45.90477" lon="4.72206">
        <ele>179</ele>
        <time>2017-10-20T09:51:22Z</time>
      </trkpt>
      <trkpt lat="45.90475" lon="4.72207">
        <ele>179</ele>
        <time>2017-10-20T09:51:23Z</time>
      </trkpt>
      <trkpt lat="45.90468" lon="4.72211">
        <ele>179</ele>
        <time>2017-10-20T09:51:26Z</time>
      </trkpt>
      <trkpt lat="45.90466" lon="4.72213">
        <ele>179</ele>
        <time>2017-10-20T09:51:27Z</time>
      </trkpt>
      <trkpt lat="45.90458" lon="4.72218">
        <ele>179</ele>
        <time>2017-10-20T09:51:30Z</time>
      </trkpt>
      <trkpt lat="45.90455" lon="4.72221">
        <ele>179</ele>
        <time>2017-10-20T09:51:31Z</time>
      </trkpt>
      <trkpt lat="45.90448" lon="4.72226">
        <ele>179</ele>
        <time>2017-10-20T09:51:34Z</time>
      </trkpt>
      <trkpt lat="45.90445" lon="4.72228">
        <ele>179</ele>
        <time>2017-10-20T09:51:35Z</time>
      </trkpt>
      <trkpt lat="45.9044" lon="4.72233">
        <ele>179</ele>
        <time>2017-10-20T09:51:37Z</time>
      </trkpt>
      <trkpt lat="45.90437" lon="4.72235">
        <ele>179</ele>
        <time>2017-10-20T09:51:38Z</time>
      </trkpt>
      <trkpt lat="45.90431" lon="4.72239">
        <ele>179</ele>
        <time>2017-10-20T09:51:40Z</time>
      </trkpt>
      <trkpt lat="45.90429" lon="4.7224">
        <ele>179</ele>
        <time>2017-10-20T09:51:41Z</time>
      </trkpt>
      <trkpt lat="45.90421" lon="4.72244">
        <ele>179</ele>
        <time>2017-10-20T09:51:44Z</time>
      </trkpt>
      <trkpt lat="45.90418" lon="4.72246">
        <ele>179</ele>
        <time>2017-10-20T09:51:45Z</time>
      </trkpt>
      <trkpt lat="45.90412" lon="4.72249">
        <ele>179</ele>
        <time>2017-10-20T09:51:47Z</time>
      </trkpt>
      <trkpt lat="45.90409" lon="4.7225">
        <ele>179</ele>
        <time>2017-10-20T09:51:48Z</time>
      </trkpt>
      <trkpt lat="45.90401" lon="4.72254">
        <ele>178</ele>
        <time>2017-10-20T09:51:50Z</time>
      </trkpt>
      <trkpt lat="45.90398" lon="4.72255">
        <ele>178</ele>
        <time>2017-10-20T09:51:51Z</time>
      </trkpt>
      <trkpt lat="45.90392" lon="4.72258">
        <ele>178</ele>
        <time>2017-10-20T09:51:53Z</time>
      </trkpt>
      <trkpt lat="45.90389" lon="4.72259">
        <ele>178</ele>
        <time>2017-10-20T09:51:54Z</time>
      </trkpt>
      <trkpt lat="45.90383" lon="4.72261">
        <ele>178</ele>
        <time>2017-10-20T09:51:56Z</time>
      </trkpt>
      <trkpt lat="45.9038" lon="4.72263">
        <ele>178</ele>
        <time>2017-10-20T09:51:57Z</time>
      </trkpt>
      <trkpt lat="45.90374" lon="4.72265">
        <ele>178</ele>
        <time>2017-10-20T09:51:59Z</time>
      </trkpt>
      <trkpt lat="45.9037" lon="4.72267">
        <ele>178</ele>
        <time>2017-10-20T09:52:00Z</time>
      </trkpt>
      <trkpt lat="45.90364" lon="4.72269">
        <ele>178</ele>
        <time>2017-10-20T09:52:02Z</time>
      </trkpt>
      <trkpt lat="45.90361" lon="4.72269">
        <ele>178</ele>
        <time>2017-10-20T09:52:03Z</time>
      </trkpt>
      <trkpt lat="45.90352" lon="4.72272">
        <ele>178</ele>
        <time>2017-10-20T09:52:06Z</time>
      </trkpt>
      <trkpt lat="45.9035" lon="4.72274">
        <ele>178</ele>
        <time>2017-10-20T09:52:07Z</time>
      </trkpt>
      <trkpt lat="45.90343" lon="4.72278">
        <ele>178</ele>
        <time>2017-10-20T09:52:10Z</time>
      </trkpt>
      <trkpt lat="45.90341" lon="4.72279">
        <ele>178</ele>
        <time>2017-10-20T09:52:11Z</time>
      </trkpt>
      <trkpt lat="45.90335" lon="4.72281">
        <ele>178</ele>
        <time>2017-10-20T09:52:13Z</time>
      </trkpt>
      <trkpt lat="45.90331" lon="4.72282">
        <ele>177</ele>
        <time>2017-10-20T09:52:14Z</time>
      </trkpt>
      <trkpt lat="45.90325" lon="4.72285">
        <ele>177</ele>
        <time>2017-10-20T09:52:16Z</time>
      </trkpt>
      <trkpt lat="45.90321" lon="4.72287">
        <ele>177</ele>
        <time>2017-10-20T09:52:17Z</time>
      </trkpt>
      <trkpt lat="45.90315" lon="4.72289">
        <ele>177</ele>
        <time>2017-10-20T09:52:19Z</time>
      </trkpt>
      <trkpt lat="45.90311" lon="4.7229">
        <ele>177</ele>
        <time>2017-10-20T09:52:20Z</time>
      </trkpt>
      <trkpt lat="45.90304" lon="4.72293">
        <ele>177</ele>
        <time>2017-10-20T09:52:22Z</time>
      </trkpt>
      <trkpt lat="45.90301" lon="4.72295">
        <ele>177</ele>
        <time>2017-10-20T09:52:23Z</time>
      </trkpt>
      <trkpt lat="45.90295" lon="4.72297">
        <ele>177</ele>
        <time>2017-10-20T09:52:25Z</time>
      </trkpt>
      <trkpt lat="45.90291" lon="4.72298">
        <ele>177</ele>
        <time>2017-10-20T09:52:26Z</time>
      </trkpt>
      <trkpt lat="45.90285" lon="4.72301">
        <ele>177</ele>
        <time>2017-10-20T09:52:28Z</time>
      </trkpt>
      <trkpt lat="45.90281" lon="4.72302">
        <ele>177</ele>
        <time>2017-10-20T09:52:29Z</time>
      </trkpt>
      <trkpt lat="45.90273" lon="4.72306">
        <ele>177</ele>
        <time>2017-10-20T09:52:31Z</time>
      </trkpt>
      <trkpt lat="45.9027" lon="4.72307">
        <ele>177</ele>
        <time>2017-10-20T09:52:32Z</time>
      </trkpt>
      <trkpt lat="45.90264" lon="4.72309">
        <ele>177</ele>
        <time>2017-10-20T09:52:34Z</time>
      </trkpt>
      <trkpt lat="45.90261" lon="4.7231">
        <ele>177</ele>
        <time>2017-10-20T09:52:35Z</time>
      </trkpt>
      <trkpt lat="45.90254" lon="4.72311">
        <ele>177</ele>
        <time>2017-10-20T09:52:37Z</time>
      </trkpt>
      <trkpt lat="45.90251" lon="4.72312">
        <ele>177</ele>
        <time>2017-10-20T09:52:38Z</time>
      </trkpt>
      <trkpt lat="45.90243" lon="4.72314">
        <ele>177</ele>
        <time>2017-10-20T09:52:40Z</time>
      </trkpt>
      <trkpt lat="45.9024" lon="4.72315">
        <ele>177</ele>
        <time>2017-10-20T09:52:41Z</time>
      </trkpt>
      <trkpt lat="45.90232" lon="4.72315">
        <ele>177</ele>
        <time>2017-10-20T09:52:43Z</time>
      </trkpt>
      <trkpt lat="45.90228" lon="4.72315">
        <ele>177</ele>
        <time>2017-10-20T09:52:44Z</time>
      </trkpt>
      <trkpt lat="45.90221" lon="4.72316">
        <ele>177</ele>
        <time>2017-10-20T09:52:46Z</time>
      </trkpt>
      <trkpt lat="45.90219" lon="4.72317">
        <ele>177</ele>
        <time>2017-10-20T09:52:47Z</time>
      </trkpt>
      <trkpt lat="45.9021" lon="4.72317">
        <ele>177</ele>
        <time>2017-10-20T09:52:50Z</time>
      </trkpt>
      <trkpt lat="45.90207" lon="4.72316">
        <ele>177</ele>
        <time>2017-10-20T09:52:51Z</time>
      </trkpt>
      <trkpt lat="45.90202" lon="4.72311">
        <ele>177</ele>
        <time>2017-10-20T09:52:53Z</time>
      </trkpt>
      <trkpt lat="45.902" lon="4.72307">
        <ele>177</ele>
        <time>2017-10-20T09:52:54Z</time>
      </trkpt>
      <trkpt lat="45.90198" lon="4.72297">
        <ele>177</ele>
        <time>2017-10-20T09:52:56Z</time>
      </trkpt>
      <trkpt lat="45.90198" lon="4.72291">
        <ele>177</ele>
        <time>2017-10-20T09:52:57Z</time>
      </trkpt>
      <trkpt lat="45.90197" lon="4.72285">
        <ele>177</ele>
        <time>2017-10-20T09:52:58Z</time>
      </trkpt>
      <trkpt lat="45.90197" lon="4.72277">
        <ele>177</ele>
        <time>2017-10-20T09:52:59Z</time>
      </trkpt>
      <trkpt lat="45.90195" lon="4.72265">
        <ele>177</ele>
        <time>2017-10-20T09:53:01Z</time>
      </trkpt>
      <trkpt lat="45.90195" lon="4.72261">
        <ele>177</ele>
        <time>2017-10-20T09:53:02Z</time>
      </trkpt>
      <trkpt lat="45.90193" lon="4.72249">
        <ele>177</ele>
        <time>2017-10-20T09:53:04Z</time>
      </trkpt>
      <trkpt lat="45.90192" lon="4.72244">
        <ele>177</ele>
        <time>2017-10-20T09:53:05Z</time>
      </trkpt>
      <trkpt lat="45.90192" lon="4.72231">
        <ele>177</ele>
        <time>2017-10-20T09:53:07Z</time>
      </trkpt>
      <trkpt lat="45.90193" lon="4.72224">
        <ele>177</ele>
        <time>2017-10-20T09:53:08Z</time>
      </trkpt>
      <trkpt lat="45.90192" lon="4.72211">
        <ele>177</ele>
        <time>2017-10-20T09:53:10Z</time>
      </trkpt>
      <trkpt lat="45.90191" lon="4.72206">
        <ele>177</ele>
        <time>2017-10-20T09:53:11Z</time>
      </trkpt>
      <trkpt lat="45.90188" lon="4.72196">
        <ele>177</ele>
        <time>2017-10-20T09:53:13Z</time>
      </trkpt>
      <trkpt lat="45.90188" lon="4.72191">
        <ele>177</ele>
        <time>2017-10-20T09:53:14Z</time>
      </trkpt>
      <trkpt lat="45.90187" lon="4.72181">
        <ele>177</ele>
        <time>2017-10-20T09:53:16Z</time>
      </trkpt>
      <trkpt lat="45.90186" lon="4.72178">
        <ele>177</ele>
        <time>2017-10-20T09:53:17Z</time>
      </trkpt>
      <trkpt lat="45.90186" lon="4.72169">
        <ele>177</ele>
        <time>2017-10-20T09:53:19Z</time>
      </trkpt>
      <trkpt lat="45.90186" lon="4.72164">
        <ele>178</ele>
        <time>2017-10-20T09:53:20Z</time>
      </trkpt>
      <trkpt lat="45.90186" lon="4.72153">
        <ele>178</ele>
        <time>2017-10-20T09:53:22Z</time>
      </trkpt>
      <trkpt lat="45.90186" lon="4.72146">
        <ele>178</ele>
        <time>2017-10-20T09:53:23Z</time>
      </trkpt>
      <trkpt lat="45.90186" lon="4.7214">
        <ele>178</ele>
        <time>2017-10-20T09:53:24Z</time>
      </trkpt>
      <trkpt lat="45.90186" lon="4.72131">
        <ele>178</ele>
        <time>2017-10-20T09:53:25Z</time>
      </trkpt>
      <trkpt lat="45.90186" lon="4.72125">
        <ele>178</ele>
        <time>2017-10-20T09:53:26Z</time>
      </trkpt>
      <trkpt lat="45.90186" lon="4.72118">
        <ele>178</ele>
        <time>2017-10-20T09:53:27Z</time>
      </trkpt>
      <trkpt lat="45.90185" lon="4.72107">
        <ele>178</ele>
        <time>2017-10-20T09:53:29Z</time>
      </trkpt>
      <trkpt lat="45.90185" lon="4.72101">
        <ele>178</ele>
        <time>2017-10-20T09:53:30Z</time>
      </trkpt>
      <trkpt lat="45.90185" lon="4.72089">
        <ele>178</ele>
        <time>2017-10-20T09:53:32Z</time>
      </trkpt>
      <trkpt lat="45.90184" lon="4.72084">
        <ele>178</ele>
        <time>2017-10-20T09:53:33Z</time>
      </trkpt>
      <trkpt lat="45.90183" lon="4.72072">
        <ele>179</ele>
        <time>2017-10-20T09:53:35Z</time>
      </trkpt>
      <trkpt lat="45.90183" lon="4.72066">
        <ele>179</ele>
        <time>2017-10-20T09:53:36Z</time>
      </trkpt>
      <trkpt lat="45.90181" lon="4.72053">
        <ele>179</ele>
        <time>2017-10-20T09:53:38Z</time>
      </trkpt>
      <trkpt lat="45.90181" lon="4.72046">
        <ele>179</ele>
        <time>2017-10-20T09:53:39Z</time>
      </trkpt>
      <trkpt lat="45.9018" lon="4.7204">
        <ele>179</ele>
        <time>2017-10-20T09:53:40Z</time>
      </trkpt>
      <trkpt lat="45.9018" lon="4.72033">
        <ele>179</ele>
        <time>2017-10-20T09:53:41Z</time>
      </trkpt>
      <trkpt lat="45.90179" lon="4.72022">
        <ele>179</ele>
        <time>2017-10-20T09:53:43Z</time>
      </trkpt>
      <trkpt lat="45.90179" lon="4.72016">
        <ele>179</ele>
        <time>2017-10-20T09:53:44Z</time>
      </trkpt>
      <trkpt lat="45.90178" lon="4.72007">
        <ele>179</ele>
        <time>2017-10-20T09:53:46Z</time>
      </trkpt>
      <trkpt lat="45.90177" lon="4.72001">
        <ele>179</ele>
        <time>2017-10-20T09:53:47Z</time>
      </trkpt>
      <trkpt lat="45.90178" lon="4.71991">
        <ele>179</ele>
        <time>2017-10-20T09:53:49Z</time>
      </trkpt>
      <trkpt lat="45.90178" lon="4.71985">
        <ele>179</ele>
        <time>2017-10-20T09:53:50Z</time>
      </trkpt>
      <trkpt lat="45.9018" lon="4.71974">
        <ele>179</ele>
        <time>2017-10-20T09:53:52Z</time>
      </trkpt>
      <trkpt lat="45.9018" lon="4.71969">
        <ele>179</ele>
        <time>2017-10-20T09:53:53Z</time>
      </trkpt>
      <trkpt lat="45.90182" lon="4.71958">
        <ele>179</ele>
        <time>2017-10-20T09:53:55Z</time>
      </trkpt>
      <trkpt lat="45.90183" lon="4.71952">
        <ele>179</ele>
        <time>2017-10-20T09:53:56Z</time>
      </trkpt>
      <trkpt lat="45.90186" lon="4.7194">
        <ele>179</ele>
        <time>2017-10-20T09:53:58Z</time>
      </trkpt>
      <trkpt lat="45.90188" lon="4.71933">
        <ele>178</ele>
        <time>2017-10-20T09:53:59Z</time>
      </trkpt>
      <trkpt lat="45.9019" lon="4.71927">
        <ele>178</ele>
        <time>2017-10-20T09:54:00Z</time>
      </trkpt>
      <trkpt lat="45.90192" lon="4.71921">
        <ele>178</ele>
        <time>2017-10-20T09:54:01Z</time>
      </trkpt>
      <trkpt lat="45.90195" lon="4.71916">
        <ele>179</ele>
        <time>2017-10-20T09:54:02Z</time>
      </trkpt>
      <trkpt lat="45.90198" lon="4.7191">
        <ele>179</ele>
        <time>2017-10-20T09:54:03Z</time>
      </trkpt>
      <trkpt lat="45.90203" lon="4.71901">
        <ele>180</ele>
        <time>2017-10-20T09:54:05Z</time>
      </trkpt>
      <trkpt lat="45.90205" lon="4.71896">
        <ele>180</ele>
        <time>2017-10-20T09:54:06Z</time>
      </trkpt>
      <trkpt lat="45.9021" lon="4.71888">
        <ele>180</ele>
        <time>2017-10-20T09:54:08Z</time>
      </trkpt>
      <trkpt lat="45.90212" lon="4.71885">
        <ele>180</ele>
        <time>2017-10-20T09:54:09Z</time>
      </trkpt>
      <trkpt lat="45.90217" lon="4.71878">
        <ele>180</ele>
        <time>2017-10-20T09:54:11Z</time>
      </trkpt>
      <trkpt lat="45.9022" lon="4.71874">
        <ele>180</ele>
        <time>2017-10-20T09:54:12Z</time>
      </trkpt>
      <trkpt lat="45.90222" lon="4.71868">
        <ele>181</ele>
        <time>2017-10-20T09:54:13Z</time>
      </trkpt>
      <trkpt lat="45.90224" lon="4.71863">
        <ele>181</ele>
        <time>2017-10-20T09:54:14Z</time>
      </trkpt>
      <trkpt lat="45.90229" lon="4.71853">
        <ele>181</ele>
        <time>2017-10-20T09:54:16Z</time>
      </trkpt>
      <trkpt lat="45.90232" lon="4.71848">
        <ele>181</ele>
        <time>2017-10-20T09:54:17Z</time>
      </trkpt>
      <trkpt lat="45.90237" lon="4.7184">
        <ele>182</ele>
        <time>2017-10-20T09:54:19Z</time>
      </trkpt>
      <trkpt lat="45.90239" lon="4.71835">
        <ele>182</ele>
        <time>2017-10-20T09:54:20Z</time>
      </trkpt>
      <trkpt lat="45.90244" lon="4.71826">
        <ele>183</ele>
        <time>2017-10-20T09:54:22Z</time>
      </trkpt>
      <trkpt lat="45.90246" lon="4.71822">
        <ele>183</ele>
        <time>2017-10-20T09:54:23Z</time>
      </trkpt>
      <trkpt lat="45.9025" lon="4.71813">
        <ele>182</ele>
        <time>2017-10-20T09:54:25Z</time>
      </trkpt>
      <trkpt lat="45.90252" lon="4.71808">
        <ele>182</ele>
        <time>2017-10-20T09:54:26Z</time>
      </trkpt>
      <trkpt lat="45.90254" lon="4.71795">
        <ele>182</ele>
        <time>2017-10-20T09:54:29Z</time>
      </trkpt>
      <trkpt lat="45.90254" lon="4.71792">
        <ele>182</ele>
        <time>2017-10-20T09:54:30Z</time>
      </trkpt>
      <trkpt lat="45.90255" lon="4.71781">
        <ele>183</ele>
        <time>2017-10-20T09:54:33Z</time>
      </trkpt>
      <trkpt lat="45.90255" lon="4.71778">
        <ele>183</ele>
        <time>2017-10-20T09:54:34Z</time>
      </trkpt>
      <trkpt lat="45.90255" lon="4.71766">
        <ele>183</ele>
        <time>2017-10-20T09:54:38Z</time>
      </trkpt>
      <trkpt lat="45.90255" lon="4.71764">
        <ele>184</ele>
        <time>2017-10-20T09:54:39Z</time>
      </trkpt>
      <trkpt lat="45.90256" lon="4.71753">
        <ele>184</ele>
        <time>2017-10-20T09:54:43Z</time>
      </trkpt>
      <trkpt lat="45.90257" lon="4.71751">
        <ele>184</ele>
        <time>2017-10-20T09:54:44Z</time>
      </trkpt>
      <trkpt lat="45.90258" lon="4.7174">
        <ele>186</ele>
        <time>2017-10-20T09:54:48Z</time>
      </trkpt>
      <trkpt lat="45.90258" lon="4.71738">
        <ele>186</ele>
        <time>2017-10-20T09:54:49Z</time>
      </trkpt>
      <trkpt lat="45.90258" lon="4.71726">
        <ele>186</ele>
        <time>2017-10-20T09:54:54Z</time>
      </trkpt>
      <trkpt lat="45.90258" lon="4.71724">
        <ele>186</ele>
        <time>2017-10-20T09:54:55Z</time>
      </trkpt>
      <trkpt lat="45.9026" lon="4.71712">
        <ele>187</ele>
        <time>2017-10-20T09:55:01Z</time>
      </trkpt>
      <trkpt lat="45.9026" lon="4.7171">
        <ele>187</ele>
        <time>2017-10-20T09:55:02Z</time>
      </trkpt>
      <trkpt lat="45.90263" lon="4.71698">
        <ele>188</ele>
        <time>2017-10-20T09:55:07Z</time>
      </trkpt>
      <trkpt lat="45.90263" lon="4.71696">
        <ele>188</ele>
        <time>2017-10-20T09:55:08Z</time>
      </trkpt>
      <trkpt lat="45.90266" lon="4.71684">
        <ele>189</ele>
        <time>2017-10-20T09:55:13Z</time>
      </trkpt>
      <trkpt lat="45.90266" lon="4.71682">
        <ele>189</ele>
        <time>2017-10-20T09:55:14Z</time>
      </trkpt>
      <trkpt lat="45.90268" lon="4.71671">
        <ele>189</ele>
        <time>2017-10-20T09:55:18Z</time>
      </trkpt>
      <trkpt lat="45.90269" lon="4.71668">
        <ele>189</ele>
        <time>2017-10-20T09:55:19Z</time>
      </trkpt>
      <trkpt lat="45.90271" lon="4.71657">
        <ele>192</ele>
        <time>2017-10-20T09:55:23Z</time>
      </trkpt>
      <trkpt lat="45.90271" lon="4.71654">
        <ele>192</ele>
        <time>2017-10-20T09:55:24Z</time>
      </trkpt>
      <trkpt lat="45.90272" lon="4.71641">
        <ele>192</ele>
        <time>2017-10-20T09:55:28Z</time>
      </trkpt>
      <trkpt lat="45.90272" lon="4.71638">
        <ele>192</ele>
        <time>2017-10-20T09:55:29Z</time>
      </trkpt>
      <trkpt lat="45.90272" lon="4.71627">
        <ele>193</ele>
        <time>2017-10-20T09:55:33Z</time>
      </trkpt>
      <trkpt lat="45.90272" lon="4.71624">
        <ele>193</ele>
        <time>2017-10-20T09:55:34Z</time>
      </trkpt>
      <trkpt lat="45.90272" lon="4.71611">
        <ele>193</ele>
        <time>2017-10-20T09:55:39Z</time>
      </trkpt>
      <trkpt lat="45.90273" lon="4.71609">
        <ele>193</ele>
        <time>2017-10-20T09:55:40Z</time>
      </trkpt>
      <trkpt lat="45.90273" lon="4.71597">
        <ele>194</ele>
        <time>2017-10-20T09:55:44Z</time>
      </trkpt>
      <trkpt lat="45.90273" lon="4.71594">
        <ele>194</ele>
        <time>2017-10-20T09:55:45Z</time>
      </trkpt>
      <trkpt lat="45.90275" lon="4.71582">
        <ele>195</ele>
        <time>2017-10-20T09:55:49Z</time>
      </trkpt>
      <trkpt lat="45.90275" lon="4.71578">
        <ele>195</ele>
        <time>2017-10-20T09:55:50Z</time>
      </trkpt>
      <trkpt lat="45.90275" lon="4.71568">
        <ele>195</ele>
        <time>2017-10-20T09:55:54Z</time>
      </trkpt>
      <trkpt lat="45.90275" lon="4.71565">
        <ele>195</ele>
        <time>2017-10-20T09:55:55Z</time>
      </trkpt>
      <trkpt lat="45.90275" lon="4.71554">
        <ele>195</ele>
        <time>2017-10-20T09:55:59Z</time>
      </trkpt>
      <trkpt lat="45.90275" lon="4.71551">
        <ele>195</ele>
        <time>2017-10-20T09:56:00Z</time>
      </trkpt>
      <trkpt lat="45.90271" lon="4.71542">
        <ele>196</ele>
        <time>2017-10-20T09:56:04Z</time>
      </trkpt>
      <trkpt lat="45.90269" lon="4.71541">
        <ele>196</ele>
        <time>2017-10-20T09:56:05Z</time>
      </trkpt>
      <trkpt lat="45.90262" lon="4.7154">
        <ele>196</ele>
        <time>2017-10-20T09:56:08Z</time>
      </trkpt>
      <trkpt lat="45.9026" lon="4.71541">
        <ele>196</ele>
        <time>2017-10-20T09:56:09Z</time>
      </trkpt>
      <trkpt lat="45.90252" lon="4.71543">
        <ele>196</ele>
        <time>2017-10-20T09:56:12Z</time>
      </trkpt>
      <trkpt lat="45.9025" lon="4.71543">
        <ele>196</ele>
        <time>2017-10-20T09:56:13Z</time>
      </trkpt>
      <trkpt lat="45.90242" lon="4.71544">
        <ele>199</ele>
        <time>2017-10-20T09:56:16Z</time>
      </trkpt>
      <trkpt lat="45.9024" lon="4.71545">
        <ele>199</ele>
        <time>2017-10-20T09:56:17Z</time>
      </trkpt>
      <trkpt lat="45.90231" lon="4.71547">
        <ele>199</ele>
        <time>2017-10-20T09:56:21Z</time>
      </trkpt>
      <trkpt lat="45.90229" lon="4.71548">
        <ele>199</ele>
        <time>2017-10-20T09:56:22Z</time>
      </trkpt>
      <trkpt lat="45.90221" lon="4.71548">
        <ele>199</ele>
        <time>2017-10-20T09:56:25Z</time>
      </trkpt>
      <trkpt lat="45.90219" lon="4.71547">
        <ele>199</ele>
        <time>2017-10-20T09:56:26Z</time>
      </trkpt>
      <trkpt lat="45.9021" lon="4.71546">
        <ele>199</ele>
        <time>2017-10-20T09:56:30Z</time>
      </trkpt>
      <trkpt lat="45.90208" lon="4.71547">
        <ele>199</ele>
        <time>2017-10-20T09:56:31Z</time>
      </trkpt>
      <trkpt lat="45.902" lon="4.71547">
        <ele>199</ele>
        <time>2017-10-20T09:56:34Z</time>
      </trkpt>
      <trkpt lat="45.90197" lon="4.71546">
        <ele>199</ele>
        <time>2017-10-20T09:56:35Z</time>
      </trkpt>
      <trkpt lat="45.9019" lon="4.71543">
        <ele>200</ele>
        <time>2017-10-20T09:56:38Z</time>
      </trkpt>
      <trkpt lat="45.90187" lon="4.71542">
        <ele>200</ele>
        <time>2017-10-20T09:56:39Z</time>
      </trkpt>
      <trkpt lat="45.90179" lon="4.7154">
        <ele>200</ele>
        <time>2017-10-20T09:56:42Z</time>
      </trkpt>
      <trkpt lat="45.90175" lon="4.7154">
        <ele>200</ele>
        <time>2017-10-20T09:56:43Z</time>
      </trkpt>
      <trkpt lat="45.90168" lon="4.7154">
        <ele>200</ele>
        <time>2017-10-20T09:56:46Z</time>
      </trkpt>
      <trkpt lat="45.90166" lon="4.7154">
        <ele>201</ele>
        <time>2017-10-20T09:56:47Z</time>
      </trkpt>
      <trkpt lat="45.90159" lon="4.71538">
        <ele>201</ele>
        <time>2017-10-20T09:56:49Z</time>
      </trkpt>
      <trkpt lat="45.90155" lon="4.71537">
        <ele>201</ele>
        <time>2017-10-20T09:56:50Z</time>
      </trkpt>
      <trkpt lat="45.90149" lon="4.71534">
        <ele>201</ele>
        <time>2017-10-20T09:56:52Z</time>
      </trkpt>
      <trkpt lat="45.90146" lon="4.71533">
        <ele>201</ele>
        <time>2017-10-20T09:56:53Z</time>
      </trkpt>
      <trkpt lat="45.90137" lon="4.71532">
        <ele>201</ele>
        <time>2017-10-20T09:56:56Z</time>
      </trkpt>
      <trkpt lat="45.90134" lon="4.71532">
        <ele>201</ele>
        <time>2017-10-20T09:56:57Z</time>
      </trkpt>
      <trkpt lat="45.90127" lon="4.71531">
        <ele>201</ele>
        <time>2017-10-20T09:56:59Z</time>
      </trkpt>
      <trkpt lat="45.90124" lon="4.7153">
        <ele>201</ele>
        <time>2017-10-20T09:57:00Z</time>
      </trkpt>
      <trkpt lat="45.90117" lon="4.7153">
        <ele>201</ele>
        <time>2017-10-20T09:57:02Z</time>
      </trkpt>
      <trkpt lat="45.90114" lon="4.7153">
        <ele>201</ele>
        <time>2017-10-20T09:57:03Z</time>
      </trkpt>
      <trkpt lat="45.90107" lon="4.71529">
        <ele>201</ele>
        <time>2017-10-20T09:57:05Z</time>
      </trkpt>
      <trkpt lat="45.90104" lon="4.71528">
        <ele>201</ele>
        <time>2017-10-20T09:57:06Z</time>
      </trkpt>
      <trkpt lat="45.90097" lon="4.71528">
        <ele>201</ele>
        <time>2017-10-20T09:57:08Z</time>
      </trkpt>
      <trkpt lat="45.90094" lon="4.71529">
        <ele>201</ele>
        <time>2017-10-20T09:57:09Z</time>
      </trkpt>
      <trkpt lat="45.90085" lon="4.71529">
        <ele>201</ele>
        <time>2017-10-20T09:57:11Z</time>
      </trkpt>
      <trkpt lat="45.90081" lon="4.71528">
        <ele>199</ele>
        <time>2017-10-20T09:57:12Z</time>
      </trkpt>
      <trkpt lat="45.90076" lon="4.71528">
        <ele>199</ele>
        <time>2017-10-20T09:57:13Z</time>
      </trkpt>
      <trkpt lat="45.90072" lon="4.71527">
        <ele>198</ele>
        <time>2017-10-20T09:57:14Z</time>
      </trkpt>
      <trkpt lat="45.90067" lon="4.71527">
        <ele>198</ele>
        <time>2017-10-20T09:57:15Z</time>
      </trkpt>
      <trkpt lat="45.90059" lon="4.71526">
        <ele>198</ele>
        <time>2017-10-20T09:57:16Z</time>
      </trkpt>
      <trkpt lat="45.90054" lon="4.71526">
        <ele>198</ele>
        <time>2017-10-20T09:57:17Z</time>
      </trkpt>
      <trkpt lat="45.9005" lon="4.71527">
        <ele>198</ele>
        <time>2017-10-20T09:57:18Z</time>
      </trkpt>
      <trkpt lat="45.90044" lon="4.71526">
        <ele>197</ele>
        <time>2017-10-20T09:57:19Z</time>
      </trkpt>
      <trkpt lat="45.90038" lon="4.71526">
        <ele>197</ele>
        <time>2017-10-20T09:57:20Z</time>
      </trkpt>
      <trkpt lat="45.90031" lon="4.71523">
        <ele>197</ele>
        <time>2017-10-20T09:57:21Z</time>
      </trkpt>
      <trkpt lat="45.90024" lon="4.71522">
        <ele>197</ele>
        <time>2017-10-20T09:57:22Z</time>
      </trkpt>
      <trkpt lat="45.90017" lon="4.71522">
        <ele>196</ele>
        <time>2017-10-20T09:57:23Z</time>
      </trkpt>
      <trkpt lat="45.90011" lon="4.71526">
        <ele>196</ele>
        <time>2017-10-20T09:57:24Z</time>
      </trkpt>
      <trkpt lat="45.90002" lon="4.71527">
        <ele>196</ele>
        <time>2017-10-20T09:57:25Z</time>
      </trkpt>
      <trkpt lat="45.89996" lon="4.71529">
        <ele>194</ele>
        <time>2017-10-20T09:57:26Z</time>
      </trkpt>
      <trkpt lat="45.89988" lon="4.71529">
        <ele>194</ele>
        <time>2017-10-20T09:57:27Z</time>
      </trkpt>
      <trkpt lat="45.8998" lon="4.71528">
        <ele>194</ele>
        <time>2017-10-20T09:57:28Z</time>
      </trkpt>
      <trkpt lat="45.89973" lon="4.7153">
        <ele>194</ele>
        <time>2017-10-20T09:57:29Z</time>
      </trkpt>
      <trkpt lat="45.89965" lon="4.71529">
        <ele>194</ele>
        <time>2017-10-20T09:57:30Z</time>
      </trkpt>
      <trkpt lat="45.89957" lon="4.7153">
        <ele>194</ele>
        <time>2017-10-20T09:57:31Z</time>
      </trkpt>
      <trkpt lat="45.89948" lon="4.71529">
        <ele>193</ele>
        <time>2017-10-20T09:57:32Z</time>
      </trkpt>
      <trkpt lat="45.89938" lon="4.71529">
        <ele>193</ele>
        <time>2017-10-20T09:57:33Z</time>
      </trkpt>
      <trkpt lat="45.89929" lon="4.7153">
        <ele>193</ele>
        <time>2017-10-20T09:57:34Z</time>
      </trkpt>
      <trkpt lat="45.89922" lon="4.71531">
        <ele>193</ele>
        <time>2017-10-20T09:57:35Z</time>
      </trkpt>
      <trkpt lat="45.89913" lon="4.71532">
        <ele>193</ele>
        <time>2017-10-20T09:57:36Z</time>
      </trkpt>
      <trkpt lat="45.89906" lon="4.71536">
        <ele>193</ele>
        <time>2017-10-20T09:57:37Z</time>
      </trkpt>
      <trkpt lat="45.89898" lon="4.71538">
        <ele>193</ele>
        <time>2017-10-20T09:57:38Z</time>
      </trkpt>
      <trkpt lat="45.89888" lon="4.7154">
        <ele>193</ele>
        <time>2017-10-20T09:57:39Z</time>
      </trkpt>
      <trkpt lat="45.8988" lon="4.71542">
        <ele>192</ele>
        <time>2017-10-20T09:57:40Z</time>
      </trkpt>
      <trkpt lat="45.89873" lon="4.71542">
        <ele>192</ele>
        <time>2017-10-20T09:57:41Z</time>
      </trkpt>
      <trkpt lat="45.89864" lon="4.71542">
        <ele>192</ele>
        <time>2017-10-20T09:57:42Z</time>
      </trkpt>
      <trkpt lat="45.89858" lon="4.71542">
        <ele>192</ele>
        <time>2017-10-20T09:57:43Z</time>
      </trkpt>
      <trkpt lat="45.8985" lon="4.71542">
        <ele>192</ele>
        <time>2017-10-20T09:57:44Z</time>
      </trkpt>
      <trkpt lat="45.89846" lon="4.71546">
        <ele>192</ele>
        <time>2017-10-20T09:57:45Z</time>
      </trkpt>
      <trkpt lat="45.89842" lon="4.71546">
        <ele>192</ele>
        <time>2017-10-20T09:57:46Z</time>
      </trkpt>
      <trkpt lat="45.89836" lon="4.71545">
        <ele>192</ele>
        <time>2017-10-20T09:57:47Z</time>
      </trkpt>
      <trkpt lat="45.89828" lon="4.71544">
        <ele>192</ele>
        <time>2017-10-20T09:57:49Z</time>
      </trkpt>
      <trkpt lat="45.89824" lon="4.71544">
        <ele>192</ele>
        <time>2017-10-20T09:57:50Z</time>
      </trkpt>
      <trkpt lat="45.89817" lon="4.71542">
        <ele>192</ele>
        <time>2017-10-20T09:57:52Z</time>
      </trkpt>
      <trkpt lat="45.89813" lon="4.7154">
        <ele>192</ele>
        <time>2017-10-20T09:57:53Z</time>
      </trkpt>
      <trkpt lat="45.89807" lon="4.71538">
        <ele>192</ele>
        <time>2017-10-20T09:57:55Z</time>
      </trkpt>
      <trkpt lat="45.89804" lon="4.71537">
        <ele>192</ele>
        <time>2017-10-20T09:57:56Z</time>
      </trkpt>
      <trkpt lat="45.89797" lon="4.71534">
        <ele>192</ele>
        <time>2017-10-20T09:57:58Z</time>
      </trkpt>
      <trkpt lat="45.89793" lon="4.71533">
        <ele>192</ele>
        <time>2017-10-20T09:57:59Z</time>
      </trkpt>
      <trkpt lat="45.89787" lon="4.71533">
        <ele>192</ele>
        <time>2017-10-20T09:58:01Z</time>
      </trkpt>
      <trkpt lat="45.89784" lon="4.71533">
        <ele>192</ele>
        <time>2017-10-20T09:58:02Z</time>
      </trkpt>
      <trkpt lat="45.89777" lon="4.71534">
        <ele>192</ele>
        <time>2017-10-20T09:58:04Z</time>
      </trkpt>
      <trkpt lat="45.89773" lon="4.71534">
        <ele>192</ele>
        <time>2017-10-20T09:58:05Z</time>
      </trkpt>
      <trkpt lat="45.89766" lon="4.71535">
        <ele>192</ele>
        <time>2017-10-20T09:58:07Z</time>
      </trkpt>
      <trkpt lat="45.89762" lon="4.71536">
        <ele>192</ele>
        <time>2017-10-20T09:58:08Z</time>
      </trkpt>
      <trkpt lat="45.89756" lon="4.71537">
        <ele>192</ele>
        <time>2017-10-20T09:58:10Z</time>
      </trkpt>
      <trkpt lat="45.89753" lon="4.71538">
        <ele>192</ele>
        <time>2017-10-20T09:58:11Z</time>
      </trkpt>
      <trkpt lat="45.89746" lon="4.71539">
        <ele>192</ele>
        <time>2017-10-20T09:58:13Z</time>
      </trkpt>
      <trkpt lat="45.89743" lon="4.7154">
        <ele>192</ele>
        <time>2017-10-20T09:58:14Z</time>
      </trkpt>
      <trkpt lat="45.89736" lon="4.7154">
        <ele>192</ele>
        <time>2017-10-20T09:58:16Z</time>
      </trkpt>
      <trkpt lat="45.89732" lon="4.7154">
        <ele>192</ele>
        <time>2017-10-20T09:58:17Z</time>
      </trkpt>
      <trkpt lat="45.89725" lon="4.71541">
        <ele>192</ele>
        <time>2017-10-20T09:58:19Z</time>
      </trkpt>
      <trkpt lat="45.89722" lon="4.71541">
        <ele>192</ele>
        <time>2017-10-20T09:58:20Z</time>
      </trkpt>
      <trkpt lat="45.89715" lon="4.71542">
        <ele>192</ele>
        <time>2017-10-20T09:58:22Z</time>
      </trkpt>
      <trkpt lat="45.89712" lon="4.71542">
        <ele>192</ele>
        <time>2017-10-20T09:58:23Z</time>
      </trkpt>
      <trkpt lat="45.89705" lon="4.71543">
        <ele>193</ele>
        <time>2017-10-20T09:58:25Z</time>
      </trkpt>
      <trkpt lat="45.89702" lon="4.71543">
        <ele>193</ele>
        <time>2017-10-20T09:58:26Z</time>
      </trkpt>
      <trkpt lat="45.89695" lon="4.71544">
        <ele>193</ele>
        <time>2017-10-20T09:58:28Z</time>
      </trkpt>
      <trkpt lat="45.89691" lon="4.71544">
        <ele>193</ele>
        <time>2017-10-20T09:58:29Z</time>
      </trkpt>
      <trkpt lat="45.89684" lon="4.71543">
        <ele>193</ele>
        <time>2017-10-20T09:58:31Z</time>
      </trkpt>
      <trkpt lat="45.89681" lon="4.71542">
        <ele>193</ele>
        <time>2017-10-20T09:58:32Z</time>
      </trkpt>
      <trkpt lat="45.89675" lon="4.7154">
        <ele>193</ele>
        <time>2017-10-20T09:58:34Z</time>
      </trkpt>
      <trkpt lat="45.89672" lon="4.7154">
        <ele>193</ele>
        <time>2017-10-20T09:58:35Z</time>
      </trkpt>
      <trkpt lat="45.89665" lon="4.71541">
        <ele>193</ele>
        <time>2017-10-20T09:58:37Z</time>
      </trkpt>
      <trkpt lat="45.89662" lon="4.71542">
        <ele>193</ele>
        <time>2017-10-20T09:58:38Z</time>
      </trkpt>
      <trkpt lat="45.89656" lon="4.71545">
        <ele>193</ele>
        <time>2017-10-20T09:58:40Z</time>
      </trkpt>
      <trkpt lat="45.89653" lon="4.71547">
        <ele>193</ele>
        <time>2017-10-20T09:58:41Z</time>
      </trkpt>
      <trkpt lat="45.89648" lon="4.71551">
        <ele>193</ele>
        <time>2017-10-20T09:58:43Z</time>
      </trkpt>
      <trkpt lat="45.89645" lon="4.71554">
        <ele>193</ele>
        <time>2017-10-20T09:58:44Z</time>
      </trkpt>
      <trkpt lat="45.89641" lon="4.71562">
        <ele>193</ele>
        <time>2017-10-20T09:58:46Z</time>
      </trkpt>
      <trkpt lat="45.89639" lon="4.71566">
        <ele>193</ele>
        <time>2017-10-20T09:58:47Z</time>
      </trkpt>
      <trkpt lat="45.89638" lon="4.71578">
        <ele>193</ele>
        <time>2017-10-20T09:58:49Z</time>
      </trkpt>
      <trkpt lat="45.89639" lon="4.71584">
        <ele>191</ele>
        <time>2017-10-20T09:58:50Z</time>
      </trkpt>
      <trkpt lat="45.8964" lon="4.71591">
        <ele>191</ele>
        <time>2017-10-20T09:58:51Z</time>
      </trkpt>
      <trkpt lat="45.89643" lon="4.716">
        <ele>191</ele>
        <time>2017-10-20T09:58:52Z</time>
      </trkpt>
      <trkpt lat="45.89644" lon="4.71606">
        <ele>191</ele>
        <time>2017-10-20T09:58:53Z</time>
      </trkpt>
      <trkpt lat="45.89645" lon="4.71613">
        <ele>190</ele>
        <time>2017-10-20T09:58:54Z</time>
      </trkpt>
      <trkpt lat="45.89645" lon="4.7162">
        <ele>190</ele>
        <time>2017-10-20T09:58:55Z</time>
      </trkpt>
      <trkpt lat="45.89646" lon="4.71627">
        <ele>190</ele>
        <time>2017-10-20T09:58:56Z</time>
      </trkpt>
      <trkpt lat="45.89647" lon="4.71635">
        <ele>190</ele>
        <time>2017-10-20T09:58:57Z</time>
      </trkpt>
      <trkpt lat="45.89648" lon="4.71643">
        <ele>189</ele>
        <time>2017-10-20T09:58:58Z</time>
      </trkpt>
      <trkpt lat="45.89651" lon="4.71652">
        <ele>189</ele>
        <time>2017-10-20T09:58:59Z</time>
      </trkpt>
      <trkpt lat="45.89652" lon="4.71662">
        <ele>188</ele>
        <time>2017-10-20T09:59:00Z</time>
      </trkpt>
      <trkpt lat="45.89653" lon="4.71671">
        <ele>186</ele>
        <time>2017-10-20T09:59:01Z</time>
      </trkpt>
      <trkpt lat="45.89655" lon="4.71682">
        <ele>186</ele>
        <time>2017-10-20T09:59:02Z</time>
      </trkpt>
      <trkpt lat="45.89656" lon="4.71694">
        <ele>186</ele>
        <time>2017-10-20T09:59:03Z</time>
      </trkpt>
      <trkpt lat="45.89657" lon="4.71705">
        <ele>185</ele>
        <time>2017-10-20T09:59:04Z</time>
      </trkpt>
      <trkpt lat="45.89659" lon="4.71717">
        <ele>185</ele>
        <time>2017-10-20T09:59:05Z</time>
      </trkpt>
      <trkpt lat="45.8966" lon="4.7173">
        <ele>184</ele>
        <time>2017-10-20T09:59:06Z</time>
      </trkpt>
      <trkpt lat="45.89661" lon="4.71744">
        <ele>184</ele>
        <time>2017-10-20T09:59:07Z</time>
      </trkpt>
      <trkpt lat="45.89662" lon="4.71757">
        <ele>183</ele>
        <time>2017-10-20T09:59:08Z</time>
      </trkpt>
      <trkpt lat="45.89663" lon="4.7177">
        <ele>182</ele>
        <time>2017-10-20T09:59:09Z</time>
      </trkpt>
      <trkpt lat="45.89665" lon="4.71782">
        <ele>182</ele>
        <time>2017-10-20T09:59:10Z</time>
      </trkpt>
      <trkpt lat="45.89665" lon="4.71795">
        <ele>182</ele>
        <time>2017-10-20T09:59:11Z</time>
      </trkpt>
      <trkpt lat="45.89667" lon="4.71806">
        <ele>182</ele>
        <time>2017-10-20T09:59:12Z</time>
      </trkpt>
      <trkpt lat="45.89667" lon="4.71819">
        <ele>182</ele>
        <time>2017-10-20T09:59:13Z</time>
      </trkpt>
      <trkpt lat="45.89667" lon="4.7183">
        <ele>181</ele>
        <time>2017-10-20T09:59:14Z</time>
      </trkpt>
      <trkpt lat="45.89668" lon="4.71843">
        <ele>181</ele>
        <time>2017-10-20T09:59:15Z</time>
      </trkpt>
      <trkpt lat="45.89669" lon="4.71854">
        <ele>181</ele>
        <time>2017-10-20T09:59:16Z</time>
      </trkpt>
      <trkpt lat="45.89669" lon="4.71866">
        <ele>181</ele>
        <time>2017-10-20T09:59:17Z</time>
      </trkpt>
      <trkpt lat="45.89669" lon="4.71876">
        <ele>181</ele>
        <time>2017-10-20T09:59:18Z</time>
      </trkpt>
      <trkpt lat="45.89669" lon="4.71887">
        <ele>181</ele>
        <time>2017-10-20T09:59:19Z</time>
      </trkpt>
      <trkpt lat="45.8967" lon="4.71898">
        <ele>181</ele>
        <time>2017-10-20T09:59:20Z</time>
      </trkpt>
      <trkpt lat="45.8967" lon="4.71907">
        <ele>181</ele>
        <time>2017-10-20T09:59:21Z</time>
      </trkpt>
      <trkpt lat="45.89671" lon="4.71916">
        <ele>181</ele>
        <time>2017-10-20T09:59:22Z</time>
      </trkpt>
      <trkpt lat="45.8967" lon="4.71925">
        <ele>181</ele>
        <time>2017-10-20T09:59:23Z</time>
      </trkpt>
      <trkpt lat="45.8967" lon="4.71935">
        <ele>181</ele>
        <time>2017-10-20T09:59:24Z</time>
      </trkpt>
      <trkpt lat="45.89669" lon="4.71944">
        <ele>181</ele>
        <time>2017-10-20T09:59:25Z</time>
      </trkpt>
      <trkpt lat="45.89669" lon="4.71953">
        <ele>181</ele>
        <time>2017-10-20T09:59:26Z</time>
      </trkpt>
      <trkpt lat="45.89668" lon="4.7196">
        <ele>181</ele>
        <time>2017-10-20T09:59:27Z</time>
      </trkpt>
      <trkpt lat="45.89668" lon="4.71968">
        <ele>181</ele>
        <time>2017-10-20T09:59:28Z</time>
      </trkpt>
      <trkpt lat="45.89668" lon="4.71976">
        <ele>181</ele>
        <time>2017-10-20T09:59:29Z</time>
      </trkpt>
      <trkpt lat="45.89667" lon="4.71984">
        <ele>181</ele>
        <time>2017-10-20T09:59:30Z</time>
      </trkpt>
      <trkpt lat="45.89667" lon="4.71992">
        <ele>181</ele>
        <time>2017-10-20T09:59:31Z</time>
      </trkpt>
      <trkpt lat="45.89669" lon="4.71999">
        <ele>181</ele>
        <time>2017-10-20T09:59:32Z</time>
      </trkpt>
      <trkpt lat="45.89668" lon="4.72005">
        <ele>181</ele>
        <time>2017-10-20T09:59:33Z</time>
      </trkpt>
      <trkpt lat="45.89668" lon="4.72012">
        <ele>181</ele>
        <time>2017-10-20T09:59:34Z</time>
      </trkpt>
      <trkpt lat="45.89668" lon="4.72018">
        <ele>181</ele>
        <time>2017-10-20T09:59:35Z</time>
      </trkpt>
      <trkpt lat="45.89667" lon="4.72029">
        <ele>181</ele>
        <time>2017-10-20T09:59:37Z</time>
      </trkpt>
      <trkpt lat="45.89667" lon="4.72034">
        <ele>181</ele>
        <time>2017-10-20T09:59:38Z</time>
      </trkpt>
      <trkpt lat="45.89667" lon="4.72043">
        <ele>180</ele>
        <time>2017-10-20T09:59:40Z</time>
      </trkpt>
      <trkpt lat="45.89666" lon="4.72049">
        <ele>180</ele>
        <time>2017-10-20T09:59:41Z</time>
      </trkpt>
      <trkpt lat="45.89666" lon="4.7206">
        <ele>180</ele>
        <time>2017-10-20T09:59:43Z</time>
      </trkpt>
      <trkpt lat="45.89666" lon="4.72065">
        <ele>180</ele>
        <time>2017-10-20T09:59:44Z</time>
      </trkpt>
      <trkpt lat="45.89665" lon="4.72075">
        <ele>180</ele>
        <time>2017-10-20T09:59:46Z</time>
      </trkpt>
      <trkpt lat="45.89664" lon="4.7208">
        <ele>180</ele>
        <time>2017-10-20T09:59:47Z</time>
      </trkpt>
      <trkpt lat="45.89664" lon="4.72092">
        <ele>180</ele>
        <time>2017-10-20T09:59:50Z</time>
      </trkpt>
      <trkpt lat="45.89664" lon="4.72097">
        <ele>180</ele>
        <time>2017-10-20T09:59:51Z</time>
      </trkpt>
      <trkpt lat="45.89663" lon="4.72107">
        <ele>180</ele>
        <time>2017-10-20T09:59:53Z</time>
      </trkpt>
      <trkpt lat="45.89662" lon="4.72113">
        <ele>179</ele>
        <time>2017-10-20T09:59:54Z</time>
      </trkpt>
      <trkpt lat="45.89662" lon="4.72124">
        <ele>179</ele>
        <time>2017-10-20T09:59:56Z</time>
      </trkpt>
      <trkpt lat="45.89662" lon="4.72129">
        <ele>179</ele>
        <time>2017-10-20T09:59:57Z</time>
      </trkpt>
      <trkpt lat="45.8966" lon="4.72139">
        <ele>179</ele>
        <time>2017-10-20T09:59:59Z</time>
      </trkpt>
      <trkpt lat="45.8966" lon="4.72145">
        <ele>179</ele>
        <time>2017-10-20T10:00:00Z</time>
      </trkpt>
      <trkpt lat="45.8966" lon="4.72157">
        <ele>179</ele>
        <time>2017-10-20T10:00:02Z</time>
      </trkpt>
      <trkpt lat="45.8966" lon="4.72163">
        <ele>179</ele>
        <time>2017-10-20T10:00:03Z</time>
      </trkpt>
      <trkpt lat="45.89661" lon="4.72174">
        <ele>179</ele>
        <time>2017-10-20T10:00:05Z</time>
      </trkpt>
      <trkpt lat="45.89661" lon="4.72179">
        <ele>179</ele>
        <time>2017-10-20T10:00:06Z</time>
      </trkpt>
      <trkpt lat="45.89662" lon="4.72188">
        <ele>179</ele>
        <time>2017-10-20T10:00:08Z</time>
      </trkpt>
      <trkpt lat="45.89661" lon="4.72192">
        <ele>179</ele>
        <time>2017-10-20T10:00:09Z</time>
      </trkpt>
      <trkpt lat="45.89661" lon="4.72202">
        <ele>179</ele>
        <time>2017-10-20T10:00:12Z</time>
      </trkpt>
      <trkpt lat="45.89661" lon="4.72205">
        <ele>179</ele>
        <time>2017-10-20T10:00:13Z</time>
      </trkpt>
      <trkpt lat="45.89661" lon="4.72214">
        <ele>179</ele>
        <time>2017-10-20T10:00:15Z</time>
      </trkpt>
      <trkpt lat="45.89661" lon="4.72218">
        <ele>179</ele>
        <time>2017-10-20T10:00:16Z</time>
      </trkpt>
      <trkpt lat="45.8966" lon="4.72229">
        <ele>179</ele>
        <time>2017-10-20T10:00:19Z</time>
      </trkpt>
      <trkpt lat="45.89659" lon="4.72232">
        <ele>179</ele>
        <time>2017-10-20T10:00:20Z</time>
      </trkpt>
      <trkpt lat="45.8966" lon="4.72241">
        <ele>179</ele>
        <time>2017-10-20T10:00:23Z</time>
      </trkpt>
      <trkpt lat="45.8966" lon="4.72246">
        <ele>179</ele>
        <time>2017-10-20T10:00:24Z</time>
      </trkpt>
      <trkpt lat="45.8966" lon="4.72257">
        <ele>179</ele>
        <time>2017-10-20T10:00:27Z</time>
      </trkpt>
      <trkpt lat="45.89659" lon="4.72259">
        <ele>179</ele>
        <time>2017-10-20T10:00:28Z</time>
      </trkpt>
      <trkpt lat="45.89655" lon="4.72269">
        <ele>179</ele>
        <time>2017-10-20T10:03:18Z</time>
      </trkpt>
      <trkpt lat="45.89653" lon="4.72271">
        <ele>179</ele>
        <time>2017-10-20T10:03:19Z</time>
      </trkpt>
      <trkpt lat="45.89647" lon="4.72275">
        <ele>179</ele>
        <time>2017-10-20T10:03:21Z</time>
      </trkpt>
      <trkpt lat="45.89643" lon="4.72276">
        <ele>179</ele>
        <time>2017-10-20T10:03:22Z</time>
      </trkpt>
      <trkpt lat="45.89635" lon="4.72277">
        <ele>179</ele>
        <time>2017-10-20T10:03:24Z</time>
      </trkpt>
      <trkpt lat="45.89632" lon="4.72277">
        <ele>179</ele>
        <time>2017-10-20T10:03:25Z</time>
      </trkpt>
      <trkpt lat="45.89623" lon="4.72278">
        <ele>179</ele>
        <time>2017-10-20T10:03:28Z</time>
      </trkpt>
      <trkpt lat="45.89621" lon="4.72278">
        <ele>179</ele>
        <time>2017-10-20T10:03:29Z</time>
      </trkpt>
      <trkpt lat="45.89613" lon="4.72278">
        <ele>179</ele>
        <time>2017-10-20T10:03:32Z</time>
      </trkpt>
      <trkpt lat="45.89611" lon="4.72277">
        <ele>179</ele>
        <time>2017-10-20T10:03:33Z</time>
      </trkpt>
      <trkpt lat="45.89604" lon="4.72278">
        <ele>179</ele>
        <time>2017-10-20T10:03:36Z</time>
      </trkpt>
      <trkpt lat="45.89602" lon="4.72279">
        <ele>179</ele>
        <time>2017-10-20T10:03:37Z</time>
      </trkpt>
      <trkpt lat="45.89594" lon="4.72279">
        <ele>179</ele>
        <time>2017-10-20T10:03:40Z</time>
      </trkpt>
      <trkpt lat="45.89591" lon="4.72279">
        <ele>179</ele>
        <time>2017-10-20T10:03:41Z</time>
      </trkpt>
      <trkpt lat="45.89584" lon="4.7228">
        <ele>179</ele>
        <time>2017-10-20T10:03:43Z</time>
      </trkpt>
      <trkpt lat="45.8958" lon="4.72281">
        <ele>179</ele>
        <time>2017-10-20T10:03:44Z</time>
      </trkpt>
      <trkpt lat="45.89572" lon="4.72281">
        <ele>179</ele>
        <time>2017-10-20T10:03:46Z</time>
      </trkpt>
      <trkpt lat="45.89568" lon="4.7228">
        <ele>179</ele>
        <time>2017-10-20T10:03:47Z</time>
      </trkpt>
      <trkpt lat="45.8956" lon="4.7228">
        <ele>179</ele>
        <time>2017-10-20T10:03:49Z</time>
      </trkpt>
      <trkpt lat="45.89557" lon="4.7228">
        <ele>179</ele>
        <time>2017-10-20T10:03:50Z</time>
      </trkpt>
      <trkpt lat="45.89551" lon="4.72279">
        <ele>179</ele>
        <time>2017-10-20T10:03:52Z</time>
      </trkpt>
      <trkpt lat="45.89548" lon="4.72278">
        <ele>179</ele>
        <time>2017-10-20T10:03:53Z</time>
      </trkpt>
      <trkpt lat="45.89541" lon="4.72278">
        <ele>179</ele>
        <time>2017-10-20T10:03:55Z</time>
      </trkpt>
      <trkpt lat="45.89537" lon="4.72278">
        <ele>179</ele>
        <time>2017-10-20T10:03:56Z</time>
      </trkpt>
      <trkpt lat="45.8953" lon="4.7228">
        <ele>179</ele>
        <time>2017-10-20T10:03:58Z</time>
      </trkpt>
      <trkpt lat="45.89526" lon="4.7228">
        <ele>179</ele>
        <time>2017-10-20T10:03:59Z</time>
      </trkpt>
      <trkpt lat="45.89519" lon="4.72282">
        <ele>179</ele>
        <time>2017-10-20T10:04:01Z</time>
      </trkpt>
      <trkpt lat="45.89516" lon="4.72282">
        <ele>179</ele>
        <time>2017-10-20T10:04:02Z</time>
      </trkpt>
      <trkpt lat="45.8951" lon="4.72282">
        <ele>179</ele>
        <time>2017-10-20T10:04:04Z</time>
      </trkpt>
      <trkpt lat="45.89506" lon="4.72282">
        <ele>179</ele>
        <time>2017-10-20T10:04:05Z</time>
      </trkpt>
      <trkpt lat="45.89499" lon="4.72281">
        <ele>179</ele>
        <time>2017-10-20T10:04:07Z</time>
      </trkpt>
      <trkpt lat="45.89495" lon="4.72282">
        <ele>179</ele>
        <time>2017-10-20T10:04:08Z</time>
      </trkpt>
      <trkpt lat="45.89487" lon="4.72284">
        <ele>179</ele>
        <time>2017-10-20T10:04:10Z</time>
      </trkpt>
      <trkpt lat="45.89484" lon="4.72284">
        <ele>179</ele>
        <time>2017-10-20T10:04:11Z</time>
      </trkpt>
      <trkpt lat="45.89476" lon="4.72286">
        <ele>179</ele>
        <time>2017-10-20T10:04:14Z</time>
      </trkpt>
      <trkpt lat="45.89472" lon="4.72286">
        <ele>179</ele>
        <time>2017-10-20T10:04:15Z</time>
      </trkpt>
      <trkpt lat="45.89465" lon="4.72287">
        <ele>179</ele>
        <time>2017-10-20T10:04:17Z</time>
      </trkpt>
      <trkpt lat="45.89462" lon="4.72287">
        <ele>179</ele>
        <time>2017-10-20T10:04:18Z</time>
      </trkpt>
      <trkpt lat="45.89454" lon="4.72288">
        <ele>179</ele>
        <time>2017-10-20T10:04:20Z</time>
      </trkpt>
      <trkpt lat="45.89451" lon="4.72289">
        <ele>179</ele>
        <time>2017-10-20T10:04:21Z</time>
      </trkpt>
      <trkpt lat="45.89443" lon="4.7229">
        <ele>179</ele>
        <time>2017-10-20T10:04:23Z</time>
      </trkpt>
      <trkpt lat="45.89439" lon="4.7229">
        <ele>179</ele>
        <time>2017-10-20T10:04:24Z</time>
      </trkpt>
      <trkpt lat="45.89432" lon="4.72292">
        <ele>179</ele>
        <time>2017-10-20T10:04:26Z</time>
      </trkpt>
      <trkpt lat="45.89428" lon="4.72292">
        <ele>179</ele>
        <time>2017-10-20T10:04:27Z</time>
      </trkpt>
      <trkpt lat="45.89419" lon="4.72292">
        <ele>180</ele>
        <time>2017-10-20T10:04:29Z</time>
      </trkpt>
      <trkpt lat="45.89415" lon="4.72292">
        <ele>180</ele>
        <time>2017-10-20T10:04:30Z</time>
      </trkpt>
      <trkpt lat="45.89407" lon="4.72292">
        <ele>180</ele>
        <time>2017-10-20T10:04:32Z</time>
      </trkpt>
      <trkpt lat="45.89402" lon="4.72292">
        <ele>180</ele>
        <time>2017-10-20T10:04:33Z</time>
      </trkpt>
      <trkpt lat="45.89395" lon="4.72291">
        <ele>180</ele>
        <time>2017-10-20T10:04:35Z</time>
      </trkpt>
      <trkpt lat="45.89393" lon="4.72291">
        <ele>180</ele>
        <time>2017-10-20T10:04:36Z</time>
      </trkpt>
      <trkpt lat="45.89387" lon="4.72293">
        <ele>180</ele>
        <time>2017-10-20T10:04:38Z</time>
      </trkpt>
      <trkpt lat="45.89384" lon="4.72294">
        <ele>180</ele>
        <time>2017-10-20T10:04:39Z</time>
      </trkpt>
      <trkpt lat="45.89376" lon="4.72296">
        <ele>181</ele>
        <time>2017-10-20T10:04:41Z</time>
      </trkpt>
      <trkpt lat="45.89372" lon="4.72297">
        <ele>181</ele>
        <time>2017-10-20T10:04:42Z</time>
      </trkpt>
      <trkpt lat="45.89366" lon="4.72299">
        <ele>181</ele>
        <time>2017-10-20T10:04:44Z</time>
      </trkpt>
      <trkpt lat="45.89363" lon="4.723">
        <ele>181</ele>
        <time>2017-10-20T10:04:45Z</time>
      </trkpt>
      <trkpt lat="45.89357" lon="4.72301">
        <ele>181</ele>
        <time>2017-10-20T10:04:47Z</time>
      </trkpt>
      <trkpt lat="45.89353" lon="4.72301">
        <ele>181</ele>
        <time>2017-10-20T10:04:48Z</time>
      </trkpt>
      <trkpt lat="45.89346" lon="4.72302">
        <ele>181</ele>
        <time>2017-10-20T10:04:50Z</time>
      </trkpt>
      <trkpt lat="45.89342" lon="4.72302">
        <ele>181</ele>
        <time>2017-10-20T10:04:51Z</time>
      </trkpt>
      <trkpt lat="45.89334" lon="4.72303">
        <ele>181</ele>
        <time>2017-10-20T10:04:53Z</time>
      </trkpt>
      <trkpt lat="45.8933" lon="4.72303">
        <ele>181</ele>
        <time>2017-10-20T10:04:54Z</time>
      </trkpt>
      <trkpt lat="45.89323" lon="4.72303">
        <ele>181</ele>
        <time>2017-10-20T10:04:56Z</time>
      </trkpt>
      <trkpt lat="45.89319" lon="4.72303">
        <ele>181</ele>
        <time>2017-10-20T10:04:57Z</time>
      </trkpt>
      <trkpt lat="45.89313" lon="4.72303">
        <ele>181</ele>
        <time>2017-10-20T10:04:59Z</time>
      </trkpt>
      <trkpt lat="45.89309" lon="4.72302">
        <ele>181</ele>
        <time>2017-10-20T10:05:00Z</time>
      </trkpt>
      <trkpt lat="45.89302" lon="4.723">
        <ele>181</ele>
        <time>2017-10-20T10:05:02Z</time>
      </trkpt>
      <trkpt lat="45.89298" lon="4.72299">
        <ele>181</ele>
        <time>2017-10-20T10:05:03Z</time>
      </trkpt>
      <trkpt lat="45.8929" lon="4.72296">
        <ele>181</ele>
        <time>2017-10-20T10:05:05Z</time>
      </trkpt>
      <trkpt lat="45.89286" lon="4.72294">
        <ele>181</ele>
        <time>2017-10-20T10:05:06Z</time>
      </trkpt>
      <trkpt lat="45.89279" lon="4.72292">
        <ele>181</ele>
        <time>2017-10-20T10:05:08Z</time>
      </trkpt>
      <trkpt lat="45.89276" lon="4.7229">
        <ele>181</ele>
        <time>2017-10-20T10:05:09Z</time>
      </trkpt>
      <trkpt lat="45.8927" lon="4.72287">
        <ele>181</ele>
        <time>2017-10-20T10:05:11Z</time>
      </trkpt>
      <trkpt lat="45.89266" lon="4.72286">
        <ele>181</ele>
        <time>2017-10-20T10:05:12Z</time>
      </trkpt>
      <trkpt lat="45.89259" lon="4.72283">
        <ele>181</ele>
        <time>2017-10-20T10:05:14Z</time>
      </trkpt>
      <trkpt lat="45.89255" lon="4.72281">
        <ele>181</ele>
        <time>2017-10-20T10:05:15Z</time>
      </trkpt>
      <trkpt lat="45.89248" lon="4.72277">
        <ele>181</ele>
        <time>2017-10-20T10:05:17Z</time>
      </trkpt>
      <trkpt lat="45.89246" lon="4.72275">
        <ele>181</ele>
        <time>2017-10-20T10:05:18Z</time>
      </trkpt>
      <trkpt lat="45.89239" lon="4.72272">
        <ele>181</ele>
        <time>2017-10-20T10:05:20Z</time>
      </trkpt>
      <trkpt lat="45.89236" lon="4.72271">
        <ele>181</ele>
        <time>2017-10-20T10:05:21Z</time>
      </trkpt>
      <trkpt lat="45.89228" lon="4.72268">
        <ele>181</ele>
        <time>2017-10-20T10:05:23Z</time>
      </trkpt>
      <trkpt lat="45.89225" lon="4.72266">
        <ele>181</ele>
        <time>2017-10-20T10:05:24Z</time>
      </trkpt>
      <trkpt lat="45.89219" lon="4.72262">
        <ele>181</ele>
        <time>2017-10-20T10:05:26Z</time>
      </trkpt>
      <trkpt lat="45.89216" lon="4.72259">
        <ele>181</ele>
        <time>2017-10-20T10:05:27Z</time>
      </trkpt>
      <trkpt lat="45.89209" lon="4.72255">
        <ele>181</ele>
        <time>2017-10-20T10:05:29Z</time>
      </trkpt>
      <trkpt lat="45.89206" lon="4.72253">
        <ele>181</ele>
        <time>2017-10-20T10:05:30Z</time>
      </trkpt>
      <trkpt lat="45.892" lon="4.72249">
        <ele>180</ele>
        <time>2017-10-20T10:05:32Z</time>
      </trkpt>
      <trkpt lat="45.89197" lon="4.72248">
        <ele>180</ele>
        <time>2017-10-20T10:05:33Z</time>
      </trkpt>
      <trkpt lat="45.8919" lon="4.72247">
        <ele>180</ele>
        <time>2017-10-20T10:05:35Z</time>
      </trkpt>
      <trkpt lat="45.89187" lon="4.72246">
        <ele>180</ele>
        <time>2017-10-20T10:05:36Z</time>
      </trkpt>
      <trkpt lat="45.8918" lon="4.72244">
        <ele>180</ele>
        <time>2017-10-20T10:05:38Z</time>
      </trkpt>
      <trkpt lat="45.89177" lon="4.72242">
        <ele>180</ele>
        <time>2017-10-20T10:05:39Z</time>
      </trkpt>
      <trkpt lat="45.89172" lon="4.72239">
        <ele>180</ele>
        <time>2017-10-20T10:05:40Z</time>
      </trkpt>
      <trkpt lat="45.89168" lon="4.72237">
        <ele>180</ele>
        <time>2017-10-20T10:05:41Z</time>
      </trkpt>
      <trkpt lat="45.8916" lon="4.72233">
        <ele>180</ele>
        <time>2017-10-20T10:05:43Z</time>
      </trkpt>
      <trkpt lat="45.89158" lon="4.72231">
        <ele>180</ele>
        <time>2017-10-20T10:05:44Z</time>
      </trkpt>
      <trkpt lat="45.89149" lon="4.72228">
        <ele>180</ele>
        <time>2017-10-20T10:05:47Z</time>
      </trkpt>
      <trkpt lat="45.89146" lon="4.72226">
        <ele>180</ele>
        <time>2017-10-20T10:05:48Z</time>
      </trkpt>
      <trkpt lat="45.8914" lon="4.72223">
        <ele>180</ele>
        <time>2017-10-20T10:05:50Z</time>
      </trkpt>
      <trkpt lat="45.89136" lon="4.72221">
        <ele>180</ele>
        <time>2017-10-20T10:05:51Z</time>
      </trkpt>
      <trkpt lat="45.89128" lon="4.72216">
        <ele>180</ele>
        <time>2017-10-20T10:05:53Z</time>
      </trkpt>
      <trkpt lat="45.89124" lon="4.72214">
        <ele>180</ele>
        <time>2017-10-20T10:05:54Z</time>
      </trkpt>
      <trkpt lat="45.89116" lon="4.7221">
        <ele>180</ele>
        <time>2017-10-20T10:05:56Z</time>
      </trkpt>
      <trkpt lat="45.89113" lon="4.72209">
        <ele>180</ele>
        <time>2017-10-20T10:05:57Z</time>
      </trkpt>
      <trkpt lat="45.89106" lon="4.72206">
        <ele>180</ele>
        <time>2017-10-20T10:05:59Z</time>
      </trkpt>
      <trkpt lat="45.89102" lon="4.72203">
        <ele>180</ele>
        <time>2017-10-20T10:06:00Z</time>
      </trkpt>
      <trkpt lat="45.89097" lon="4.72199">
        <ele>180</ele>
        <time>2017-10-20T10:06:02Z</time>
      </trkpt>
      <trkpt lat="45.89093" lon="4.72198">
        <ele>180</ele>
        <time>2017-10-20T10:06:03Z</time>
      </trkpt>
      <trkpt lat="45.89088" lon="4.72195">
        <ele>180</ele>
        <time>2017-10-20T10:06:04Z</time>
      </trkpt>
      <trkpt lat="45.89084" lon="4.7219">
        <ele>180</ele>
        <time>2017-10-20T10:06:05Z</time>
      </trkpt>
      <trkpt lat="45.89076" lon="4.72186">
        <ele>180</ele>
        <time>2017-10-20T10:06:07Z</time>
      </trkpt>
      <trkpt lat="45.89073" lon="4.72184">
        <ele>180</ele>
        <time>2017-10-20T10:06:08Z</time>
      </trkpt>
      <trkpt lat="45.89066" lon="4.72178">
        <ele>180</ele>
        <time>2017-10-20T10:06:11Z</time>
      </trkpt>
      <trkpt lat="45.89062" lon="4.72176">
        <ele>180</ele>
        <time>2017-10-20T10:06:12Z</time>
      </trkpt>
      <trkpt lat="45.89055" lon="4.72169">
        <ele>180</ele>
        <time>2017-10-20T10:06:16Z</time>
      </trkpt>
      <trkpt lat="45.89053" lon="4.72168">
        <ele>180</ele>
        <time>2017-10-20T10:06:17Z</time>
      </trkpt>
      <trkpt lat="45.89047" lon="4.72165">
        <ele>180</ele>
        <time>2017-10-20T10:06:19Z</time>
      </trkpt>
      <trkpt lat="45.89044" lon="4.72164">
        <ele>180</ele>
        <time>2017-10-20T10:06:20Z</time>
      </trkpt>
      <trkpt lat="45.89039" lon="4.72163">
        <ele>180</ele>
        <time>2017-10-20T10:06:21Z</time>
      </trkpt>
      <trkpt lat="45.89034" lon="4.72162">
        <ele>180</ele>
        <time>2017-10-20T10:06:22Z</time>
      </trkpt>
      <trkpt lat="45.8903" lon="4.72161">
        <ele>180</ele>
        <time>2017-10-20T10:06:23Z</time>
      </trkpt>
      <trkpt lat="45.89025" lon="4.72159">
        <ele>180</ele>
        <time>2017-10-20T10:06:24Z</time>
      </trkpt>
      <trkpt lat="45.89016" lon="4.72157">
        <ele>180</ele>
        <time>2017-10-20T10:06:26Z</time>
      </trkpt>
      <trkpt lat="45.89012" lon="4.72155">
        <ele>180</ele>
        <time>2017-10-20T10:06:27Z</time>
      </trkpt>
      <trkpt lat="45.89005" lon="4.72154">
        <ele>180</ele>
        <time>2017-10-20T10:06:28Z</time>
      </trkpt>
      <trkpt lat="45.89" lon="4.72152">
        <ele>180</ele>
        <time>2017-10-20T10:06:29Z</time>
      </trkpt>
      <trkpt lat="45.88991" lon="4.7215">
        <ele>180</ele>
        <time>2017-10-20T10:06:31Z</time>
      </trkpt>
      <trkpt lat="45.88987" lon="4.72148">
        <ele>180</ele>
        <time>2017-10-20T10:06:32Z</time>
      </trkpt>
      <trkpt lat="45.88979" lon="4.72146">
        <ele>180</ele>
        <time>2017-10-20T10:06:34Z</time>
      </trkpt>
      <trkpt lat="45.88974" lon="4.72144">
        <ele>180</ele>
        <time>2017-10-20T10:06:35Z</time>
      </trkpt>
      <trkpt lat="45.88967" lon="4.72142">
        <ele>180</ele>
        <time>2017-10-20T10:06:37Z</time>
      </trkpt>
      <trkpt lat="45.88963" lon="4.72141">
        <ele>180</ele>
        <time>2017-10-20T10:06:38Z</time>
      </trkpt>
      <trkpt lat="45.88957" lon="4.72138">
        <ele>181</ele>
        <time>2017-10-20T10:06:40Z</time>
      </trkpt>
      <trkpt lat="45.88954" lon="4.72137">
        <ele>181</ele>
        <time>2017-10-20T10:06:41Z</time>
      </trkpt>
      <trkpt lat="45.88947" lon="4.72134">
        <ele>181</ele>
        <time>2017-10-20T10:06:43Z</time>
      </trkpt>
      <trkpt lat="45.88943" lon="4.72133">
        <ele>181</ele>
        <time>2017-10-20T10:06:44Z</time>
      </trkpt>
      <trkpt lat="45.88936" lon="4.72131">
        <ele>181</ele>
        <time>2017-10-20T10:06:46Z</time>
      </trkpt>
      <trkpt lat="45.88932" lon="4.72129">
        <ele>181</ele>
        <time>2017-10-20T10:06:47Z</time>
      </trkpt>
      <trkpt lat="45.88924" lon="4.72127">
        <ele>181</ele>
        <time>2017-10-20T10:06:49Z</time>
      </trkpt>
      <trkpt lat="45.8892" lon="4.72126">
        <ele>181</ele>
        <time>2017-10-20T10:06:50Z</time>
      </trkpt>
      <trkpt lat="45.88913" lon="4.72124">
        <ele>181</ele>
        <time>2017-10-20T10:06:52Z</time>
      </trkpt>
      <trkpt lat="45.88909" lon="4.72123">
        <ele>181</ele>
        <time>2017-10-20T10:06:53Z</time>
      </trkpt>
      <trkpt lat="45.88902" lon="4.72121">
        <ele>181</ele>
        <time>2017-10-20T10:06:55Z</time>
      </trkpt>
      <trkpt lat="45.88899" lon="4.7212">
        <ele>181</ele>
        <time>2017-10-20T10:06:56Z</time>
      </trkpt>
      <trkpt lat="45.88894" lon="4.72117">
        <ele>181</ele>
        <time>2017-10-20T10:06:58Z</time>
      </trkpt>
      <trkpt lat="45.8889" lon="4.72116">
        <ele>181</ele>
        <time>2017-10-20T10:06:59Z</time>
      </trkpt>
      <trkpt lat="45.88883" lon="4.72113">
        <ele>181</ele>
        <time>2017-10-20T10:07:01Z</time>
      </trkpt>
      <trkpt lat="45.88879" lon="4.72111">
        <ele>181</ele>
        <time>2017-10-20T10:07:02Z</time>
      </trkpt>
      <trkpt lat="45.8887" lon="4.72108">
        <ele>181</ele>
        <time>2017-10-20T10:07:04Z</time>
      </trkpt>
      <trkpt lat="45.88866" lon="4.72106">
        <ele>181</ele>
        <time>2017-10-20T10:07:05Z</time>
      </trkpt>
      <trkpt lat="45.88858" lon="4.72102">
        <ele>181</ele>
        <time>2017-10-20T10:07:07Z</time>
      </trkpt>
      <trkpt lat="45.88855" lon="4.72101">
        <ele>181</ele>
        <time>2017-10-20T10:07:08Z</time>
      </trkpt>
      <trkpt lat="45.88846" lon="4.721">
        <ele>181</ele>
        <time>2017-10-20T10:07:11Z</time>
      </trkpt>
      <trkpt lat="45.88844" lon="4.721">
        <ele>181</ele>
        <time>2017-10-20T10:07:12Z</time>
      </trkpt>
      <trkpt lat="45.88835" lon="4.72102">
        <ele>181</ele>
        <time>2017-10-20T10:07:32Z</time>
      </trkpt>
      <trkpt lat="45.88833" lon="4.72105">
        <ele>181</ele>
        <time>2017-10-20T10:07:33Z</time>
      </trkpt>
      <trkpt lat="45.8883" lon="4.72115">
        <ele>181</ele>
        <time>2017-10-20T10:07:35Z</time>
      </trkpt>
      <trkpt lat="45.88829" lon="4.72121">
        <ele>181</ele>
        <time>2017-10-20T10:07:36Z</time>
      </trkpt>
      <trkpt lat="45.88827" lon="4.72132">
        <ele>182</ele>
        <time>2017-10-20T10:07:38Z</time>
      </trkpt>
      <trkpt lat="45.88826" lon="4.72137">
        <ele>182</ele>
        <time>2017-10-20T10:07:39Z</time>
      </trkpt>
      <trkpt lat="45.88824" lon="4.72147">
        <ele>182</ele>
        <time>2017-10-20T10:07:41Z</time>
      </trkpt>
      <trkpt lat="45.88823" lon="4.72151">
        <ele>182</ele>
        <time>2017-10-20T10:07:42Z</time>
      </trkpt>
      <trkpt lat="45.88821" lon="4.72161">
        <ele>182</ele>
        <time>2017-10-20T10:07:44Z</time>
      </trkpt>
      <trkpt lat="45.8882" lon="4.72167">
        <ele>182</ele>
        <time>2017-10-20T10:07:45Z</time>
      </trkpt>
      <trkpt lat="45.88818" lon="4.72177">
        <ele>182</ele>
        <time>2017-10-20T10:07:47Z</time>
      </trkpt>
      <trkpt lat="45.88818" lon="4.72182">
        <ele>182</ele>
        <time>2017-10-20T10:07:48Z</time>
      </trkpt>
      <trkpt lat="45.88817" lon="4.72191">
        <ele>182</ele>
        <time>2017-10-20T10:07:50Z</time>
      </trkpt>
      <trkpt lat="45.88816" lon="4.72196">
        <ele>182</ele>
        <time>2017-10-20T10:07:51Z</time>
      </trkpt>
      <trkpt lat="45.88813" lon="4.72208">
        <ele>182</ele>
        <time>2017-10-20T10:07:53Z</time>
      </trkpt>
      <trkpt lat="45.88812" lon="4.72214">
        <ele>182</ele>
        <time>2017-10-20T10:07:54Z</time>
      </trkpt>
      <trkpt lat="45.8881" lon="4.72226">
        <ele>182</ele>
        <time>2017-10-20T10:07:56Z</time>
      </trkpt>
      <trkpt lat="45.88809" lon="4.72234">
        <ele>182</ele>
        <time>2017-10-20T10:07:57Z</time>
      </trkpt>
      <trkpt lat="45.88808" lon="4.72241">
        <ele>182</ele>
        <time>2017-10-20T10:07:58Z</time>
      </trkpt>
      <trkpt lat="45.88807" lon="4.72247">
        <ele>182</ele>
        <time>2017-10-20T10:07:59Z</time>
      </trkpt>
      <trkpt lat="45.88806" lon="4.72253">
        <ele>182</ele>
        <time>2017-10-20T10:08:00Z</time>
      </trkpt>
      <trkpt lat="45.88805" lon="4.7226">
        <ele>182</ele>
        <time>2017-10-20T10:08:01Z</time>
      </trkpt>
      <trkpt lat="45.88804" lon="4.72267">
        <ele>182</ele>
        <time>2017-10-20T10:08:02Z</time>
      </trkpt>
      <trkpt lat="45.88803" lon="4.72274">
        <ele>182</ele>
        <time>2017-10-20T10:08:03Z</time>
      </trkpt>
      <trkpt lat="45.88801" lon="4.72286">
        <ele>182</ele>
        <time>2017-10-20T10:08:05Z</time>
      </trkpt>
      <trkpt lat="45.888" lon="4.72292">
        <ele>182</ele>
        <time>2017-10-20T10:08:06Z</time>
      </trkpt>
      <trkpt lat="45.88798" lon="4.72303">
        <ele>182</ele>
        <time>2017-10-20T10:08:08Z</time>
      </trkpt>
      <trkpt lat="45.88797" lon="4.72308">
        <ele>182</ele>
        <time>2017-10-20T10:08:09Z</time>
      </trkpt>
      <trkpt lat="45.88793" lon="4.72319">
        <ele>182</ele>
        <time>2017-10-20T10:08:11Z</time>
      </trkpt>
      <trkpt lat="45.88791" lon="4.72324">
        <ele>182</ele>
        <time>2017-10-20T10:08:12Z</time>
      </trkpt>
      <trkpt lat="45.88788" lon="4.72329">
        <ele>182</ele>
        <time>2017-10-20T10:08:13Z</time>
      </trkpt>
      <trkpt lat="45.88786" lon="4.72336">
        <ele>182</ele>
        <time>2017-10-20T10:08:14Z</time>
      </trkpt>
      <trkpt lat="45.88784" lon="4.72342">
        <ele>182</ele>
        <time>2017-10-20T10:08:15Z</time>
      </trkpt>
      <trkpt lat="45.88781" lon="4.72347">
        <ele>182</ele>
        <time>2017-10-20T10:08:16Z</time>
      </trkpt>
      <trkpt lat="45.88779" lon="4.72353">
        <ele>182</ele>
        <time>2017-10-20T10:08:17Z</time>
      </trkpt>
      <trkpt lat="45.88776" lon="4.72358">
        <ele>182</ele>
        <time>2017-10-20T10:08:18Z</time>
      </trkpt>
      <trkpt lat="45.88774" lon="4.72364">
        <ele>182</ele>
        <time>2017-10-20T10:08:19Z</time>
      </trkpt>
      <trkpt lat="45.88771" lon="4.7237">
        <ele>182</ele>
        <time>2017-10-20T10:08:20Z</time>
      </trkpt>
      <trkpt lat="45.88768" lon="4.72375">
        <ele>182</ele>
        <time>2017-10-20T10:08:21Z</time>
      </trkpt>
      <trkpt lat="45.88765" lon="4.72381">
        <ele>182</ele>
        <time>2017-10-20T10:08:22Z</time>
      </trkpt>
      <trkpt lat="45.8876" lon="4.7239">
        <ele>182</ele>
        <time>2017-10-20T10:08:24Z</time>
      </trkpt>
      <trkpt lat="45.88758" lon="4.72394">
        <ele>182</ele>
        <time>2017-10-20T10:08:25Z</time>
      </trkpt>
      <trkpt lat="45.88753" lon="4.72402">
        <ele>182</ele>
        <time>2017-10-20T10:08:27Z</time>
      </trkpt>
      <trkpt lat="45.88751" lon="4.72406">
        <ele>182</ele>
        <time>2017-10-20T10:08:28Z</time>
      </trkpt>
      <trkpt lat="45.88746" lon="4.72413">
        <ele>182</ele>
        <time>2017-10-20T10:08:30Z</time>
      </trkpt>
      <trkpt lat="45.88744" lon="4.72418">
        <ele>182</ele>
        <time>2017-10-20T10:08:31Z</time>
      </trkpt>
      <trkpt lat="45.88739" lon="4.72427">
        <ele>182</ele>
        <time>2017-10-20T10:08:33Z</time>
      </trkpt>
      <trkpt lat="45.88736" lon="4.72432">
        <ele>182</ele>
        <time>2017-10-20T10:08:34Z</time>
      </trkpt>
      <trkpt lat="45.88732" lon="4.72442">
        <ele>182</ele>
        <time>2017-10-20T10:08:36Z</time>
      </trkpt>
      <trkpt lat="45.88729" lon="4.72448">
        <ele>182</ele>
        <time>2017-10-20T10:08:37Z</time>
      </trkpt>
      <trkpt lat="45.88727" lon="4.72454">
        <ele>182</ele>
        <time>2017-10-20T10:08:38Z</time>
      </trkpt>
      <trkpt lat="45.88725" lon="4.72461">
        <ele>182</ele>
        <time>2017-10-20T10:08:39Z</time>
      </trkpt>
      <trkpt lat="45.88724" lon="4.72468">
        <ele>182</ele>
        <time>2017-10-20T10:08:40Z</time>
      </trkpt>
      <trkpt lat="45.88723" lon="4.72475">
        <ele>182</ele>
        <time>2017-10-20T10:08:41Z</time>
      </trkpt>
      <trkpt lat="45.88722" lon="4.72482">
        <ele>182</ele>
        <time>2017-10-20T10:08:42Z</time>
      </trkpt>
      <trkpt lat="45.88722" lon="4.72489">
        <ele>182</ele>
        <time>2017-10-20T10:08:43Z</time>
      </trkpt>
      <trkpt lat="45.88722" lon="4.72495">
        <ele>182</ele>
        <time>2017-10-20T10:08:44Z</time>
      </trkpt>
      <trkpt lat="45.88723" lon="4.72503">
        <ele>183</ele>
        <time>2017-10-20T10:08:45Z</time>
      </trkpt>
      <trkpt lat="45.88724" lon="4.7251">
        <ele>183</ele>
        <time>2017-10-20T10:08:46Z</time>
      </trkpt>
      <trkpt lat="45.88725" lon="4.72516">
        <ele>183</ele>
        <time>2017-10-20T10:08:47Z</time>
      </trkpt>
      <trkpt lat="45.88726" lon="4.72522">
        <ele>183</ele>
        <time>2017-10-20T10:08:48Z</time>
      </trkpt>
      <trkpt lat="45.88727" lon="4.72529">
        <ele>183</ele>
        <time>2017-10-20T10:08:49Z</time>
      </trkpt>
      <trkpt lat="45.88729" lon="4.7254">
        <ele>183</ele>
        <time>2017-10-20T10:08:51Z</time>
      </trkpt>
      <trkpt lat="45.8873" lon="4.72545">
        <ele>183</ele>
        <time>2017-10-20T10:08:52Z</time>
      </trkpt>
      <trkpt lat="45.88733" lon="4.72557">
        <ele>183</ele>
        <time>2017-10-20T10:08:54Z</time>
      </trkpt>
      <trkpt lat="45.88734" lon="4.72564">
        <ele>183</ele>
        <time>2017-10-20T10:08:55Z</time>
      </trkpt>
      <trkpt lat="45.88736" lon="4.7257">
        <ele>183</ele>
        <time>2017-10-20T10:08:56Z</time>
      </trkpt>
      <trkpt lat="45.88737" lon="4.72577">
        <ele>184</ele>
        <time>2017-10-20T10:08:57Z</time>
      </trkpt>
      <trkpt lat="45.88739" lon="4.72583">
        <ele>184</ele>
        <time>2017-10-20T10:08:58Z</time>
      </trkpt>
      <trkpt lat="45.88739" lon="4.72589">
        <ele>184</ele>
        <time>2017-10-20T10:08:59Z</time>
      </trkpt>
      <trkpt lat="45.88741" lon="4.72602">
        <ele>184</ele>
        <time>2017-10-20T10:09:01Z</time>
      </trkpt>
      <trkpt lat="45.88741" lon="4.72607">
        <ele>183</ele>
        <time>2017-10-20T10:09:02Z</time>
      </trkpt>
      <trkpt lat="45.88741" lon="4.72618">
        <ele>183</ele>
        <time>2017-10-20T10:09:04Z</time>
      </trkpt>
      <trkpt lat="45.88742" lon="4.72624">
        <ele>183</ele>
        <time>2017-10-20T10:09:05Z</time>
      </trkpt>
      <trkpt lat="45.88745" lon="4.72636">
        <ele>183</ele>
        <time>2017-10-20T10:09:07Z</time>
      </trkpt>
      <trkpt lat="45.88745" lon="4.72642">
        <ele>183</ele>
        <time>2017-10-20T10:09:08Z</time>
      </trkpt>
      <trkpt lat="45.88746" lon="4.72648">
        <ele>183</ele>
        <time>2017-10-20T10:09:09Z</time>
      </trkpt>
      <trkpt lat="45.88747" lon="4.72656">
        <ele>182</ele>
        <time>2017-10-20T10:09:10Z</time>
      </trkpt>
      <trkpt lat="45.88748" lon="4.72663">
        <ele>182</ele>
        <time>2017-10-20T10:09:11Z</time>
      </trkpt>
      <trkpt lat="45.88748" lon="4.72671">
        <ele>182</ele>
        <time>2017-10-20T10:09:12Z</time>
      </trkpt>
      <trkpt lat="45.88749" lon="4.72679">
        <ele>182</ele>
        <time>2017-10-20T10:09:13Z</time>
      </trkpt>
      <trkpt lat="45.8875" lon="4.72687">
        <ele>183</ele>
        <time>2017-10-20T10:09:14Z</time>
      </trkpt>
      <trkpt lat="45.8875" lon="4.72694">
        <ele>183</ele>
        <time>2017-10-20T10:09:15Z</time>
      </trkpt>
      <trkpt lat="45.8875" lon="4.72701">
        <ele>182</ele>
        <time>2017-10-20T10:09:16Z</time>
      </trkpt>
      <trkpt lat="45.88752" lon="4.72709">
        <ele>183</ele>
        <time>2017-10-20T10:09:17Z</time>
      </trkpt>
      <trkpt lat="45.88753" lon="4.72716">
        <ele>183</ele>
        <time>2017-10-20T10:09:18Z</time>
      </trkpt>
      <trkpt lat="45.88754" lon="4.72729">
        <ele>183</ele>
        <time>2017-10-20T10:09:20Z</time>
      </trkpt>
      <trkpt lat="45.88755" lon="4.72734">
        <ele>183</ele>
        <time>2017-10-20T10:09:21Z</time>
      </trkpt>
      <trkpt lat="45.88756" lon="4.72744">
        <ele>183</ele>
        <time>2017-10-20T10:09:23Z</time>
      </trkpt>
      <trkpt lat="45.88756" lon="4.72749">
        <ele>183</ele>
        <time>2017-10-20T10:09:24Z</time>
      </trkpt>
      <trkpt lat="45.88756" lon="4.72756">
        <ele>183</ele>
        <time>2017-10-20T10:09:25Z</time>
      </trkpt>
      <trkpt lat="45.88756" lon="4.72763">
        <ele>183</ele>
        <time>2017-10-20T10:09:26Z</time>
      </trkpt>
      <trkpt lat="45.88757" lon="4.72769">
        <ele>184</ele>
        <time>2017-10-20T10:09:27Z</time>
      </trkpt>
      <trkpt lat="45.88757" lon="4.72776">
        <ele>184</ele>
        <time>2017-10-20T10:09:28Z</time>
      </trkpt>
      <trkpt lat="45.88758" lon="4.72783">
        <ele>184</ele>
        <time>2017-10-20T10:09:29Z</time>
      </trkpt>
      <trkpt lat="45.88758" lon="4.7279">
        <ele>184</ele>
        <time>2017-10-20T10:09:30Z</time>
      </trkpt>
      <trkpt lat="45.88759" lon="4.72797">
        <ele>184</ele>
        <time>2017-10-20T10:09:31Z</time>
      </trkpt>
      <trkpt lat="45.88759" lon="4.72805">
        <ele>184</ele>
        <time>2017-10-20T10:09:32Z</time>
      </trkpt>
      <trkpt lat="45.8876" lon="4.72812">
        <ele>185</ele>
        <time>2017-10-20T10:09:33Z</time>
      </trkpt>
      <trkpt lat="45.8876" lon="4.72819">
        <ele>185</ele>
        <time>2017-10-20T10:09:34Z</time>
      </trkpt>
      <trkpt lat="45.88762" lon="4.72826">
        <ele>185</ele>
        <time>2017-10-20T10:09:35Z</time>
      </trkpt>
      <trkpt lat="45.88762" lon="4.72832">
        <ele>185</ele>
        <time>2017-10-20T10:09:36Z</time>
      </trkpt>
      <trkpt lat="45.88763" lon="4.72845">
        <ele>185</ele>
        <time>2017-10-20T10:09:38Z</time>
      </trkpt>
      <trkpt lat="45.88763" lon="4.72851">
        <ele>185</ele>
        <time>2017-10-20T10:09:39Z</time>
      </trkpt>
      <trkpt lat="45.88763" lon="4.72858">
        <ele>185</ele>
        <time>2017-10-20T10:09:40Z</time>
      </trkpt>
      <trkpt lat="45.88764" lon="4.72865">
        <ele>185</ele>
        <time>2017-10-20T10:09:41Z</time>
      </trkpt>
      <trkpt lat="45.88764" lon="4.72871">
        <ele>185</ele>
        <time>2017-10-20T10:09:42Z</time>
      </trkpt>
      <trkpt lat="45.88765" lon="4.72878">
        <ele>185</ele>
        <time>2017-10-20T10:09:43Z</time>
      </trkpt>
      <trkpt lat="45.88765" lon="4.72885">
        <ele>185</ele>
        <time>2017-10-20T10:09:44Z</time>
      </trkpt>
      <trkpt lat="45.88765" lon="4.72892">
        <ele>185</ele>
        <time>2017-10-20T10:09:45Z</time>
      </trkpt>
      <trkpt lat="45.88766" lon="4.72904">
        <ele>185</ele>
        <time>2017-10-20T10:09:47Z</time>
      </trkpt>
      <trkpt lat="45.88766" lon="4.72912">
        <ele>186</ele>
        <time>2017-10-20T10:09:48Z</time>
      </trkpt>
      <trkpt lat="45.88767" lon="4.72919">
        <ele>185</ele>
        <time>2017-10-20T10:09:49Z</time>
      </trkpt>
      <trkpt lat="45.88767" lon="4.72925">
        <ele>185</ele>
        <time>2017-10-20T10:09:50Z</time>
      </trkpt>
      <trkpt lat="45.88767" lon="4.72932">
        <ele>185</ele>
        <time>2017-10-20T10:09:51Z</time>
      </trkpt>
      <trkpt lat="45.88767" lon="4.72938">
        <ele>185</ele>
        <time>2017-10-20T10:09:52Z</time>
      </trkpt>
      <trkpt lat="45.88768" lon="4.7295">
        <ele>185</ele>
        <time>2017-10-20T10:09:54Z</time>
      </trkpt>
      <trkpt lat="45.88768" lon="4.72955">
        <ele>185</ele>
        <time>2017-10-20T10:09:55Z</time>
      </trkpt>
      <trkpt lat="45.88769" lon="4.72961">
        <ele>185</ele>
        <time>2017-10-20T10:09:56Z</time>
      </trkpt>
      <trkpt lat="45.88769" lon="4.72968">
        <ele>185</ele>
        <time>2017-10-20T10:09:57Z</time>
      </trkpt>
      <trkpt lat="45.8877" lon="4.7298">
        <ele>185</ele>
        <time>2017-10-20T10:09:59Z</time>
      </trkpt>
      <trkpt lat="45.8877" lon="4.72986">
        <ele>185</ele>
        <time>2017-10-20T10:10:00Z</time>
      </trkpt>
      <trkpt lat="45.88771" lon="4.72996">
        <ele>185</ele>
        <time>2017-10-20T10:10:02Z</time>
      </trkpt>
      <trkpt lat="45.88771" lon="4.73001">
        <ele>184</ele>
        <time>2017-10-20T10:10:03Z</time>
      </trkpt>
      <trkpt lat="45.88772" lon="4.7301">
        <ele>184</ele>
        <time>2017-10-20T10:10:05Z</time>
      </trkpt>
      <trkpt lat="45.88772" lon="4.73016">
        <ele>184</ele>
        <time>2017-10-20T10:10:06Z</time>
      </trkpt>
      <trkpt lat="45.88774" lon="4.73028">
        <ele>184</ele>
        <time>2017-10-20T10:10:08Z</time>
      </trkpt>
      <trkpt lat="45.88774" lon="4.73034">
        <ele>184</ele>
        <time>2017-10-20T10:10:09Z</time>
      </trkpt>
      <trkpt lat="45.88775" lon="4.73046">
        <ele>184</ele>
        <time>2017-10-20T10:10:11Z</time>
      </trkpt>
      <trkpt lat="45.88776" lon="4.73052">
        <ele>184</ele>
        <time>2017-10-20T10:10:12Z</time>
      </trkpt>
      <trkpt lat="45.88777" lon="4.73064">
        <ele>184</ele>
        <time>2017-10-20T10:10:14Z</time>
      </trkpt>
      <trkpt lat="45.88777" lon="4.7307">
        <ele>184</ele>
        <time>2017-10-20T10:10:15Z</time>
      </trkpt>
      <trkpt lat="45.88779" lon="4.73077">
        <ele>184</ele>
        <time>2017-10-20T10:10:16Z</time>
      </trkpt>
      <trkpt lat="45.8878" lon="4.73085">
        <ele>183</ele>
        <time>2017-10-20T10:10:17Z</time>
      </trkpt>
      <trkpt lat="45.8878" lon="4.73093">
        <ele>183</ele>
        <time>2017-10-20T10:10:18Z</time>
      </trkpt>
      <trkpt lat="45.88781" lon="4.731">
        <ele>182</ele>
        <time>2017-10-20T10:10:19Z</time>
      </trkpt>
      <trkpt lat="45.88783" lon="4.73111">
        <ele>182</ele>
        <time>2017-10-20T10:10:21Z</time>
      </trkpt>
      <trkpt lat="45.88786" lon="4.73117">
        <ele>182</ele>
        <time>2017-10-20T10:10:22Z</time>
      </trkpt>
      <trkpt lat="45.8879" lon="4.7312">
        <ele>182</ele>
        <time>2017-10-20T10:10:23Z</time>
      </trkpt>
      <trkpt lat="45.88794" lon="4.73121">
        <ele>182</ele>
        <time>2017-10-20T10:10:24Z</time>
      </trkpt>
      <trkpt lat="45.88802" lon="4.73117">
        <ele>182</ele>
        <time>2017-10-20T10:10:26Z</time>
      </trkpt>
      <trkpt lat="45.88806" lon="4.73116">
        <ele>182</ele>
        <time>2017-10-20T10:10:27Z</time>
      </trkpt>
      <trkpt lat="45.88815" lon="4.73114">
        <ele>182</ele>
        <time>2017-10-20T10:10:31Z</time>
      </trkpt>
      <trkpt lat="45.88816" lon="4.73115">
        <ele>182</ele>
        <time>2017-10-20T10:10:32Z</time>
      </trkpt>
      <trkpt lat="45.88821" lon="4.7311">
        <ele>182</ele>
        <time>2017-10-20T10:10:35Z</time>
      </trkpt>
      <trkpt lat="45.88824" lon="4.73109">
        <ele>182</ele>
        <time>2017-10-20T10:10:36Z</time>
      </trkpt>
      <trkpt lat="45.88831" lon="4.73106">
        <ele>182</ele>
        <time>2017-10-20T10:10:38Z</time>
      </trkpt>
      <trkpt lat="45.88837" lon="4.73106">
        <ele>182</ele>
        <time>2017-10-20T10:10:39Z</time>
      </trkpt>
      <trkpt lat="45.88846" lon="4.73105">
        <ele>182</ele>
        <time>2017-10-20T10:10:41Z</time>
      </trkpt>
      <trkpt lat="45.88849" lon="4.73105">
        <ele>182</ele>
        <time>2017-10-20T10:10:42Z</time>
      </trkpt>
      <trkpt lat="45.88854" lon="4.73104">
        <ele>182</ele>
        <time>2017-10-20T10:10:43Z</time>
      </trkpt>
      <trkpt lat="45.88859" lon="4.73103">
        <ele>182</ele>
        <time>2017-10-20T10:10:44Z</time>
      </trkpt>
      <trkpt lat="45.88866" lon="4.731">
        <ele>182</ele>
        <time>2017-10-20T10:10:46Z</time>
      </trkpt>
      <trkpt lat="45.88871" lon="4.73099">
        <ele>182</ele>
        <time>2017-10-20T10:10:47Z</time>
      </trkpt>
      <trkpt lat="45.88879" lon="4.73096">
        <ele>182</ele>
        <time>2017-10-20T10:10:49Z</time>
      </trkpt>
      <trkpt lat="45.88884" lon="4.73095">
        <ele>182</ele>
        <time>2017-10-20T10:10:50Z</time>
      </trkpt>
      <trkpt lat="45.88892" lon="4.73094">
        <ele>182</ele>
        <time>2017-10-20T10:10:52Z</time>
      </trkpt>
      <trkpt lat="45.88898" lon="4.73093">
        <ele>182</ele>
        <time>2017-10-20T10:10:53Z</time>
      </trkpt>
      <trkpt lat="45.88906" lon="4.73091">
        <ele>183</ele>
        <time>2017-10-20T10:10:55Z</time>
      </trkpt>
      <trkpt lat="45.88911" lon="4.7309">
        <ele>183</ele>
        <time>2017-10-20T10:10:56Z</time>
      </trkpt>
      <trkpt lat="45.88916" lon="4.73088">
        <ele>183</ele>
        <time>2017-10-20T10:10:57Z</time>
      </trkpt>
      <trkpt lat="45.88921" lon="4.73088">
        <ele>183</ele>
        <time>2017-10-20T10:10:58Z</time>
      </trkpt>
      <trkpt lat="45.88927" lon="4.73085">
        <ele>183</ele>
        <time>2017-10-20T10:10:59Z</time>
      </trkpt>
      <trkpt lat="45.88933" lon="4.73083">
        <ele>183</ele>
        <time>2017-10-20T10:11:00Z</time>
      </trkpt>
      <trkpt lat="45.88938" lon="4.73082">
        <ele>183</ele>
        <time>2017-10-20T10:11:01Z</time>
      </trkpt>
      <trkpt lat="45.88943" lon="4.73082">
        <ele>183</ele>
        <time>2017-10-20T10:11:02Z</time>
      </trkpt>
      <trkpt lat="45.88948" lon="4.7308">
        <ele>183</ele>
        <time>2017-10-20T10:11:03Z</time>
      </trkpt>
      <trkpt lat="45.88953" lon="4.73079">
        <ele>183</ele>
        <time>2017-10-20T10:11:04Z</time>
      </trkpt>
      <trkpt lat="45.88958" lon="4.73077">
        <ele>183</ele>
        <time>2017-10-20T10:11:05Z</time>
      </trkpt>
      <trkpt lat="45.88963" lon="4.73076">
        <ele>183</ele>
        <time>2017-10-20T10:11:06Z</time>
      </trkpt>
      <trkpt lat="45.88972" lon="4.73074">
        <ele>183</ele>
        <time>2017-10-20T10:11:08Z</time>
      </trkpt>
      <trkpt lat="45.88976" lon="4.73073">
        <ele>183</ele>
        <time>2017-10-20T10:11:09Z</time>
      </trkpt>
      <trkpt lat="45.88984" lon="4.73071">
        <ele>183</ele>
        <time>2017-10-20T10:11:11Z</time>
      </trkpt>
      <trkpt lat="45.88988" lon="4.73069">
        <ele>183</ele>
        <time>2017-10-20T10:11:12Z</time>
      </trkpt>
      <trkpt lat="45.88995" lon="4.73067">
        <ele>183</ele>
        <time>2017-10-20T10:11:14Z</time>
      </trkpt>
      <trkpt lat="45.89" lon="4.73066">
        <ele>183</ele>
        <time>2017-10-20T10:11:15Z</time>
      </trkpt>
      <trkpt lat="45.89005" lon="4.73065">
        <ele>182</ele>
        <time>2017-10-20T10:11:16Z</time>
      </trkpt>
      <trkpt lat="45.89011" lon="4.73062">
        <ele>182</ele>
        <time>2017-10-20T10:11:17Z</time>
      </trkpt>
      <trkpt lat="45.89017" lon="4.7306">
        <ele>182</ele>
        <time>2017-10-20T10:11:18Z</time>
      </trkpt>
      <trkpt lat="45.89023" lon="4.73058">
        <ele>182</ele>
        <time>2017-10-20T10:11:19Z</time>
      </trkpt>
      <trkpt lat="45.89027" lon="4.73057">
        <ele>182</ele>
        <time>2017-10-20T10:11:20Z</time>
      </trkpt>
      <trkpt lat="45.89032" lon="4.73056">
        <ele>182</ele>
        <time>2017-10-20T10:11:21Z</time>
      </trkpt>
      <trkpt lat="45.89037" lon="4.73055">
        <ele>182</ele>
        <time>2017-10-20T10:11:22Z</time>
      </trkpt>
      <trkpt lat="45.89041" lon="4.73054">
        <ele>182</ele>
        <time>2017-10-20T10:11:23Z</time>
      </trkpt>
      <trkpt lat="45.8905" lon="4.73054">
        <ele>182</ele>
        <time>2017-10-20T10:11:25Z</time>
      </trkpt>
      <trkpt lat="45.89053" lon="4.73056">
        <ele>182</ele>
        <time>2017-10-20T10:11:26Z</time>
      </trkpt>
      <trkpt lat="45.89056" lon="4.73064">
        <ele>182</ele>
        <time>2017-10-20T10:11:28Z</time>
      </trkpt>
      <trkpt lat="45.89058" lon="4.73068">
        <ele>182</ele>
        <time>2017-10-20T10:11:29Z</time>
      </trkpt>
      <trkpt lat="45.89057" lon="4.73077">
        <ele>182</ele>
        <time>2017-10-20T10:11:31Z</time>
      </trkpt>
      <trkpt lat="45.89056" lon="4.73083">
        <ele>182</ele>
        <time>2017-10-20T10:11:32Z</time>
      </trkpt>
      <trkpt lat="45.89054" lon="4.73093">
        <ele>182</ele>
        <time>2017-10-20T10:11:34Z</time>
      </trkpt>
      <trkpt lat="45.89054" lon="4.73099">
        <ele>182</ele>
        <time>2017-10-20T10:11:35Z</time>
      </trkpt>
      <trkpt lat="45.89053" lon="4.7311">
        <ele>182</ele>
        <time>2017-10-20T10:11:37Z</time>
      </trkpt>
      <trkpt lat="45.89053" lon="4.73116">
        <ele>182</ele>
        <time>2017-10-20T10:11:38Z</time>
      </trkpt>
      <trkpt lat="45.89053" lon="4.73122">
        <ele>182</ele>
        <time>2017-10-20T10:11:39Z</time>
      </trkpt>
      <trkpt lat="45.89053" lon="4.73131">
        <ele>182</ele>
        <time>2017-10-20T10:11:40Z</time>
      </trkpt>
      <trkpt lat="45.89054" lon="4.73143">
        <ele>181</ele>
        <time>2017-10-20T10:11:42Z</time>
      </trkpt>
      <trkpt lat="45.89054" lon="4.73149">
        <ele>181</ele>
        <time>2017-10-20T10:11:43Z</time>
      </trkpt>
      <trkpt lat="45.89054" lon="4.73159">
        <ele>181</ele>
        <time>2017-10-20T10:11:45Z</time>
      </trkpt>
      <trkpt lat="45.89055" lon="4.73165">
        <ele>181</ele>
        <time>2017-10-20T10:11:46Z</time>
      </trkpt>
      <trkpt lat="45.89055" lon="4.73175">
        <ele>180</ele>
        <time>2017-10-20T10:11:48Z</time>
      </trkpt>
      <trkpt lat="45.89055" lon="4.73181">
        <ele>180</ele>
        <time>2017-10-20T10:11:49Z</time>
      </trkpt>
      <trkpt lat="45.89056" lon="4.73193">
        <ele>180</ele>
        <time>2017-10-20T10:11:51Z</time>
      </trkpt>
      <trkpt lat="45.89057" lon="4.73199">
        <ele>180</ele>
        <time>2017-10-20T10:11:52Z</time>
      </trkpt>
      <trkpt lat="45.89058" lon="4.73211">
        <ele>180</ele>
        <time>2017-10-20T10:11:54Z</time>
      </trkpt>
      <trkpt lat="45.89058" lon="4.73216">
        <ele>180</ele>
        <time>2017-10-20T10:11:55Z</time>
      </trkpt>
      <trkpt lat="45.89059" lon="4.73227">
        <ele>180</ele>
        <time>2017-10-20T10:11:57Z</time>
      </trkpt>
      <trkpt lat="45.89059" lon="4.73233">
        <ele>180</ele>
        <time>2017-10-20T10:11:58Z</time>
      </trkpt>
      <trkpt lat="45.89061" lon="4.73244">
        <ele>180</ele>
        <time>2017-10-20T10:12:00Z</time>
      </trkpt>
      <trkpt lat="45.89061" lon="4.73251">
        <ele>179</ele>
        <time>2017-10-20T10:12:01Z</time>
      </trkpt>
      <trkpt lat="45.89063" lon="4.73258">
        <ele>179</ele>
        <time>2017-10-20T10:12:02Z</time>
      </trkpt>
      <trkpt lat="45.89064" lon="4.73265">
        <ele>179</ele>
        <time>2017-10-20T10:12:03Z</time>
      </trkpt>
      <trkpt lat="45.89065" lon="4.73272">
        <ele>179</ele>
        <time>2017-10-20T10:12:04Z</time>
      </trkpt>
      <trkpt lat="45.89067" lon="4.73278">
        <ele>179</ele>
        <time>2017-10-20T10:12:05Z</time>
      </trkpt>
      <trkpt lat="45.8907" lon="4.7329">
        <ele>179</ele>
        <time>2017-10-20T10:12:07Z</time>
      </trkpt>
      <trkpt lat="45.89071" lon="4.73295">
        <ele>179</ele>
        <time>2017-10-20T10:12:08Z</time>
      </trkpt>
      <trkpt lat="45.89073" lon="4.73305">
        <ele>179</ele>
        <time>2017-10-20T10:12:10Z</time>
      </trkpt>
      <trkpt lat="45.89074" lon="4.7331">
        <ele>179</ele>
        <time>2017-10-20T10:12:11Z</time>
      </trkpt>
      <trkpt lat="45.89076" lon="4.73322">
        <ele>179</ele>
        <time>2017-10-20T10:12:13Z</time>
      </trkpt>
      <trkpt lat="45.89077" lon="4.73328">
        <ele>179</ele>
        <time>2017-10-20T10:12:14Z</time>
      </trkpt>
      <trkpt lat="45.89079" lon="4.7334">
        <ele>179</ele>
        <time>2017-10-20T10:12:16Z</time>
      </trkpt>
      <trkpt lat="45.8908" lon="4.73346">
        <ele>179</ele>
        <time>2017-10-20T10:12:17Z</time>
      </trkpt>
      <trkpt lat="45.89082" lon="4.73358">
        <ele>180</ele>
        <time>2017-10-20T10:12:19Z</time>
      </trkpt>
      <trkpt lat="45.89082" lon="4.73364">
        <ele>180</ele>
        <time>2017-10-20T10:12:20Z</time>
      </trkpt>
      <trkpt lat="45.89083" lon="4.73375">
        <ele>180</ele>
        <time>2017-10-20T10:12:22Z</time>
      </trkpt>
      <trkpt lat="45.89083" lon="4.7338">
        <ele>180</ele>
        <time>2017-10-20T10:12:23Z</time>
      </trkpt>
      <trkpt lat="45.89084" lon="4.73391">
        <ele>179</ele>
        <time>2017-10-20T10:12:25Z</time>
      </trkpt>
      <trkpt lat="45.89084" lon="4.73397">
        <ele>179</ele>
        <time>2017-10-20T10:12:26Z</time>
      </trkpt>
      <trkpt lat="45.89085" lon="4.73409">
        <ele>180</ele>
        <time>2017-10-20T10:12:28Z</time>
      </trkpt>
      <trkpt lat="45.89086" lon="4.73415">
        <ele>180</ele>
        <time>2017-10-20T10:12:29Z</time>
      </trkpt>
      <trkpt lat="45.89087" lon="4.73426">
        <ele>180</ele>
        <time>2017-10-20T10:12:31Z</time>
      </trkpt>
      <trkpt lat="45.89088" lon="4.73431">
        <ele>180</ele>
        <time>2017-10-20T10:12:32Z</time>
      </trkpt>
      <trkpt lat="45.89093" lon="4.73488">
        <ele>180</ele>
        <time>2017-10-20T10:12:43Z</time>
      </trkpt>
      <trkpt lat="45.89095" lon="4.73498">
        <ele>181</ele>
        <time>2017-10-20T10:12:46Z</time>
      </trkpt>
      <trkpt lat="45.89096" lon="4.73503">
        <ele>181</ele>
        <time>2017-10-20T10:12:47Z</time>
      </trkpt>
      <trkpt lat="45.89097" lon="4.73513">
        <ele>181</ele>
        <time>2017-10-20T10:12:49Z</time>
      </trkpt>
      <trkpt lat="45.89097" lon="4.73518">
        <ele>181</ele>
        <time>2017-10-20T10:12:50Z</time>
      </trkpt>
      <trkpt lat="45.89096" lon="4.73531">
        <ele>181</ele>
        <time>2017-10-20T10:12:52Z</time>
      </trkpt>
      <trkpt lat="45.89096" lon="4.73536">
        <ele>181</ele>
        <time>2017-10-20T10:12:53Z</time>
      </trkpt>
      <trkpt lat="45.89096" lon="4.73548">
        <ele>181</ele>
        <time>2017-10-20T10:12:55Z</time>
      </trkpt>
      <trkpt lat="45.89096" lon="4.73553">
        <ele>181</ele>
        <time>2017-10-20T10:12:56Z</time>
      </trkpt>
      <trkpt lat="45.89096" lon="4.73564">
        <ele>181</ele>
        <time>2017-10-20T10:12:58Z</time>
      </trkpt>
      <trkpt lat="45.89096" lon="4.73569">
        <ele>181</ele>
        <time>2017-10-20T10:12:59Z</time>
      </trkpt>
      <trkpt lat="45.89098" lon="4.7358">
        <ele>181</ele>
        <time>2017-10-20T10:13:01Z</time>
      </trkpt>
      <trkpt lat="45.89099" lon="4.73586">
        <ele>181</ele>
        <time>2017-10-20T10:13:02Z</time>
      </trkpt>
      <trkpt lat="45.89103" lon="4.73597">
        <ele>181</ele>
        <time>2017-10-20T10:13:04Z</time>
      </trkpt>
      <trkpt lat="45.89106" lon="4.73603">
        <ele>181</ele>
        <time>2017-10-20T10:13:05Z</time>
      </trkpt>
      <trkpt lat="45.8911" lon="4.73613">
        <ele>181</ele>
        <time>2017-10-20T10:13:07Z</time>
      </trkpt>
      <trkpt lat="45.89112" lon="4.73618">
        <ele>181</ele>
        <time>2017-10-20T10:13:08Z</time>
      </trkpt>
      <trkpt lat="45.89116" lon="4.73628">
        <ele>181</ele>
        <time>2017-10-20T10:13:10Z</time>
      </trkpt>
      <trkpt lat="45.89117" lon="4.73632">
        <ele>181</ele>
        <time>2017-10-20T10:13:11Z</time>
      </trkpt>
      <trkpt lat="45.89118" lon="4.73644">
        <ele>182</ele>
        <time>2017-10-20T10:13:14Z</time>
      </trkpt>
      <trkpt lat="45.89119" lon="4.73648">
        <ele>182</ele>
        <time>2017-10-20T10:13:15Z</time>
      </trkpt>
      <trkpt lat="45.89117" lon="4.73656">
        <ele>182</ele>
        <time>2017-10-20T10:13:17Z</time>
      </trkpt>
      <trkpt lat="45.89116" lon="4.73661">
        <ele>182</ele>
        <time>2017-10-20T10:13:18Z</time>
      </trkpt>
      <trkpt lat="45.89114" lon="4.73672">
        <ele>182</ele>
        <time>2017-10-20T10:13:20Z</time>
      </trkpt>
      <trkpt lat="45.89114" lon="4.73679">
        <ele>182</ele>
        <time>2017-10-20T10:13:21Z</time>
      </trkpt>
      <trkpt lat="45.89113" lon="4.73685">
        <ele>182</ele>
        <time>2017-10-20T10:13:22Z</time>
      </trkpt>
      <trkpt lat="45.89113" lon="4.73692">
        <ele>182</ele>
        <time>2017-10-20T10:13:23Z</time>
      </trkpt>
      <trkpt lat="45.89112" lon="4.73701">
        <ele>182</ele>
        <time>2017-10-20T10:13:24Z</time>
      </trkpt>
      <trkpt lat="45.89112" lon="4.73707">
        <ele>182</ele>
        <time>2017-10-20T10:13:25Z</time>
      </trkpt>
      <trkpt lat="45.89112" lon="4.73714">
        <ele>182</ele>
        <time>2017-10-20T10:13:26Z</time>
      </trkpt>
      <trkpt lat="45.89111" lon="4.73722">
        <ele>182</ele>
        <time>2017-10-20T10:13:27Z</time>
      </trkpt>
      <trkpt lat="45.89111" lon="4.73734">
        <ele>181</ele>
        <time>2017-10-20T10:13:29Z</time>
      </trkpt>
      <trkpt lat="45.89111" lon="4.7374">
        <ele>181</ele>
        <time>2017-10-20T10:13:30Z</time>
      </trkpt>
      <trkpt lat="45.89112" lon="4.73751">
        <ele>181</ele>
        <time>2017-10-20T10:13:32Z</time>
      </trkpt>
      <trkpt lat="45.89112" lon="4.73756">
        <ele>181</ele>
        <time>2017-10-20T10:13:33Z</time>
      </trkpt>
      <trkpt lat="45.89111" lon="4.73765">
        <ele>181</ele>
        <time>2017-10-20T10:13:35Z</time>
      </trkpt>
      <trkpt lat="45.89111" lon="4.73771">
        <ele>181</ele>
        <time>2017-10-20T10:13:36Z</time>
      </trkpt>
      <trkpt lat="45.89111" lon="4.73781">
        <ele>181</ele>
        <time>2017-10-20T10:13:38Z</time>
      </trkpt>
      <trkpt lat="45.89112" lon="4.73786">
        <ele>181</ele>
        <time>2017-10-20T10:13:39Z</time>
      </trkpt>
      <trkpt lat="45.89113" lon="4.73798">
        <ele>181</ele>
        <time>2017-10-20T10:13:41Z</time>
      </trkpt>
      <trkpt lat="45.89113" lon="4.73804">
        <ele>181</ele>
        <time>2017-10-20T10:13:42Z</time>
      </trkpt>
      <trkpt lat="45.89113" lon="4.73811">
        <ele>181</ele>
        <time>2017-10-20T10:13:43Z</time>
      </trkpt>
      <trkpt lat="45.89115" lon="4.73818">
        <ele>181</ele>
        <time>2017-10-20T10:13:44Z</time>
      </trkpt>
      <trkpt lat="45.89115" lon="4.73825">
        <ele>181</ele>
        <time>2017-10-20T10:13:45Z</time>
      </trkpt>
      <trkpt lat="45.89115" lon="4.73831">
        <ele>181</ele>
        <time>2017-10-20T10:13:46Z</time>
      </trkpt>
      <trkpt lat="45.89116" lon="4.73838">
        <ele>182</ele>
        <time>2017-10-20T10:13:47Z</time>
      </trkpt>
      <trkpt lat="45.89116" lon="4.73845">
        <ele>182</ele>
        <time>2017-10-20T10:13:48Z</time>
      </trkpt>
      <trkpt lat="45.89117" lon="4.73858">
        <ele>182</ele>
        <time>2017-10-20T10:13:50Z</time>
      </trkpt>
      <trkpt lat="45.89117" lon="4.73864">
        <ele>182</ele>
        <time>2017-10-20T10:13:51Z</time>
      </trkpt>
      <trkpt lat="45.89119" lon="4.73876">
        <ele>182</ele>
        <time>2017-10-20T10:13:53Z</time>
      </trkpt>
      <trkpt lat="45.89119" lon="4.73881">
        <ele>182</ele>
        <time>2017-10-20T10:13:54Z</time>
      </trkpt>
      <trkpt lat="45.8912" lon="4.73894">
        <ele>182</ele>
        <time>2017-10-20T10:13:56Z</time>
      </trkpt>
      <trkpt lat="45.89119" lon="4.739">
        <ele>182</ele>
        <time>2017-10-20T10:13:57Z</time>
      </trkpt>
      <trkpt lat="45.89119" lon="4.73906">
        <ele>182</ele>
        <time>2017-10-20T10:13:58Z</time>
      </trkpt>
      <trkpt lat="45.8912" lon="4.73913">
        <ele>182</ele>
        <time>2017-10-20T10:13:59Z</time>
      </trkpt>
      <trkpt lat="45.8912" lon="4.7392">
        <ele>183</ele>
        <time>2017-10-20T10:14:00Z</time>
      </trkpt>
      <trkpt lat="45.8912" lon="4.73927">
        <ele>183</ele>
        <time>2017-10-20T10:14:01Z</time>
      </trkpt>
      <trkpt lat="45.89121" lon="4.7394">
        <ele>183</ele>
        <time>2017-10-20T10:14:03Z</time>
      </trkpt>
      <trkpt lat="45.89121" lon="4.73945">
        <ele>183</ele>
        <time>2017-10-20T10:14:04Z</time>
      </trkpt>
      <trkpt lat="45.89122" lon="4.73956">
        <ele>183</ele>
        <time>2017-10-20T10:14:06Z</time>
      </trkpt>
      <trkpt lat="45.89123" lon="4.73961">
        <ele>183</ele>
        <time>2017-10-20T10:14:07Z</time>
      </trkpt>
      <trkpt lat="45.89123" lon="4.73972">
        <ele>183</ele>
        <time>2017-10-20T10:14:09Z</time>
      </trkpt>
      <trkpt lat="45.89123" lon="4.73977">
        <ele>183</ele>
        <time>2017-10-20T10:14:10Z</time>
      </trkpt>
      <trkpt lat="45.89121" lon="4.73987">
        <ele>183</ele>
        <time>2017-10-20T10:14:12Z</time>
      </trkpt>
      <trkpt lat="45.89118" lon="4.73991">
        <ele>183</ele>
        <time>2017-10-20T10:14:13Z</time>
      </trkpt>
      <trkpt lat="45.8911" lon="4.73998">
        <ele>183</ele>
        <time>2017-10-20T10:14:15Z</time>
      </trkpt>
      <trkpt lat="45.89106" lon="4.74">
        <ele>183</ele>
        <time>2017-10-20T10:14:16Z</time>
      </trkpt>
      <trkpt lat="45.89098" lon="4.74002">
        <ele>183</ele>
        <time>2017-10-20T10:14:18Z</time>
      </trkpt>
      <trkpt lat="45.89094" lon="4.74002">
        <ele>183</ele>
        <time>2017-10-20T10:14:19Z</time>
      </trkpt>
      <trkpt lat="45.89086" lon="4.74001">
        <ele>183</ele>
        <time>2017-10-20T10:14:21Z</time>
      </trkpt>
      <trkpt lat="45.89082" lon="4.74001">
        <ele>183</ele>
        <time>2017-10-20T10:14:22Z</time>
      </trkpt>
      <trkpt lat="45.89073" lon="4.74002">
        <ele>183</ele>
        <time>2017-10-20T10:14:24Z</time>
      </trkpt>
      <trkpt lat="45.89069" lon="4.74004">
        <ele>184</ele>
        <time>2017-10-20T10:14:25Z</time>
      </trkpt>
      <trkpt lat="45.8906" lon="4.74008">
        <ele>184</ele>
        <time>2017-10-20T10:14:27Z</time>
      </trkpt>
      <trkpt lat="45.89056" lon="4.7401">
        <ele>184</ele>
        <time>2017-10-20T10:14:28Z</time>
      </trkpt>
      <trkpt lat="45.89051" lon="4.74011">
        <ele>184</ele>
        <time>2017-10-20T10:14:29Z</time>
      </trkpt>
      <trkpt lat="45.89047" lon="4.74012">
        <ele>184</ele>
        <time>2017-10-20T10:14:30Z</time>
      </trkpt>
      <trkpt lat="45.8904" lon="4.74017">
        <ele>184</ele>
        <time>2017-10-20T10:14:32Z</time>
      </trkpt>
      <trkpt lat="45.89038" lon="4.74021">
        <ele>184</ele>
        <time>2017-10-20T10:14:33Z</time>
      </trkpt>
      <trkpt lat="45.89037" lon="4.74033">
        <ele>184</ele>
        <time>2017-10-20T10:14:36Z</time>
      </trkpt>
      <trkpt lat="45.89037" lon="4.74038">
        <ele>184</ele>
        <time>2017-10-20T10:14:37Z</time>
      </trkpt>
      <trkpt lat="45.89038" lon="4.7405">
        <ele>184</ele>
        <time>2017-10-20T10:14:39Z</time>
      </trkpt>
      <trkpt lat="45.89038" lon="4.74056">
        <ele>184</ele>
        <time>2017-10-20T10:14:40Z</time>
      </trkpt>
      <trkpt lat="45.89038" lon="4.74068">
        <ele>184</ele>
        <time>2017-10-20T10:14:42Z</time>
      </trkpt>
      <trkpt lat="45.89037" lon="4.74074">
        <ele>184</ele>
        <time>2017-10-20T10:14:43Z</time>
      </trkpt>
      <trkpt lat="45.89036" lon="4.74087">
        <ele>185</ele>
        <time>2017-10-20T10:14:45Z</time>
      </trkpt>
      <trkpt lat="45.89036" lon="4.74092">
        <ele>185</ele>
        <time>2017-10-20T10:14:46Z</time>
      </trkpt>
      <trkpt lat="45.89036" lon="4.74105">
        <ele>185</ele>
        <time>2017-10-20T10:14:48Z</time>
      </trkpt>
      <trkpt lat="45.89036" lon="4.74112">
        <ele>185</ele>
        <time>2017-10-20T10:14:49Z</time>
      </trkpt>
      <trkpt lat="45.89035" lon="4.74124">
        <ele>185</ele>
        <time>2017-10-20T10:14:51Z</time>
      </trkpt>
      <trkpt lat="45.89035" lon="4.7413">
        <ele>185</ele>
        <time>2017-10-20T10:14:52Z</time>
      </trkpt>
      <trkpt lat="45.89033" lon="4.74143">
        <ele>185</ele>
        <time>2017-10-20T10:14:54Z</time>
      </trkpt>
      <trkpt lat="45.89031" lon="4.74147">
        <ele>185</ele>
        <time>2017-10-20T10:14:55Z</time>
      </trkpt>
      <trkpt lat="45.89029" lon="4.74158">
        <ele>185</ele>
        <time>2017-10-20T10:14:57Z</time>
      </trkpt>
      <trkpt lat="45.89027" lon="4.74163">
        <ele>185</ele>
        <time>2017-10-20T10:14:58Z</time>
      </trkpt>
      <trkpt lat="45.89024" lon="4.74174">
        <ele>185</ele>
        <time>2017-10-20T10:15:00Z</time>
      </trkpt>
      <trkpt lat="45.89022" lon="4.74179">
        <ele>185</ele>
        <time>2017-10-20T10:15:01Z</time>
      </trkpt>
      <trkpt lat="45.89019" lon="4.7419">
        <ele>186</ele>
        <time>2017-10-20T10:15:03Z</time>
      </trkpt>
      <trkpt lat="45.89018" lon="4.74195">
        <ele>186</ele>
        <time>2017-10-20T10:15:04Z</time>
      </trkpt>
      <trkpt lat="45.89015" lon="4.74204">
        <ele>186</ele>
        <time>2017-10-20T10:15:06Z</time>
      </trkpt>
      <trkpt lat="45.89013" lon="4.74208">
        <ele>186</ele>
        <time>2017-10-20T10:15:07Z</time>
      </trkpt>
      <trkpt lat="45.8901" lon="4.7422">
        <ele>186</ele>
        <time>2017-10-20T10:15:10Z</time>
      </trkpt>
      <trkpt lat="45.89009" lon="4.74223">
        <ele>186</ele>
        <time>2017-10-20T10:15:11Z</time>
      </trkpt>
      <trkpt lat="45.89013" lon="4.74235">
        <ele>186</ele>
        <time>2017-10-20T10:15:15Z</time>
      </trkpt>
      <trkpt lat="45.89015" lon="4.74237">
        <ele>186</ele>
        <time>2017-10-20T10:15:16Z</time>
      </trkpt>
      <trkpt lat="45.8902" lon="4.74243">
        <ele>186</ele>
        <time>2017-10-20T10:15:18Z</time>
      </trkpt>
      <trkpt lat="45.89023" lon="4.74245">
        <ele>186</ele>
        <time>2017-10-20T10:15:19Z</time>
      </trkpt>
      <trkpt lat="45.89026" lon="4.74256">
        <ele>187</ele>
        <time>2017-10-20T10:15:22Z</time>
      </trkpt>
      <trkpt lat="45.89027" lon="4.7426">
        <ele>187</ele>
        <time>2017-10-20T10:15:23Z</time>
      </trkpt>
      <trkpt lat="45.89026" lon="4.74272">
        <ele>187</ele>
        <time>2017-10-20T10:15:27Z</time>
      </trkpt>
      <trkpt lat="45.89025" lon="4.74274">
        <ele>187</ele>
        <time>2017-10-20T10:15:28Z</time>
      </trkpt>
      <trkpt lat="45.89024" lon="4.74274">
        <ele>187</ele>
        <time>2017-10-20T10:15:29Z</time>
      </trkpt>
      <trkpt lat="45.89024" lon="4.74273">
        <ele>187</ele>
        <time>2017-10-20T10:15:30Z</time>
      </trkpt>
      <trkpt lat="45.89023" lon="4.74272">
        <ele>187</ele>
        <time>2017-10-20T10:15:31Z</time>
      </trkpt>
      <trkpt lat="45.89019" lon="4.74281">
        <ele>187</ele>
        <time>2017-10-20T10:15:39Z</time>
      </trkpt>
      <trkpt lat="45.89018" lon="4.74284">
        <ele>187</ele>
        <time>2017-10-20T10:15:40Z</time>
      </trkpt>
      <trkpt lat="45.89013" lon="4.74293">
        <ele>187</ele>
        <time>2017-10-20T10:15:44Z</time>
      </trkpt>
      <trkpt lat="45.89013" lon="4.74295">
        <ele>187</ele>
        <time>2017-10-20T10:15:45Z</time>
      </trkpt>
      <trkpt lat="45.89004" lon="4.74294">
        <ele>187</ele>
        <time>2017-10-20T10:15:48Z</time>
      </trkpt>
      <trkpt lat="45.89" lon="4.74294">
        <ele>187</ele>
        <time>2017-10-20T10:15:49Z</time>
      </trkpt>
      <trkpt lat="45.88993" lon="4.74294">
        <ele>187</ele>
        <time>2017-10-20T10:15:51Z</time>
      </trkpt>
      <trkpt lat="45.88989" lon="4.74293">
        <ele>187</ele>
        <time>2017-10-20T10:15:52Z</time>
      </trkpt>
      <trkpt lat="45.88983" lon="4.74292">
        <ele>187</ele>
        <time>2017-10-20T10:15:54Z</time>
      </trkpt>
      <trkpt lat="45.8898" lon="4.74293">
        <ele>187</ele>
        <time>2017-10-20T10:15:55Z</time>
      </trkpt>
      <trkpt lat="45.88972" lon="4.74297">
        <ele>187</ele>
        <time>2017-10-20T10:15:58Z</time>
      </trkpt>
      <trkpt lat="45.88969" lon="4.74299">
        <ele>187</ele>
        <time>2017-10-20T10:15:59Z</time>
      </trkpt>
      <trkpt lat="45.88968" lon="4.74309">
        <ele>187</ele>
        <time>2017-10-20T10:16:01Z</time>
      </trkpt>
      <trkpt lat="45.88969" lon="4.74313">
        <ele>187</ele>
        <time>2017-10-20T10:16:02Z</time>
      </trkpt>
      <trkpt lat="45.88969" lon="4.74322">
        <ele>187</ele>
        <time>2017-10-20T10:16:04Z</time>
      </trkpt>
      <trkpt lat="45.88969" lon="4.74326">
        <ele>187</ele>
        <time>2017-10-20T10:16:05Z</time>
      </trkpt>
      <trkpt lat="45.88967" lon="4.74337">
        <ele>188</ele>
        <time>2017-10-20T10:16:07Z</time>
      </trkpt>
      <trkpt lat="45.88965" lon="4.74343">
        <ele>188</ele>
        <time>2017-10-20T10:16:08Z</time>
      </trkpt>
      <trkpt lat="45.88962" lon="4.74353">
        <ele>188</ele>
        <time>2017-10-20T10:16:10Z</time>
      </trkpt>
      <trkpt lat="45.88961" lon="4.74358">
        <ele>188</ele>
        <time>2017-10-20T10:16:11Z</time>
      </trkpt>
      <trkpt lat="45.88958" lon="4.74368">
        <ele>188</ele>
        <time>2017-10-20T10:16:13Z</time>
      </trkpt>
      <trkpt lat="45.88956" lon="4.74373">
        <ele>188</ele>
        <time>2017-10-20T10:16:14Z</time>
      </trkpt>
      <trkpt lat="45.88951" lon="4.74382">
        <ele>188</ele>
        <time>2017-10-20T10:16:16Z</time>
      </trkpt>
      <trkpt lat="45.88949" lon="4.74387">
        <ele>188</ele>
        <time>2017-10-20T10:16:17Z</time>
      </trkpt>
      <trkpt lat="45.88947" lon="4.74398">
        <ele>188</ele>
        <time>2017-10-20T10:16:20Z</time>
      </trkpt>
      <trkpt lat="45.88946" lon="4.744">
        <ele>188</ele>
        <time>2017-10-20T10:16:21Z</time>
      </trkpt>
      <trkpt lat="45.88943" lon="4.74412">
        <ele>188</ele>
        <time>2017-10-20T10:16:24Z</time>
      </trkpt>
      <trkpt lat="45.88947" lon="4.74418">
        <ele>188</ele>
        <time>2017-10-20T10:16:25Z</time>
      </trkpt>
      <trkpt lat="45.88952" lon="4.74423">
        <ele>188</ele>
        <time>2017-10-20T10:16:27Z</time>
      </trkpt>
      <trkpt lat="45.88955" lon="4.74426">
        <ele>188</ele>
        <time>2017-10-20T10:16:28Z</time>
      </trkpt>
      <trkpt lat="45.88962" lon="4.74432">
        <ele>188</ele>
        <time>2017-10-20T10:16:30Z</time>
      </trkpt>
      <trkpt lat="45.88965" lon="4.74434">
        <ele>188</ele>
        <time>2017-10-20T10:16:31Z</time>
      </trkpt>
      <trkpt lat="45.88973" lon="4.74437">
        <ele>188</ele>
        <time>2017-10-20T10:16:33Z</time>
      </trkpt>
      <trkpt lat="45.88977" lon="4.74439">
        <ele>188</ele>
        <time>2017-10-20T10:16:34Z</time>
      </trkpt>
      <trkpt lat="45.88984" lon="4.74441">
        <ele>188</ele>
        <time>2017-10-20T10:16:36Z</time>
      </trkpt>
      <trkpt lat="45.88987" lon="4.74444">
        <ele>188</ele>
        <time>2017-10-20T10:16:37Z</time>
      </trkpt>
      <trkpt lat="45.88993" lon="4.7445">
        <ele>188</ele>
        <time>2017-10-20T10:16:39Z</time>
      </trkpt>
      <trkpt lat="45.88995" lon="4.74454">
        <ele>188</ele>
        <time>2017-10-20T10:16:40Z</time>
      </trkpt>
      <trkpt lat="45.89" lon="4.74461">
        <ele>188</ele>
        <time>2017-10-20T10:16:42Z</time>
      </trkpt>
      <trkpt lat="45.89003" lon="4.74465">
        <ele>188</ele>
        <time>2017-10-20T10:16:43Z</time>
      </trkpt>
      <trkpt lat="45.8901" lon="4.74472">
        <ele>188</ele>
        <time>2017-10-20T10:16:46Z</time>
      </trkpt>
      <trkpt lat="45.89011" lon="4.74476">
        <ele>188</ele>
        <time>2017-10-20T10:16:47Z</time>
      </trkpt>
      <trkpt lat="45.8901" lon="4.74484">
        <ele>189</ele>
        <time>2017-10-20T10:16:49Z</time>
      </trkpt>
      <trkpt lat="45.89009" lon="4.74489">
        <ele>189</ele>
        <time>2017-10-20T10:16:50Z</time>
      </trkpt>
      <trkpt lat="45.89006" lon="4.74499">
        <ele>189</ele>
        <time>2017-10-20T10:16:53Z</time>
      </trkpt>
      <trkpt lat="45.89007" lon="4.74501">
        <ele>189</ele>
        <time>2017-10-20T10:16:54Z</time>
      </trkpt>
      <trkpt lat="45.89015" lon="4.74504">
        <ele>189</ele>
        <time>2017-10-20T10:16:57Z</time>
      </trkpt>
      <trkpt lat="45.89018" lon="4.74505">
        <ele>189</ele>
        <time>2017-10-20T10:16:58Z</time>
      </trkpt>
      <trkpt lat="45.89026" lon="4.74509">
        <ele>189</ele>
        <time>2017-10-20T10:17:01Z</time>
      </trkpt>
      <trkpt lat="45.89028" lon="4.7451">
        <ele>189</ele>
        <time>2017-10-20T10:17:02Z</time>
      </trkpt>
      <trkpt lat="45.89029" lon="4.74522">
        <ele>189</ele>
        <time>2017-10-20T10:17:09Z</time>
      </trkpt>
      <trkpt lat="45.89028" lon="4.74525">
        <ele>189</ele>
        <time>2017-10-20T10:17:10Z</time>
      </trkpt>
      <trkpt lat="45.89024" lon="4.74536">
        <ele>189</ele>
        <time>2017-10-20T10:17:13Z</time>
      </trkpt>
      <trkpt lat="45.89023" lon="4.74539">
        <ele>189</ele>
        <time>2017-10-20T10:17:14Z</time>
      </trkpt>
      <trkpt lat="45.89021" lon="4.7455">
        <ele>190</ele>
        <time>2017-10-20T10:17:17Z</time>
      </trkpt>
      <trkpt lat="45.8902" lon="4.74554">
        <ele>190</ele>
        <time>2017-10-20T10:17:18Z</time>
      </trkpt>
      <trkpt lat="45.89019" lon="4.74565">
        <ele>190</ele>
        <time>2017-10-20T10:17:21Z</time>
      </trkpt>
      <trkpt lat="45.89018" lon="4.74569">
        <ele>190</ele>
        <time>2017-10-20T10:17:22Z</time>
      </trkpt>
      <trkpt lat="45.89018" lon="4.74579">
        <ele>190</ele>
        <time>2017-10-20T10:17:25Z</time>
      </trkpt>
      <trkpt lat="45.89018" lon="4.74582">
        <ele>190</ele>
        <time>2017-10-20T10:17:26Z</time>
      </trkpt>
      <trkpt lat="45.89019" lon="4.74594">
        <ele>191</ele>
        <time>2017-10-20T10:17:30Z</time>
      </trkpt>
      <trkpt lat="45.89018" lon="4.74596">
        <ele>191</ele>
        <time>2017-10-20T10:17:31Z</time>
      </trkpt>
      <trkpt lat="45.89016" lon="4.74608">
        <ele>191</ele>
        <time>2017-10-20T10:17:35Z</time>
      </trkpt>
      <trkpt lat="45.89016" lon="4.74611">
        <ele>191</ele>
        <time>2017-10-20T10:17:36Z</time>
      </trkpt>
      <trkpt lat="45.89012" lon="4.74622">
        <ele>192</ele>
        <time>2017-10-20T10:17:40Z</time>
      </trkpt>
      <trkpt lat="45.89012" lon="4.74625">
        <ele>192</ele>
        <time>2017-10-20T10:17:41Z</time>
      </trkpt>
      <trkpt lat="45.89009" lon="4.74637">
        <ele>192</ele>
        <time>2017-10-20T10:17:45Z</time>
      </trkpt>
      <trkpt lat="45.89009" lon="4.7464">
        <ele>192</ele>
        <time>2017-10-20T10:17:46Z</time>
      </trkpt>
      <trkpt lat="45.89012" lon="4.74651">
        <ele>192</ele>
        <time>2017-10-20T10:17:51Z</time>
      </trkpt>
      <trkpt lat="45.89013" lon="4.74653">
        <ele>193</ele>
        <time>2017-10-20T10:17:52Z</time>
      </trkpt>
      <trkpt lat="45.89019" lon="4.74661">
        <ele>192</ele>
        <time>2017-10-20T10:21:02Z</time>
      </trkpt>
      <trkpt lat="45.8902" lon="4.74662">
        <ele>192</ele>
        <time>2017-10-20T10:21:03Z</time>
      </trkpt>
      <trkpt lat="45.89016" lon="4.74673">
        <ele>194</ele>
        <time>2017-10-20T10:21:09Z</time>
      </trkpt>
      <trkpt lat="45.89014" lon="4.74676">
        <ele>194</ele>
        <time>2017-10-20T10:21:10Z</time>
      </trkpt>
      <trkpt lat="45.89009" lon="4.74685">
        <ele>194</ele>
        <time>2017-10-20T10:21:14Z</time>
      </trkpt>
      <trkpt lat="45.89008" lon="4.74687">
        <ele>194</ele>
        <time>2017-10-20T10:21:15Z</time>
      </trkpt>
      <trkpt lat="45.89002" lon="4.74696">
        <ele>195</ele>
        <time>2017-10-20T10:21:19Z</time>
      </trkpt>
      <trkpt lat="45.89001" lon="4.74698">
        <ele>195</ele>
        <time>2017-10-20T10:21:20Z</time>
      </trkpt>
      <trkpt lat="45.88999" lon="4.74707">
        <ele>196</ele>
        <time>2017-10-20T10:21:23Z</time>
      </trkpt>
      <trkpt lat="45.88998" lon="4.7471">
        <ele>196</ele>
        <time>2017-10-20T10:21:24Z</time>
      </trkpt>
      <trkpt lat="45.88998" lon="4.74723">
        <ele>196</ele>
        <time>2017-10-20T10:21:28Z</time>
      </trkpt>
      <trkpt lat="45.88998" lon="4.74726">
        <ele>196</ele>
        <time>2017-10-20T10:21:29Z</time>
      </trkpt>
      <trkpt lat="45.89001" lon="4.74733">
        <ele>196</ele>
        <time>2017-10-20T10:21:32Z</time>
      </trkpt>
      <trkpt lat="45.89005" lon="4.74735">
        <ele>196</ele>
        <time>2017-10-20T10:21:33Z</time>
      </trkpt>
      <trkpt lat="45.89013" lon="4.74735">
        <ele>196</ele>
        <time>2017-10-20T10:21:36Z</time>
      </trkpt>
      <trkpt lat="45.89015" lon="4.74734">
        <ele>196</ele>
        <time>2017-10-20T10:21:37Z</time>
      </trkpt>
      <trkpt lat="45.89022" lon="4.74733">
        <ele>196</ele>
        <time>2017-10-20T10:21:40Z</time>
      </trkpt>
      <trkpt lat="45.89024" lon="4.74734">
        <ele>196</ele>
        <time>2017-10-20T10:21:41Z</time>
      </trkpt>
      <trkpt lat="45.89027" lon="4.74743">
        <ele>196</ele>
        <time>2017-10-20T10:21:44Z</time>
      </trkpt>
      <trkpt lat="45.89027" lon="4.74748">
        <ele>196</ele>
        <time>2017-10-20T10:21:45Z</time>
      </trkpt>
      <trkpt lat="45.89028" lon="4.74757">
        <ele>198</ele>
        <time>2017-10-20T10:21:47Z</time>
      </trkpt>
      <trkpt lat="45.89028" lon="4.74762">
        <ele>198</ele>
        <time>2017-10-20T10:21:48Z</time>
      </trkpt>
      <trkpt lat="45.89029" lon="4.74771">
        <ele>198</ele>
        <time>2017-10-20T10:21:50Z</time>
      </trkpt>
      <trkpt lat="45.89029" lon="4.74775">
        <ele>198</ele>
        <time>2017-10-20T10:21:51Z</time>
      </trkpt>
      <trkpt lat="45.89031" lon="4.74787">
        <ele>198</ele>
        <time>2017-10-20T10:21:54Z</time>
      </trkpt>
      <trkpt lat="45.89032" lon="4.74791">
        <ele>198</ele>
        <time>2017-10-20T10:21:55Z</time>
      </trkpt>
      <trkpt lat="45.89034" lon="4.74803">
        <ele>198</ele>
        <time>2017-10-20T10:21:58Z</time>
      </trkpt>
      <trkpt lat="45.89034" lon="4.74806">
        <ele>198</ele>
        <time>2017-10-20T10:21:59Z</time>
      </trkpt>
      <trkpt lat="45.89036" lon="4.74817">
        <ele>199</ele>
        <time>2017-10-20T10:22:02Z</time>
      </trkpt>
      <trkpt lat="45.89036" lon="4.74821">
        <ele>199</ele>
        <time>2017-10-20T10:22:03Z</time>
      </trkpt>
      <trkpt lat="45.89037" lon="4.7483">
        <ele>199</ele>
        <time>2017-10-20T10:22:05Z</time>
      </trkpt>
      <trkpt lat="45.89037" lon="4.74834">
        <ele>199</ele>
        <time>2017-10-20T10:22:06Z</time>
      </trkpt>
      <trkpt lat="45.89038" lon="4.74843">
        <ele>199</ele>
        <time>2017-10-20T10:22:08Z</time>
      </trkpt>
      <trkpt lat="45.89038" lon="4.74847">
        <ele>199</ele>
        <time>2017-10-20T10:22:09Z</time>
      </trkpt>
      <trkpt lat="45.8904" lon="4.74857">
        <ele>199</ele>
        <time>2017-10-20T10:22:11Z</time>
      </trkpt>
      <trkpt lat="45.89041" lon="4.74862">
        <ele>199</ele>
        <time>2017-10-20T10:22:12Z</time>
      </trkpt>
      <trkpt lat="45.89043" lon="4.74874">
        <ele>199</ele>
        <time>2017-10-20T10:22:15Z</time>
      </trkpt>
      <trkpt lat="45.89043" lon="4.74879">
        <ele>199</ele>
        <time>2017-10-20T10:22:16Z</time>
      </trkpt>
      <trkpt lat="45.89044" lon="4.7489">
        <ele>199</ele>
        <time>2017-10-20T10:22:19Z</time>
      </trkpt>
      <trkpt lat="45.89042" lon="4.74893">
        <ele>199</ele>
        <time>2017-10-20T10:22:20Z</time>
      </trkpt>
      <trkpt lat="45.89036" lon="4.74898">
        <ele>199</ele>
        <time>2017-10-20T10:22:22Z</time>
      </trkpt>
      <trkpt lat="45.89033" lon="4.749">
        <ele>199</ele>
        <time>2017-10-20T10:22:23Z</time>
      </trkpt>
      <trkpt lat="45.89028" lon="4.74905">
        <ele>199</ele>
        <time>2017-10-20T10:22:25Z</time>
      </trkpt>
      <trkpt lat="45.89025" lon="4.7491">
        <ele>199</ele>
        <time>2017-10-20T10:22:26Z</time>
      </trkpt>
      <trkpt lat="45.89023" lon="4.74919">
        <ele>199</ele>
        <time>2017-10-20T10:22:28Z</time>
      </trkpt>
      <trkpt lat="45.89022" lon="4.74924">
        <ele>199</ele>
        <time>2017-10-20T10:22:29Z</time>
      </trkpt>
      <trkpt lat="45.89021" lon="4.74934">
        <ele>199</ele>
        <time>2017-10-20T10:22:31Z</time>
      </trkpt>
      <trkpt lat="45.8902" lon="4.74938">
        <ele>199</ele>
        <time>2017-10-20T10:22:32Z</time>
      </trkpt>
      <trkpt lat="45.89017" lon="4.74949">
        <ele>199</ele>
        <time>2017-10-20T10:22:35Z</time>
      </trkpt>
      <trkpt lat="45.89016" lon="4.74953">
        <ele>199</ele>
        <time>2017-10-20T10:22:36Z</time>
      </trkpt>
      <trkpt lat="45.89014" lon="4.74962">
        <ele>199</ele>
        <time>2017-10-20T10:22:38Z</time>
      </trkpt>
      <trkpt lat="45.89013" lon="4.74967">
        <ele>199</ele>
        <time>2017-10-20T10:22:39Z</time>
      </trkpt>
      <trkpt lat="45.89012" lon="4.74978">
        <ele>199</ele>
        <time>2017-10-20T10:22:41Z</time>
      </trkpt>
      <trkpt lat="45.89012" lon="4.74983">
        <ele>199</ele>
        <time>2017-10-20T10:22:42Z</time>
      </trkpt>
      <trkpt lat="45.89013" lon="4.74992">
        <ele>199</ele>
        <time>2017-10-20T10:22:44Z</time>
      </trkpt>
      <trkpt lat="45.89013" lon="4.74997">
        <ele>199</ele>
        <time>2017-10-20T10:22:45Z</time>
      </trkpt>
      <trkpt lat="45.89014" lon="4.75009">
        <ele>199</ele>
        <time>2017-10-20T10:22:48Z</time>
      </trkpt>
      <trkpt lat="45.89015" lon="4.75014">
        <ele>199</ele>
        <time>2017-10-20T10:22:49Z</time>
      </trkpt>
      <trkpt lat="45.89016" lon="4.75026">
        <ele>199</ele>
        <time>2017-10-20T10:22:51Z</time>
      </trkpt>
      <trkpt lat="45.89016" lon="4.75031">
        <ele>199</ele>
        <time>2017-10-20T10:22:52Z</time>
      </trkpt>
      <trkpt lat="45.89017" lon="4.7504">
        <ele>199</ele>
        <time>2017-10-20T10:22:54Z</time>
      </trkpt>
      <trkpt lat="45.89017" lon="4.75045">
        <ele>199</ele>
        <time>2017-10-20T10:22:55Z</time>
      </trkpt>
      <trkpt lat="45.8902" lon="4.75057">
        <ele>199</ele>
        <time>2017-10-20T10:22:58Z</time>
      </trkpt>
      <trkpt lat="45.89021" lon="4.75061">
        <ele>199</ele>
        <time>2017-10-20T10:22:59Z</time>
      </trkpt>
      <trkpt lat="45.89026" lon="4.7507">
        <ele>199</ele>
        <time>2017-10-20T10:23:01Z</time>
      </trkpt>
      <trkpt lat="45.89028" lon="4.75074">
        <ele>199</ele>
        <time>2017-10-20T10:23:02Z</time>
      </trkpt>
      <trkpt lat="45.89033" lon="4.75081">
        <ele>199</ele>
        <time>2017-10-20T10:23:04Z</time>
      </trkpt>
      <trkpt lat="45.89036" lon="4.75084">
        <ele>199</ele>
        <time>2017-10-20T10:23:05Z</time>
      </trkpt>
      <trkpt lat="45.8904" lon="4.75091">
        <ele>199</ele>
        <time>2017-10-20T10:23:07Z</time>
      </trkpt>
      <trkpt lat="45.89042" lon="4.75094">
        <ele>199</ele>
        <time>2017-10-20T10:23:08Z</time>
      </trkpt>
      <trkpt lat="45.89046" lon="4.75102">
        <ele>199</ele>
        <time>2017-10-20T10:23:10Z</time>
      </trkpt>
      <trkpt lat="45.89049" lon="4.75106">
        <ele>199</ele>
        <time>2017-10-20T10:23:11Z</time>
      </trkpt>
      <trkpt lat="45.89055" lon="4.75116">
        <ele>199</ele>
        <time>2017-10-20T10:23:13Z</time>
      </trkpt>
      <trkpt lat="45.89057" lon="4.7512">
        <ele>199</ele>
        <time>2017-10-20T10:23:14Z</time>
      </trkpt>
      <trkpt lat="45.89061" lon="4.7513">
        <ele>199</ele>
        <time>2017-10-20T10:23:16Z</time>
      </trkpt>
      <trkpt lat="45.89063" lon="4.75135">
        <ele>199</ele>
        <time>2017-10-20T10:23:17Z</time>
      </trkpt>
      <trkpt lat="45.89065" lon="4.75144">
        <ele>199</ele>
        <time>2017-10-20T10:23:19Z</time>
      </trkpt>
      <trkpt lat="45.89065" lon="4.75149">
        <ele>199</ele>
        <time>2017-10-20T10:23:20Z</time>
      </trkpt>
      <trkpt lat="45.89065" lon="4.75158">
        <ele>199</ele>
        <time>2017-10-20T10:23:22Z</time>
      </trkpt>
      <trkpt lat="45.89066" lon="4.75163">
        <ele>199</ele>
        <time>2017-10-20T10:23:23Z</time>
      </trkpt>
      <trkpt lat="45.89066" lon="4.75169">
        <ele>199</ele>
        <time>2017-10-20T10:23:24Z</time>
      </trkpt>
      <trkpt lat="45.89066" lon="4.75176">
        <ele>199</ele>
        <time>2017-10-20T10:23:25Z</time>
      </trkpt>
      <trkpt lat="45.89067" lon="4.75183">
        <ele>199</ele>
        <time>2017-10-20T10:23:26Z</time>
      </trkpt>
      <trkpt lat="45.89067" lon="4.7519">
        <ele>199</ele>
        <time>2017-10-20T10:23:27Z</time>
      </trkpt>
      <trkpt lat="45.89068" lon="4.75201">
        <ele>199</ele>
        <time>2017-10-20T10:23:29Z</time>
      </trkpt>
      <trkpt lat="45.89067" lon="4.75206">
        <ele>199</ele>
        <time>2017-10-20T10:23:30Z</time>
      </trkpt>
      <trkpt lat="45.89066" lon="4.75218">
        <ele>199</ele>
        <time>2017-10-20T10:23:32Z</time>
      </trkpt>
      <trkpt lat="45.89065" lon="4.75225">
        <ele>199</ele>
        <time>2017-10-20T10:23:33Z</time>
      </trkpt>
      <trkpt lat="45.89063" lon="4.75236">
        <ele>199</ele>
        <time>2017-10-20T10:23:35Z</time>
      </trkpt>
      <trkpt lat="45.89063" lon="4.75242">
        <ele>199</ele>
        <time>2017-10-20T10:23:36Z</time>
      </trkpt>
      <trkpt lat="45.89061" lon="4.75254">
        <ele>199</ele>
        <time>2017-10-20T10:23:38Z</time>
      </trkpt>
      <trkpt lat="45.8906" lon="4.7526">
        <ele>199</ele>
        <time>2017-10-20T10:23:39Z</time>
      </trkpt>
      <trkpt lat="45.89061" lon="4.75273">
        <ele>199</ele>
        <time>2017-10-20T10:23:41Z</time>
      </trkpt>
      <trkpt lat="45.8906" lon="4.75278">
        <ele>199</ele>
        <time>2017-10-20T10:23:42Z</time>
      </trkpt>
      <trkpt lat="45.89059" lon="4.75288">
        <ele>199</ele>
        <time>2017-10-20T10:23:44Z</time>
      </trkpt>
      <trkpt lat="45.89057" lon="4.75295">
        <ele>199</ele>
        <time>2017-10-20T10:23:45Z</time>
      </trkpt>
      <trkpt lat="45.89056" lon="4.75302">
        <ele>199</ele>
        <time>2017-10-20T10:23:46Z</time>
      </trkpt>
      <trkpt lat="45.89055" lon="4.75309">
        <ele>199</ele>
        <time>2017-10-20T10:23:47Z</time>
      </trkpt>
      <trkpt lat="45.89053" lon="4.75321">
        <ele>199</ele>
        <time>2017-10-20T10:23:49Z</time>
      </trkpt>
      <trkpt lat="45.89052" lon="4.75326">
        <ele>199</ele>
        <time>2017-10-20T10:23:50Z</time>
      </trkpt>
      <trkpt lat="45.8905" lon="4.75336">
        <ele>199</ele>
        <time>2017-10-20T10:23:52Z</time>
      </trkpt>
      <trkpt lat="45.89049" lon="4.75342">
        <ele>199</ele>
        <time>2017-10-20T10:23:53Z</time>
      </trkpt>
      <trkpt lat="45.89049" lon="4.75349">
        <ele>199</ele>
        <time>2017-10-20T10:23:54Z</time>
      </trkpt>
      <trkpt lat="45.89049" lon="4.75356">
        <ele>199</ele>
        <time>2017-10-20T10:23:55Z</time>
      </trkpt>
      <trkpt lat="45.89048" lon="4.75368">
        <ele>199</ele>
        <time>2017-10-20T10:23:57Z</time>
      </trkpt>
      <trkpt lat="45.89048" lon="4.75373">
        <ele>199</ele>
        <time>2017-10-20T10:23:58Z</time>
      </trkpt>
      <trkpt lat="45.89046" lon="4.75384">
        <ele>199</ele>
        <time>2017-10-20T10:24:00Z</time>
      </trkpt>
      <trkpt lat="45.89046" lon="4.75389">
        <ele>199</ele>
        <time>2017-10-20T10:24:01Z</time>
      </trkpt>
      <trkpt lat="45.89045" lon="4.75397">
        <ele>199</ele>
        <time>2017-10-20T10:24:03Z</time>
      </trkpt>
      <trkpt lat="45.89044" lon="4.75401">
        <ele>199</ele>
        <time>2017-10-20T10:24:04Z</time>
      </trkpt>
      <trkpt lat="45.89039" lon="4.75407">
        <ele>199</ele>
        <time>2017-10-20T10:24:06Z</time>
      </trkpt>
      <trkpt lat="45.89036" lon="4.75409">
        <ele>199</ele>
        <time>2017-10-20T10:24:07Z</time>
      </trkpt>
      <trkpt lat="45.89028" lon="4.75413">
        <ele>199</ele>
        <time>2017-10-20T10:24:09Z</time>
      </trkpt>
      <trkpt lat="45.89024" lon="4.75414">
        <ele>199</ele>
        <time>2017-10-20T10:24:10Z</time>
      </trkpt>
      <trkpt lat="45.89016" lon="4.75418">
        <ele>199</ele>
        <time>2017-10-20T10:24:12Z</time>
      </trkpt>
      <trkpt lat="45.89012" lon="4.75421">
        <ele>199</ele>
        <time>2017-10-20T10:24:13Z</time>
      </trkpt>
      <trkpt lat="45.89005" lon="4.75424">
        <ele>199</ele>
        <time>2017-10-20T10:24:15Z</time>
      </trkpt>
      <trkpt lat="45.89001" lon="4.75426">
        <ele>199</ele>
        <time>2017-10-20T10:24:16Z</time>
      </trkpt>
      <trkpt lat="45.88993" lon="4.75429">
        <ele>199</ele>
        <time>2017-10-20T10:24:19Z</time>
      </trkpt>
      <trkpt lat="45.8899" lon="4.7543">
        <ele>199</ele>
        <time>2017-10-20T10:24:20Z</time>
      </trkpt>
      <trkpt lat="45.88984" lon="4.7543">
        <ele>199</ele>
        <time>2017-10-20T10:24:22Z</time>
      </trkpt>
      <trkpt lat="45.8898" lon="4.7543">
        <ele>199</ele>
        <time>2017-10-20T10:24:23Z</time>
      </trkpt>
      <trkpt lat="45.88972" lon="4.75429">
        <ele>199</ele>
        <time>2017-10-20T10:24:25Z</time>
      </trkpt>
      <trkpt lat="45.88968" lon="4.75429">
        <ele>199</ele>
        <time>2017-10-20T10:24:26Z</time>
      </trkpt>
      <trkpt lat="45.8896" lon="4.75433">
        <ele>199</ele>
        <time>2017-10-20T10:24:28Z</time>
      </trkpt>
      <trkpt lat="45.88957" lon="4.75439">
        <ele>199</ele>
        <time>2017-10-20T10:24:29Z</time>
      </trkpt>
      <trkpt lat="45.88959" lon="4.75448">
        <ele>199</ele>
        <time>2017-10-20T10:24:30Z</time>
      </trkpt>
      <trkpt lat="45.88959" lon="4.75454">
        <ele>199</ele>
        <time>2017-10-20T10:24:31Z</time>
      </trkpt>
      <trkpt lat="45.88959" lon="4.75466">
        <ele>199</ele>
        <time>2017-10-20T10:24:33Z</time>
      </trkpt>
      <trkpt lat="45.8896" lon="4.75471">
        <ele>199</ele>
        <time>2017-10-20T10:24:34Z</time>
      </trkpt>
      <trkpt lat="45.88959" lon="4.75481">
        <ele>199</ele>
        <time>2017-10-20T10:24:36Z</time>
      </trkpt>
      <trkpt lat="45.88959" lon="4.75486">
        <ele>199</ele>
        <time>2017-10-20T10:24:37Z</time>
      </trkpt>
      <trkpt lat="45.8896" lon="4.75499">
        <ele>198</ele>
        <time>2017-10-20T10:24:39Z</time>
      </trkpt>
      <trkpt lat="45.88961" lon="4.75505">
        <ele>198</ele>
        <time>2017-10-20T10:24:40Z</time>
      </trkpt>
      <trkpt lat="45.88961" lon="4.75511">
        <ele>198</ele>
        <time>2017-10-20T10:24:41Z</time>
      </trkpt>
      <trkpt lat="45.88962" lon="4.75518">
        <ele>198</ele>
        <time>2017-10-20T10:24:42Z</time>
      </trkpt>
      <trkpt lat="45.88963" lon="4.75525">
        <ele>198</ele>
        <time>2017-10-20T10:24:43Z</time>
      </trkpt>
      <trkpt lat="45.88963" lon="4.75531">
        <ele>198</ele>
        <time>2017-10-20T10:24:44Z</time>
      </trkpt>
      <trkpt lat="45.88963" lon="4.75538">
        <ele>198</ele>
        <time>2017-10-20T10:24:45Z</time>
      </trkpt>
      <trkpt lat="45.88963" lon="4.75545">
        <ele>198</ele>
        <time>2017-10-20T10:24:46Z</time>
      </trkpt>
      <trkpt lat="45.88963" lon="4.75557">
        <ele>198</ele>
        <time>2017-10-20T10:24:48Z</time>
      </trkpt>
      <trkpt lat="45.88964" lon="4.75563">
        <ele>198</ele>
        <time>2017-10-20T10:24:49Z</time>
      </trkpt>
      <trkpt lat="45.88964" lon="4.75573">
        <ele>198</ele>
        <time>2017-10-20T10:24:51Z</time>
      </trkpt>
      <trkpt lat="45.88964" lon="4.75577">
        <ele>198</ele>
        <time>2017-10-20T10:24:52Z</time>
      </trkpt>
      <trkpt lat="45.88964" lon="4.75583">
        <ele>198</ele>
        <time>2017-10-20T10:24:53Z</time>
      </trkpt>
      <trkpt lat="45.88965" lon="4.75591">
        <ele>198</ele>
        <time>2017-10-20T10:24:54Z</time>
      </trkpt>
      <trkpt lat="45.88966" lon="4.75603">
        <ele>198</ele>
        <time>2017-10-20T10:24:56Z</time>
      </trkpt>
      <trkpt lat="45.88967" lon="4.75609">
        <ele>198</ele>
        <time>2017-10-20T10:24:57Z</time>
      </trkpt>
      <trkpt lat="45.88969" lon="4.75621">
        <ele>198</ele>
        <time>2017-10-20T10:24:59Z</time>
      </trkpt>
      <trkpt lat="45.8897" lon="4.75626">
        <ele>198</ele>
        <time>2017-10-20T10:25:00Z</time>
      </trkpt>
      <trkpt lat="45.88973" lon="4.75635">
        <ele>198</ele>
        <time>2017-10-20T10:25:02Z</time>
      </trkpt>
      <trkpt lat="45.88975" lon="4.75641">
        <ele>198</ele>
        <time>2017-10-20T10:25:03Z</time>
      </trkpt>
      <trkpt lat="45.88978" lon="4.75653">
        <ele>198</ele>
        <time>2017-10-20T10:25:05Z</time>
      </trkpt>
      <trkpt lat="45.8898" lon="4.75659">
        <ele>198</ele>
        <time>2017-10-20T10:25:06Z</time>
      </trkpt>
      <trkpt lat="45.88982" lon="4.75666">
        <ele>198</ele>
        <time>2017-10-20T10:25:07Z</time>
      </trkpt>
      <trkpt lat="45.88983" lon="4.75673">
        <ele>198</ele>
        <time>2017-10-20T10:25:08Z</time>
      </trkpt>
      <trkpt lat="45.88985" lon="4.75679">
        <ele>198</ele>
        <time>2017-10-20T10:25:09Z</time>
      </trkpt>
      <trkpt lat="45.88985" lon="4.75685">
        <ele>198</ele>
        <time>2017-10-20T10:25:10Z</time>
      </trkpt>
      <trkpt lat="45.88987" lon="4.75697">
        <ele>199</ele>
        <time>2017-10-20T10:25:12Z</time>
      </trkpt>
      <trkpt lat="45.88988" lon="4.75703">
        <ele>199</ele>
        <time>2017-10-20T10:25:13Z</time>
      </trkpt>
      <trkpt lat="45.88989" lon="4.75715">
        <ele>198</ele>
        <time>2017-10-20T10:25:15Z</time>
      </trkpt>
      <trkpt lat="45.8899" lon="4.75721">
        <ele>198</ele>
        <time>2017-10-20T10:25:16Z</time>
      </trkpt>
      <trkpt lat="45.88991" lon="4.75727">
        <ele>198</ele>
        <time>2017-10-20T10:25:17Z</time>
      </trkpt>
      <trkpt lat="45.88992" lon="4.75734">
        <ele>198</ele>
        <time>2017-10-20T10:25:18Z</time>
      </trkpt>
      <trkpt lat="45.88993" lon="4.7574">
        <ele>198</ele>
        <time>2017-10-20T10:25:19Z</time>
      </trkpt>
      <trkpt lat="45.88995" lon="4.75748">
        <ele>198</ele>
        <time>2017-10-20T10:25:20Z</time>
      </trkpt>
      <trkpt lat="45.88996" lon="4.75755">
        <ele>198</ele>
        <time>2017-10-20T10:25:21Z</time>
      </trkpt>
      <trkpt lat="45.88998" lon="4.75763">
        <ele>198</ele>
        <time>2017-10-20T10:25:22Z</time>
      </trkpt>
      <trkpt lat="45.89" lon="4.7577">
        <ele>198</ele>
        <time>2017-10-20T10:25:23Z</time>
      </trkpt>
      <trkpt lat="45.89001" lon="4.75776">
        <ele>199</ele>
        <time>2017-10-20T10:25:24Z</time>
      </trkpt>
      <trkpt lat="45.89002" lon="4.75782">
        <ele>199</ele>
        <time>2017-10-20T10:25:25Z</time>
      </trkpt>
      <trkpt lat="45.89003" lon="4.75789">
        <ele>199</ele>
        <time>2017-10-20T10:25:26Z</time>
      </trkpt>
      <trkpt lat="45.89007" lon="4.75798">
        <ele>199</ele>
        <time>2017-10-20T10:25:28Z</time>
      </trkpt>
      <trkpt lat="45.89008" lon="4.75805">
        <ele>199</ele>
        <time>2017-10-20T10:25:29Z</time>
      </trkpt>
      <trkpt lat="45.89011" lon="4.75816">
        <ele>199</ele>
        <time>2017-10-20T10:25:31Z</time>
      </trkpt>
      <trkpt lat="45.89012" lon="4.75822">
        <ele>199</ele>
        <time>2017-10-20T10:25:32Z</time>
      </trkpt>
      <trkpt lat="45.89012" lon="4.75828">
        <ele>199</ele>
        <time>2017-10-20T10:25:33Z</time>
      </trkpt>
      <trkpt lat="45.89013" lon="4.75835">
        <ele>200</ele>
        <time>2017-10-20T10:25:34Z</time>
      </trkpt>
      <trkpt lat="45.89014" lon="4.75843">
        <ele>200</ele>
        <time>2017-10-20T10:25:35Z</time>
      </trkpt>
      <trkpt lat="45.89014" lon="4.7585">
        <ele>200</ele>
        <time>2017-10-20T10:25:36Z</time>
      </trkpt>
      <trkpt lat="45.89013" lon="4.75857">
        <ele>200</ele>
        <time>2017-10-20T10:25:37Z</time>
      </trkpt>
      <trkpt lat="45.89012" lon="4.75863">
        <ele>200</ele>
        <time>2017-10-20T10:25:38Z</time>
      </trkpt>
      <trkpt lat="45.89007" lon="4.75874">
        <ele>200</ele>
        <time>2017-10-20T10:25:40Z</time>
      </trkpt>
      <trkpt lat="45.89005" lon="4.75879">
        <ele>200</ele>
        <time>2017-10-20T10:25:41Z</time>
      </trkpt>
      <trkpt lat="45.89" lon="4.7589">
        <ele>200</ele>
        <time>2017-10-20T10:25:43Z</time>
      </trkpt>
      <trkpt lat="45.88999" lon="4.75895">
        <ele>199</ele>
        <time>2017-10-20T10:25:44Z</time>
      </trkpt>
      <trkpt lat="45.88995" lon="4.75905">
        <ele>199</ele>
        <time>2017-10-20T10:25:46Z</time>
      </trkpt>
      <trkpt lat="45.88993" lon="4.7591">
        <ele>200</ele>
        <time>2017-10-20T10:25:47Z</time>
      </trkpt>
      <trkpt lat="45.8899" lon="4.75921">
        <ele>200</ele>
        <time>2017-10-20T10:25:49Z</time>
      </trkpt>
      <trkpt lat="45.88988" lon="4.75926">
        <ele>200</ele>
        <time>2017-10-20T10:25:50Z</time>
      </trkpt>
      <trkpt lat="45.88986" lon="4.75936">
        <ele>199</ele>
        <time>2017-10-20T10:25:52Z</time>
      </trkpt>
      <trkpt lat="45.88985" lon="4.75941">
        <ele>199</ele>
        <time>2017-10-20T10:25:53Z</time>
      </trkpt>
      <trkpt lat="45.88985" lon="4.75952">
        <ele>199</ele>
        <time>2017-10-20T10:25:56Z</time>
      </trkpt>
      <trkpt lat="45.88986" lon="4.75956">
        <ele>199</ele>
        <time>2017-10-20T10:25:57Z</time>
      </trkpt>
      <trkpt lat="45.8899" lon="4.75966">
        <ele>199</ele>
        <time>2017-10-20T10:25:59Z</time>
      </trkpt>
      <trkpt lat="45.88992" lon="4.75971">
        <ele>199</ele>
        <time>2017-10-20T10:26:00Z</time>
      </trkpt>
      <trkpt lat="45.88995" lon="4.75983">
        <ele>200</ele>
        <time>2017-10-20T10:26:02Z</time>
      </trkpt>
      <trkpt lat="45.88997" lon="4.75988">
        <ele>200</ele>
        <time>2017-10-20T10:26:03Z</time>
      </trkpt>
      <trkpt lat="45.89002" lon="4.75999">
        <ele>200</ele>
        <time>2017-10-20T10:26:05Z</time>
      </trkpt>
      <trkpt lat="45.89004" lon="4.76004">
        <ele>200</ele>
        <time>2017-10-20T10:26:06Z</time>
      </trkpt>
      <trkpt lat="45.89009" lon="4.76014">
        <ele>200</ele>
        <time>2017-10-20T10:26:08Z</time>
      </trkpt>
      <trkpt lat="45.89011" lon="4.76019">
        <ele>200</ele>
        <time>2017-10-20T10:26:09Z</time>
      </trkpt>
      <trkpt lat="45.89016" lon="4.76028">
        <ele>199</ele>
        <time>2017-10-20T10:26:11Z</time>
      </trkpt>
      <trkpt lat="45.89019" lon="4.76033">
        <ele>199</ele>
        <time>2017-10-20T10:26:12Z</time>
      </trkpt>
      <trkpt lat="45.89021" lon="4.76039">
        <ele>199</ele>
        <time>2017-10-20T10:26:13Z</time>
      </trkpt>
      <trkpt lat="45.89025" lon="4.76046">
        <ele>199</ele>
        <time>2017-10-20T10:26:14Z</time>
      </trkpt>
      <trkpt lat="45.89028" lon="4.76051">
        <ele>199</ele>
        <time>2017-10-20T10:26:15Z</time>
      </trkpt>
      <trkpt lat="45.89031" lon="4.76056">
        <ele>199</ele>
        <time>2017-10-20T10:26:16Z</time>
      </trkpt>
      <trkpt lat="45.89033" lon="4.76062">
        <ele>199</ele>
        <time>2017-10-20T10:26:17Z</time>
      </trkpt>
      <trkpt lat="45.89036" lon="4.76068">
        <ele>199</ele>
        <time>2017-10-20T10:26:18Z</time>
      </trkpt>
      <trkpt lat="45.89039" lon="4.76079">
        <ele>199</ele>
        <time>2017-10-20T10:26:20Z</time>
      </trkpt>
      <trkpt lat="45.8904" lon="4.76084">
        <ele>198</ele>
        <time>2017-10-20T10:26:21Z</time>
      </trkpt>
      <trkpt lat="45.89044" lon="4.76092">
        <ele>198</ele>
        <time>2017-10-20T10:26:23Z</time>
      </trkpt>
      <trkpt lat="45.89047" lon="4.76097">
        <ele>197</ele>
        <time>2017-10-20T10:26:24Z</time>
      </trkpt>
      <trkpt lat="45.8905" lon="4.76101">
        <ele>197</ele>
        <time>2017-10-20T10:26:25Z</time>
      </trkpt>
      <trkpt lat="45.89053" lon="4.76106">
        <ele>197</ele>
        <time>2017-10-20T10:26:26Z</time>
      </trkpt>
      <trkpt lat="45.89055" lon="4.76111">
        <ele>197</ele>
        <time>2017-10-20T10:26:27Z</time>
      </trkpt>
      <trkpt lat="45.89058" lon="4.76116">
        <ele>197</ele>
        <time>2017-10-20T10:26:28Z</time>
      </trkpt>
      <trkpt lat="45.89061" lon="4.76122">
        <ele>197</ele>
        <time>2017-10-20T10:26:29Z</time>
      </trkpt>
      <trkpt lat="45.89064" lon="4.76127">
        <ele>197</ele>
        <time>2017-10-20T10:26:30Z</time>
      </trkpt>
      <trkpt lat="45.89069" lon="4.76136">
        <ele>197</ele>
        <time>2017-10-20T10:26:32Z</time>
      </trkpt>
      <trkpt lat="45.89071" lon="4.76141">
        <ele>197</ele>
        <time>2017-10-20T10:26:33Z</time>
      </trkpt>
      <trkpt lat="45.89076" lon="4.7615">
        <ele>196</ele>
        <time>2017-10-20T10:26:35Z</time>
      </trkpt>
      <trkpt lat="45.89078" lon="4.76155">
        <ele>196</ele>
        <time>2017-10-20T10:26:36Z</time>
      </trkpt>
      <trkpt lat="45.89083" lon="4.76164">
        <ele>195</ele>
        <time>2017-10-20T10:26:38Z</time>
      </trkpt>
      <trkpt lat="45.89085" lon="4.76169">
        <ele>195</ele>
        <time>2017-10-20T10:26:39Z</time>
      </trkpt>
      <trkpt lat="45.89089" lon="4.76177">
        <ele>195</ele>
        <time>2017-10-20T10:26:41Z</time>
      </trkpt>
      <trkpt lat="45.89092" lon="4.7618">
        <ele>196</ele>
        <time>2017-10-20T10:26:42Z</time>
      </trkpt>
      <trkpt lat="45.89096" lon="4.76187">
        <ele>196</ele>
        <time>2017-10-20T10:26:44Z</time>
      </trkpt>
      <trkpt lat="45.89098" lon="4.76191">
        <ele>196</ele>
        <time>2017-10-20T10:26:45Z</time>
      </trkpt>
      <trkpt lat="45.89103" lon="4.76199">
        <ele>196</ele>
        <time>2017-10-20T10:26:47Z</time>
      </trkpt>
      <trkpt lat="45.89106" lon="4.76204">
        <ele>196</ele>
        <time>2017-10-20T10:26:48Z</time>
      </trkpt>
      <trkpt lat="45.8911" lon="4.76209">
        <ele>196</ele>
        <time>2017-10-20T10:26:49Z</time>
      </trkpt>
      <trkpt lat="45.8911" lon="4.76216">
        <ele>196</ele>
        <time>2017-10-20T10:26:50Z</time>
      </trkpt>
      <trkpt lat="45.89113" lon="4.76221">
        <ele>196</ele>
        <time>2017-10-20T10:26:51Z</time>
      </trkpt>
      <trkpt lat="45.89115" lon="4.76227">
        <ele>196</ele>
        <time>2017-10-20T10:26:52Z</time>
      </trkpt>
      <trkpt lat="45.8912" lon="4.76238">
        <ele>196</ele>
        <time>2017-10-20T10:26:54Z</time>
      </trkpt>
      <trkpt lat="45.89121" lon="4.76243">
        <ele>196</ele>
        <time>2017-10-20T10:26:55Z</time>
      </trkpt>
      <trkpt lat="45.89126" lon="4.76252">
        <ele>197</ele>
        <time>2017-10-20T10:26:57Z</time>
      </trkpt>
      <trkpt lat="45.89127" lon="4.76257">
        <ele>197</ele>
        <time>2017-10-20T10:26:58Z</time>
      </trkpt>
      <trkpt lat="45.89131" lon="4.76265">
        <ele>197</ele>
        <time>2017-10-20T10:27:00Z</time>
      </trkpt>
      <trkpt lat="45.89133" lon="4.76269">
        <ele>197</ele>
        <time>2017-10-20T10:27:01Z</time>
      </trkpt>
      <trkpt lat="45.89137" lon="4.76278">
        <ele>196</ele>
        <time>2017-10-20T10:27:03Z</time>
      </trkpt>
      <trkpt lat="45.8914" lon="4.76283">
        <ele>196</ele>
        <time>2017-10-20T10:27:04Z</time>
      </trkpt>
      <trkpt lat="45.89143" lon="4.76289">
        <ele>196</ele>
        <time>2017-10-20T10:27:05Z</time>
      </trkpt>
      <trkpt lat="45.89147" lon="4.76294">
        <ele>196</ele>
        <time>2017-10-20T10:27:06Z</time>
      </trkpt>
      <trkpt lat="45.89152" lon="4.76303">
        <ele>196</ele>
        <time>2017-10-20T10:27:08Z</time>
      </trkpt>
      <trkpt lat="45.89155" lon="4.76308">
        <ele>196</ele>
        <time>2017-10-20T10:27:09Z</time>
      </trkpt>
      <trkpt lat="45.8916" lon="4.76315">
        <ele>196</ele>
        <time>2017-10-20T10:27:11Z</time>
      </trkpt>
      <trkpt lat="45.89162" lon="4.76319">
        <ele>196</ele>
        <time>2017-10-20T10:27:12Z</time>
      </trkpt>
      <trkpt lat="45.89167" lon="4.76326">
        <ele>195</ele>
        <time>2017-10-20T10:27:14Z</time>
      </trkpt>
      <trkpt lat="45.89169" lon="4.76331">
        <ele>195</ele>
        <time>2017-10-20T10:27:15Z</time>
      </trkpt>
      <trkpt lat="45.89173" lon="4.76341">
        <ele>195</ele>
        <time>2017-10-20T10:27:17Z</time>
      </trkpt>
      <trkpt lat="45.89175" lon="4.76345">
        <ele>195</ele>
        <time>2017-10-20T10:27:18Z</time>
      </trkpt>
      <trkpt lat="45.89179" lon="4.76356">
        <ele>194</ele>
        <time>2017-10-20T10:27:20Z</time>
      </trkpt>
      <trkpt lat="45.89181" lon="4.76361">
        <ele>194</ele>
        <time>2017-10-20T10:27:21Z</time>
      </trkpt>
      <trkpt lat="45.89185" lon="4.7637">
        <ele>194</ele>
        <time>2017-10-20T10:27:23Z</time>
      </trkpt>
      <trkpt lat="45.89187" lon="4.76374">
        <ele>194</ele>
        <time>2017-10-20T10:27:24Z</time>
      </trkpt>
      <trkpt lat="45.89191" lon="4.76382">
        <ele>194</ele>
        <time>2017-10-20T10:27:26Z</time>
      </trkpt>
      <trkpt lat="45.89193" lon="4.76386">
        <ele>194</ele>
        <time>2017-10-20T10:27:27Z</time>
      </trkpt>
      <trkpt lat="45.89197" lon="4.76394">
        <ele>194</ele>
        <time>2017-10-20T10:27:29Z</time>
      </trkpt>
      <trkpt lat="45.89199" lon="4.76398">
        <ele>194</ele>
        <time>2017-10-20T10:27:30Z</time>
      </trkpt>
      <trkpt lat="45.89202" lon="4.76408">
        <ele>194</ele>
        <time>2017-10-20T10:27:32Z</time>
      </trkpt>
      <trkpt lat="45.89204" lon="4.76413">
        <ele>194</ele>
        <time>2017-10-20T10:27:33Z</time>
      </trkpt>
      <trkpt lat="45.89208" lon="4.76421">
        <ele>193</ele>
        <time>2017-10-20T10:27:35Z</time>
      </trkpt>
      <trkpt lat="45.89209" lon="4.76425">
        <ele>194</ele>
        <time>2017-10-20T10:27:36Z</time>
      </trkpt>
      <trkpt lat="45.89213" lon="4.76433">
        <ele>194</ele>
        <time>2017-10-20T10:27:38Z</time>
      </trkpt>
      <trkpt lat="45.89214" lon="4.76437">
        <ele>194</ele>
        <time>2017-10-20T10:27:39Z</time>
      </trkpt>
      <trkpt lat="45.89218" lon="4.76445">
        <ele>194</ele>
        <time>2017-10-20T10:27:41Z</time>
      </trkpt>
      <trkpt lat="45.8922" lon="4.7645">
        <ele>194</ele>
        <time>2017-10-20T10:27:42Z</time>
      </trkpt>
      <trkpt lat="45.89226" lon="4.76458">
        <ele>194</ele>
        <time>2017-10-20T10:27:44Z</time>
      </trkpt>
      <trkpt lat="45.89229" lon="4.76462">
        <ele>193</ele>
        <time>2017-10-20T10:27:45Z</time>
      </trkpt>
      <trkpt lat="45.89236" lon="4.7647">
        <ele>193</ele>
        <time>2017-10-20T10:27:47Z</time>
      </trkpt>
      <trkpt lat="45.89239" lon="4.76474">
        <ele>193</ele>
        <time>2017-10-20T10:27:48Z</time>
      </trkpt>
      <trkpt lat="45.89245" lon="4.7648">
        <ele>193</ele>
        <time>2017-10-20T10:27:50Z</time>
      </trkpt>
      <trkpt lat="45.89248" lon="4.76483">
        <ele>193</ele>
        <time>2017-10-20T10:27:51Z</time>
      </trkpt>
      <trkpt lat="45.89253" lon="4.76487">
        <ele>193</ele>
        <time>2017-10-20T10:27:53Z</time>
      </trkpt>
      <trkpt lat="45.89256" lon="4.7649">
        <ele>193</ele>
        <time>2017-10-20T10:27:54Z</time>
      </trkpt>
      <trkpt lat="45.89261" lon="4.76494">
        <ele>193</ele>
        <time>2017-10-20T10:27:56Z</time>
      </trkpt>
      <trkpt lat="45.89264" lon="4.76495">
        <ele>193</ele>
        <time>2017-10-20T10:27:57Z</time>
      </trkpt>
      <trkpt lat="45.8927" lon="4.76497">
        <ele>193</ele>
        <time>2017-10-20T10:27:59Z</time>
      </trkpt>
      <trkpt lat="45.89274" lon="4.76497">
        <ele>193</ele>
        <time>2017-10-20T10:28:00Z</time>
      </trkpt>
      <trkpt lat="45.89282" lon="4.76498">
        <ele>193</ele>
        <time>2017-10-20T10:28:02Z</time>
      </trkpt>
      <trkpt lat="45.89285" lon="4.76499">
        <ele>193</ele>
        <time>2017-10-20T10:28:03Z</time>
      </trkpt>
      <trkpt lat="45.89292" lon="4.765">
        <ele>194</ele>
        <time>2017-10-20T10:28:05Z</time>
      </trkpt>
      <trkpt lat="45.89296" lon="4.76501">
        <ele>194</ele>
        <time>2017-10-20T10:28:06Z</time>
      </trkpt>
      <trkpt lat="45.89302" lon="4.76503">
        <ele>194</ele>
        <time>2017-10-20T10:28:08Z</time>
      </trkpt>
      <trkpt lat="45.89305" lon="4.76504">
        <ele>194</ele>
        <time>2017-10-20T10:28:09Z</time>
      </trkpt>
      <trkpt lat="45.89313" lon="4.76506">
        <ele>194</ele>
        <time>2017-10-20T10:28:11Z</time>
      </trkpt>
      <trkpt lat="45.89316" lon="4.76507">
        <ele>194</ele>
        <time>2017-10-20T10:28:12Z</time>
      </trkpt>
      <trkpt lat="45.89325" lon="4.7651">
        <ele>194</ele>
        <time>2017-10-20T10:28:14Z</time>
      </trkpt>
      <trkpt lat="45.89329" lon="4.76511">
        <ele>194</ele>
        <time>2017-10-20T10:28:15Z</time>
      </trkpt>
      <trkpt lat="45.89337" lon="4.76515">
        <ele>194</ele>
        <time>2017-10-20T10:28:17Z</time>
      </trkpt>
      <trkpt lat="45.89341" lon="4.76516">
        <ele>194</ele>
        <time>2017-10-20T10:28:18Z</time>
      </trkpt>
      <trkpt lat="45.89348" lon="4.76519">
        <ele>194</ele>
        <time>2017-10-20T10:28:20Z</time>
      </trkpt>
      <trkpt lat="45.89351" lon="4.7652">
        <ele>194</ele>
        <time>2017-10-20T10:28:21Z</time>
      </trkpt>
      <trkpt lat="45.89358" lon="4.76525">
        <ele>194</ele>
        <time>2017-10-20T10:28:24Z</time>
      </trkpt>
      <trkpt lat="45.89361" lon="4.76527">
        <ele>194</ele>
        <time>2017-10-20T10:28:25Z</time>
      </trkpt>
      <trkpt lat="45.8937" lon="4.76531">
        <ele>194</ele>
        <time>2017-10-20T10:28:28Z</time>
      </trkpt>
      <trkpt lat="45.89372" lon="4.76532">
        <ele>194</ele>
        <time>2017-10-20T10:28:29Z</time>
      </trkpt>
      <trkpt lat="45.89379" lon="4.76531">
        <ele>194</ele>
        <time>2017-10-20T10:28:32Z</time>
      </trkpt>
      <trkpt lat="45.89382" lon="4.76532">
        <ele>194</ele>
        <time>2017-10-20T10:28:33Z</time>
      </trkpt>
      <trkpt lat="45.89389" lon="4.76534">
        <ele>194</ele>
        <time>2017-10-20T10:28:35Z</time>
      </trkpt>
      <trkpt lat="45.89392" lon="4.76535">
        <ele>194</ele>
        <time>2017-10-20T10:28:36Z</time>
      </trkpt>
      <trkpt lat="45.89399" lon="4.76537">
        <ele>194</ele>
        <time>2017-10-20T10:28:38Z</time>
      </trkpt>
      <trkpt lat="45.89403" lon="4.76539">
        <ele>194</ele>
        <time>2017-10-20T10:28:39Z</time>
      </trkpt>
      <trkpt lat="45.8941" lon="4.76542">
        <ele>194</ele>
        <time>2017-10-20T10:28:41Z</time>
      </trkpt>
      <trkpt lat="45.89413" lon="4.76543">
        <ele>194</ele>
        <time>2017-10-20T10:28:42Z</time>
      </trkpt>
      <trkpt lat="45.89419" lon="4.76546">
        <ele>194</ele>
        <time>2017-10-20T10:28:44Z</time>
      </trkpt>
      <trkpt lat="45.89422" lon="4.76547">
        <ele>194</ele>
        <time>2017-10-20T10:28:45Z</time>
      </trkpt>
      <trkpt lat="45.89428" lon="4.76553">
        <ele>194</ele>
        <time>2017-10-20T10:28:48Z</time>
      </trkpt>
      <trkpt lat="45.8943" lon="4.76555">
        <ele>194</ele>
        <time>2017-10-20T10:28:49Z</time>
      </trkpt>
      <trkpt lat="45.89436" lon="4.76562">
        <ele>194</ele>
        <time>2017-10-20T10:28:52Z</time>
      </trkpt>
      <trkpt lat="45.89438" lon="4.76564">
        <ele>194</ele>
        <time>2017-10-20T10:28:53Z</time>
      </trkpt>
      <trkpt lat="45.89445" lon="4.76568">
        <ele>194</ele>
        <time>2017-10-20T10:28:56Z</time>
      </trkpt>
      <trkpt lat="45.89447" lon="4.76569">
        <ele>194</ele>
        <time>2017-10-20T10:28:57Z</time>
      </trkpt>
      <trkpt lat="45.89453" lon="4.76568">
        <ele>194</ele>
        <time>2017-10-20T10:28:59Z</time>
      </trkpt>
      <trkpt lat="45.89456" lon="4.76567">
        <ele>194</ele>
        <time>2017-10-20T10:29:00Z</time>
      </trkpt>
      <trkpt lat="45.89464" lon="4.76562">
        <ele>194</ele>
        <time>2017-10-20T10:29:03Z</time>
      </trkpt>
      <trkpt lat="45.89467" lon="4.76561">
        <ele>194</ele>
        <time>2017-10-20T10:29:04Z</time>
      </trkpt>
      <trkpt lat="45.89475" lon="4.76559">
        <ele>194</ele>
        <time>2017-10-20T10:29:07Z</time>
      </trkpt>
      <trkpt lat="45.89477" lon="4.76558">
        <ele>194</ele>
        <time>2017-10-20T10:29:08Z</time>
      </trkpt>
      <trkpt lat="45.89485" lon="4.76557">
        <ele>194</ele>
        <time>2017-10-20T10:29:11Z</time>
      </trkpt>
      <trkpt lat="45.89488" lon="4.76556">
        <ele>194</ele>
        <time>2017-10-20T10:29:12Z</time>
      </trkpt>
      <trkpt lat="45.89495" lon="4.76556">
        <ele>194</ele>
        <time>2017-10-20T10:29:15Z</time>
      </trkpt>
      <trkpt lat="45.89497" lon="4.76556">
        <ele>194</ele>
        <time>2017-10-20T10:29:16Z</time>
      </trkpt>
      <trkpt lat="45.89504" lon="4.76554">
        <ele>194</ele>
        <time>2017-10-20T10:29:19Z</time>
      </trkpt>
      <trkpt lat="45.89507" lon="4.76553">
        <ele>194</ele>
        <time>2017-10-20T10:29:20Z</time>
      </trkpt>
      <trkpt lat="45.89513" lon="4.76551">
        <ele>194</ele>
        <time>2017-10-20T10:29:22Z</time>
      </trkpt>
      <trkpt lat="45.89516" lon="4.7655">
        <ele>194</ele>
        <time>2017-10-20T10:29:23Z</time>
      </trkpt>
      <trkpt lat="45.89522" lon="4.76547">
        <ele>194</ele>
        <time>2017-10-20T10:29:25Z</time>
      </trkpt>
      <trkpt lat="45.89525" lon="4.76545">
        <ele>194</ele>
        <time>2017-10-20T10:29:26Z</time>
      </trkpt>
      <trkpt lat="45.89533" lon="4.76541">
        <ele>194</ele>
        <time>2017-10-20T10:29:29Z</time>
      </trkpt>
      <trkpt lat="45.89536" lon="4.7654">
        <ele>194</ele>
        <time>2017-10-20T10:29:30Z</time>
      </trkpt>
      <trkpt lat="45.89544" lon="4.76538">
        <ele>194</ele>
        <time>2017-10-20T10:29:33Z</time>
      </trkpt>
      <trkpt lat="45.89547" lon="4.76538">
        <ele>194</ele>
        <time>2017-10-20T10:29:34Z</time>
      </trkpt>
      <trkpt lat="45.89555" lon="4.76538">
        <ele>194</ele>
        <time>2017-10-20T10:29:36Z</time>
      </trkpt>
      <trkpt lat="45.89558" lon="4.76539">
        <ele>194</ele>
        <time>2017-10-20T10:29:37Z</time>
      </trkpt>
      <trkpt lat="45.89565" lon="4.76539">
        <ele>194</ele>
        <time>2017-10-20T10:29:39Z</time>
      </trkpt>
      <trkpt lat="45.89568" lon="4.7654">
        <ele>194</ele>
        <time>2017-10-20T10:29:40Z</time>
      </trkpt>
      <trkpt lat="45.89574" lon="4.76541">
        <ele>194</ele>
        <time>2017-10-20T10:29:42Z</time>
      </trkpt>
      <trkpt lat="45.89577" lon="4.76541">
        <ele>195</ele>
        <time>2017-10-20T10:29:43Z</time>
      </trkpt>
      <trkpt lat="45.89585" lon="4.7654">
        <ele>195</ele>
        <time>2017-10-20T10:29:46Z</time>
      </trkpt>
      <trkpt lat="45.89588" lon="4.76539">
        <ele>194</ele>
        <time>2017-10-20T10:29:47Z</time>
      </trkpt>
      <trkpt lat="45.89593" lon="4.76534">
        <ele>194</ele>
        <time>2017-10-20T10:29:49Z</time>
      </trkpt>
      <trkpt lat="45.89595" lon="4.76531">
        <ele>194</ele>
        <time>2017-10-20T10:29:50Z</time>
      </trkpt>
      <trkpt lat="45.89599" lon="4.76521">
        <ele>194</ele>
        <time>2017-10-20T10:29:53Z</time>
      </trkpt>
      <trkpt lat="45.89601" lon="4.76518">
        <ele>194</ele>
        <time>2017-10-20T10:29:54Z</time>
      </trkpt>
      <trkpt lat="45.89604" lon="4.76511">
        <ele>194</ele>
        <time>2017-10-20T10:29:56Z</time>
      </trkpt>
      <trkpt lat="45.89606" lon="4.76506">
        <ele>194</ele>
        <time>2017-10-20T10:29:57Z</time>
      </trkpt>
      <trkpt lat="45.89608" lon="4.76498">
        <ele>194</ele>
        <time>2017-10-20T10:29:59Z</time>
      </trkpt>
      <trkpt lat="45.8961" lon="4.76494">
        <ele>194</ele>
        <time>2017-10-20T10:30:00Z</time>
      </trkpt>
      <trkpt lat="45.89613" lon="4.76485">
        <ele>194</ele>
        <time>2017-10-20T10:30:03Z</time>
      </trkpt>
      <trkpt lat="45.89614" lon="4.76481">
        <ele>194</ele>
        <time>2017-10-20T10:30:04Z</time>
      </trkpt>
      <trkpt lat="45.89617" lon="4.7647">
        <ele>194</ele>
        <time>2017-10-20T10:30:07Z</time>
      </trkpt>
      <trkpt lat="45.89618" lon="4.76467">
        <ele>194</ele>
        <time>2017-10-20T10:30:08Z</time>
      </trkpt>
      <trkpt lat="45.89621" lon="4.7646">
        <ele>194</ele>
        <time>2017-10-20T10:30:10Z</time>
      </trkpt>
      <trkpt lat="45.89622" lon="4.76455">
        <ele>195</ele>
        <time>2017-10-20T10:30:11Z</time>
      </trkpt>
      <trkpt lat="45.89625" lon="4.76447">
        <ele>195</ele>
        <time>2017-10-20T10:30:13Z</time>
      </trkpt>
      <trkpt lat="45.89627" lon="4.76444">
        <ele>195</ele>
        <time>2017-10-20T10:30:14Z</time>
      </trkpt>
      <trkpt lat="45.89629" lon="4.76436">
        <ele>195</ele>
        <time>2017-10-20T10:30:16Z</time>
      </trkpt>
      <trkpt lat="45.89631" lon="4.76432">
        <ele>195</ele>
        <time>2017-10-20T10:30:17Z</time>
      </trkpt>
      <trkpt lat="45.89634" lon="4.76423">
        <ele>195</ele>
        <time>2017-10-20T10:30:19Z</time>
      </trkpt>
      <trkpt lat="45.89635" lon="4.76419">
        <ele>195</ele>
        <time>2017-10-20T10:30:20Z</time>
      </trkpt>
      <trkpt lat="45.89638" lon="4.76409">
        <ele>195</ele>
        <time>2017-10-20T10:30:23Z</time>
      </trkpt>
      <trkpt lat="45.89639" lon="4.76405">
        <ele>195</ele>
        <time>2017-10-20T10:30:24Z</time>
      </trkpt>
      <trkpt lat="45.89643" lon="4.76396">
        <ele>195</ele>
        <time>2017-10-20T10:30:26Z</time>
      </trkpt>
      <trkpt lat="45.89644" lon="4.76392">
        <ele>195</ele>
        <time>2017-10-20T10:30:27Z</time>
      </trkpt>
      <trkpt lat="45.89648" lon="4.76384">
        <ele>195</ele>
        <time>2017-10-20T10:30:29Z</time>
      </trkpt>
      <trkpt lat="45.89649" lon="4.76379">
        <ele>195</ele>
        <time>2017-10-20T10:30:30Z</time>
      </trkpt>
      <trkpt lat="45.89653" lon="4.76372">
        <ele>195</ele>
        <time>2017-10-20T10:30:32Z</time>
      </trkpt>
      <trkpt lat="45.89655" lon="4.76369">
        <ele>195</ele>
        <time>2017-10-20T10:30:33Z</time>
      </trkpt>
      <trkpt lat="45.89659" lon="4.7636">
        <ele>195</ele>
        <time>2017-10-20T10:30:35Z</time>
      </trkpt>
      <trkpt lat="45.8966" lon="4.76355">
        <ele>195</ele>
        <time>2017-10-20T10:30:36Z</time>
      </trkpt>
      <trkpt lat="45.89664" lon="4.76343">
        <ele>195</ele>
        <time>2017-10-20T10:30:38Z</time>
      </trkpt>
      <trkpt lat="45.89665" lon="4.76338">
        <ele>195</ele>
        <time>2017-10-20T10:30:39Z</time>
      </trkpt>
      <trkpt lat="45.89668" lon="4.76329">
        <ele>195</ele>
        <time>2017-10-20T10:30:41Z</time>
      </trkpt>
      <trkpt lat="45.89669" lon="4.76324">
        <ele>195</ele>
        <time>2017-10-20T10:30:42Z</time>
      </trkpt>
      <trkpt lat="45.89672" lon="4.76316">
        <ele>195</ele>
        <time>2017-10-20T10:30:44Z</time>
      </trkpt>
      <trkpt lat="45.89673" lon="4.76311">
        <ele>195</ele>
        <time>2017-10-20T10:30:45Z</time>
      </trkpt>
      <trkpt lat="45.89677" lon="4.76301">
        <ele>195</ele>
        <time>2017-10-20T10:30:47Z</time>
      </trkpt>
      <trkpt lat="45.89679" lon="4.76295">
        <ele>195</ele>
        <time>2017-10-20T10:30:48Z</time>
      </trkpt>
      <trkpt lat="45.89683" lon="4.76285">
        <ele>195</ele>
        <time>2017-10-20T10:30:50Z</time>
      </trkpt>
      <trkpt lat="45.89684" lon="4.76281">
        <ele>195</ele>
        <time>2017-10-20T10:30:51Z</time>
      </trkpt>
      <trkpt lat="45.89687" lon="4.76272">
        <ele>195</ele>
        <time>2017-10-20T10:30:53Z</time>
      </trkpt>
      <trkpt lat="45.89688" lon="4.76268">
        <ele>195</ele>
        <time>2017-10-20T10:30:54Z</time>
      </trkpt>
      <trkpt lat="45.89691" lon="4.76259">
        <ele>195</ele>
        <time>2017-10-20T10:30:56Z</time>
      </trkpt>
      <trkpt lat="45.89693" lon="4.76255">
        <ele>195</ele>
        <time>2017-10-20T10:30:57Z</time>
      </trkpt>
      <trkpt lat="45.89697" lon="4.76244">
        <ele>195</ele>
        <time>2017-10-20T10:30:59Z</time>
      </trkpt>
      <trkpt lat="45.89699" lon="4.76238">
        <ele>195</ele>
        <time>2017-10-20T10:31:00Z</time>
      </trkpt>
      <trkpt lat="45.89702" lon="4.76228">
        <ele>195</ele>
        <time>2017-10-20T10:31:02Z</time>
      </trkpt>
      <trkpt lat="45.89704" lon="4.76223">
        <ele>195</ele>
        <time>2017-10-20T10:31:03Z</time>
      </trkpt>
      <trkpt lat="45.89707" lon="4.76215">
        <ele>195</ele>
        <time>2017-10-20T10:31:05Z</time>
      </trkpt>
      <trkpt lat="45.89708" lon="4.76211">
        <ele>195</ele>
        <time>2017-10-20T10:31:06Z</time>
      </trkpt>
      <trkpt lat="45.89711" lon="4.76202">
        <ele>195</ele>
        <time>2017-10-20T10:31:08Z</time>
      </trkpt>
      <trkpt lat="45.89713" lon="4.76198">
        <ele>195</ele>
        <time>2017-10-20T10:31:09Z</time>
      </trkpt>
      <trkpt lat="45.89717" lon="4.76188">
        <ele>195</ele>
        <time>2017-10-20T10:31:11Z</time>
      </trkpt>
      <trkpt lat="45.89719" lon="4.76183">
        <ele>195</ele>
        <time>2017-10-20T10:31:12Z</time>
      </trkpt>
      <trkpt lat="45.89722" lon="4.76173">
        <ele>195</ele>
        <time>2017-10-20T10:31:14Z</time>
      </trkpt>
      <trkpt lat="45.89723" lon="4.76168">
        <ele>195</ele>
        <time>2017-10-20T10:31:15Z</time>
      </trkpt>
      <trkpt lat="45.89726" lon="4.76158">
        <ele>195</ele>
        <time>2017-10-20T10:31:17Z</time>
      </trkpt>
      <trkpt lat="45.89728" lon="4.76153">
        <ele>195</ele>
        <time>2017-10-20T10:31:18Z</time>
      </trkpt>
      <trkpt lat="45.89732" lon="4.76142">
        <ele>195</ele>
        <time>2017-10-20T10:31:20Z</time>
      </trkpt>
      <trkpt lat="45.89734" lon="4.76137">
        <ele>195</ele>
        <time>2017-10-20T10:31:21Z</time>
      </trkpt>
      <trkpt lat="45.89738" lon="4.76127">
        <ele>195</ele>
        <time>2017-10-20T10:31:23Z</time>
      </trkpt>
      <trkpt lat="45.8974" lon="4.76122">
        <ele>195</ele>
        <time>2017-10-20T10:31:24Z</time>
      </trkpt>
      <trkpt lat="45.89745" lon="4.76111">
        <ele>195</ele>
        <time>2017-10-20T10:31:26Z</time>
      </trkpt>
      <trkpt lat="45.89748" lon="4.76105">
        <ele>195</ele>
        <time>2017-10-20T10:31:27Z</time>
      </trkpt>
      <trkpt lat="45.89752" lon="4.76095">
        <ele>195</ele>
        <time>2017-10-20T10:31:29Z</time>
      </trkpt>
      <trkpt lat="45.89754" lon="4.7609">
        <ele>195</ele>
        <time>2017-10-20T10:31:30Z</time>
      </trkpt>
      <trkpt lat="45.89758" lon="4.7608">
        <ele>195</ele>
        <time>2017-10-20T10:31:32Z</time>
      </trkpt>
      <trkpt lat="45.8976" lon="4.76075">
        <ele>195</ele>
        <time>2017-10-20T10:31:33Z</time>
      </trkpt>
      <trkpt lat="45.89764" lon="4.76065">
        <ele>195</ele>
        <time>2017-10-20T10:31:35Z</time>
      </trkpt>
      <trkpt lat="45.89766" lon="4.7606">
        <ele>195</ele>
        <time>2017-10-20T10:31:36Z</time>
      </trkpt>
      <trkpt lat="45.89768" lon="4.76051">
        <ele>195</ele>
        <time>2017-10-20T10:31:38Z</time>
      </trkpt>
      <trkpt lat="45.8977" lon="4.76047">
        <ele>195</ele>
        <time>2017-10-20T10:31:39Z</time>
      </trkpt>
      <trkpt lat="45.89773" lon="4.76037">
        <ele>195</ele>
        <time>2017-10-20T10:31:41Z</time>
      </trkpt>
      <trkpt lat="45.89775" lon="4.76032">
        <ele>195</ele>
        <time>2017-10-20T10:31:42Z</time>
      </trkpt>
      <trkpt lat="45.89778" lon="4.76027">
        <ele>195</ele>
        <time>2017-10-20T10:31:43Z</time>
      </trkpt>
      <trkpt lat="45.89779" lon="4.7602">
        <ele>195</ele>
        <time>2017-10-20T10:31:44Z</time>
      </trkpt>
      <trkpt lat="45.89783" lon="4.76009">
        <ele>195</ele>
        <time>2017-10-20T10:31:46Z</time>
      </trkpt>
      <trkpt lat="45.89785" lon="4.76004">
        <ele>195</ele>
        <time>2017-10-20T10:31:47Z</time>
      </trkpt>
      <trkpt lat="45.89788" lon="4.75993">
        <ele>195</ele>
        <time>2017-10-20T10:31:49Z</time>
      </trkpt>
      <trkpt lat="45.8979" lon="4.75987">
        <ele>195</ele>
        <time>2017-10-20T10:31:50Z</time>
      </trkpt>
      <trkpt lat="45.89792" lon="4.75981">
        <ele>195</ele>
        <time>2017-10-20T10:31:51Z</time>
      </trkpt>
      <trkpt lat="45.89793" lon="4.75974">
        <ele>195</ele>
        <time>2017-10-20T10:31:52Z</time>
      </trkpt>
      <trkpt lat="45.89795" lon="4.75965">
        <ele>195</ele>
        <time>2017-10-20T10:31:54Z</time>
      </trkpt>
      <trkpt lat="45.89797" lon="4.7596">
        <ele>195</ele>
        <time>2017-10-20T10:31:55Z</time>
      </trkpt>
      <trkpt lat="45.89799" lon="4.7595">
        <ele>195</ele>
        <time>2017-10-20T10:31:57Z</time>
      </trkpt>
      <trkpt lat="45.898" lon="4.75945">
        <ele>195</ele>
        <time>2017-10-20T10:31:58Z</time>
      </trkpt>
      <trkpt lat="45.89802" lon="4.75935">
        <ele>195</ele>
        <time>2017-10-20T10:32:00Z</time>
      </trkpt>
      <trkpt lat="45.89803" lon="4.75931">
        <ele>195</ele>
        <time>2017-10-20T10:32:01Z</time>
      </trkpt>
      <trkpt lat="45.89806" lon="4.75919">
        <ele>195</ele>
        <time>2017-10-20T10:32:04Z</time>
      </trkpt>
      <trkpt lat="45.89807" lon="4.75914">
        <ele>194</ele>
        <time>2017-10-20T10:32:05Z</time>
      </trkpt>
      <trkpt lat="45.89809" lon="4.75904">
        <ele>194</ele>
        <time>2017-10-20T10:32:07Z</time>
      </trkpt>
      <trkpt lat="45.8981" lon="4.75899">
        <ele>194</ele>
        <time>2017-10-20T10:32:08Z</time>
      </trkpt>
      <trkpt lat="45.89812" lon="4.75893">
        <ele>194</ele>
        <time>2017-10-20T10:32:09Z</time>
      </trkpt>
      <trkpt lat="45.89814" lon="4.75886">
        <ele>194</ele>
        <time>2017-10-20T10:32:10Z</time>
      </trkpt>
      <trkpt lat="45.89816" lon="4.75881">
        <ele>194</ele>
        <time>2017-10-20T10:32:11Z</time>
      </trkpt>
      <trkpt lat="45.8982" lon="4.75876">
        <ele>194</ele>
        <time>2017-10-20T10:32:12Z</time>
      </trkpt>
      <trkpt lat="45.89823" lon="4.75869">
        <ele>194</ele>
        <time>2017-10-20T10:32:13Z</time>
      </trkpt>
      <trkpt lat="45.89825" lon="4.75863">
        <ele>194</ele>
        <time>2017-10-20T10:32:14Z</time>
      </trkpt>
      <trkpt lat="45.89828" lon="4.75858">
        <ele>193</ele>
        <time>2017-10-20T10:32:15Z</time>
      </trkpt>
      <trkpt lat="45.89832" lon="4.75854">
        <ele>193</ele>
        <time>2017-10-20T10:32:16Z</time>
      </trkpt>
      <trkpt lat="45.89836" lon="4.75849">
        <ele>192</ele>
        <time>2017-10-20T10:32:17Z</time>
      </trkpt>
      <trkpt lat="45.8984" lon="4.75844">
        <ele>192</ele>
        <time>2017-10-20T10:32:18Z</time>
      </trkpt>
      <trkpt lat="45.89843" lon="4.75839">
        <ele>192</ele>
        <time>2017-10-20T10:32:19Z</time>
      </trkpt>
      <trkpt lat="45.89847" lon="4.75833">
        <ele>192</ele>
        <time>2017-10-20T10:32:20Z</time>
      </trkpt>
      <trkpt lat="45.8985" lon="4.75828">
        <ele>192</ele>
        <time>2017-10-20T10:32:21Z</time>
      </trkpt>
      <trkpt lat="45.89853" lon="4.75823">
        <ele>192</ele>
        <time>2017-10-20T10:32:22Z</time>
      </trkpt>
      <trkpt lat="45.89857" lon="4.75818">
        <ele>192</ele>
        <time>2017-10-20T10:32:23Z</time>
      </trkpt>
      <trkpt lat="45.89861" lon="4.75814">
        <ele>192</ele>
        <time>2017-10-20T10:32:24Z</time>
      </trkpt>
      <trkpt lat="45.89864" lon="4.75811">
        <ele>192</ele>
        <time>2017-10-20T10:32:25Z</time>
      </trkpt>
      <trkpt lat="45.89868" lon="4.75808">
        <ele>192</ele>
        <time>2017-10-20T10:32:26Z</time>
      </trkpt>
      <trkpt lat="45.89876" lon="4.75802">
        <ele>192</ele>
        <time>2017-10-20T10:32:28Z</time>
      </trkpt>
      <trkpt lat="45.89879" lon="4.75797">
        <ele>192</ele>
        <time>2017-10-20T10:32:29Z</time>
      </trkpt>
      <trkpt lat="45.89884" lon="4.75794">
        <ele>192</ele>
        <time>2017-10-20T10:32:30Z</time>
      </trkpt>
      <trkpt lat="45.89888" lon="4.75792">
        <ele>192</ele>
        <time>2017-10-20T10:32:31Z</time>
      </trkpt>
      <trkpt lat="45.89893" lon="4.75788">
        <ele>192</ele>
        <time>2017-10-20T10:32:32Z</time>
      </trkpt>
      <trkpt lat="45.89897" lon="4.75785">
        <ele>192</ele>
        <time>2017-10-20T10:32:33Z</time>
      </trkpt>
      <trkpt lat="45.89902" lon="4.75783">
        <ele>192</ele>
        <time>2017-10-20T10:32:34Z</time>
      </trkpt>
      <trkpt lat="45.89908" lon="4.75779">
        <ele>192</ele>
        <time>2017-10-20T10:32:35Z</time>
      </trkpt>
      <trkpt lat="45.89913" lon="4.75777">
        <ele>192</ele>
        <time>2017-10-20T10:32:36Z</time>
      </trkpt>
      <trkpt lat="45.89917" lon="4.75774">
        <ele>192</ele>
        <time>2017-10-20T10:32:37Z</time>
      </trkpt>
      <trkpt lat="45.89924" lon="4.75769">
        <ele>192</ele>
        <time>2017-10-20T10:32:39Z</time>
      </trkpt>
      <trkpt lat="45.89929" lon="4.75766">
        <ele>192</ele>
        <time>2017-10-20T10:32:40Z</time>
      </trkpt>
      <trkpt lat="45.89937" lon="4.75762">
        <ele>192</ele>
        <time>2017-10-20T10:32:42Z</time>
      </trkpt>
      <trkpt lat="45.89941" lon="4.75761">
        <ele>192</ele>
        <time>2017-10-20T10:32:43Z</time>
      </trkpt>
      <trkpt lat="45.89949" lon="4.75759">
        <ele>192</ele>
        <time>2017-10-20T10:32:45Z</time>
      </trkpt>
      <trkpt lat="45.89953" lon="4.75757">
        <ele>192</ele>
        <time>2017-10-20T10:32:46Z</time>
      </trkpt>
      <trkpt lat="45.89958" lon="4.75755">
        <ele>192</ele>
        <time>2017-10-20T10:32:47Z</time>
      </trkpt>
      <trkpt lat="45.89963" lon="4.75755">
        <ele>192</ele>
        <time>2017-10-20T10:32:48Z</time>
      </trkpt>
      <trkpt lat="45.89968" lon="4.75753">
        <ele>192</ele>
        <time>2017-10-20T10:32:49Z</time>
      </trkpt>
      <trkpt lat="45.89973" lon="4.7575">
        <ele>192</ele>
        <time>2017-10-20T10:32:50Z</time>
      </trkpt>
      <trkpt lat="45.89978" lon="4.75749">
        <ele>192</ele>
        <time>2017-10-20T10:32:51Z</time>
      </trkpt>
      <trkpt lat="45.89983" lon="4.75747">
        <ele>192</ele>
        <time>2017-10-20T10:32:52Z</time>
      </trkpt>
      <trkpt lat="45.89987" lon="4.75745">
        <ele>193</ele>
        <time>2017-10-20T10:32:53Z</time>
      </trkpt>
      <trkpt lat="45.89991" lon="4.75743">
        <ele>193</ele>
        <time>2017-10-20T10:32:54Z</time>
      </trkpt>
      <trkpt lat="45.9" lon="4.7574">
        <ele>193</ele>
        <time>2017-10-20T10:32:56Z</time>
      </trkpt>
      <trkpt lat="45.90004" lon="4.75738">
        <ele>193</ele>
        <time>2017-10-20T10:32:57Z</time>
      </trkpt>
      <trkpt lat="45.90012" lon="4.75738">
        <ele>193</ele>
        <time>2017-10-20T10:32:59Z</time>
      </trkpt>
      <trkpt lat="45.90017" lon="4.75739">
        <ele>193</ele>
        <time>2017-10-20T10:33:00Z</time>
      </trkpt>
      <trkpt lat="45.90024" lon="4.75741">
        <ele>193</ele>
        <time>2017-10-20T10:33:02Z</time>
      </trkpt>
      <trkpt lat="45.90028" lon="4.75743">
        <ele>193</ele>
        <time>2017-10-20T10:33:03Z</time>
      </trkpt>
      <trkpt lat="45.90032" lon="4.75745">
        <ele>193</ele>
        <time>2017-10-20T10:33:04Z</time>
      </trkpt>
      <trkpt lat="45.90036" lon="4.75747">
        <ele>193</ele>
        <time>2017-10-20T10:33:05Z</time>
      </trkpt>
      <trkpt lat="45.90041" lon="4.7575">
        <ele>193</ele>
        <time>2017-10-20T10:33:06Z</time>
      </trkpt>
      <trkpt lat="45.90046" lon="4.75751">
        <ele>192</ele>
        <time>2017-10-20T10:33:07Z</time>
      </trkpt>
      <trkpt lat="45.90051" lon="4.75754">
        <ele>192</ele>
        <time>2017-10-20T10:33:08Z</time>
      </trkpt>
      <trkpt lat="45.90057" lon="4.75756">
        <ele>192</ele>
        <time>2017-10-20T10:33:09Z</time>
      </trkpt>
      <trkpt lat="45.90061" lon="4.75759">
        <ele>192</ele>
        <time>2017-10-20T10:33:10Z</time>
      </trkpt>
      <trkpt lat="45.90066" lon="4.75762">
        <ele>192</ele>
        <time>2017-10-20T10:33:11Z</time>
      </trkpt>
      <trkpt lat="45.90071" lon="4.75763">
        <ele>192</ele>
        <time>2017-10-20T10:33:12Z</time>
      </trkpt>
      <trkpt lat="45.90075" lon="4.75766">
        <ele>192</ele>
        <time>2017-10-20T10:33:13Z</time>
      </trkpt>
      <trkpt lat="45.90079" lon="4.75769">
        <ele>192</ele>
        <time>2017-10-20T10:33:14Z</time>
      </trkpt>
      <trkpt lat="45.90084" lon="4.75772">
        <ele>191</ele>
        <time>2017-10-20T10:33:15Z</time>
      </trkpt>
      <trkpt lat="45.90088" lon="4.75774">
        <ele>191</ele>
        <time>2017-10-20T10:33:16Z</time>
      </trkpt>
      <trkpt lat="45.90092" lon="4.75777">
        <ele>191</ele>
        <time>2017-10-20T10:33:17Z</time>
      </trkpt>
      <trkpt lat="45.90099" lon="4.75781">
        <ele>191</ele>
        <time>2017-10-20T10:33:19Z</time>
      </trkpt>
      <trkpt lat="45.90103" lon="4.75783">
        <ele>191</ele>
        <time>2017-10-20T10:33:20Z</time>
      </trkpt>
      <trkpt lat="45.90111" lon="4.75788">
        <ele>191</ele>
        <time>2017-10-20T10:33:22Z</time>
      </trkpt>
      <trkpt lat="45.90115" lon="4.75791">
        <ele>191</ele>
        <time>2017-10-20T10:33:23Z</time>
      </trkpt>
      <trkpt lat="45.9012" lon="4.75793">
        <ele>191</ele>
        <time>2017-10-20T10:33:24Z</time>
      </trkpt>
      <trkpt lat="45.90125" lon="4.75796">
        <ele>191</ele>
        <time>2017-10-20T10:33:25Z</time>
      </trkpt>
      <trkpt lat="45.90132" lon="4.75797">
        <ele>191</ele>
        <time>2017-10-20T10:33:26Z</time>
      </trkpt>
      <trkpt lat="45.90137" lon="4.75799">
        <ele>191</ele>
        <time>2017-10-20T10:33:27Z</time>
      </trkpt>
      <trkpt lat="45.90143" lon="4.758">
        <ele>191</ele>
        <time>2017-10-20T10:33:28Z</time>
      </trkpt>
      <trkpt lat="45.90148" lon="4.75802">
        <ele>191</ele>
        <time>2017-10-20T10:33:29Z</time>
      </trkpt>
      <trkpt lat="45.90153" lon="4.75804">
        <ele>191</ele>
        <time>2017-10-20T10:33:30Z</time>
      </trkpt>
      <trkpt lat="45.90158" lon="4.75804">
        <ele>191</ele>
        <time>2017-10-20T10:33:31Z</time>
      </trkpt>
      <trkpt lat="45.90163" lon="4.75805">
        <ele>191</ele>
        <time>2017-10-20T10:33:32Z</time>
      </trkpt>
      <trkpt lat="45.90168" lon="4.75805">
        <ele>190</ele>
        <time>2017-10-20T10:33:33Z</time>
      </trkpt>
      <trkpt lat="45.90173" lon="4.75806">
        <ele>190</ele>
        <time>2017-10-20T10:33:34Z</time>
      </trkpt>
      <trkpt lat="45.90178" lon="4.75806">
        <ele>190</ele>
        <time>2017-10-20T10:33:35Z</time>
      </trkpt>
      <trkpt lat="45.90187" lon="4.75807">
        <ele>190</ele>
        <time>2017-10-20T10:33:37Z</time>
      </trkpt>
      <trkpt lat="45.90192" lon="4.75808">
        <ele>190</ele>
        <time>2017-10-20T10:33:38Z</time>
      </trkpt>
      <trkpt lat="45.90197" lon="4.75809">
        <ele>190</ele>
        <time>2017-10-20T10:33:39Z</time>
      </trkpt>
      <trkpt lat="45.90204" lon="4.75809">
        <ele>190</ele>
        <time>2017-10-20T10:33:40Z</time>
      </trkpt>
      <trkpt lat="45.9021" lon="4.75811">
        <ele>190</ele>
        <time>2017-10-20T10:33:41Z</time>
      </trkpt>
      <trkpt lat="45.90215" lon="4.75813">
        <ele>190</ele>
        <time>2017-10-20T10:33:42Z</time>
      </trkpt>
      <trkpt lat="45.90221" lon="4.75815">
        <ele>190</ele>
        <time>2017-10-20T10:33:43Z</time>
      </trkpt>
      <trkpt lat="45.90227" lon="4.75818">
        <ele>190</ele>
        <time>2017-10-20T10:33:44Z</time>
      </trkpt>
      <trkpt lat="45.90232" lon="4.7582">
        <ele>190</ele>
        <time>2017-10-20T10:33:45Z</time>
      </trkpt>
      <trkpt lat="45.90238" lon="4.75822">
        <ele>190</ele>
        <time>2017-10-20T10:33:46Z</time>
      </trkpt>
      <trkpt lat="45.90242" lon="4.75825">
        <ele>190</ele>
        <time>2017-10-20T10:33:47Z</time>
      </trkpt>
      <trkpt lat="45.90247" lon="4.75827">
        <ele>190</ele>
        <time>2017-10-20T10:33:48Z</time>
      </trkpt>
      <trkpt lat="45.90252" lon="4.7583">
        <ele>190</ele>
        <time>2017-10-20T10:33:49Z</time>
      </trkpt>
      <trkpt lat="45.90257" lon="4.75831">
        <ele>190</ele>
        <time>2017-10-20T10:33:50Z</time>
      </trkpt>
      <trkpt lat="45.90266" lon="4.75833">
        <ele>190</ele>
        <time>2017-10-20T10:33:52Z</time>
      </trkpt>
      <trkpt lat="45.9027" lon="4.75834">
        <ele>190</ele>
        <time>2017-10-20T10:33:53Z</time>
      </trkpt>
      <trkpt lat="45.90275" lon="4.75836">
        <ele>189</ele>
        <time>2017-10-20T10:33:54Z</time>
      </trkpt>
      <trkpt lat="45.9028" lon="4.75837">
        <ele>189</ele>
        <time>2017-10-20T10:33:55Z</time>
      </trkpt>
      <trkpt lat="45.90285" lon="4.75838">
        <ele>189</ele>
        <time>2017-10-20T10:33:56Z</time>
      </trkpt>
      <trkpt lat="45.9029" lon="4.75839">
        <ele>189</ele>
        <time>2017-10-20T10:33:57Z</time>
      </trkpt>
      <trkpt lat="45.90295" lon="4.7584">
        <ele>189</ele>
        <time>2017-10-20T10:33:58Z</time>
      </trkpt>
      <trkpt lat="45.90301" lon="4.75842">
        <ele>189</ele>
        <time>2017-10-20T10:33:59Z</time>
      </trkpt>
      <trkpt lat="45.90306" lon="4.75845">
        <ele>189</ele>
        <time>2017-10-20T10:34:00Z</time>
      </trkpt>
      <trkpt lat="45.9031" lon="4.7585">
        <ele>189</ele>
        <time>2017-10-20T10:34:01Z</time>
      </trkpt>
      <trkpt lat="45.90314" lon="4.75855">
        <ele>189</ele>
        <time>2017-10-20T10:34:02Z</time>
      </trkpt>
      <trkpt lat="45.90317" lon="4.75861">
        <ele>189</ele>
        <time>2017-10-20T10:34:03Z</time>
      </trkpt>
      <trkpt lat="45.90321" lon="4.75865">
        <ele>189</ele>
        <time>2017-10-20T10:34:04Z</time>
      </trkpt>
      <trkpt lat="45.90326" lon="4.75866">
        <ele>189</ele>
        <time>2017-10-20T10:34:05Z</time>
      </trkpt>
      <trkpt lat="45.90329" lon="4.75872">
        <ele>189</ele>
        <time>2017-10-20T10:34:06Z</time>
      </trkpt>
      <trkpt lat="45.90333" lon="4.75878">
        <ele>189</ele>
        <time>2017-10-20T10:34:07Z</time>
      </trkpt>
      <trkpt lat="45.90336" lon="4.75885">
        <ele>188</ele>
        <time>2017-10-20T10:34:08Z</time>
      </trkpt>
      <trkpt lat="45.90338" lon="4.75892">
        <ele>188</ele>
        <time>2017-10-20T10:34:09Z</time>
      </trkpt>
      <trkpt lat="45.90341" lon="4.75899">
        <ele>188</ele>
        <time>2017-10-20T10:34:10Z</time>
      </trkpt>
      <trkpt lat="45.90345" lon="4.75906">
        <ele>188</ele>
        <time>2017-10-20T10:34:11Z</time>
      </trkpt>
      <trkpt lat="45.90348" lon="4.75913">
        <ele>188</ele>
        <time>2017-10-20T10:34:12Z</time>
      </trkpt>
      <trkpt lat="45.90351" lon="4.75919">
        <ele>188</ele>
        <time>2017-10-20T10:34:13Z</time>
      </trkpt>
      <trkpt lat="45.90354" lon="4.75924">
        <ele>187</ele>
        <time>2017-10-20T10:34:14Z</time>
      </trkpt>
      <trkpt lat="45.90357" lon="4.75931">
        <ele>187</ele>
        <time>2017-10-20T10:34:15Z</time>
      </trkpt>
      <trkpt lat="45.90361" lon="4.75936">
        <ele>187</ele>
        <time>2017-10-20T10:34:16Z</time>
      </trkpt>
      <trkpt lat="45.90364" lon="4.75941">
        <ele>187</ele>
        <time>2017-10-20T10:34:17Z</time>
      </trkpt>
      <trkpt lat="45.90368" lon="4.75943">
        <ele>187</ele>
        <time>2017-10-20T10:34:18Z</time>
      </trkpt>
      <trkpt lat="45.90373" lon="4.75946">
        <ele>187</ele>
        <time>2017-10-20T10:34:19Z</time>
      </trkpt>
      <trkpt lat="45.90378" lon="4.75947">
        <ele>187</ele>
        <time>2017-10-20T10:34:20Z</time>
      </trkpt>
      <trkpt lat="45.90383" lon="4.75947">
        <ele>187</ele>
        <time>2017-10-20T10:34:21Z</time>
      </trkpt>
      <trkpt lat="45.90392" lon="4.75947">
        <ele>187</ele>
        <time>2017-10-20T10:34:23Z</time>
      </trkpt>
      <trkpt lat="45.90396" lon="4.75946">
        <ele>187</ele>
        <time>2017-10-20T10:34:24Z</time>
      </trkpt>
      <trkpt lat="45.90404" lon="4.75944">
        <ele>187</ele>
        <time>2017-10-20T10:34:26Z</time>
      </trkpt>
      <trkpt lat="45.90408" lon="4.75943">
        <ele>187</ele>
        <time>2017-10-20T10:34:27Z</time>
      </trkpt>
      <trkpt lat="45.90412" lon="4.75942">
        <ele>187</ele>
        <time>2017-10-20T10:34:28Z</time>
      </trkpt>
      <trkpt lat="45.90418" lon="4.75939">
        <ele>187</ele>
        <time>2017-10-20T10:34:29Z</time>
      </trkpt>
      <trkpt lat="45.90422" lon="4.75939">
        <ele>187</ele>
        <time>2017-10-20T10:34:30Z</time>
      </trkpt>
      <trkpt lat="45.90428" lon="4.75938">
        <ele>187</ele>
        <time>2017-10-20T10:34:31Z</time>
      </trkpt>
      <trkpt lat="45.90433" lon="4.75936">
        <ele>187</ele>
        <time>2017-10-20T10:34:32Z</time>
      </trkpt>
      <trkpt lat="45.90438" lon="4.75936">
        <ele>187</ele>
        <time>2017-10-20T10:34:33Z</time>
      </trkpt>
      <trkpt lat="45.90444" lon="4.75934">
        <ele>187</ele>
        <time>2017-10-20T10:34:34Z</time>
      </trkpt>
      <trkpt lat="45.90449" lon="4.75934">
        <ele>187</ele>
        <time>2017-10-20T10:34:35Z</time>
      </trkpt>
      <trkpt lat="45.90458" lon="4.75934">
        <ele>187</ele>
        <time>2017-10-20T10:34:37Z</time>
      </trkpt>
      <trkpt lat="45.90462" lon="4.75933">
        <ele>187</ele>
        <time>2017-10-20T10:34:38Z</time>
      </trkpt>
      <trkpt lat="45.90471" lon="4.75932">
        <ele>187</ele>
        <time>2017-10-20T10:34:40Z</time>
      </trkpt>
      <trkpt lat="45.90476" lon="4.75932">
        <ele>187</ele>
        <time>2017-10-20T10:34:41Z</time>
      </trkpt>
      <trkpt lat="45.90481" lon="4.75931">
        <ele>187</ele>
        <time>2017-10-20T10:34:42Z</time>
      </trkpt>
      <trkpt lat="45.90486" lon="4.7593">
        <ele>187</ele>
        <time>2017-10-20T10:34:43Z</time>
      </trkpt>
      <trkpt lat="45.9049" lon="4.7593">
        <ele>187</ele>
        <time>2017-10-20T10:34:44Z</time>
      </trkpt>
      <trkpt lat="45.90495" lon="4.75929">
        <ele>187</ele>
        <time>2017-10-20T10:34:45Z</time>
      </trkpt>
      <trkpt lat="45.905" lon="4.75928">
        <ele>187</ele>
        <time>2017-10-20T10:34:46Z</time>
      </trkpt>
      <trkpt lat="45.90505" lon="4.75928">
        <ele>187</ele>
        <time>2017-10-20T10:34:47Z</time>
      </trkpt>
      <trkpt lat="45.9051" lon="4.75926">
        <ele>187</ele>
        <time>2017-10-20T10:34:48Z</time>
      </trkpt>
      <trkpt lat="45.90515" lon="4.75927">
        <ele>187</ele>
        <time>2017-10-20T10:34:49Z</time>
      </trkpt>
      <trkpt lat="45.9052" lon="4.75928">
        <ele>187</ele>
        <time>2017-10-20T10:34:50Z</time>
      </trkpt>
      <trkpt lat="45.90525" lon="4.7593">
        <ele>186</ele>
        <time>2017-10-20T10:34:51Z</time>
      </trkpt>
      <trkpt lat="45.9053" lon="4.75933">
        <ele>186</ele>
        <time>2017-10-20T10:34:52Z</time>
      </trkpt>
      <trkpt lat="45.90535" lon="4.75935">
        <ele>186</ele>
        <time>2017-10-20T10:34:53Z</time>
      </trkpt>
      <trkpt lat="45.90539" lon="4.7594">
        <ele>186</ele>
        <time>2017-10-20T10:34:54Z</time>
      </trkpt>
      <trkpt lat="45.90543" lon="4.75945">
        <ele>186</ele>
        <time>2017-10-20T10:34:55Z</time>
      </trkpt>
      <trkpt lat="45.90547" lon="4.7595">
        <ele>186</ele>
        <time>2017-10-20T10:34:56Z</time>
      </trkpt>
      <trkpt lat="45.90552" lon="4.75955">
        <ele>186</ele>
        <time>2017-10-20T10:34:57Z</time>
      </trkpt>
      <trkpt lat="45.90557" lon="4.75959">
        <ele>186</ele>
        <time>2017-10-20T10:34:58Z</time>
      </trkpt>
      <trkpt lat="45.90561" lon="4.75963">
        <ele>186</ele>
        <time>2017-10-20T10:34:59Z</time>
      </trkpt>
      <trkpt lat="45.90565" lon="4.75967">
        <ele>186</ele>
        <time>2017-10-20T10:35:00Z</time>
      </trkpt>
      <trkpt lat="45.90572" lon="4.75969">
        <ele>186</ele>
        <time>2017-10-20T10:35:01Z</time>
      </trkpt>
      <trkpt lat="45.9058" lon="4.75972">
        <ele>186</ele>
        <time>2017-10-20T10:35:02Z</time>
      </trkpt>
      <trkpt lat="45.90583" lon="4.75976">
        <ele>186</ele>
        <time>2017-10-20T10:35:03Z</time>
      </trkpt>
      <trkpt lat="45.90588" lon="4.75979">
        <ele>186</ele>
        <time>2017-10-20T10:35:04Z</time>
      </trkpt>
      <trkpt lat="45.90592" lon="4.75983">
        <ele>186</ele>
        <time>2017-10-20T10:35:05Z</time>
      </trkpt>
      <trkpt lat="45.90599" lon="4.75986">
        <ele>186</ele>
        <time>2017-10-20T10:35:07Z</time>
      </trkpt>
      <trkpt lat="45.90603" lon="4.75987">
        <ele>186</ele>
        <time>2017-10-20T10:35:08Z</time>
      </trkpt>
      <trkpt lat="45.90609" lon="4.75984">
        <ele>186</ele>
        <time>2017-10-20T10:35:10Z</time>
      </trkpt>
      <trkpt lat="45.90611" lon="4.75979">
        <ele>186</ele>
        <time>2017-10-20T10:35:11Z</time>
      </trkpt>
      <trkpt lat="45.90612" lon="4.75974">
        <ele>186</ele>
        <time>2017-10-20T10:35:12Z</time>
      </trkpt>
      <trkpt lat="45.90615" lon="4.75967">
        <ele>186</ele>
        <time>2017-10-20T10:35:13Z</time>
      </trkpt>
      <trkpt lat="45.90619" lon="4.75961">
        <ele>186</ele>
        <time>2017-10-20T10:35:14Z</time>
      </trkpt>
      <trkpt lat="45.90622" lon="4.75956">
        <ele>186</ele>
        <time>2017-10-20T10:35:15Z</time>
      </trkpt>
      <trkpt lat="45.90625" lon="4.75952">
        <ele>186</ele>
        <time>2017-10-20T10:35:16Z</time>
      </trkpt>
      <trkpt lat="45.90628" lon="4.75946">
        <ele>186</ele>
        <time>2017-10-20T10:35:17Z</time>
      </trkpt>
      <trkpt lat="45.90633" lon="4.75937">
        <ele>186</ele>
        <time>2017-10-20T10:35:19Z</time>
      </trkpt>
      <trkpt lat="45.90635" lon="4.75933">
        <ele>186</ele>
        <time>2017-10-20T10:35:20Z</time>
      </trkpt>
      <trkpt lat="45.90641" lon="4.75923">
        <ele>186</ele>
        <time>2017-10-20T10:35:22Z</time>
      </trkpt>
      <trkpt lat="45.90644" lon="4.75919">
        <ele>187</ele>
        <time>2017-10-20T10:35:23Z</time>
      </trkpt>
      <trkpt lat="45.90648" lon="4.75912">
        <ele>187</ele>
        <time>2017-10-20T10:35:24Z</time>
      </trkpt>
      <trkpt lat="45.90651" lon="4.75907">
        <ele>187</ele>
        <time>2017-10-20T10:35:25Z</time>
      </trkpt>
      <trkpt lat="45.90654" lon="4.75902">
        <ele>187</ele>
        <time>2017-10-20T10:35:26Z</time>
      </trkpt>
      <trkpt lat="45.90658" lon="4.75897">
        <ele>187</ele>
        <time>2017-10-20T10:35:27Z</time>
      </trkpt>
      <trkpt lat="45.90661" lon="4.75891">
        <ele>187</ele>
        <time>2017-10-20T10:35:28Z</time>
      </trkpt>
      <trkpt lat="45.90664" lon="4.75887">
        <ele>187</ele>
        <time>2017-10-20T10:35:29Z</time>
      </trkpt>
      <trkpt lat="45.90672" lon="4.75881">
        <ele>187</ele>
        <time>2017-10-20T10:35:31Z</time>
      </trkpt>
      <trkpt lat="45.90676" lon="4.75876">
        <ele>187</ele>
        <time>2017-10-20T10:35:32Z</time>
      </trkpt>
      <trkpt lat="45.9068" lon="4.75873">
        <ele>187</ele>
        <time>2017-10-20T10:35:33Z</time>
      </trkpt>
      <trkpt lat="45.90684" lon="4.75867">
        <ele>187</ele>
        <time>2017-10-20T10:35:34Z</time>
      </trkpt>
      <trkpt lat="45.90689" lon="4.75865">
        <ele>187</ele>
        <time>2017-10-20T10:35:35Z</time>
      </trkpt>
      <trkpt lat="45.90695" lon="4.75864">
        <ele>187</ele>
        <time>2017-10-20T10:35:36Z</time>
      </trkpt>
      <trkpt lat="45.90701" lon="4.75863">
        <ele>187</ele>
        <time>2017-10-20T10:35:37Z</time>
      </trkpt>
      <trkpt lat="45.90706" lon="4.75863">
        <ele>187</ele>
        <time>2017-10-20T10:35:38Z</time>
      </trkpt>
      <trkpt lat="45.90711" lon="4.75863">
        <ele>187</ele>
        <time>2017-10-20T10:35:39Z</time>
      </trkpt>
      <trkpt lat="45.90715" lon="4.75862">
        <ele>186</ele>
        <time>2017-10-20T10:35:40Z</time>
      </trkpt>
      <trkpt lat="45.90724" lon="4.75861">
        <ele>186</ele>
        <time>2017-10-20T10:35:42Z</time>
      </trkpt>
      <trkpt lat="45.90729" lon="4.7586">
        <ele>186</ele>
        <time>2017-10-20T10:35:43Z</time>
      </trkpt>
      <trkpt lat="45.90734" lon="4.75859">
        <ele>186</ele>
        <time>2017-10-20T10:35:44Z</time>
      </trkpt>
      <trkpt lat="45.9074" lon="4.75862">
        <ele>186</ele>
        <time>2017-10-20T10:35:45Z</time>
      </trkpt>
      <trkpt lat="45.90748" lon="4.75862">
        <ele>186</ele>
        <time>2017-10-20T10:35:47Z</time>
      </trkpt>
      <trkpt lat="45.90753" lon="4.75863">
        <ele>185</ele>
        <time>2017-10-20T10:35:48Z</time>
      </trkpt>
      <trkpt lat="45.90757" lon="4.75863">
        <ele>185</ele>
        <time>2017-10-20T10:35:49Z</time>
      </trkpt>
      <trkpt lat="45.90762" lon="4.75864">
        <ele>185</ele>
        <time>2017-10-20T10:35:50Z</time>
      </trkpt>
      <trkpt lat="45.90771" lon="4.75865">
        <ele>185</ele>
        <time>2017-10-20T10:35:52Z</time>
      </trkpt>
      <trkpt lat="45.90775" lon="4.75867">
        <ele>185</ele>
        <time>2017-10-20T10:35:53Z</time>
      </trkpt>
      <trkpt lat="45.90782" lon="4.75868">
        <ele>185</ele>
        <time>2017-10-20T10:35:55Z</time>
      </trkpt>
      <trkpt lat="45.90786" lon="4.75868">
        <ele>185</ele>
        <time>2017-10-20T10:35:56Z</time>
      </trkpt>
      <trkpt lat="45.90791" lon="4.75869">
        <ele>185</ele>
        <time>2017-10-20T10:35:57Z</time>
      </trkpt>
      <trkpt lat="45.90797" lon="4.75868">
        <ele>185</ele>
        <time>2017-10-20T10:35:58Z</time>
      </trkpt>
      <trkpt lat="45.90802" lon="4.75869">
        <ele>185</ele>
        <time>2017-10-20T10:35:59Z</time>
      </trkpt>
      <trkpt lat="45.90808" lon="4.75869">
        <ele>185</ele>
        <time>2017-10-20T10:36:00Z</time>
      </trkpt>
      <trkpt lat="45.90812" lon="4.75872">
        <ele>185</ele>
        <time>2017-10-20T10:36:01Z</time>
      </trkpt>
      <trkpt lat="45.90818" lon="4.75872">
        <ele>185</ele>
        <time>2017-10-20T10:36:02Z</time>
      </trkpt>
      <trkpt lat="45.90824" lon="4.75874">
        <ele>185</ele>
        <time>2017-10-20T10:36:03Z</time>
      </trkpt>
      <trkpt lat="45.9083" lon="4.75874">
        <ele>185</ele>
        <time>2017-10-20T10:36:04Z</time>
      </trkpt>
      <trkpt lat="45.90835" lon="4.75876">
        <ele>184</ele>
        <time>2017-10-20T10:36:05Z</time>
      </trkpt>
      <trkpt lat="45.90839" lon="4.75876">
        <ele>184</ele>
        <time>2017-10-20T10:36:06Z</time>
      </trkpt>
      <trkpt lat="45.90845" lon="4.75876">
        <ele>184</ele>
        <time>2017-10-20T10:36:07Z</time>
      </trkpt>
      <trkpt lat="45.90852" lon="4.75877">
        <ele>184</ele>
        <time>2017-10-20T10:36:08Z</time>
      </trkpt>
      <trkpt lat="45.90856" lon="4.75877">
        <ele>184</ele>
        <time>2017-10-20T10:36:09Z</time>
      </trkpt>
      <trkpt lat="45.90862" lon="4.75874">
        <ele>184</ele>
        <time>2017-10-20T10:36:10Z</time>
      </trkpt>
      <trkpt lat="45.90869" lon="4.75875">
        <ele>184</ele>
        <time>2017-10-20T10:36:12Z</time>
      </trkpt>
      <trkpt lat="45.90874" lon="4.75875">
        <ele>184</ele>
        <time>2017-10-20T10:36:13Z</time>
      </trkpt>
      <trkpt lat="45.90878" lon="4.75873">
        <ele>184</ele>
        <time>2017-10-20T10:36:14Z</time>
      </trkpt>
      <trkpt lat="45.90883" lon="4.75872">
        <ele>184</ele>
        <time>2017-10-20T10:36:15Z</time>
      </trkpt>
      <trkpt lat="45.90887" lon="4.75863">
        <ele>184</ele>
        <time>2017-10-20T10:36:17Z</time>
      </trkpt>
      <trkpt lat="45.90887" lon="4.75858">
        <ele>184</ele>
        <time>2017-10-20T10:36:18Z</time>
      </trkpt>
      <trkpt lat="45.90887" lon="4.75846">
        <ele>184</ele>
        <time>2017-10-20T10:36:20Z</time>
      </trkpt>
      <trkpt lat="45.90889" lon="4.75841">
        <ele>184</ele>
        <time>2017-10-20T10:36:21Z</time>
      </trkpt>
      <trkpt lat="45.90889" lon="4.7583">
        <ele>184</ele>
        <time>2017-10-20T10:36:23Z</time>
      </trkpt>
      <trkpt lat="45.90889" lon="4.75825">
        <ele>184</ele>
        <time>2017-10-20T10:36:24Z</time>
      </trkpt>
      <trkpt lat="45.9089" lon="4.75815">
        <ele>184</ele>
        <time>2017-10-20T10:36:26Z</time>
      </trkpt>
      <trkpt lat="45.90891" lon="4.7581">
        <ele>184</ele>
        <time>2017-10-20T10:36:27Z</time>
      </trkpt>
      <trkpt lat="45.90891" lon="4.75799">
        <ele>184</ele>
        <time>2017-10-20T10:36:29Z</time>
      </trkpt>
      <trkpt lat="45.90891" lon="4.75794">
        <ele>185</ele>
        <time>2017-10-20T10:36:30Z</time>
      </trkpt>
      <trkpt lat="45.90891" lon="4.75784">
        <ele>185</ele>
        <time>2017-10-20T10:36:32Z</time>
      </trkpt>
      <trkpt lat="45.90891" lon="4.7578">
        <ele>185</ele>
        <time>2017-10-20T10:36:33Z</time>
      </trkpt>
      <trkpt lat="45.9089" lon="4.75771">
        <ele>185</ele>
        <time>2017-10-20T10:36:35Z</time>
      </trkpt>
      <trkpt lat="45.9089" lon="4.75766">
        <ele>185</ele>
        <time>2017-10-20T10:36:36Z</time>
      </trkpt>
      <trkpt lat="45.90891" lon="4.75757">
        <ele>185</ele>
        <time>2017-10-20T10:36:38Z</time>
      </trkpt>
      <trkpt lat="45.90891" lon="4.75753">
        <ele>185</ele>
        <time>2017-10-20T10:36:39Z</time>
      </trkpt>
      <trkpt lat="45.90892" lon="4.75742">
        <ele>185</ele>
        <time>2017-10-20T10:36:41Z</time>
      </trkpt>
      <trkpt lat="45.90893" lon="4.75737">
        <ele>185</ele>
        <time>2017-10-20T10:36:42Z</time>
      </trkpt>
      <trkpt lat="45.90894" lon="4.75726">
        <ele>185</ele>
        <time>2017-10-20T10:36:44Z</time>
      </trkpt>
      <trkpt lat="45.90894" lon="4.75721">
        <ele>185</ele>
        <time>2017-10-20T10:36:45Z</time>
      </trkpt>
      <trkpt lat="45.90895" lon="4.75712">
        <ele>184</ele>
        <time>2017-10-20T10:36:47Z</time>
      </trkpt>
      <trkpt lat="45.90896" lon="4.75707">
        <ele>184</ele>
        <time>2017-10-20T10:36:48Z</time>
      </trkpt>
      <trkpt lat="45.90897" lon="4.75697">
        <ele>184</ele>
        <time>2017-10-20T10:36:50Z</time>
      </trkpt>
      <trkpt lat="45.90898" lon="4.75692">
        <ele>184</ele>
        <time>2017-10-20T10:36:51Z</time>
      </trkpt>
      <trkpt lat="45.90898" lon="4.75681">
        <ele>184</ele>
        <time>2017-10-20T10:36:53Z</time>
      </trkpt>
      <trkpt lat="45.90898" lon="4.75675">
        <ele>184</ele>
        <time>2017-10-20T10:36:54Z</time>
      </trkpt>
      <trkpt lat="45.90898" lon="4.75663">
        <ele>184</ele>
        <time>2017-10-20T10:36:56Z</time>
      </trkpt>
      <trkpt lat="45.90898" lon="4.75658">
        <ele>184</ele>
        <time>2017-10-20T10:36:57Z</time>
      </trkpt>
      <trkpt lat="45.90898" lon="4.75647">
        <ele>185</ele>
        <time>2017-10-20T10:36:59Z</time>
      </trkpt>
      <trkpt lat="45.90898" lon="4.75642">
        <ele>185</ele>
        <time>2017-10-20T10:37:00Z</time>
      </trkpt>
      <trkpt lat="45.90898" lon="4.7563">
        <ele>185</ele>
        <time>2017-10-20T10:37:03Z</time>
      </trkpt>
      <trkpt lat="45.90899" lon="4.75625">
        <ele>185</ele>
        <time>2017-10-20T10:37:04Z</time>
      </trkpt>
      <trkpt lat="45.909" lon="4.75615">
        <ele>185</ele>
        <time>2017-10-20T10:37:06Z</time>
      </trkpt>
      <trkpt lat="45.90901" lon="4.7561">
        <ele>185</ele>
        <time>2017-10-20T10:37:07Z</time>
      </trkpt>
      <trkpt lat="45.90902" lon="4.75599">
        <ele>185</ele>
        <time>2017-10-20T10:37:10Z</time>
      </trkpt>
      <trkpt lat="45.90903" lon="4.75596">
        <ele>185</ele>
        <time>2017-10-20T10:37:11Z</time>
      </trkpt>
      <trkpt lat="45.90903" lon="4.75586">
        <ele>185</ele>
        <time>2017-10-20T10:37:14Z</time>
      </trkpt>
      <trkpt lat="45.90903" lon="4.75583">
        <ele>185</ele>
        <time>2017-10-20T10:37:15Z</time>
      </trkpt>
      <trkpt lat="45.90904" lon="4.75572">
        <ele>186</ele>
        <time>2017-10-20T10:37:18Z</time>
      </trkpt>
      <trkpt lat="45.90905" lon="4.75568">
        <ele>186</ele>
        <time>2017-10-20T10:37:19Z</time>
      </trkpt>
      <trkpt lat="45.90906" lon="4.75559">
        <ele>186</ele>
        <time>2017-10-20T10:37:21Z</time>
      </trkpt>
      <trkpt lat="45.90906" lon="4.75554">
        <ele>186</ele>
        <time>2017-10-20T10:37:22Z</time>
      </trkpt>
      <trkpt lat="45.90908" lon="4.75545">
        <ele>186</ele>
        <time>2017-10-20T10:37:24Z</time>
      </trkpt>
      <trkpt lat="45.90908" lon="4.75541">
        <ele>186</ele>
        <time>2017-10-20T10:37:25Z</time>
      </trkpt>
      <trkpt lat="45.90909" lon="4.75532">
        <ele>186</ele>
        <time>2017-10-20T10:37:27Z</time>
      </trkpt>
      <trkpt lat="45.90909" lon="4.75527">
        <ele>186</ele>
        <time>2017-10-20T10:37:28Z</time>
      </trkpt>
      <trkpt lat="45.90909" lon="4.75517">
        <ele>186</ele>
        <time>2017-10-20T10:37:30Z</time>
      </trkpt>
      <trkpt lat="45.9091" lon="4.75512">
        <ele>186</ele>
        <time>2017-10-20T10:37:31Z</time>
      </trkpt>
      <trkpt lat="45.90911" lon="4.755">
        <ele>186</ele>
        <time>2017-10-20T10:37:33Z</time>
      </trkpt>
      <trkpt lat="45.90911" lon="4.75494">
        <ele>186</ele>
        <time>2017-10-20T10:37:34Z</time>
      </trkpt>
      <trkpt lat="45.90912" lon="4.75484">
        <ele>186</ele>
        <time>2017-10-20T10:37:36Z</time>
      </trkpt>
      <trkpt lat="45.90912" lon="4.7548">
        <ele>186</ele>
        <time>2017-10-20T10:37:37Z</time>
      </trkpt>
      <trkpt lat="45.90913" lon="4.75471">
        <ele>186</ele>
        <time>2017-10-20T10:37:39Z</time>
      </trkpt>
      <trkpt lat="45.90914" lon="4.75466">
        <ele>186</ele>
        <time>2017-10-20T10:37:40Z</time>
      </trkpt>
      <trkpt lat="45.90915" lon="4.75456">
        <ele>186</ele>
        <time>2017-10-20T10:37:42Z</time>
      </trkpt>
      <trkpt lat="45.90915" lon="4.7545">
        <ele>186</ele>
        <time>2017-10-20T10:37:43Z</time>
      </trkpt>
      <trkpt lat="45.90916" lon="4.75441">
        <ele>185</ele>
        <time>2017-10-20T10:37:45Z</time>
      </trkpt>
      <trkpt lat="45.90916" lon="4.75436">
        <ele>185</ele>
        <time>2017-10-20T10:37:46Z</time>
      </trkpt>
      <trkpt lat="45.90917" lon="4.75423">
        <ele>185</ele>
        <time>2017-10-20T10:37:49Z</time>
      </trkpt>
      <trkpt lat="45.90918" lon="4.75418">
        <ele>185</ele>
        <time>2017-10-20T10:37:50Z</time>
      </trkpt>
      <trkpt lat="45.90919" lon="4.75408">
        <ele>185</ele>
        <time>2017-10-20T10:37:52Z</time>
      </trkpt>
      <trkpt lat="45.90919" lon="4.75403">
        <ele>185</ele>
        <time>2017-10-20T10:37:53Z</time>
      </trkpt>
      <trkpt lat="45.9092" lon="4.75394">
        <ele>185</ele>
        <time>2017-10-20T10:37:55Z</time>
      </trkpt>
      <trkpt lat="45.90921" lon="4.7539">
        <ele>185</ele>
        <time>2017-10-20T10:37:56Z</time>
      </trkpt>
      <trkpt lat="45.90922" lon="4.75381">
        <ele>185</ele>
        <time>2017-10-20T10:37:58Z</time>
      </trkpt>
      <trkpt lat="45.90922" lon="4.75377">
        <ele>185</ele>
        <time>2017-10-20T10:37:59Z</time>
      </trkpt>
      <trkpt lat="45.90923" lon="4.75367">
        <ele>185</ele>
        <time>2017-10-20T10:38:01Z</time>
      </trkpt>
      <trkpt lat="45.90923" lon="4.75362">
        <ele>185</ele>
        <time>2017-10-20T10:38:02Z</time>
      </trkpt>
      <trkpt lat="45.90924" lon="4.75351">
        <ele>185</ele>
        <time>2017-10-20T10:38:04Z</time>
      </trkpt>
      <trkpt lat="45.90925" lon="4.75345">
        <ele>186</ele>
        <time>2017-10-20T10:38:05Z</time>
      </trkpt>
      <trkpt lat="45.90926" lon="4.75333">
        <ele>186</ele>
        <time>2017-10-20T10:38:07Z</time>
      </trkpt>
      <trkpt lat="45.90927" lon="4.75327">
        <ele>186</ele>
        <time>2017-10-20T10:38:08Z</time>
      </trkpt>
      <trkpt lat="45.90928" lon="4.75317">
        <ele>185</ele>
        <time>2017-10-20T10:38:10Z</time>
      </trkpt>
      <trkpt lat="45.90929" lon="4.75312">
        <ele>185</ele>
        <time>2017-10-20T10:38:11Z</time>
      </trkpt>
      <trkpt lat="45.9093" lon="4.753">
        <ele>185</ele>
        <time>2017-10-20T10:38:13Z</time>
      </trkpt>
      <trkpt lat="45.90932" lon="4.75294">
        <ele>185</ele>
        <time>2017-10-20T10:38:14Z</time>
      </trkpt>
      <trkpt lat="45.90932" lon="4.75286">
        <ele>185</ele>
        <time>2017-10-20T10:38:15Z</time>
      </trkpt>
      <trkpt lat="45.90933" lon="4.7528">
        <ele>185</ele>
        <time>2017-10-20T10:38:16Z</time>
      </trkpt>
      <trkpt lat="45.90934" lon="4.75268">
        <ele>185</ele>
        <time>2017-10-20T10:38:18Z</time>
      </trkpt>
      <trkpt lat="45.90935" lon="4.75262">
        <ele>185</ele>
        <time>2017-10-20T10:38:19Z</time>
      </trkpt>
      <trkpt lat="45.90936" lon="4.75249">
        <ele>184</ele>
        <time>2017-10-20T10:38:21Z</time>
      </trkpt>
      <trkpt lat="45.90937" lon="4.75243">
        <ele>184</ele>
        <time>2017-10-20T10:38:22Z</time>
      </trkpt>
      <trkpt lat="45.90938" lon="4.75231">
        <ele>184</ele>
        <time>2017-10-20T10:38:24Z</time>
      </trkpt>
      <trkpt lat="45.90939" lon="4.75225">
        <ele>184</ele>
        <time>2017-10-20T10:38:25Z</time>
      </trkpt>
      <trkpt lat="45.90941" lon="4.75214">
        <ele>184</ele>
        <time>2017-10-20T10:38:27Z</time>
      </trkpt>
      <trkpt lat="45.90941" lon="4.75208">
        <ele>184</ele>
        <time>2017-10-20T10:38:28Z</time>
      </trkpt>
      <trkpt lat="45.90942" lon="4.75196">
        <ele>183</ele>
        <time>2017-10-20T10:38:30Z</time>
      </trkpt>
      <trkpt lat="45.90942" lon="4.75189">
        <ele>183</ele>
        <time>2017-10-20T10:38:31Z</time>
      </trkpt>
      <trkpt lat="45.90944" lon="4.75178">
        <ele>183</ele>
        <time>2017-10-20T10:38:33Z</time>
      </trkpt>
      <trkpt lat="45.90944" lon="4.75172">
        <ele>183</ele>
        <time>2017-10-20T10:38:34Z</time>
      </trkpt>
      <trkpt lat="45.90945" lon="4.7516">
        <ele>182</ele>
        <time>2017-10-20T10:38:36Z</time>
      </trkpt>
      <trkpt lat="45.90946" lon="4.75154">
        <ele>182</ele>
        <time>2017-10-20T10:38:37Z</time>
      </trkpt>
      <trkpt lat="45.90947" lon="4.75143">
        <ele>182</ele>
        <time>2017-10-20T10:38:39Z</time>
      </trkpt>
      <trkpt lat="45.90947" lon="4.75137">
        <ele>182</ele>
        <time>2017-10-20T10:38:40Z</time>
      </trkpt>
      <trkpt lat="45.90948" lon="4.75125">
        <ele>181</ele>
        <time>2017-10-20T10:38:42Z</time>
      </trkpt>
      <trkpt lat="45.90948" lon="4.75119">
        <ele>181</ele>
        <time>2017-10-20T10:38:43Z</time>
      </trkpt>
      <trkpt lat="45.90949" lon="4.75108">
        <ele>181</ele>
        <time>2017-10-20T10:38:45Z</time>
      </trkpt>
      <trkpt lat="45.9095" lon="4.75102">
        <ele>181</ele>
        <time>2017-10-20T10:38:46Z</time>
      </trkpt>
      <trkpt lat="45.9095" lon="4.7509">
        <ele>181</ele>
        <time>2017-10-20T10:38:48Z</time>
      </trkpt>
      <trkpt lat="45.90951" lon="4.75085">
        <ele>181</ele>
        <time>2017-10-20T10:38:49Z</time>
      </trkpt>
      <trkpt lat="45.90952" lon="4.75074">
        <ele>179</ele>
        <time>2017-10-20T10:38:51Z</time>
      </trkpt>
      <trkpt lat="45.90952" lon="4.75068">
        <ele>179</ele>
        <time>2017-10-20T10:38:52Z</time>
      </trkpt>
      <trkpt lat="45.90953" lon="4.75058">
        <ele>179</ele>
        <time>2017-10-20T10:38:54Z</time>
      </trkpt>
      <trkpt lat="45.90954" lon="4.75052">
        <ele>179</ele>
        <time>2017-10-20T10:38:55Z</time>
      </trkpt>
      <trkpt lat="45.90955" lon="4.75041">
        <ele>179</ele>
        <time>2017-10-20T10:38:57Z</time>
      </trkpt>
      <trkpt lat="45.90956" lon="4.75035">
        <ele>179</ele>
        <time>2017-10-20T10:38:58Z</time>
      </trkpt>
      <trkpt lat="45.9096" lon="4.75028">
        <ele>179</ele>
        <time>2017-10-20T10:39:00Z</time>
      </trkpt>
      <trkpt lat="45.90964" lon="4.75028">
        <ele>178</ele>
        <time>2017-10-20T10:39:01Z</time>
      </trkpt>
      <trkpt lat="45.90968" lon="4.75029">
        <ele>178</ele>
        <time>2017-10-20T10:39:02Z</time>
      </trkpt>
      <trkpt lat="45.90975" lon="4.75037">
        <ele>179</ele>
        <time>2017-10-20T10:39:03Z</time>
      </trkpt>
      <trkpt lat="45.90979" lon="4.75039">
        <ele>179</ele>
        <time>2017-10-20T10:39:04Z</time>
      </trkpt>
      <trkpt lat="45.90985" lon="4.75042">
        <ele>179</ele>
        <time>2017-10-20T10:39:05Z</time>
      </trkpt>
      <trkpt lat="45.90991" lon="4.75045">
        <ele>179</ele>
        <time>2017-10-20T10:39:06Z</time>
      </trkpt>
      <trkpt lat="45.90997" lon="4.75047">
        <ele>179</ele>
        <time>2017-10-20T10:39:07Z</time>
      </trkpt>
      <trkpt lat="45.91002" lon="4.75049">
        <ele>178</ele>
        <time>2017-10-20T10:39:08Z</time>
      </trkpt>
      <trkpt lat="45.91007" lon="4.75051">
        <ele>178</ele>
        <time>2017-10-20T10:39:09Z</time>
      </trkpt>
      <trkpt lat="45.91012" lon="4.75054">
        <ele>179</ele>
        <time>2017-10-20T10:39:10Z</time>
      </trkpt>
      <trkpt lat="45.91017" lon="4.75056">
        <ele>179</ele>
        <time>2017-10-20T10:39:11Z</time>
      </trkpt>
      <trkpt lat="45.91022" lon="4.75057">
        <ele>179</ele>
        <time>2017-10-20T10:39:12Z</time>
      </trkpt>
      <trkpt lat="45.91026" lon="4.75059">
        <ele>179</ele>
        <time>2017-10-20T10:39:13Z</time>
      </trkpt>
      <trkpt lat="45.91031" lon="4.75061">
        <ele>179</ele>
        <time>2017-10-20T10:39:14Z</time>
      </trkpt>
      <trkpt lat="45.91035" lon="4.75062">
        <ele>179</ele>
        <time>2017-10-20T10:39:15Z</time>
      </trkpt>
      <trkpt lat="45.9104" lon="4.75065">
        <ele>179</ele>
        <time>2017-10-20T10:39:16Z</time>
      </trkpt>
      <trkpt lat="45.91044" lon="4.75066">
        <ele>179</ele>
        <time>2017-10-20T10:39:17Z</time>
      </trkpt>
      <trkpt lat="45.91049" lon="4.75068">
        <ele>179</ele>
        <time>2017-10-20T10:39:18Z</time>
      </trkpt>
      <trkpt lat="45.91054" lon="4.7507">
        <ele>179</ele>
        <time>2017-10-20T10:39:19Z</time>
      </trkpt>
      <trkpt lat="45.91058" lon="4.75074">
        <ele>179</ele>
        <time>2017-10-20T10:39:20Z</time>
      </trkpt>
      <trkpt lat="45.91063" lon="4.75073">
        <ele>179</ele>
        <time>2017-10-20T10:39:21Z</time>
      </trkpt>
      <trkpt lat="45.91069" lon="4.75073">
        <ele>179</ele>
        <time>2017-10-20T10:39:22Z</time>
      </trkpt>
      <trkpt lat="45.91073" lon="4.75074">
        <ele>179</ele>
        <time>2017-10-20T10:39:23Z</time>
      </trkpt>
      <trkpt lat="45.91078" lon="4.75076">
        <ele>180</ele>
        <time>2017-10-20T10:39:24Z</time>
      </trkpt>
      <trkpt lat="45.91082" lon="4.75079">
        <ele>180</ele>
        <time>2017-10-20T10:39:25Z</time>
      </trkpt>
      <trkpt lat="45.91087" lon="4.7508">
        <ele>180</ele>
        <time>2017-10-20T10:39:26Z</time>
      </trkpt>
      <trkpt lat="45.91091" lon="4.75083">
        <ele>180</ele>
        <time>2017-10-20T10:39:27Z</time>
      </trkpt>
      <trkpt lat="45.911" lon="4.75086">
        <ele>180</ele>
        <time>2017-10-20T10:39:29Z</time>
      </trkpt>
      <trkpt lat="45.91104" lon="4.75088">
        <ele>180</ele>
        <time>2017-10-20T10:39:30Z</time>
      </trkpt>
      <trkpt lat="45.91108" lon="4.7509">
        <ele>180</ele>
        <time>2017-10-20T10:39:31Z</time>
      </trkpt>
      <trkpt lat="45.91113" lon="4.75092">
        <ele>179</ele>
        <time>2017-10-20T10:39:32Z</time>
      </trkpt>
      <trkpt lat="45.91118" lon="4.75093">
        <ele>179</ele>
        <time>2017-10-20T10:39:33Z</time>
      </trkpt>
      <trkpt lat="45.91125" lon="4.75096">
        <ele>179</ele>
        <time>2017-10-20T10:39:34Z</time>
      </trkpt>
      <trkpt lat="45.91131" lon="4.75098">
        <ele>179</ele>
        <time>2017-10-20T10:39:35Z</time>
      </trkpt>
      <trkpt lat="45.91136" lon="4.75099">
        <ele>179</ele>
        <time>2017-10-20T10:39:36Z</time>
      </trkpt>
      <trkpt lat="45.91142" lon="4.75101">
        <ele>179</ele>
        <time>2017-10-20T10:39:37Z</time>
      </trkpt>
      <trkpt lat="45.91147" lon="4.75103">
        <ele>179</ele>
        <time>2017-10-20T10:39:38Z</time>
      </trkpt>
      <trkpt lat="45.91152" lon="4.75105">
        <ele>179</ele>
        <time>2017-10-20T10:39:39Z</time>
      </trkpt>
      <trkpt lat="45.91157" lon="4.75106">
        <ele>179</ele>
        <time>2017-10-20T10:39:40Z</time>
      </trkpt>
      <trkpt lat="45.91162" lon="4.75107">
        <ele>179</ele>
        <time>2017-10-20T10:39:41Z</time>
      </trkpt>
      <trkpt lat="45.91167" lon="4.75109">
        <ele>178</ele>
        <time>2017-10-20T10:39:42Z</time>
      </trkpt>
      <trkpt lat="45.91172" lon="4.7511">
        <ele>178</ele>
        <time>2017-10-20T10:39:43Z</time>
      </trkpt>
      <trkpt lat="45.91177" lon="4.75112">
        <ele>178</ele>
        <time>2017-10-20T10:39:44Z</time>
      </trkpt>
      <trkpt lat="45.91185" lon="4.75116">
        <ele>178</ele>
        <time>2017-10-20T10:39:46Z</time>
      </trkpt>
      <trkpt lat="45.9119" lon="4.75118">
        <ele>178</ele>
        <time>2017-10-20T10:39:47Z</time>
      </trkpt>
      <trkpt lat="45.91194" lon="4.7512">
        <ele>178</ele>
        <time>2017-10-20T10:39:48Z</time>
      </trkpt>
      <trkpt lat="45.91199" lon="4.75117">
        <ele>178</ele>
        <time>2017-10-20T10:39:49Z</time>
      </trkpt>
      <trkpt lat="45.91205" lon="4.75118">
        <ele>178</ele>
        <time>2017-10-20T10:39:50Z</time>
      </trkpt>
      <trkpt lat="45.9121" lon="4.7512">
        <ele>177</ele>
        <time>2017-10-20T10:39:51Z</time>
      </trkpt>
      <trkpt lat="45.91216" lon="4.75122">
        <ele>177</ele>
        <time>2017-10-20T10:39:52Z</time>
      </trkpt>
      <trkpt lat="45.91221" lon="4.75124">
        <ele>177</ele>
        <time>2017-10-20T10:39:53Z</time>
      </trkpt>
      <trkpt lat="45.91228" lon="4.75127">
        <ele>177</ele>
        <time>2017-10-20T10:39:54Z</time>
      </trkpt>
      <trkpt lat="45.91234" lon="4.7513">
        <ele>177</ele>
        <time>2017-10-20T10:39:55Z</time>
      </trkpt>
      <trkpt lat="45.9124" lon="4.75131">
        <ele>177</ele>
        <time>2017-10-20T10:39:56Z</time>
      </trkpt>
      <trkpt lat="45.91246" lon="4.75134">
        <ele>177</ele>
        <time>2017-10-20T10:39:57Z</time>
      </trkpt>
      <trkpt lat="45.91251" lon="4.75137">
        <ele>177</ele>
        <time>2017-10-20T10:39:58Z</time>
      </trkpt>
      <trkpt lat="45.91256" lon="4.7514">
        <ele>177</ele>
        <time>2017-10-20T10:39:59Z</time>
      </trkpt>
      <trkpt lat="45.9126" lon="4.75143">
        <ele>177</ele>
        <time>2017-10-20T10:40:00Z</time>
      </trkpt>
      <trkpt lat="45.91265" lon="4.75145">
        <ele>177</ele>
        <time>2017-10-20T10:40:01Z</time>
      </trkpt>
      <trkpt lat="45.91269" lon="4.75147">
        <ele>177</ele>
        <time>2017-10-20T10:40:02Z</time>
      </trkpt>
      <trkpt lat="45.91274" lon="4.75149">
        <ele>177</ele>
        <time>2017-10-20T10:40:03Z</time>
      </trkpt>
      <trkpt lat="45.91282" lon="4.75152">
        <ele>177</ele>
        <time>2017-10-20T10:40:05Z</time>
      </trkpt>
      <trkpt lat="45.91286" lon="4.75154">
        <ele>177</ele>
        <time>2017-10-20T10:40:06Z</time>
      </trkpt>
      <trkpt lat="45.9129" lon="4.75156">
        <ele>177</ele>
        <time>2017-10-20T10:40:07Z</time>
      </trkpt>
      <trkpt lat="45.91295" lon="4.75157">
        <ele>177</ele>
        <time>2017-10-20T10:40:08Z</time>
      </trkpt>
      <trkpt lat="45.91302" lon="4.75159">
        <ele>177</ele>
        <time>2017-10-20T10:40:10Z</time>
      </trkpt>
      <trkpt lat="45.91304" lon="4.7516">
        <ele>177</ele>
        <time>2017-10-20T10:40:11Z</time>
      </trkpt>
      <trkpt lat="45.9131" lon="4.75152">
        <ele>177</ele>
        <time>2017-10-20T10:40:15Z</time>
      </trkpt>
      <trkpt lat="45.9131" lon="4.75147">
        <ele>177</ele>
        <time>2017-10-20T10:40:16Z</time>
      </trkpt>
      <trkpt lat="45.91309" lon="4.75136">
        <ele>177</ele>
        <time>2017-10-20T10:40:18Z</time>
      </trkpt>
      <trkpt lat="45.91307" lon="4.75128">
        <ele>177</ele>
        <time>2017-10-20T10:40:19Z</time>
      </trkpt>
      <trkpt lat="45.91306" lon="4.75122">
        <ele>177</ele>
        <time>2017-10-20T10:40:20Z</time>
      </trkpt>
      <trkpt lat="45.91306" lon="4.75115">
        <ele>177</ele>
        <time>2017-10-20T10:40:21Z</time>
      </trkpt>
      <trkpt lat="45.91305" lon="4.75107">
        <ele>177</ele>
        <time>2017-10-20T10:40:22Z</time>
      </trkpt>
      <trkpt lat="45.91305" lon="4.75101">
        <ele>177</ele>
        <time>2017-10-20T10:40:23Z</time>
      </trkpt>
      <trkpt lat="45.91305" lon="4.75092">
        <ele>177</ele>
        <time>2017-10-20T10:40:24Z</time>
      </trkpt>
      <trkpt lat="45.91304" lon="4.75086">
        <ele>177</ele>
        <time>2017-10-20T10:40:25Z</time>
      </trkpt>
      <trkpt lat="45.91304" lon="4.75074">
        <ele>177</ele>
        <time>2017-10-20T10:40:27Z</time>
      </trkpt>
      <trkpt lat="45.91303" lon="4.75068">
        <ele>177</ele>
        <time>2017-10-20T10:40:28Z</time>
      </trkpt>
      <trkpt lat="45.91303" lon="4.75061">
        <ele>177</ele>
        <time>2017-10-20T10:40:29Z</time>
      </trkpt>
      <trkpt lat="45.91302" lon="4.75054">
        <ele>177</ele>
        <time>2017-10-20T10:40:30Z</time>
      </trkpt>
      <trkpt lat="45.91301" lon="4.75047">
        <ele>177</ele>
        <time>2017-10-20T10:40:31Z</time>
      </trkpt>
      <trkpt lat="45.91301" lon="4.75039">
        <ele>177</ele>
        <time>2017-10-20T10:40:32Z</time>
      </trkpt>
      <trkpt lat="45.91301" lon="4.75032">
        <ele>177</ele>
        <time>2017-10-20T10:40:33Z</time>
      </trkpt>
      <trkpt lat="45.913" lon="4.75024">
        <ele>177</ele>
        <time>2017-10-20T10:40:34Z</time>
      </trkpt>
      <trkpt lat="45.91301" lon="4.75016">
        <ele>177</ele>
        <time>2017-10-20T10:40:35Z</time>
      </trkpt>
      <trkpt lat="45.91303" lon="4.7501">
        <ele>177</ele>
        <time>2017-10-20T10:40:36Z</time>
      </trkpt>
      <trkpt lat="45.91303" lon="4.75003">
        <ele>177</ele>
        <time>2017-10-20T10:40:37Z</time>
      </trkpt>
      <trkpt lat="45.91304" lon="4.74996">
        <ele>177</ele>
        <time>2017-10-20T10:40:38Z</time>
      </trkpt>
      <trkpt lat="45.91303" lon="4.74985">
        <ele>177</ele>
        <time>2017-10-20T10:40:40Z</time>
      </trkpt>
      <trkpt lat="45.91303" lon="4.74979">
        <ele>177</ele>
        <time>2017-10-20T10:40:41Z</time>
      </trkpt>
      <trkpt lat="45.91305" lon="4.74968">
        <ele>177</ele>
        <time>2017-10-20T10:40:43Z</time>
      </trkpt>
      <trkpt lat="45.91305" lon="4.74962">
        <ele>177</ele>
        <time>2017-10-20T10:40:44Z</time>
      </trkpt>
      <trkpt lat="45.91307" lon="4.74955">
        <ele>177</ele>
        <time>2017-10-20T10:40:45Z</time>
      </trkpt>
      <trkpt lat="45.91307" lon="4.74948">
        <ele>177</ele>
        <time>2017-10-20T10:40:46Z</time>
      </trkpt>
      <trkpt lat="45.91308" lon="4.74941">
        <ele>177</ele>
        <time>2017-10-20T10:40:47Z</time>
      </trkpt>
      <trkpt lat="45.91309" lon="4.74933">
        <ele>177</ele>
        <time>2017-10-20T10:40:48Z</time>
      </trkpt>
      <trkpt lat="45.9131" lon="4.74926">
        <ele>177</ele>
        <time>2017-10-20T10:40:49Z</time>
      </trkpt>
      <trkpt lat="45.91311" lon="4.74919">
        <ele>177</ele>
        <time>2017-10-20T10:40:50Z</time>
      </trkpt>
      <trkpt lat="45.91312" lon="4.74912">
        <ele>176</ele>
        <time>2017-10-20T10:40:51Z</time>
      </trkpt>
      <trkpt lat="45.91312" lon="4.74904">
        <ele>176</ele>
        <time>2017-10-20T10:40:52Z</time>
      </trkpt>
      <trkpt lat="45.91312" lon="4.74898">
        <ele>176</ele>
        <time>2017-10-20T10:40:53Z</time>
      </trkpt>
      <trkpt lat="45.91314" lon="4.74891">
        <ele>176</ele>
        <time>2017-10-20T10:40:54Z</time>
      </trkpt>
      <trkpt lat="45.91319" lon="4.74882">
        <ele>176</ele>
        <time>2017-10-20T10:40:56Z</time>
      </trkpt>
      <trkpt lat="45.91322" lon="4.74881">
        <ele>176</ele>
        <time>2017-10-20T10:40:57Z</time>
      </trkpt>
      <trkpt lat="45.91328" lon="4.74879">
        <ele>176</ele>
        <time>2017-10-20T10:40:59Z</time>
      </trkpt>
      <trkpt lat="45.91333" lon="4.74881">
        <ele>176</ele>
        <time>2017-10-20T10:41:00Z</time>
      </trkpt>
      <trkpt lat="45.9134" lon="4.74888">
        <ele>176</ele>
        <time>2017-10-20T10:41:02Z</time>
      </trkpt>
      <trkpt lat="45.91345" lon="4.74891">
        <ele>176</ele>
        <time>2017-10-20T10:41:03Z</time>
      </trkpt>
      <trkpt lat="45.91352" lon="4.74897">
        <ele>177</ele>
        <time>2017-10-20T10:41:05Z</time>
      </trkpt>
      <trkpt lat="45.91356" lon="4.74899">
        <ele>177</ele>
        <time>2017-10-20T10:41:06Z</time>
      </trkpt>
      <trkpt lat="45.91363" lon="4.74902">
        <ele>177</ele>
        <time>2017-10-20T10:41:08Z</time>
      </trkpt>
      <trkpt lat="45.91367" lon="4.74902">
        <ele>177</ele>
        <time>2017-10-20T10:41:09Z</time>
      </trkpt>
      <trkpt lat="45.91372" lon="4.74904">
        <ele>177</ele>
        <time>2017-10-20T10:41:10Z</time>
      </trkpt>
      <trkpt lat="45.91376" lon="4.74904">
        <ele>177</ele>
        <time>2017-10-20T10:41:11Z</time>
      </trkpt>
      <trkpt lat="45.91381" lon="4.74906">
        <ele>177</ele>
        <time>2017-10-20T10:41:12Z</time>
      </trkpt>
      <trkpt lat="45.91386" lon="4.74907">
        <ele>177</ele>
        <time>2017-10-20T10:41:13Z</time>
      </trkpt>
      <trkpt lat="45.91391" lon="4.7491">
        <ele>177</ele>
        <time>2017-10-20T10:41:14Z</time>
      </trkpt>
      <trkpt lat="45.91396" lon="4.74912">
        <ele>177</ele>
        <time>2017-10-20T10:41:15Z</time>
      </trkpt>
      <trkpt lat="45.914" lon="4.74913">
        <ele>177</ele>
        <time>2017-10-20T10:41:16Z</time>
      </trkpt>
      <trkpt lat="45.91405" lon="4.74916">
        <ele>177</ele>
        <time>2017-10-20T10:41:17Z</time>
      </trkpt>
      <trkpt lat="45.91409" lon="4.74917">
        <ele>178</ele>
        <time>2017-10-20T10:41:18Z</time>
      </trkpt>
      <trkpt lat="45.91414" lon="4.74919">
        <ele>178</ele>
        <time>2017-10-20T10:41:19Z</time>
      </trkpt>
      <trkpt lat="45.91419" lon="4.74921">
        <ele>178</ele>
        <time>2017-10-20T10:41:20Z</time>
      </trkpt>
      <trkpt lat="45.91423" lon="4.74922">
        <ele>178</ele>
        <time>2017-10-20T10:41:21Z</time>
      </trkpt>
      <trkpt lat="45.9143" lon="4.74922">
        <ele>178</ele>
        <time>2017-10-20T10:41:23Z</time>
      </trkpt>
      <trkpt lat="45.91435" lon="4.74922">
        <ele>178</ele>
        <time>2017-10-20T10:41:24Z</time>
      </trkpt>
      <trkpt lat="45.91442" lon="4.74924">
        <ele>178</ele>
        <time>2017-10-20T10:41:26Z</time>
      </trkpt>
      <trkpt lat="45.91446" lon="4.74922">
        <ele>178</ele>
        <time>2017-10-20T10:41:27Z</time>
      </trkpt>
      <trkpt lat="45.91451" lon="4.74922">
        <ele>178</ele>
        <time>2017-10-20T10:41:28Z</time>
      </trkpt>
      <trkpt lat="45.91456" lon="4.7492">
        <ele>178</ele>
        <time>2017-10-20T10:41:29Z</time>
      </trkpt>
      <trkpt lat="45.91463" lon="4.74922">
        <ele>178</ele>
        <time>2017-10-20T10:41:31Z</time>
      </trkpt>
      <trkpt lat="45.91469" lon="4.74922">
        <ele>178</ele>
        <time>2017-10-20T10:41:32Z</time>
      </trkpt>
      <trkpt lat="45.91473" lon="4.74925">
        <ele>178</ele>
        <time>2017-10-20T10:41:33Z</time>
      </trkpt>
      <trkpt lat="45.91478" lon="4.74925">
        <ele>178</ele>
        <time>2017-10-20T10:41:34Z</time>
      </trkpt>
      <trkpt lat="45.91481" lon="4.74926">
        <ele>178</ele>
        <time>2017-10-20T10:41:35Z</time>
      </trkpt>
      <trkpt lat="45.91487" lon="4.74927">
        <ele>178</ele>
        <time>2017-10-20T10:41:36Z</time>
      </trkpt>
      <trkpt lat="45.91495" lon="4.74929">
        <ele>177</ele>
        <time>2017-10-20T10:41:38Z</time>
      </trkpt>
      <trkpt lat="45.91499" lon="4.7493">
        <ele>177</ele>
        <time>2017-10-20T10:41:39Z</time>
      </trkpt>
      <trkpt lat="45.91506" lon="4.74933">
        <ele>177</ele>
        <time>2017-10-20T10:41:41Z</time>
      </trkpt>
      <trkpt lat="45.9151" lon="4.74934">
        <ele>177</ele>
        <time>2017-10-20T10:41:42Z</time>
      </trkpt>
      <trkpt lat="45.91518" lon="4.74936">
        <ele>177</ele>
        <time>2017-10-20T10:41:44Z</time>
      </trkpt>
      <trkpt lat="45.91522" lon="4.74937">
        <ele>178</ele>
        <time>2017-10-20T10:41:45Z</time>
      </trkpt>
      <trkpt lat="45.9153" lon="4.74939">
        <ele>178</ele>
        <time>2017-10-20T10:41:47Z</time>
      </trkpt>
      <trkpt lat="45.91534" lon="4.74939">
        <ele>178</ele>
        <time>2017-10-20T10:41:48Z</time>
      </trkpt>
      <trkpt lat="45.91542" lon="4.74939">
        <ele>178</ele>
        <time>2017-10-20T10:41:50Z</time>
      </trkpt>
      <trkpt lat="45.91546" lon="4.74939">
        <ele>178</ele>
        <time>2017-10-20T10:41:51Z</time>
      </trkpt>
      <trkpt lat="45.91555" lon="4.74939">
        <ele>178</ele>
        <time>2017-10-20T10:41:53Z</time>
      </trkpt>
      <trkpt lat="45.91559" lon="4.74939">
        <ele>178</ele>
        <time>2017-10-20T10:41:54Z</time>
      </trkpt>
      <trkpt lat="45.91568" lon="4.74939">
        <ele>178</ele>
        <time>2017-10-20T10:41:56Z</time>
      </trkpt>
      <trkpt lat="45.91572" lon="4.74939">
        <ele>178</ele>
        <time>2017-10-20T10:41:57Z</time>
      </trkpt>
      <trkpt lat="45.91576" lon="4.74941">
        <ele>178</ele>
        <time>2017-10-20T10:41:58Z</time>
      </trkpt>
      <trkpt lat="45.91581" lon="4.74942">
        <ele>178</ele>
        <time>2017-10-20T10:41:59Z</time>
      </trkpt>
      <trkpt lat="45.91586" lon="4.74944">
        <ele>177</ele>
        <time>2017-10-20T10:42:00Z</time>
      </trkpt>
      <trkpt lat="45.91591" lon="4.74946">
        <ele>177</ele>
        <time>2017-10-20T10:42:01Z</time>
      </trkpt>
      <trkpt lat="45.91595" lon="4.74949">
        <ele>177</ele>
        <time>2017-10-20T10:42:02Z</time>
      </trkpt>
      <trkpt lat="45.91602" lon="4.74948">
        <ele>177</ele>
        <time>2017-10-20T10:42:03Z</time>
      </trkpt>
      <trkpt lat="45.91607" lon="4.74952">
        <ele>177</ele>
        <time>2017-10-20T10:42:04Z</time>
      </trkpt>
      <trkpt lat="45.91612" lon="4.74952">
        <ele>177</ele>
        <time>2017-10-20T10:42:05Z</time>
      </trkpt>
      <trkpt lat="45.91619" lon="4.74952">
        <ele>177</ele>
        <time>2017-10-20T10:42:06Z</time>
      </trkpt>
      <trkpt lat="45.91623" lon="4.74954">
        <ele>176</ele>
        <time>2017-10-20T10:42:07Z</time>
      </trkpt>
      <trkpt lat="45.9163" lon="4.74958">
        <ele>176</ele>
        <time>2017-10-20T10:42:09Z</time>
      </trkpt>
      <trkpt lat="45.91633" lon="4.74959">
        <ele>176</ele>
        <time>2017-10-20T10:42:10Z</time>
      </trkpt>
      <trkpt lat="45.9164" lon="4.74961">
        <ele>176</ele>
        <time>2017-10-20T10:42:12Z</time>
      </trkpt>
      <trkpt lat="45.91643" lon="4.74965">
        <ele>176</ele>
        <time>2017-10-20T10:42:13Z</time>
      </trkpt>
      <trkpt lat="45.91648" lon="4.74967">
        <ele>176</ele>
        <time>2017-10-20T10:42:14Z</time>
      </trkpt>
      <trkpt lat="45.91652" lon="4.74969">
        <ele>176</ele>
        <time>2017-10-20T10:42:15Z</time>
      </trkpt>
      <trkpt lat="45.91657" lon="4.74971">
        <ele>176</ele>
        <time>2017-10-20T10:42:16Z</time>
      </trkpt>
      <trkpt lat="45.91662" lon="4.74974">
        <ele>176</ele>
        <time>2017-10-20T10:42:17Z</time>
      </trkpt>
      <trkpt lat="45.91666" lon="4.74976">
        <ele>176</ele>
        <time>2017-10-20T10:42:18Z</time>
      </trkpt>
      <trkpt lat="45.91671" lon="4.74979">
        <ele>175</ele>
        <time>2017-10-20T10:42:19Z</time>
      </trkpt>
      <trkpt lat="45.91675" lon="4.74981">
        <ele>175</ele>
        <time>2017-10-20T10:42:20Z</time>
      </trkpt>
      <trkpt lat="45.91679" lon="4.74983">
        <ele>175</ele>
        <time>2017-10-20T10:42:21Z</time>
      </trkpt>
      <trkpt lat="45.91687" lon="4.74986">
        <ele>175</ele>
        <time>2017-10-20T10:42:23Z</time>
      </trkpt>
      <trkpt lat="45.91691" lon="4.74987">
        <ele>175</ele>
        <time>2017-10-20T10:42:24Z</time>
      </trkpt>
      <trkpt lat="45.91699" lon="4.74987">
        <ele>175</ele>
        <time>2017-10-20T10:42:26Z</time>
      </trkpt>
      <trkpt lat="45.91704" lon="4.74986">
        <ele>175</ele>
        <time>2017-10-20T10:42:27Z</time>
      </trkpt>
      <trkpt lat="45.91709" lon="4.74982">
        <ele>175</ele>
        <time>2017-10-20T10:42:28Z</time>
      </trkpt>
      <trkpt lat="45.91713" lon="4.7498">
        <ele>175</ele>
        <time>2017-10-20T10:42:29Z</time>
      </trkpt>
      <trkpt lat="45.91717" lon="4.74978">
        <ele>175</ele>
        <time>2017-10-20T10:42:30Z</time>
      </trkpt>
      <trkpt lat="45.91722" lon="4.74975">
        <ele>175</ele>
        <time>2017-10-20T10:42:31Z</time>
      </trkpt>
      <trkpt lat="45.91729" lon="4.74968">
        <ele>175</ele>
        <time>2017-10-20T10:42:33Z</time>
      </trkpt>
      <trkpt lat="45.91733" lon="4.74964">
        <ele>175</ele>
        <time>2017-10-20T10:42:34Z</time>
      </trkpt>
      <trkpt lat="45.91737" lon="4.74958">
        <ele>175</ele>
        <time>2017-10-20T10:42:35Z</time>
      </trkpt>
      <trkpt lat="45.9174" lon="4.74955">
        <ele>175</ele>
        <time>2017-10-20T10:42:36Z</time>
      </trkpt>
      <trkpt lat="45.91743" lon="4.7495">
        <ele>174</ele>
        <time>2017-10-20T10:42:37Z</time>
      </trkpt>
      <trkpt lat="45.91748" lon="4.74946">
        <ele>174</ele>
        <time>2017-10-20T10:42:38Z</time>
      </trkpt>
      <trkpt lat="45.91752" lon="4.74939">
        <ele>174</ele>
        <time>2017-10-20T10:42:39Z</time>
      </trkpt>
      <trkpt lat="45.91757" lon="4.74934">
        <ele>174</ele>
        <time>2017-10-20T10:42:40Z</time>
      </trkpt>
      <trkpt lat="45.91761" lon="4.7493">
        <ele>174</ele>
        <time>2017-10-20T10:42:41Z</time>
      </trkpt>
      <trkpt lat="45.91765" lon="4.74922">
        <ele>174</ele>
        <time>2017-10-20T10:42:42Z</time>
      </trkpt>
      <trkpt lat="45.91768" lon="4.74916">
        <ele>173</ele>
        <time>2017-10-20T10:42:43Z</time>
      </trkpt>
      <trkpt lat="45.91772" lon="4.74909">
        <ele>173</ele>
        <time>2017-10-20T10:42:44Z</time>
      </trkpt>
      <trkpt lat="45.91776" lon="4.74902">
        <ele>173</ele>
        <time>2017-10-20T10:42:45Z</time>
      </trkpt>
      <trkpt lat="45.91779" lon="4.74894">
        <ele>173</ele>
        <time>2017-10-20T10:42:46Z</time>
      </trkpt>
      <trkpt lat="45.91783" lon="4.74886">
        <ele>173</ele>
        <time>2017-10-20T10:42:47Z</time>
      </trkpt>
      <trkpt lat="45.91786" lon="4.74879">
        <ele>173</ele>
        <time>2017-10-20T10:42:48Z</time>
      </trkpt>
      <trkpt lat="45.9179" lon="4.74871">
        <ele>173</ele>
        <time>2017-10-20T10:42:49Z</time>
      </trkpt>
      <trkpt lat="45.91794" lon="4.74863">
        <ele>173</ele>
        <time>2017-10-20T10:42:50Z</time>
      </trkpt>
      <trkpt lat="45.91798" lon="4.74855">
        <ele>173</ele>
        <time>2017-10-20T10:42:51Z</time>
      </trkpt>
      <trkpt lat="45.91801" lon="4.74848">
        <ele>173</ele>
        <time>2017-10-20T10:42:52Z</time>
      </trkpt>
      <trkpt lat="45.91805" lon="4.74841">
        <ele>172</ele>
        <time>2017-10-20T10:42:53Z</time>
      </trkpt>
      <trkpt lat="45.91808" lon="4.74834">
        <ele>172</ele>
        <time>2017-10-20T10:42:54Z</time>
      </trkpt>
      <trkpt lat="45.91812" lon="4.74827">
        <ele>172</ele>
        <time>2017-10-20T10:42:55Z</time>
      </trkpt>
      <trkpt lat="45.91815" lon="4.74821">
        <ele>172</ele>
        <time>2017-10-20T10:42:56Z</time>
      </trkpt>
      <trkpt lat="45.91819" lon="4.74816">
        <ele>172</ele>
        <time>2017-10-20T10:42:57Z</time>
      </trkpt>
      <trkpt lat="45.91823" lon="4.7481">
        <ele>172</ele>
        <time>2017-10-20T10:42:58Z</time>
      </trkpt>
      <trkpt lat="45.91826" lon="4.74804">
        <ele>172</ele>
        <time>2017-10-20T10:42:59Z</time>
      </trkpt>
      <trkpt lat="45.9183" lon="4.74799">
        <ele>172</ele>
        <time>2017-10-20T10:43:00Z</time>
      </trkpt>
      <trkpt lat="45.91833" lon="4.74794">
        <ele>172</ele>
        <time>2017-10-20T10:43:01Z</time>
      </trkpt>
      <trkpt lat="45.91837" lon="4.74789">
        <ele>171</ele>
        <time>2017-10-20T10:43:02Z</time>
      </trkpt>
      <trkpt lat="45.91843" lon="4.74782">
        <ele>171</ele>
        <time>2017-10-20T10:43:04Z</time>
      </trkpt>
      <trkpt lat="45.91846" lon="4.74777">
        <ele>171</ele>
        <time>2017-10-20T10:43:05Z</time>
      </trkpt>
      <trkpt lat="45.91853" lon="4.7477">
        <ele>171</ele>
        <time>2017-10-20T10:43:07Z</time>
      </trkpt>
      <trkpt lat="45.91857" lon="4.74768">
        <ele>171</ele>
        <time>2017-10-20T10:43:08Z</time>
      </trkpt>
      <trkpt lat="45.91861" lon="4.74765">
        <ele>171</ele>
        <time>2017-10-20T10:43:09Z</time>
      </trkpt>
      <trkpt lat="45.91867" lon="4.74764">
        <ele>171</ele>
        <time>2017-10-20T10:43:10Z</time>
      </trkpt>
      <trkpt lat="45.91873" lon="4.74765">
        <ele>171</ele>
        <time>2017-10-20T10:43:11Z</time>
      </trkpt>
      <trkpt lat="45.91878" lon="4.74768">
        <ele>172</ele>
        <time>2017-10-20T10:43:12Z</time>
      </trkpt>
      <trkpt lat="45.91884" lon="4.74769">
        <ele>172</ele>
        <time>2017-10-20T10:43:13Z</time>
      </trkpt>
      <trkpt lat="45.91888" lon="4.74773">
        <ele>172</ele>
        <time>2017-10-20T10:43:14Z</time>
      </trkpt>
      <trkpt lat="45.91893" lon="4.74775">
        <ele>172</ele>
        <time>2017-10-20T10:43:15Z</time>
      </trkpt>
      <trkpt lat="45.91897" lon="4.74778">
        <ele>172</ele>
        <time>2017-10-20T10:43:16Z</time>
      </trkpt>
      <trkpt lat="45.91902" lon="4.7478">
        <ele>172</ele>
        <time>2017-10-20T10:43:17Z</time>
      </trkpt>
      <trkpt lat="45.91906" lon="4.74784">
        <ele>172</ele>
        <time>2017-10-20T10:43:18Z</time>
      </trkpt>
      <trkpt lat="45.91909" lon="4.74788">
        <ele>172</ele>
        <time>2017-10-20T10:43:19Z</time>
      </trkpt>
      <trkpt lat="45.91913" lon="4.74791">
        <ele>172</ele>
        <time>2017-10-20T10:43:20Z</time>
      </trkpt>
      <trkpt lat="45.91919" lon="4.74792">
        <ele>171</ele>
        <time>2017-10-20T10:43:21Z</time>
      </trkpt>
      <trkpt lat="45.91925" lon="4.74795">
        <ele>170</ele>
        <time>2017-10-20T10:43:22Z</time>
      </trkpt>
      <trkpt lat="45.91929" lon="4.74798">
        <ele>170</ele>
        <time>2017-10-20T10:43:23Z</time>
      </trkpt>
      <trkpt lat="45.91934" lon="4.748">
        <ele>170</ele>
        <time>2017-10-20T10:43:24Z</time>
      </trkpt>
      <trkpt lat="45.91939" lon="4.74803">
        <ele>170</ele>
        <time>2017-10-20T10:43:25Z</time>
      </trkpt>
      <trkpt lat="45.91944" lon="4.74806">
        <ele>170</ele>
        <time>2017-10-20T10:43:26Z</time>
      </trkpt>
      <trkpt lat="45.91949" lon="4.74808">
        <ele>170</ele>
        <time>2017-10-20T10:43:27Z</time>
      </trkpt>
      <trkpt lat="45.91954" lon="4.74811">
        <ele>170</ele>
        <time>2017-10-20T10:43:28Z</time>
      </trkpt>
      <trkpt lat="45.91959" lon="4.74814">
        <ele>170</ele>
        <time>2017-10-20T10:43:29Z</time>
      </trkpt>
      <trkpt lat="45.91964" lon="4.74817">
        <ele>170</ele>
        <time>2017-10-20T10:43:30Z</time>
      </trkpt>
      <trkpt lat="45.91968" lon="4.74819">
        <ele>170</ele>
        <time>2017-10-20T10:43:31Z</time>
      </trkpt>
      <trkpt lat="45.91972" lon="4.74822">
        <ele>169</ele>
        <time>2017-10-20T10:43:32Z</time>
      </trkpt>
      <trkpt lat="45.9198" lon="4.74827">
        <ele>169</ele>
        <time>2017-10-20T10:43:34Z</time>
      </trkpt>
      <trkpt lat="45.91984" lon="4.74829">
        <ele>169</ele>
        <time>2017-10-20T10:43:35Z</time>
      </trkpt>
      <trkpt lat="45.91992" lon="4.74834">
        <ele>169</ele>
        <time>2017-10-20T10:43:37Z</time>
      </trkpt>
      <trkpt lat="45.91996" lon="4.74837">
        <ele>168</ele>
        <time>2017-10-20T10:43:38Z</time>
      </trkpt>
      <trkpt lat="45.92001" lon="4.7484">
        <ele>168</ele>
        <time>2017-10-20T10:43:39Z</time>
      </trkpt>
      <trkpt lat="45.92006" lon="4.74841">
        <ele>168</ele>
        <time>2017-10-20T10:43:40Z</time>
      </trkpt>
      <trkpt lat="45.9201" lon="4.74844">
        <ele>168</ele>
        <time>2017-10-20T10:43:41Z</time>
      </trkpt>
      <trkpt lat="45.92015" lon="4.74846">
        <ele>169</ele>
        <time>2017-10-20T10:43:42Z</time>
      </trkpt>
      <trkpt lat="45.92019" lon="4.74848">
        <ele>169</ele>
        <time>2017-10-20T10:43:43Z</time>
      </trkpt>
      <trkpt lat="45.92023" lon="4.74854">
        <ele>169</ele>
        <time>2017-10-20T10:43:44Z</time>
      </trkpt>
      <trkpt lat="45.92027" lon="4.74856">
        <ele>169</ele>
        <time>2017-10-20T10:43:45Z</time>
      </trkpt>
      <trkpt lat="45.92032" lon="4.74859">
        <ele>169</ele>
        <time>2017-10-20T10:43:46Z</time>
      </trkpt>
      <trkpt lat="45.92036" lon="4.74862">
        <ele>169</ele>
        <time>2017-10-20T10:43:47Z</time>
      </trkpt>
      <trkpt lat="45.92043" lon="4.74863">
        <ele>169</ele>
        <time>2017-10-20T10:43:48Z</time>
      </trkpt>
      <trkpt lat="45.92047" lon="4.74867">
        <ele>169</ele>
        <time>2017-10-20T10:43:49Z</time>
      </trkpt>
      <trkpt lat="45.92053" lon="4.74869">
        <ele>169</ele>
        <time>2017-10-20T10:43:50Z</time>
      </trkpt>
      <trkpt lat="45.92059" lon="4.74873">
        <ele>169</ele>
        <time>2017-10-20T10:43:51Z</time>
      </trkpt>
      <trkpt lat="45.92065" lon="4.74876">
        <ele>169</ele>
        <time>2017-10-20T10:43:52Z</time>
      </trkpt>
      <trkpt lat="45.9207" lon="4.74879">
        <ele>169</ele>
        <time>2017-10-20T10:43:53Z</time>
      </trkpt>
      <trkpt lat="45.92075" lon="4.74882">
        <ele>169</ele>
        <time>2017-10-20T10:43:54Z</time>
      </trkpt>
      <trkpt lat="45.92079" lon="4.74884">
        <ele>169</ele>
        <time>2017-10-20T10:43:55Z</time>
      </trkpt>
      <trkpt lat="45.92083" lon="4.74886">
        <ele>169</ele>
        <time>2017-10-20T10:43:56Z</time>
      </trkpt>
      <trkpt lat="45.92088" lon="4.74887">
        <ele>170</ele>
        <time>2017-10-20T10:43:57Z</time>
      </trkpt>
      <trkpt lat="45.92093" lon="4.74889">
        <ele>170</ele>
        <time>2017-10-20T10:43:58Z</time>
      </trkpt>
      <trkpt lat="45.92101" lon="4.74894">
        <ele>170</ele>
        <time>2017-10-20T10:44:00Z</time>
      </trkpt>
      <trkpt lat="45.92104" lon="4.74896">
        <ele>170</ele>
        <time>2017-10-20T10:44:01Z</time>
      </trkpt>
      <trkpt lat="45.92112" lon="4.74901">
        <ele>170</ele>
        <time>2017-10-20T10:44:03Z</time>
      </trkpt>
      <trkpt lat="45.92117" lon="4.74902">
        <ele>170</ele>
        <time>2017-10-20T10:44:04Z</time>
      </trkpt>
      <trkpt lat="45.92122" lon="4.74904">
        <ele>170</ele>
        <time>2017-10-20T10:44:05Z</time>
      </trkpt>
      <trkpt lat="45.92127" lon="4.74906">
        <ele>170</ele>
        <time>2017-10-20T10:44:06Z</time>
      </trkpt>
      <trkpt lat="45.92132" lon="4.74909">
        <ele>170</ele>
        <time>2017-10-20T10:44:07Z</time>
      </trkpt>
      <trkpt lat="45.92137" lon="4.74912">
        <ele>170</ele>
        <time>2017-10-20T10:44:08Z</time>
      </trkpt>
      <trkpt lat="45.92142" lon="4.74915">
        <ele>170</ele>
        <time>2017-10-20T10:44:09Z</time>
      </trkpt>
      <trkpt lat="45.92146" lon="4.74917">
        <ele>170</ele>
        <time>2017-10-20T10:44:10Z</time>
      </trkpt>
      <trkpt lat="45.92154" lon="4.74922">
        <ele>170</ele>
        <time>2017-10-20T10:44:12Z</time>
      </trkpt>
      <trkpt lat="45.92158" lon="4.74924">
        <ele>170</ele>
        <time>2017-10-20T10:44:13Z</time>
      </trkpt>
      <trkpt lat="45.92162" lon="4.74927">
        <ele>170</ele>
        <time>2017-10-20T10:44:14Z</time>
      </trkpt>
      <trkpt lat="45.92167" lon="4.74929">
        <ele>170</ele>
        <time>2017-10-20T10:44:15Z</time>
      </trkpt>
      <trkpt lat="45.92173" lon="4.74932">
        <ele>171</ele>
        <time>2017-10-20T10:44:16Z</time>
      </trkpt>
      <trkpt lat="45.92178" lon="4.74934">
        <ele>171</ele>
        <time>2017-10-20T10:44:17Z</time>
      </trkpt>
      <trkpt lat="45.92183" lon="4.74937">
        <ele>171</ele>
        <time>2017-10-20T10:44:18Z</time>
      </trkpt>
      <trkpt lat="45.92188" lon="4.7494">
        <ele>171</ele>
        <time>2017-10-20T10:44:19Z</time>
      </trkpt>
      <trkpt lat="45.92194" lon="4.74942">
        <ele>171</ele>
        <time>2017-10-20T10:44:20Z</time>
      </trkpt>
      <trkpt lat="45.92198" lon="4.74944">
        <ele>171</ele>
        <time>2017-10-20T10:44:21Z</time>
      </trkpt>
      <trkpt lat="45.92202" lon="4.74948">
        <ele>171</ele>
        <time>2017-10-20T10:44:22Z</time>
      </trkpt>
      <trkpt lat="45.92207" lon="4.7495">
        <ele>171</ele>
        <time>2017-10-20T10:44:23Z</time>
      </trkpt>
      <trkpt lat="45.92215" lon="4.74954">
        <ele>171</ele>
        <time>2017-10-20T10:44:25Z</time>
      </trkpt>
      <trkpt lat="45.92219" lon="4.74956">
        <ele>171</ele>
        <time>2017-10-20T10:44:26Z</time>
      </trkpt>
      <trkpt lat="45.92224" lon="4.74958">
        <ele>171</ele>
        <time>2017-10-20T10:44:27Z</time>
      </trkpt>
      <trkpt lat="45.92228" lon="4.7496">
        <ele>171</ele>
        <time>2017-10-20T10:44:28Z</time>
      </trkpt>
      <trkpt lat="45.92236" lon="4.74963">
        <ele>171</ele>
        <time>2017-10-20T10:44:30Z</time>
      </trkpt>
      <trkpt lat="45.9224" lon="4.74961">
        <ele>171</ele>
        <time>2017-10-20T10:44:31Z</time>
      </trkpt>
      <trkpt lat="45.92246" lon="4.74956">
        <ele>172</ele>
        <time>2017-10-20T10:44:33Z</time>
      </trkpt>
      <trkpt lat="45.92247" lon="4.74953">
        <ele>172</ele>
        <time>2017-10-20T10:44:34Z</time>
      </trkpt>
      <trkpt lat="45.92249" lon="4.74942">
        <ele>172</ele>
        <time>2017-10-20T10:44:37Z</time>
      </trkpt>
      <trkpt lat="45.9225" lon="4.74937">
        <ele>172</ele>
        <time>2017-10-20T10:44:38Z</time>
      </trkpt>
      <trkpt lat="45.92253" lon="4.74925">
        <ele>172</ele>
        <time>2017-10-20T10:44:40Z</time>
      </trkpt>
      <trkpt lat="45.92255" lon="4.74921">
        <ele>172</ele>
        <time>2017-10-20T10:44:41Z</time>
      </trkpt>
      <trkpt lat="45.9226" lon="4.74912">
        <ele>172</ele>
        <time>2017-10-20T10:44:43Z</time>
      </trkpt>
      <trkpt lat="45.92263" lon="4.74908">
        <ele>172</ele>
        <time>2017-10-20T10:44:44Z</time>
      </trkpt>
      <trkpt lat="45.92269" lon="4.74901">
        <ele>172</ele>
        <time>2017-10-20T10:44:46Z</time>
      </trkpt>
      <trkpt lat="45.92272" lon="4.74897">
        <ele>172</ele>
        <time>2017-10-20T10:44:47Z</time>
      </trkpt>
      <trkpt lat="45.92277" lon="4.74889">
        <ele>172</ele>
        <time>2017-10-20T10:44:49Z</time>
      </trkpt>
      <trkpt lat="45.9228" lon="4.74885">
        <ele>172</ele>
        <time>2017-10-20T10:44:50Z</time>
      </trkpt>
      <trkpt lat="45.92285" lon="4.74878">
        <ele>172</ele>
        <time>2017-10-20T10:44:52Z</time>
      </trkpt>
      <trkpt lat="45.92288" lon="4.74875">
        <ele>171</ele>
        <time>2017-10-20T10:44:53Z</time>
      </trkpt>
      <trkpt lat="45.92293" lon="4.74869">
        <ele>172</ele>
        <time>2017-10-20T10:44:55Z</time>
      </trkpt>
      <trkpt lat="45.92295" lon="4.74865">
        <ele>172</ele>
        <time>2017-10-20T10:44:56Z</time>
      </trkpt>
      <trkpt lat="45.923" lon="4.74856">
        <ele>172</ele>
        <time>2017-10-20T10:44:58Z</time>
      </trkpt>
      <trkpt lat="45.92302" lon="4.74851">
        <ele>172</ele>
        <time>2017-10-20T10:44:59Z</time>
      </trkpt>
      <trkpt lat="45.92305" lon="4.74846">
        <ele>172</ele>
        <time>2017-10-20T10:45:00Z</time>
      </trkpt>
      <trkpt lat="45.92308" lon="4.74841">
        <ele>172</ele>
        <time>2017-10-20T10:45:01Z</time>
      </trkpt>
      <trkpt lat="45.92313" lon="4.74831">
        <ele>171</ele>
        <time>2017-10-20T10:45:03Z</time>
      </trkpt>
      <trkpt lat="45.92316" lon="4.74827">
        <ele>171</ele>
        <time>2017-10-20T10:45:04Z</time>
      </trkpt>
      <trkpt lat="45.9232" lon="4.74819">
        <ele>171</ele>
        <time>2017-10-20T10:45:06Z</time>
      </trkpt>
      <trkpt lat="45.92322" lon="4.74815">
        <ele>171</ele>
        <time>2017-10-20T10:45:07Z</time>
      </trkpt>
      <trkpt lat="45.92326" lon="4.74807">
        <ele>171</ele>
        <time>2017-10-20T10:45:09Z</time>
      </trkpt>
      <trkpt lat="45.92329" lon="4.74804">
        <ele>171</ele>
        <time>2017-10-20T10:45:10Z</time>
      </trkpt>
      <trkpt lat="45.92332" lon="4.74796">
        <ele>171</ele>
        <time>2017-10-20T10:45:12Z</time>
      </trkpt>
      <trkpt lat="45.92334" lon="4.74793">
        <ele>171</ele>
        <time>2017-10-20T10:45:13Z</time>
      </trkpt>
      <trkpt lat="45.92339" lon="4.74785">
        <ele>171</ele>
        <time>2017-10-20T10:45:15Z</time>
      </trkpt>
      <trkpt lat="45.92341" lon="4.7478">
        <ele>171</ele>
        <time>2017-10-20T10:45:16Z</time>
      </trkpt>
      <trkpt lat="45.92346" lon="4.7477">
        <ele>171</ele>
        <time>2017-10-20T10:45:18Z</time>
      </trkpt>
      <trkpt lat="45.92349" lon="4.74766">
        <ele>171</ele>
        <time>2017-10-20T10:45:19Z</time>
      </trkpt>
      <trkpt lat="45.92354" lon="4.74758">
        <ele>171</ele>
        <time>2017-10-20T10:45:21Z</time>
      </trkpt>
      <trkpt lat="45.92357" lon="4.74754">
        <ele>171</ele>
        <time>2017-10-20T10:45:22Z</time>
      </trkpt>
      <trkpt lat="45.92362" lon="4.74745">
        <ele>171</ele>
        <time>2017-10-20T10:45:24Z</time>
      </trkpt>
      <trkpt lat="45.92365" lon="4.7474">
        <ele>171</ele>
        <time>2017-10-20T10:45:25Z</time>
      </trkpt>
      <trkpt lat="45.92369" lon="4.74731">
        <ele>171</ele>
        <time>2017-10-20T10:45:27Z</time>
      </trkpt>
      <trkpt lat="45.92372" lon="4.74726">
        <ele>171</ele>
        <time>2017-10-20T10:45:28Z</time>
      </trkpt>
      <trkpt lat="45.92377" lon="4.74718">
        <ele>171</ele>
        <time>2017-10-20T10:45:30Z</time>
      </trkpt>
      <trkpt lat="45.92379" lon="4.74714">
        <ele>171</ele>
        <time>2017-10-20T10:45:31Z</time>
      </trkpt>
      <trkpt lat="45.92382" lon="4.74708">
        <ele>171</ele>
        <time>2017-10-20T10:45:32Z</time>
      </trkpt>
      <trkpt lat="45.92385" lon="4.74703">
        <ele>171</ele>
        <time>2017-10-20T10:45:33Z</time>
      </trkpt>
      <trkpt lat="45.92389" lon="4.74698">
        <ele>171</ele>
        <time>2017-10-20T10:45:34Z</time>
      </trkpt>
      <trkpt lat="45.92391" lon="4.74692">
        <ele>171</ele>
        <time>2017-10-20T10:45:35Z</time>
      </trkpt>
      <trkpt lat="45.92394" lon="4.74685">
        <ele>171</ele>
        <time>2017-10-20T10:45:36Z</time>
      </trkpt>
      <trkpt lat="45.92398" lon="4.7468">
        <ele>171</ele>
        <time>2017-10-20T10:45:37Z</time>
      </trkpt>
      <trkpt lat="45.92401" lon="4.74675">
        <ele>171</ele>
        <time>2017-10-20T10:45:38Z</time>
      </trkpt>
      <trkpt lat="45.92404" lon="4.74671">
        <ele>171</ele>
        <time>2017-10-20T10:45:39Z</time>
      </trkpt>
      <trkpt lat="45.92409" lon="4.74662">
        <ele>172</ele>
        <time>2017-10-20T10:45:41Z</time>
      </trkpt>
      <trkpt lat="45.92411" lon="4.74659">
        <ele>171</ele>
        <time>2017-10-20T10:45:42Z</time>
      </trkpt>
      <trkpt lat="45.92415" lon="4.74652">
        <ele>171</ele>
        <time>2017-10-20T10:45:44Z</time>
      </trkpt>
      <trkpt lat="45.92417" lon="4.74648">
        <ele>171</ele>
        <time>2017-10-20T10:45:45Z</time>
      </trkpt>
      <trkpt lat="45.92421" lon="4.74638">
        <ele>171</ele>
        <time>2017-10-20T10:45:47Z</time>
      </trkpt>
      <trkpt lat="45.92422" lon="4.74634">
        <ele>171</ele>
        <time>2017-10-20T10:45:48Z</time>
      </trkpt>
      <trkpt lat="45.92425" lon="4.74623">
        <ele>171</ele>
        <time>2017-10-20T10:45:50Z</time>
      </trkpt>
      <trkpt lat="45.92426" lon="4.74618">
        <ele>171</ele>
        <time>2017-10-20T10:45:51Z</time>
      </trkpt>
      <trkpt lat="45.92428" lon="4.74607">
        <ele>171</ele>
        <time>2017-10-20T10:45:53Z</time>
      </trkpt>
      <trkpt lat="45.92428" lon="4.74601">
        <ele>171</ele>
        <time>2017-10-20T10:45:54Z</time>
      </trkpt>
      <trkpt lat="45.92425" lon="4.74593">
        <ele>171</ele>
        <time>2017-10-20T10:45:56Z</time>
      </trkpt>
      <trkpt lat="45.92424" lon="4.74589">
        <ele>171</ele>
        <time>2017-10-20T10:45:57Z</time>
      </trkpt>
      <trkpt lat="45.92419" lon="4.74581">
        <ele>171</ele>
        <time>2017-10-20T10:45:59Z</time>
      </trkpt>
      <trkpt lat="45.92417" lon="4.74578">
        <ele>171</ele>
        <time>2017-10-20T10:46:00Z</time>
      </trkpt>
      <trkpt lat="45.92411" lon="4.74574">
        <ele>171</ele>
        <time>2017-10-20T10:46:02Z</time>
      </trkpt>
      <trkpt lat="45.92408" lon="4.74572">
        <ele>171</ele>
        <time>2017-10-20T10:46:03Z</time>
      </trkpt>
      <trkpt lat="45.92402" lon="4.74568">
        <ele>171</ele>
        <time>2017-10-20T10:46:05Z</time>
      </trkpt>
      <trkpt lat="45.92399" lon="4.74565">
        <ele>171</ele>
        <time>2017-10-20T10:46:06Z</time>
      </trkpt>
      <trkpt lat="45.92392" lon="4.7456">
        <ele>171</ele>
        <time>2017-10-20T10:46:08Z</time>
      </trkpt>
      <trkpt lat="45.92388" lon="4.74558">
        <ele>171</ele>
        <time>2017-10-20T10:46:09Z</time>
      </trkpt>
      <trkpt lat="45.92381" lon="4.74553">
        <ele>171</ele>
        <time>2017-10-20T10:46:11Z</time>
      </trkpt>
      <trkpt lat="45.92378" lon="4.74551">
        <ele>171</ele>
        <time>2017-10-20T10:46:12Z</time>
      </trkpt>
      <trkpt lat="45.92372" lon="4.74547">
        <ele>170</ele>
        <time>2017-10-20T10:46:14Z</time>
      </trkpt>
      <trkpt lat="45.92369" lon="4.74546">
        <ele>170</ele>
        <time>2017-10-20T10:46:15Z</time>
      </trkpt>
      <trkpt lat="45.92361" lon="4.74541">
        <ele>171</ele>
        <time>2017-10-20T10:46:17Z</time>
      </trkpt>
      <trkpt lat="45.92357" lon="4.74539">
        <ele>171</ele>
        <time>2017-10-20T10:46:18Z</time>
      </trkpt>
      <trkpt lat="45.92353" lon="4.74536">
        <ele>171</ele>
        <time>2017-10-20T10:46:19Z</time>
      </trkpt>
      <trkpt lat="45.92349" lon="4.74534">
        <ele>171</ele>
        <time>2017-10-20T10:46:20Z</time>
      </trkpt>
      <trkpt lat="45.9234" lon="4.74529">
        <ele>171</ele>
        <time>2017-10-20T10:46:22Z</time>
      </trkpt>
      <trkpt lat="45.92336" lon="4.74526">
        <ele>171</ele>
        <time>2017-10-20T10:46:23Z</time>
      </trkpt>
      <trkpt lat="45.92329" lon="4.74522">
        <ele>171</ele>
        <time>2017-10-20T10:46:25Z</time>
      </trkpt>
      <trkpt lat="45.92326" lon="4.7452">
        <ele>171</ele>
        <time>2017-10-20T10:46:26Z</time>
      </trkpt>
      <trkpt lat="45.92319" lon="4.74516">
        <ele>171</ele>
        <time>2017-10-20T10:46:28Z</time>
      </trkpt>
      <trkpt lat="45.92315" lon="4.74513">
        <ele>171</ele>
        <time>2017-10-20T10:46:29Z</time>
      </trkpt>
      <trkpt lat="45.92311" lon="4.7451">
        <ele>171</ele>
        <time>2017-10-20T10:46:30Z</time>
      </trkpt>
      <trkpt lat="45.92307" lon="4.74509">
        <ele>171</ele>
        <time>2017-10-20T10:46:31Z</time>
      </trkpt>
      <trkpt lat="45.92303" lon="4.74506">
        <ele>171</ele>
        <time>2017-10-20T10:46:32Z</time>
      </trkpt>
      <trkpt lat="45.92299" lon="4.74503">
        <ele>171</ele>
        <time>2017-10-20T10:46:33Z</time>
      </trkpt>
      <trkpt lat="45.92294" lon="4.745">
        <ele>171</ele>
        <time>2017-10-20T10:46:34Z</time>
      </trkpt>
      <trkpt lat="45.9229" lon="4.74497">
        <ele>171</ele>
        <time>2017-10-20T10:46:35Z</time>
      </trkpt>
      <trkpt lat="45.92282" lon="4.74493">
        <ele>171</ele>
        <time>2017-10-20T10:46:37Z</time>
      </trkpt>
      <trkpt lat="45.92279" lon="4.74492">
        <ele>171</ele>
        <time>2017-10-20T10:46:38Z</time>
      </trkpt>
      <trkpt lat="45.92272" lon="4.7449">
        <ele>171</ele>
        <time>2017-10-20T10:46:40Z</time>
      </trkpt>
      <trkpt lat="45.92269" lon="4.74488">
        <ele>171</ele>
        <time>2017-10-20T10:46:41Z</time>
      </trkpt>
      <trkpt lat="45.92262" lon="4.74484">
        <ele>171</ele>
        <time>2017-10-20T10:46:43Z</time>
      </trkpt>
      <trkpt lat="45.92259" lon="4.74481">
        <ele>171</ele>
        <time>2017-10-20T10:46:44Z</time>
      </trkpt>
      <trkpt lat="45.92252" lon="4.74475">
        <ele>171</ele>
        <time>2017-10-20T10:46:46Z</time>
      </trkpt>
      <trkpt lat="45.92248" lon="4.74472">
        <ele>171</ele>
        <time>2017-10-20T10:46:47Z</time>
      </trkpt>
      <trkpt lat="45.92242" lon="4.74466">
        <ele>171</ele>
        <time>2017-10-20T10:46:49Z</time>
      </trkpt>
      <trkpt lat="45.9224" lon="4.74463">
        <ele>171</ele>
        <time>2017-10-20T10:46:50Z</time>
      </trkpt>
      <trkpt lat="45.92237" lon="4.74454">
        <ele>171</ele>
        <time>2017-10-20T10:46:52Z</time>
      </trkpt>
      <trkpt lat="45.92237" lon="4.74448">
        <ele>171</ele>
        <time>2017-10-20T10:46:53Z</time>
      </trkpt>
      <trkpt lat="45.92238" lon="4.74437">
        <ele>171</ele>
        <time>2017-10-20T10:46:55Z</time>
      </trkpt>
      <trkpt lat="45.92239" lon="4.74431">
        <ele>171</ele>
        <time>2017-10-20T10:46:56Z</time>
      </trkpt>
      <trkpt lat="45.92242" lon="4.7442">
        <ele>171</ele>
        <time>2017-10-20T10:46:58Z</time>
      </trkpt>
      <trkpt lat="45.92244" lon="4.74415">
        <ele>171</ele>
        <time>2017-10-20T10:46:59Z</time>
      </trkpt>
      <trkpt lat="45.92247" lon="4.74406">
        <ele>171</ele>
        <time>2017-10-20T10:47:01Z</time>
      </trkpt>
      <trkpt lat="45.92248" lon="4.74401">
        <ele>171</ele>
        <time>2017-10-20T10:47:02Z</time>
      </trkpt>
      <trkpt lat="45.92252" lon="4.7439">
        <ele>171</ele>
        <time>2017-10-20T10:47:04Z</time>
      </trkpt>
      <trkpt lat="45.92253" lon="4.74384">
        <ele>171</ele>
        <time>2017-10-20T10:47:05Z</time>
      </trkpt>
      <trkpt lat="45.92257" lon="4.74373">
        <ele>171</ele>
        <time>2017-10-20T10:47:07Z</time>
      </trkpt>
      <trkpt lat="45.92259" lon="4.74369">
        <ele>171</ele>
        <time>2017-10-20T10:47:08Z</time>
      </trkpt>
      <trkpt lat="45.92263" lon="4.74361">
        <ele>171</ele>
        <time>2017-10-20T10:47:10Z</time>
      </trkpt>
      <trkpt lat="45.92265" lon="4.74358">
        <ele>171</ele>
        <time>2017-10-20T10:47:11Z</time>
      </trkpt>
      <trkpt lat="45.92271" lon="4.74352">
        <ele>171</ele>
        <time>2017-10-20T10:47:13Z</time>
      </trkpt>
      <trkpt lat="45.92273" lon="4.74348">
        <ele>171</ele>
        <time>2017-10-20T10:47:14Z</time>
      </trkpt>
      <trkpt lat="45.9228" lon="4.74341">
        <ele>171</ele>
        <time>2017-10-20T10:47:16Z</time>
      </trkpt>
      <trkpt lat="45.92285" lon="4.74336">
        <ele>171</ele>
        <time>2017-10-20T10:47:17Z</time>
      </trkpt>
      <trkpt lat="45.92289" lon="4.74332">
        <ele>170</ele>
        <time>2017-10-20T10:47:18Z</time>
      </trkpt>
      <trkpt lat="45.92293" lon="4.74327">
        <ele>170</ele>
        <time>2017-10-20T10:47:19Z</time>
      </trkpt>
      <trkpt lat="45.92297" lon="4.74323">
        <ele>170</ele>
        <time>2017-10-20T10:47:20Z</time>
      </trkpt>
      <trkpt lat="45.92302" lon="4.7432">
        <ele>170</ele>
        <time>2017-10-20T10:47:21Z</time>
      </trkpt>
      <trkpt lat="45.92306" lon="4.74316">
        <ele>170</ele>
        <time>2017-10-20T10:47:22Z</time>
      </trkpt>
      <trkpt lat="45.9231" lon="4.74312">
        <ele>170</ele>
        <time>2017-10-20T10:47:23Z</time>
      </trkpt>
      <trkpt lat="45.92314" lon="4.74309">
        <ele>170</ele>
        <time>2017-10-20T10:47:24Z</time>
      </trkpt>
      <trkpt lat="45.92318" lon="4.74306">
        <ele>170</ele>
        <time>2017-10-20T10:47:25Z</time>
      </trkpt>
      <trkpt lat="45.92326" lon="4.74304">
        <ele>170</ele>
        <time>2017-10-20T10:47:27Z</time>
      </trkpt>
      <trkpt lat="45.9233" lon="4.74303">
        <ele>170</ele>
        <time>2017-10-20T10:47:28Z</time>
      </trkpt>
      <trkpt lat="45.92335" lon="4.74302">
        <ele>170</ele>
        <time>2017-10-20T10:47:29Z</time>
      </trkpt>
      <trkpt lat="45.9234" lon="4.74302">
        <ele>170</ele>
        <time>2017-10-20T10:47:30Z</time>
      </trkpt>
      <trkpt lat="45.92346" lon="4.74304">
        <ele>170</ele>
        <time>2017-10-20T10:47:31Z</time>
      </trkpt>
      <trkpt lat="45.92352" lon="4.74306">
        <ele>170</ele>
        <time>2017-10-20T10:47:32Z</time>
      </trkpt>
      <trkpt lat="45.92357" lon="4.74307">
        <ele>170</ele>
        <time>2017-10-20T10:47:33Z</time>
      </trkpt>
      <trkpt lat="45.92362" lon="4.7431">
        <ele>170</ele>
        <time>2017-10-20T10:47:34Z</time>
      </trkpt>
      <trkpt lat="45.92367" lon="4.74312">
        <ele>170</ele>
        <time>2017-10-20T10:47:35Z</time>
      </trkpt>
      <trkpt lat="45.92372" lon="4.74314">
        <ele>170</ele>
        <time>2017-10-20T10:47:36Z</time>
      </trkpt>
      <trkpt lat="45.92377" lon="4.74316">
        <ele>170</ele>
        <time>2017-10-20T10:47:37Z</time>
      </trkpt>
      <trkpt lat="45.92381" lon="4.74318">
        <ele>170</ele>
        <time>2017-10-20T10:47:38Z</time>
      </trkpt>
      <trkpt lat="45.92388" lon="4.7432">
        <ele>170</ele>
        <time>2017-10-20T10:47:40Z</time>
      </trkpt>
      <trkpt lat="45.92392" lon="4.7432">
        <ele>170</ele>
        <time>2017-10-20T10:47:41Z</time>
      </trkpt>
      <trkpt lat="45.92399" lon="4.74318">
        <ele>170</ele>
        <time>2017-10-20T10:47:43Z</time>
      </trkpt>
      <trkpt lat="45.92401" lon="4.74316">
        <ele>170</ele>
        <time>2017-10-20T10:47:44Z</time>
      </trkpt>
      <trkpt lat="45.92407" lon="4.74307">
        <ele>170</ele>
        <time>2017-10-20T10:47:46Z</time>
      </trkpt>
      <trkpt lat="45.9241" lon="4.74302">
        <ele>170</ele>
        <time>2017-10-20T10:47:47Z</time>
      </trkpt>
      <trkpt lat="45.92413" lon="4.74296">
        <ele>170</ele>
        <time>2017-10-20T10:47:48Z</time>
      </trkpt>
      <trkpt lat="45.92417" lon="4.7429">
        <ele>170</ele>
        <time>2017-10-20T10:47:49Z</time>
      </trkpt>
      <trkpt lat="45.9242" lon="4.74283">
        <ele>170</ele>
        <time>2017-10-20T10:47:50Z</time>
      </trkpt>
      <trkpt lat="45.92423" lon="4.74278">
        <ele>170</ele>
        <time>2017-10-20T10:47:51Z</time>
      </trkpt>
      <trkpt lat="45.92426" lon="4.74273">
        <ele>170</ele>
        <time>2017-10-20T10:47:52Z</time>
      </trkpt>
      <trkpt lat="45.92429" lon="4.74267">
        <ele>170</ele>
        <time>2017-10-20T10:47:53Z</time>
      </trkpt>
      <trkpt lat="45.92434" lon="4.74258">
        <ele>170</ele>
        <time>2017-10-20T10:47:55Z</time>
      </trkpt>
      <trkpt lat="45.92437" lon="4.74253">
        <ele>170</ele>
        <time>2017-10-20T10:47:56Z</time>
      </trkpt>
      <trkpt lat="45.92441" lon="4.74242">
        <ele>171</ele>
        <time>2017-10-20T10:47:58Z</time>
      </trkpt>
      <trkpt lat="45.92443" lon="4.74238">
        <ele>171</ele>
        <time>2017-10-20T10:47:59Z</time>
      </trkpt>
      <trkpt lat="45.92445" lon="4.74233">
        <ele>171</ele>
        <time>2017-10-20T10:48:00Z</time>
      </trkpt>
      <trkpt lat="45.92448" lon="4.74226">
        <ele>171</ele>
        <time>2017-10-20T10:48:01Z</time>
      </trkpt>
      <trkpt lat="45.9245" lon="4.74221">
        <ele>171</ele>
        <time>2017-10-20T10:48:02Z</time>
      </trkpt>
      <trkpt lat="45.92453" lon="4.74215">
        <ele>171</ele>
        <time>2017-10-20T10:48:03Z</time>
      </trkpt>
      <trkpt lat="45.92456" lon="4.74209">
        <ele>171</ele>
        <time>2017-10-20T10:48:04Z</time>
      </trkpt>
      <trkpt lat="45.92458" lon="4.74204">
        <ele>171</ele>
        <time>2017-10-20T10:48:05Z</time>
      </trkpt>
      <trkpt lat="45.92462" lon="4.74194">
        <ele>171</ele>
        <time>2017-10-20T10:48:07Z</time>
      </trkpt>
      <trkpt lat="45.92464" lon="4.74189">
        <ele>171</ele>
        <time>2017-10-20T10:48:08Z</time>
      </trkpt>
      <trkpt lat="45.92467" lon="4.74179">
        <ele>171</ele>
        <time>2017-10-20T10:48:10Z</time>
      </trkpt>
      <trkpt lat="45.92467" lon="4.74174">
        <ele>171</ele>
        <time>2017-10-20T10:48:11Z</time>
      </trkpt>
      <trkpt lat="45.92471" lon="4.74164">
        <ele>171</ele>
        <time>2017-10-20T10:48:13Z</time>
      </trkpt>
      <trkpt lat="45.92472" lon="4.74159">
        <ele>171</ele>
        <time>2017-10-20T10:48:14Z</time>
      </trkpt>
      <trkpt lat="45.92476" lon="4.74148">
        <ele>171</ele>
        <time>2017-10-20T10:48:16Z</time>
      </trkpt>
      <trkpt lat="45.92478" lon="4.74143">
        <ele>171</ele>
        <time>2017-10-20T10:48:17Z</time>
      </trkpt>
      <trkpt lat="45.9248" lon="4.74137">
        <ele>171</ele>
        <time>2017-10-20T10:48:18Z</time>
      </trkpt>
      <trkpt lat="45.92483" lon="4.74131">
        <ele>171</ele>
        <time>2017-10-20T10:48:19Z</time>
      </trkpt>
      <trkpt lat="45.92487" lon="4.74121">
        <ele>172</ele>
        <time>2017-10-20T10:48:21Z</time>
      </trkpt>
      <trkpt lat="45.92489" lon="4.74116">
        <ele>172</ele>
        <time>2017-10-20T10:48:22Z</time>
      </trkpt>
      <trkpt lat="45.92494" lon="4.74108">
        <ele>172</ele>
        <time>2017-10-20T10:48:24Z</time>
      </trkpt>
      <trkpt lat="45.92497" lon="4.74102">
        <ele>172</ele>
        <time>2017-10-20T10:48:25Z</time>
      </trkpt>
      <trkpt lat="45.92504" lon="4.74095">
        <ele>172</ele>
        <time>2017-10-20T10:48:27Z</time>
      </trkpt>
      <trkpt lat="45.92507" lon="4.7409">
        <ele>172</ele>
        <time>2017-10-20T10:48:28Z</time>
      </trkpt>
      <trkpt lat="45.92511" lon="4.74085">
        <ele>172</ele>
        <time>2017-10-20T10:48:29Z</time>
      </trkpt>
      <trkpt lat="45.92515" lon="4.7408">
        <ele>172</ele>
        <time>2017-10-20T10:48:30Z</time>
      </trkpt>
      <trkpt lat="45.92519" lon="4.74075">
        <ele>172</ele>
        <time>2017-10-20T10:48:31Z</time>
      </trkpt>
      <trkpt lat="45.92523" lon="4.7407">
        <ele>172</ele>
        <time>2017-10-20T10:48:32Z</time>
      </trkpt>
      <trkpt lat="45.92527" lon="4.74065">
        <ele>172</ele>
        <time>2017-10-20T10:48:33Z</time>
      </trkpt>
      <trkpt lat="45.9253" lon="4.7406">
        <ele>172</ele>
        <time>2017-10-20T10:48:34Z</time>
      </trkpt>
      <trkpt lat="45.92536" lon="4.74051">
        <ele>172</ele>
        <time>2017-10-20T10:48:36Z</time>
      </trkpt>
      <trkpt lat="45.92539" lon="4.74047">
        <ele>172</ele>
        <time>2017-10-20T10:48:37Z</time>
      </trkpt>
      <trkpt lat="45.92544" lon="4.74038">
        <ele>172</ele>
        <time>2017-10-20T10:48:39Z</time>
      </trkpt>
      <trkpt lat="45.92547" lon="4.74033">
        <ele>172</ele>
        <time>2017-10-20T10:48:40Z</time>
      </trkpt>
      <trkpt lat="45.92551" lon="4.74022">
        <ele>172</ele>
        <time>2017-10-20T10:48:42Z</time>
      </trkpt>
      <trkpt lat="45.92551" lon="4.74017">
        <ele>172</ele>
        <time>2017-10-20T10:48:43Z</time>
      </trkpt>
      <trkpt lat="45.9255" lon="4.74004">
        <ele>172</ele>
        <time>2017-10-20T10:48:46Z</time>
      </trkpt>
      <trkpt lat="45.92548" lon="4.74">
        <ele>172</ele>
        <time>2017-10-20T10:48:47Z</time>
      </trkpt>
      <trkpt lat="45.9254" lon="4.73994">
        <ele>172</ele>
        <time>2017-10-20T10:48:49Z</time>
      </trkpt>
      <trkpt lat="45.92535" lon="4.73993">
        <ele>172</ele>
        <time>2017-10-20T10:48:50Z</time>
      </trkpt>
      <trkpt lat="45.92531" lon="4.7399">
        <ele>172</ele>
        <time>2017-10-20T10:48:51Z</time>
      </trkpt>
      <trkpt lat="45.92526" lon="4.73989">
        <ele>172</ele>
        <time>2017-10-20T10:48:52Z</time>
      </trkpt>
      <trkpt lat="45.92519" lon="4.73984">
        <ele>172</ele>
        <time>2017-10-20T10:48:54Z</time>
      </trkpt>
      <trkpt lat="45.92515" lon="4.73984">
        <ele>172</ele>
        <time>2017-10-20T10:48:55Z</time>
      </trkpt>
      <trkpt lat="45.92507" lon="4.73979">
        <ele>172</ele>
        <time>2017-10-20T10:48:57Z</time>
      </trkpt>
      <trkpt lat="45.92502" lon="4.73978">
        <ele>172</ele>
        <time>2017-10-20T10:48:58Z</time>
      </trkpt>
      <trkpt lat="45.92495" lon="4.73974">
        <ele>172</ele>
        <time>2017-10-20T10:49:00Z</time>
      </trkpt>
      <trkpt lat="45.92491" lon="4.73973">
        <ele>172</ele>
        <time>2017-10-20T10:49:01Z</time>
      </trkpt>
      <trkpt lat="45.92482" lon="4.73968">
        <ele>172</ele>
        <time>2017-10-20T10:49:03Z</time>
      </trkpt>
      <trkpt lat="45.92479" lon="4.73966">
        <ele>172</ele>
        <time>2017-10-20T10:49:04Z</time>
      </trkpt>
      <trkpt lat="45.92473" lon="4.73961">
        <ele>172</ele>
        <time>2017-10-20T10:49:06Z</time>
      </trkpt>
      <trkpt lat="45.9247" lon="4.73958">
        <ele>172</ele>
        <time>2017-10-20T10:49:07Z</time>
      </trkpt>
      <trkpt lat="45.92465" lon="4.73949">
        <ele>172</ele>
        <time>2017-10-20T10:49:09Z</time>
      </trkpt>
      <trkpt lat="45.92463" lon="4.73943">
        <ele>172</ele>
        <time>2017-10-20T10:49:10Z</time>
      </trkpt>
      <trkpt lat="45.92461" lon="4.73931">
        <ele>172</ele>
        <time>2017-10-20T10:49:12Z</time>
      </trkpt>
      <trkpt lat="45.92461" lon="4.73924">
        <ele>172</ele>
        <time>2017-10-20T10:49:13Z</time>
      </trkpt>
      <trkpt lat="45.92462" lon="4.73916">
        <ele>171</ele>
        <time>2017-10-20T10:49:14Z</time>
      </trkpt>
      <trkpt lat="45.92462" lon="4.73909">
        <ele>171</ele>
        <time>2017-10-20T10:49:15Z</time>
      </trkpt>
      <trkpt lat="45.92463" lon="4.73898">
        <ele>171</ele>
        <time>2017-10-20T10:49:17Z</time>
      </trkpt>
      <trkpt lat="45.92463" lon="4.73893">
        <ele>171</ele>
        <time>2017-10-20T10:49:18Z</time>
      </trkpt>
      <trkpt lat="45.92463" lon="4.73883">
        <ele>171</ele>
        <time>2017-10-20T10:49:20Z</time>
      </trkpt>
      <trkpt lat="45.92463" lon="4.73877">
        <ele>171</ele>
        <time>2017-10-20T10:49:21Z</time>
      </trkpt>
      <trkpt lat="45.92463" lon="4.73867">
        <ele>171</ele>
        <time>2017-10-20T10:49:23Z</time>
      </trkpt>
      <trkpt lat="45.92463" lon="4.73861">
        <ele>171</ele>
        <time>2017-10-20T10:49:24Z</time>
      </trkpt>
      <trkpt lat="45.92463" lon="4.7385">
        <ele>171</ele>
        <time>2017-10-20T10:49:26Z</time>
      </trkpt>
      <trkpt lat="45.92462" lon="4.73843">
        <ele>171</ele>
        <time>2017-10-20T10:49:27Z</time>
      </trkpt>
      <trkpt lat="45.92463" lon="4.73832">
        <ele>171</ele>
        <time>2017-10-20T10:49:29Z</time>
      </trkpt>
      <trkpt lat="45.92464" lon="4.73826">
        <ele>172</ele>
        <time>2017-10-20T10:49:30Z</time>
      </trkpt>
      <trkpt lat="45.92465" lon="4.73817">
        <ele>172</ele>
        <time>2017-10-20T10:49:32Z</time>
      </trkpt>
      <trkpt lat="45.92466" lon="4.73811">
        <ele>172</ele>
        <time>2017-10-20T10:49:33Z</time>
      </trkpt>
      <trkpt lat="45.92465" lon="4.73801">
        <ele>172</ele>
        <time>2017-10-20T10:49:35Z</time>
      </trkpt>
      <trkpt lat="45.92465" lon="4.73796">
        <ele>172</ele>
        <time>2017-10-20T10:49:36Z</time>
      </trkpt>
      <trkpt lat="45.92465" lon="4.73786">
        <ele>172</ele>
        <time>2017-10-20T10:49:38Z</time>
      </trkpt>
      <trkpt lat="45.92466" lon="4.73782">
        <ele>172</ele>
        <time>2017-10-20T10:49:39Z</time>
      </trkpt>
      <trkpt lat="45.92466" lon="4.73773">
        <ele>173</ele>
        <time>2017-10-20T10:49:41Z</time>
      </trkpt>
      <trkpt lat="45.92466" lon="4.73769">
        <ele>173</ele>
        <time>2017-10-20T10:49:42Z</time>
      </trkpt>
      <trkpt lat="45.92467" lon="4.73758">
        <ele>173</ele>
        <time>2017-10-20T10:49:44Z</time>
      </trkpt>
      <trkpt lat="45.92466" lon="4.73752">
        <ele>173</ele>
        <time>2017-10-20T10:49:45Z</time>
      </trkpt>
      <trkpt lat="45.92465" lon="4.73741">
        <ele>174</ele>
        <time>2017-10-20T10:49:47Z</time>
      </trkpt>
      <trkpt lat="45.92465" lon="4.73736">
        <ele>174</ele>
        <time>2017-10-20T10:49:48Z</time>
      </trkpt>
      <trkpt lat="45.92465" lon="4.73727">
        <ele>174</ele>
        <time>2017-10-20T10:49:50Z</time>
      </trkpt>
      <trkpt lat="45.92465" lon="4.73723">
        <ele>174</ele>
        <time>2017-10-20T10:49:51Z</time>
      </trkpt>
      <trkpt lat="45.92461" lon="4.73713">
        <ele>174</ele>
        <time>2017-10-20T10:50:25.301Z</time>
      </trkpt>
    </trkseg>
  </trk>
</gpx>